# Wetter Temperatur Luftdruck Luftfeuchtigkeit Sichtweite Windgeschwindigkeit Windrichtung Zeit
1 Clouds 11 1039 76 6000 2.57 90 16:59 01.02.2023
2 Clouds 7 1038 93 8000 1.03 0 14:22 01.02.2023
3 Clouds 6 1038 93 3000 1.54 340 13:19 01.02.2023
4 Clouds 4 1037 100 4000 2.06 360 12:26 01.02.2023
5 Clouds 6 1037 93 3000 1.03 0 11:49 01.02.2023
6 Rain 7 1036 93 3000 5.14 20 08:41 01.02.2023
7 Clouds 13 1034 66 10000 3.09 140 23:41 31.01.2023
8 Clouds 15 1033 54 10000 5.66 130 21:20 31.01.2023
9 Rain 15 1035 58 10000 6.17 100 19:24 31.01.2023
10 Rain 15 1035 58 10000 5.66 120 17:54 31.01.2023
11 Clouds 11 1036 81 6000 3.09 80 15:36 31.01.2023
12 Clouds 11 1036 81 6000 3.09 80 15:18 31.01.2023
13 Fog 10 1035 93 4000 3.6 110 13:43 31.01.2023
14 Fog 8 1033 100 4000 2.57 90 11:28 31.01.2023
15 Fog 8 1033 100 4000 2.57 60 10:25 31.01.2023
16 Fog 9 1033 93 4000 2.57 60 09:44 31.01.2023
17 Fog 8 1033 100 3000 2.57 70 08:36 31.01.2023
18 Fog 9 1034 93 2000 1.03 0 07:36 31.01.2023
19 Clouds 10 1034 87 10000 1.03 0 03:34 31.01.2023
20 Clouds 14 1032 66 10000 3.09 120 23:27 30.01.2023
21 Clouds 14 1032 62 10000 3.6 110 22:50 30.01.2023
22 Clouds 15 1032 58 10000 4.12 90 21:43 30.01.2023
23 Clouds 15 1033 62 10000 4.12 90 20:44 30.01.2023
24 Clouds 13 1035 66 10000 5.14 100 18:26 30.01.2023
25 Clouds 13 1036 71 10000 6.17 90 17:23 30.01.2023
26 Clouds 11 1036 76 6000 2.06 100 14:35 30.01.2023
27 Clouds 9 1011 87 6000 3.6 110 13:39 30.01.2023
28 Fog 7 1034 100 3000 3.09 110 11:30 30.01.2023
29 Fog 7 1033 100 3000 3.6 110 10:19 30.01.2023
30 Fog 7 1033 100 4000 3.6 110 09:52 30.01.2023
31 Fog 8 1034 93 4000 3.6 90 08:18 30.01.2023
32 Fog 8 1036 93 4000 3.6 70 02:33 30.01.2023
33 Clouds 11 1034 81 10000 4.63 110 23:35 29.01.2023
34 Clouds 11 1034 81 10000 4.63 110 22:38 29.01.2023
35 Clouds 11 1034 81 10000 3.6 140 21:53 29.01.2023
36 Rain 11 1035 76 10000 3.6 90 20:50 29.01.2023
37 Rain 11 1035 76 10000 3.6 90 20:18 29.01.2023
38 Rain 11 1036 76 8000 4.12 90 19:32 29.01.2023
39 Rain 9 1037 93 10000 3.6 90 17:51 29.01.2023
40 Rain 10 1037 81 8000 3.09 130 16:22 29.01.2023
41 Rain 9 1038 87 10000 1.54 250 15:50 29.01.2023
42 Rain 9 1037 87 6000 1.03 0 13:39 29.01.2023
43 Clouds 8 1036 87 6000 1.03 0 12:53 29.01.2023
44 Clouds 8 1036 87 6000 1.03 0 12:24 29.01.2023
45 Clouds 7 1035 100 10000 1.03 0 11:58 29.01.2023
46 Rain 7 1035 100 10000 1.03 0 11:33 29.01.2023
47 Fog 7 1035 93 4000 2.57 80 10:20 29.01.2023
48 Rain 7 1037 93 6000 2.57 360 07:48 29.01.2023
49 Clouds 10 1037 87 10000 4.12 90 03:42 29.01.2023
50 Clouds 14 1034 58 10000 4.12 120 23:46 28.01.2023
51 Clouds 15 1035 50 10000 5.14 70 20:45 28.01.2023
52 Rain 14 1036 58 10000 5.14 70 19:53 28.01.2023
53 Rain 13 1037 66 10000 5.66 90 18:39 28.01.2023
54 Clouds 13 1037 71 10000 3.09 110 17:24 28.01.2023
55 Clouds 12 1038 71 10000 2.57 110 16:28 28.01.2023
56 Clouds 10 1038 76 10000 1.03 0 15:49 28.01.2023
57 Clouds 10 1038 76 10000 1.03 0 15:22 28.01.2023
58 Fog 8 1037 93 4000 2.57 130 13:44 28.01.2023
59 Fog 7 1036 100 2500 2.57 200 11:55 28.01.2023
60 Fog 8 1035 93 4000 3.6 70 10:34 28.01.2023
61 Fog 9 1034 93 4000 2.57 80 08:53 28.01.2023
62 Clouds 10 1034 66 10000 3.09 60 01:48 28.01.2023
63 Clouds 12 1033 62 10000 4.12 40 00:27 28.01.2023
64 Clouds 17 1032 41 10000 4.12 100 21:54 27.01.2023
65 Clouds 14 1036 58 8000 4.63 80 18:54 27.01.2023
66 Clouds 14 1036 62 10000 4.63 80 17:58 27.01.2023
67 Clouds 14 1036 62 10000 4.63 80 17:19 27.01.2023
68 Clouds 11 1037 76 10000 4.63 80 16:35 27.01.2023
69 Clouds 10 1037 81 10000 3.6 100 15:24 27.01.2023
70 Clouds 7 1037 100 6000 2.57 70 14:25 27.01.2023
71 Mist 8 1036 93 4000 5.14 110 13:31 27.01.2023
72 Fog 6 1033 100 4000 2.57 90 08:47 27.01.2023
73 Fog 9 1034 93 4000 3.09 120 06:21 27.01.2023
74 Clouds 14 1032 50 10000 2.57 70 00:24 27.01.2023
75 Clouds 16 1032 38 10000 5.14 90 21:43 26.01.2023
76 Clouds 15 1033 44 10000 5.66 100 20:39 26.01.2023
77 Clouds 15 1034 41 10000 6.17 80 19:54 26.01.2023
78 Rain 15 1036 58 10000 7.2 120 17:55 26.01.2023
79 Clouds 13 1036 62 10000 5.66 110 16:29 26.01.2023
80 Clouds 13 1036 62 10000 5.66 100 15:58 26.01.2023
81 Clouds 13 1036 62 10000 5.66 100 15:38 26.01.2023
82 Clouds 13 1036 62 10000 5.66 100 15:20 26.01.2023
83 Clouds 10 1035 76 10000 3.6 70 13:32 26.01.2023
84 Fog 7 1035 100 4000 3.09 80 12:24 26.01.2023
85 Fog 7 1034 100 3000 2.57 80 10:33 26.01.2023
86 Clouds 6 1033 93 10000 2.57 60 09:44 26.01.2023
87 Clouds 7 1033 93 10000 2.57 60 08:26 26.01.2023
88 Clouds 9 1034 76 10000 1.03 0 06:27 26.01.2023
89 Clouds 12 1032 53 10000 4.63 70 23:40 25.01.2023
90 Clouds 11 1033 61 10000 6.17 60 22:36 25.01.2023
91 Clouds 15 1033 50 10000 8.23 130 21:25 25.01.2023
92 Clouds 17 1033 38 10000 5.66 120 20:48 25.01.2023
93 Clouds 16 1035 35 10000 4.63 70 18:24 25.01.2023
94 Clouds 14 1036 47 10000 3.6 50 15:57 25.01.2023
95 Clouds 8 1036 81 10000 1.03 0 13:58 25.01.2023
96 Rain 7 1035 87 8000 6.17 90 11:38 25.01.2023
97 Rain 7 1034 81 10000 5.14 30 09:52 25.01.2023
98 Rain 7 1035 87 8000 7.72 60 08:59 25.01.2023
99 Clouds 13 1034 54 10000 3.6 120 01:53 25.01.2023
100 Clouds 16 1032 35 10000 5.14 110 00:26 25.01.2023
101 Clouds 19 1032 22 10000 4.63 150 21:54 24.01.2023
102 Clouds 19 1032 22 10000 4.63 150 21:26 24.01.2023
103 Clouds 18 1034 29 10000 3.6 120 19:18 24.01.2023
104 Clouds 17 1035 33 10000 2.06 160 18:29 24.01.2023
105 Clouds 15 1037 41 10000 2.57 220 17:18 24.01.2023
106 Clouds 15 1038 41 10000 2.06 110 16:43 24.01.2023
107 Clouds 9 1038 76 10000 2.06 80 13:51 24.01.2023
108 Clouds 7 1036 81 10000 1.03 0 11:59 24.01.2023
109 Rain 9 1036 76 10000 4.63 110 08:43 24.01.2023
110 Rain 9 1036 76 10000 4.63 110 08:18 24.01.2023
111 Clouds 9 1037 81 10000 4.63 110 07:48 24.01.2023
112 Clouds 13 1036 35 10000 3.09 80 02:43 24.01.2023
113 Clouds 16 1034 24 10000 5.14 80 00:40 24.01.2023
114 Clouds 17 1033 23 10000 6.69 90 22:32 23.01.2023
115 Clouds 17 1035 26 10000 6.69 100 20:43 23.01.2023
116 Clouds 18 1037 33 10000 6.69 110 19:22 23.01.2023
117 Clouds 17 1038 31 10000 3.09 60 17:20 23.01.2023
118 Clouds 14 1038 47 10000 4.12 110 15:32 23.01.2023
119 Clouds 10 1038 61 10000 2.57 90 13:56 23.01.2023
120 Clouds 8 1037 81 10000 3.6 40 12:55 23.01.2023
121 Fog 8 1036 93 4000 3.6 100 11:46 23.01.2023
122 Fog 8 1036 93 4000 3.6 100 11:28 23.01.2023
123 Fog 8 1036 93 4000 3.6 100 11:28 23.01.2023
124 Fog 8 1035 93 4000 2.06 80 08:25 23.01.2023
125 Clouds 15 1033 38 10000 4.63 60 00:22 23.01.2023
126 Clouds 18 1033 27 10000 6.69 80 21:51 22.01.2023
127 Clouds 18 1033 27 10000 6.69 80 21:19 22.01.2023
128 Clouds 18 1035 27 10000 6.17 90 19:56 22.01.2023
129 Clouds 18 1035 27 10000 6.17 90 19:37 22.01.2023
130 Clouds 17 1036 31 10000 7.2 50 18:37 22.01.2023
131 Clouds 17 1036 33 10000 7.2 80 17:55 22.01.2023
132 Clouds 17 1036 33 10000 7.2 80 17:24 22.01.2023
133 Clouds 13 1037 50 10000 5.66 80 15:29 22.01.2023
134 Clouds 12 1037 57 10000 5.66 40 14:41 22.01.2023
135 Clouds 10 1037 76 6000 3.6 120 13:27 22.01.2023
136 Clouds 8 1036 87 6000 3.09 100 12:31 22.01.2023
137 Fog 7 1035 87 4000 2.57 110 11:33 22.01.2023
138 Clouds 7 1034 93 10000 3.6 100 09:35 22.01.2023
139 Clouds 9 1035 76 10000 1.54 100 04:22 22.01.2023
140 Clouds 18 1031 23 10000 5.66 100 23:44 21.01.2023
141 Clouds 19 1031 22 10000 4.63 110 22:55 21.01.2023
142 Clouds 19 1032 20 10000 5.14 70 21:29 21.01.2023
143 Clouds 18 1035 23 10000 6.69 140 18:53 21.01.2023
144 Clouds 18 1035 23 10000 6.69 140 18:53 21.01.2023
145 Clouds 15 1036 35 10000 4.12 120 15:57 21.01.2023
146 Clouds 12 1036 62 10000 1.03 0 13:50 21.01.2023
147 Clouds 9 1036 81 10000 1.54 80 12:56 21.01.2023
148 Fog 7 1035 100 4000 2.57 90 11:39 21.01.2023
149 Fog 8 1035 93 4000 2.06 90 10:48 21.01.2023
150 Fog 7 1035 93 4000 1.03 0 08:31 21.01.2023
151 Clouds 10 1036 76 10000 2.57 110 04:29 21.01.2023
152 Clouds 19 1033 25 10000 4.63 100 22:28 20.01.2023
153 Clouds 18 1034 29 10000 5.14 60 21:37 20.01.2023
154 Clouds 17 1035 33 10000 5.14 80 20:42 20.01.2023
155 Clouds 14 1038 40 10000 4.12 110 18:36 20.01.2023
156 Clouds 12 1040 57 10000 2.57 140 15:53 20.01.2023
157 Clouds 10 1039 66 10000 2.06 70 14:41 20.01.2023
158 Fog 7 1039 87 4000 2.06 50 12:45 20.01.2023
159 Fog 6 1037 100 4000 2.06 70 09:37 20.01.2023
160 Fog 7 1037 93 4000 2.57 130 08:22 20.01.2023
161 Clouds 9 1038 81 10000 3.6 80 02:34 20.01.2023
162 Clouds 13 1036 54 10000 4.63 90 22:59 19.01.2023
163 Clouds 13 1036 54 10000 4.63 90 22:32 19.01.2023
164 Clouds 13 1038 58 10000 7.2 90 20:22 19.01.2023
165 Clouds 10 1040 81 8000 6.69 130 18:58 19.01.2023
166 Clouds 10 1040 76 6000 3.6 90 15:37 19.01.2023
167 Clouds 7 1037 87 10000 3.6 80 10:53 19.01.2023
168 Rain 6 1038 77 5000 7.2 90 08:59 19.01.2023
169 Clouds 16 1035 38 10000 6.17 120 23:35 18.01.2023
170 Clouds 18 1036 29 10000 5.66 120 20:55 18.01.2023
171 Clouds 18 1036 29 10000 5.66 120 20:19 18.01.2023
172 Clouds 17 1037 29 10000 7.2 100 19:37 18.01.2023
173 Clouds 17 1037 29 10000 7.2 100 19:37 18.01.2023
174 Clouds 15 1038 47 10000 6.17 100 17:33 18.01.2023
175 Clouds 11 1040 66 10000 4.63 120 15:18 18.01.2023
176 Clouds 9 1039 76 6000 3.6 120 13:27 18.01.2023
177 Clouds 6 1036 100 10000 2.57 100 10:41 18.01.2023
178 Clouds 8 1036 87 10000 2.06 120 08:18 18.01.2023
179 Clouds 13 1034 50 10000 5.66 100 01:26 18.01.2023
180 Clouds 17 1033 31 10000 6.17 90 23:22 17.01.2023
181 Clouds 18 1034 25 10000 6.17 150 20:31 17.01.2023
182 Clouds 18 1035 25 10000 6.17 110 19:27 17.01.2023
183 Clouds 15 1037 44 10000 4.63 130 17:56 17.01.2023
184 Clouds 13 1038 58 10000 4.12 130 15:57 17.01.2023
185 Clouds 10 1038 76 10000 4.12 110 14:52 17.01.2023
186 Clouds 9 1037 81 6000 4.12 100 13:46 17.01.2023
187 Clouds 8 1036 81 10000 2.57 100 11:51 17.01.2023
188 Fog 7 1035 93 4000 3.6 80 10:49 17.01.2023
189 Clouds 7 1035 93 10000 3.6 70 09:31 17.01.2023
190 Clouds 8 1036 75 10000 3.09 70 07:50 17.01.2023
191 Clouds 11 1036 53 10000 4.12 50 03:52 17.01.2023
192 Clouds 16 1032 35 10000 5.66 120 00:54 17.01.2023
193 Clouds 17 1032 33 10000 6.17 50 22:58 16.01.2023
194 Clouds 18 1033 27 10000 5.66 100 21:47 16.01.2023
195 Clouds 19 1035 17 10000 5.14 140 19:59 16.01.2023
196 Clouds 19 1035 17 10000 5.14 140 19:26 16.01.2023
197 Clouds 18 1036 20 10000 3.6 130 18:49 16.01.2023
198 Clouds 18 1036 20 10000 3.6 130 18:19 16.01.2023
199 Clouds 15 1037 38 10000 4.12 140 17:20 16.01.2023
200 Clouds 10 1038 66 10000 3.09 140 14:28 16.01.2023
201 Clouds 8 1037 81 6000 4.12 110 13:37 16.01.2023
202 Fog 6 1035 93 4000 2.57 110 10:27 16.01.2023
203 Clouds 5 1035 56 10000 2.06 90 08:44 16.01.2023
204 Clouds 18 1033 25 10000 7.2 40 22:58 15.01.2023
205 Clouds 17 1034 29 10000 6.69 70 21:25 15.01.2023
206 Clouds 18 1035 23 10000 7.72 90 20:31 15.01.2023
207 Clouds 19 1036 27 10000 5.14 90 19:34 15.01.2023
208 Clouds 16 1037 24 10000 5.14 120 17:38 15.01.2023
209 Clouds 13 1039 50 10000 2.57 150 15:18 15.01.2023
210 Fog 5 1037 93 4000 2.06 90 12:29 15.01.2023
211 Fog 5 1037 93 4000 3.09 80 11:29 15.01.2023
212 Fog 5 1037 93 4000 3.09 80 11:29 15.01.2023
213 Fog 6 1036 93 4000 3.09 110 10:27 15.01.2023
214 Fog 5 1036 100 4000 3.09 70 08:54 15.01.2023
215 Clouds 14 1032 37 10000 5.66 60 00:35 15.01.2023
216 Clouds 18 1032 13 10000 5.14 250 22:44 14.01.2023
217 Clouds 18 1033 12 10000 5.14 240 21:54 14.01.2023
218 Clouds 18 1033 12 10000 5.14 240 21:36 14.01.2023
219 Clouds 18 1033 12 10000 5.14 240 21:36 14.01.2023
220 Clouds 18 1033 12 10000 5.14 240 21:18 14.01.2023
221 Clouds 18 1033 12 10000 5.14 240 21:18 14.01.2023
222 Clouds 18 1034 11 10000 5.14 220 20:28 14.01.2023
223 Clouds 16 1035 12 10000 5.14 230 18:18 14.01.2023
224 Clouds 12 1038 17 10000 2.06 240 15:41 14.01.2023
225 Clouds 12 1038 17 10000 2.06 240 15:23 14.01.2023
226 Clouds 10 1037 15 10000 1.03 0 14:19 14.01.2023
227 Clouds 5 1036 20 10000 2.06 350 12:50 14.01.2023
228 Clouds 2 1034 40 10000 1.03 0 10:50 14.01.2023
229 Clear 8 1035 15 10000 1.03 0 08:41 14.01.2023
230 Clouds 14 1034 30 10000 4.63 250 02:36 14.01.2023
231 Clouds 20 1031 15 10000 4.63 290 22:59 13.01.2023
232 Clouds 20 1031 15 10000 4.63 290 22:41 13.01.2023
233 Clouds 20 1031 15 10000 4.63 250 21:58 13.01.2023
234 Clouds 21 1032 15 10000 4.63 280 20:35 13.01.2023
235 Clouds 20 1034 17 10000 6.17 250 19:27 13.01.2023
236 Clouds 18 1035 25 10000 4.63 280 17:40 13.01.2023
237 Clouds 13 1036 46 10000 3.6 290 14:58 13.01.2023
238 Clouds 9 1035 70 10000 1.03 0 12:25 13.01.2023
239 Clouds 9 1035 70 10000 1.03 0 12:25 13.01.2023
240 Fog 5 1033 100 4000 2.06 90 10:41 13.01.2023
241 Fog 5 1033 100 4000 2.06 90 10:23 13.01.2023
242 Fog 5 1033 93 4000 2.06 90 09:44 13.01.2023
243 Fog 5 1034 87 4000 2.06 100 08:51 13.01.2023
244 Clouds 9 1035 87 10000 2.06 90 06:57 13.01.2023
245 Clouds 9 1035 87 10000 2.06 90 06:27 13.01.2023
246 Clouds 13 1035 43 10000 5.66 290 02:20 13.01.2023
247 Clouds 18 1032 23 10000 3.09 90 22:52 12.01.2023
248 Clouds 17 1034 26 10000 5.66 220 21:56 12.01.2023
249 Clouds 18 1034 21 10000 4.12 140 20:52 12.01.2023
250 Clouds 17 1037 29 10000 2.06 40 18:26 12.01.2023
251 Clouds 16 1039 44 10000 2.57 120 16:59 12.01.2023
252 Clouds 13 1039 62 10000 2.06 100 14:58 12.01.2023
253 Clouds 13 1039 62 10000 2.06 100 14:38 12.01.2023
254 Clouds 13 1039 62 10000 2.06 100 14:18 12.01.2023
255 Clouds 7 1038 75 8000 2.06 60 12:29 12.01.2023
256 Clouds 5 1036 75 10000 1.03 0 10:26 12.01.2023
257 Clouds 5 1037 87 10000 1.54 100 07:27 12.01.2023
258 Clouds 14 1035 35 10000 5.14 50 00:32 12.01.2023
259 Clouds 16 1034 30 10000 5.14 60 23:57 11.01.2023
260 Clouds 16 1034 30 10000 5.14 60 23:37 11.01.2023
261 Clouds 16 1034 30 10000 5.14 60 23:19 11.01.2023
262 Clouds 19 1035 29 10000 5.66 50 21:22 11.01.2023
263 Clouds 18 1038 31 10000 4.63 100 18:51 11.01.2023
264 Clouds 16 1039 38 10000 3.09 140 17:37 11.01.2023
265 Clouds 13 1040 62 10000 3.09 140 15:43 11.01.2023
266 Clouds 10 1039 81 6000 3.6 110 13:59 11.01.2023
267 Fog 8 1038 93 4000 2.57 80 12:33 11.01.2023
268 Fog 6 1037 100 4000 2.57 90 11:39 11.01.2023
269 Fog 7 1037 93 4000 3.09 80 09:29 11.01.2023
270 Fog 7 1037 100 4000 2.57 70 07:30 11.01.2023
271 Fog 8 1038 93 4000 2.06 60 06:24 11.01.2023
272 Clouds 17 1033 31 10000 5.14 120 23:45 10.01.2023
273 Clouds 18 1033 23 10000 4.12 230 22:19 10.01.2023
274 Clouds 19 1033 20 10000 4.12 200 21:20 10.01.2023
275 Clouds 17 1035 29 10000 3.09 220 19:54 10.01.2023
276 Clouds 17 1035 29 10000 3.09 220 19:21 10.01.2023
277 Clouds 17 1036 33 10000 3.6 200 18:31 10.01.2023
278 Clouds 15 1037 38 10000 2.06 130 17:20 10.01.2023
279 Clouds 13 1038 66 10000 2.06 180 15:33 10.01.2023
280 Clouds 11 1038 76 10000 2.57 100 14:47 10.01.2023
281 Clouds 8 1036 81 10000 2.06 50 12:54 10.01.2023
282 Fog 8 1036 93 4000 2.57 90 09:43 10.01.2023
283 Fog 8 1036 93 4000 4.12 90 08:37 10.01.2023
284 Fog 8 1036 100 4000 3.6 100 07:55 10.01.2023
285 Fog 8 1036 100 4000 3.6 100 07:23 10.01.2023
286 Clouds 15 1033 47 10000 5.14 100 00:29 10.01.2023
287 Clouds 18 1034 29 10000 5.14 260 21:58 09.01.2023
288 Clouds 18 1035 29 10000 4.63 290 20:50 09.01.2023
289 Clouds 18 1036 29 10000 3.09 150 19:54 09.01.2023
290 Clouds 16 1037 41 10000 3.6 140 18:23 09.01.2023
291 Clouds 14 1037 50 10000 3.6 170 17:49 09.01.2023
292 Clouds 13 1038 58 10000 3.09 140 16:34 09.01.2023
293 Clouds 11 1038 66 10000 3.6 150 15:31 09.01.2023
294 Clouds 10 1038 76 10000 3.6 100 14:53 09.01.2023
295 Clouds 10 1038 76 10000 3.6 100 14:33 09.01.2023
296 Fog 8 1037 93 4000 3.09 110 12:54 09.01.2023
297 Fog 7 1036 93 4000 3.09 100 11:51 09.01.2023
298 Fog 7 1036 93 4000 3.09 100 11:19 09.01.2023
299 Fog 8 1038 93 4000 4.12 120 06:56 09.01.2023
300 Clouds 9 1038 87 10000 4.63 110 02:55 09.01.2023
301 Clouds 12 1035 46 10000 2.57 30 00:58 09.01.2023
302 Thunderstorm 12 1036 71 10000 5.14 30 21:50 08.01.2023
303 Thunderstorm 15 1035 44 10000 6.17 120 21:21 08.01.2023
304 Clouds 16 1035 44 10000 4.12 60 20:33 08.01.2023
305 Clouds 15 1039 50 10000 2.57 90 17:59 08.01.2023
306 Clouds 15 1039 50 10000 2.57 90 17:21 08.01.2023
307 Clouds 12 1040 66 10000 3.6 130 15:49 08.01.2023
308 Clouds 12 1040 66 10000 3.6 130 15:49 08.01.2023
309 Clouds 12 1040 66 10000 3.6 130 15:30 08.01.2023
310 Clouds 9 1039 81 6000 3.09 110 13:58 08.01.2023
311 Clouds 9 1039 81 6000 3.09 110 13:29 08.01.2023
312 Fog 8 1039 93 4000 4.63 90 12:24 08.01.2023
313 Fog 8 1037 93 4000 3.09 80 09:39 08.01.2023
314 Fog 8 1037 93 4000 3.09 80 09:18 08.01.2023
315 Clouds 7 1037 100 10000 3.09 100 07:41 08.01.2023
316 Clouds 12 1035 53 10000 5.14 50 23:58 07.01.2023
317 Clouds 14 1035 50 10000 5.66 100 22:46 07.01.2023
318 Clouds 14 1035 50 10000 5.66 100 22:22 07.01.2023
319 Clouds 15 1036 47 10000 5.66 60 21:40 07.01.2023
320 Clouds 16 1036 41 10000 5.14 150 20:31 07.01.2023
321 Clouds 16 1037 47 10000 3.6 170 19:28 07.01.2023
322 Clouds 13 1038 58 10000 3.09 140 18:23 07.01.2023
323 Clouds 13 1040 58 10000 1.03 0 17:43 07.01.2023
324 Clouds 11 1040 66 10000 2.57 120 16:54 07.01.2023
325 Clouds 11 1040 66 10000 2.57 120 16:29 07.01.2023
326 Clouds 11 1040 66 10000 2.57 120 16:29 07.01.2023
327 Clouds 10 1040 76 8000 2.57 130 15:40 07.01.2023
328 Clouds 10 1040 76 8000 2.57 130 15:22 07.01.2023
329 Clouds 8 1040 81 6000 1.03 0 14:25 07.01.2023
330 Fog 7 1040 87 4000 3.09 140 13:43 07.01.2023
331 Fog 7 1040 87 4000 3.09 140 13:19 07.01.2023
332 Fog 6 1039 93 4000 2.57 80 12:21 07.01.2023
333 Fog 5 1037 93 4000 1.54 60 10:29 07.01.2023
334 Fog 6 1037 93 4000 2.06 110 09:50 07.01.2023
335 Fog 6 1037 100 4000 4.63 80 08:18 07.01.2023
336 Fog 6 1037 100 4000 5.14 90 07:42 07.01.2023
337 Fog 7 1037 93 3000 5.66 90 06:31 07.01.2023
338 Clouds 13 1034 62 10000 2.57 50 23:34 06.01.2023
339 Clouds 14 1034 50 10000 2.57 70 22:21 06.01.2023
340 Clouds 14 1034 58 10000 4.12 60 21:50 06.01.2023
341 Clouds 15 1035 54 8000 3.09 50 20:38 06.01.2023
342 Clouds 10 1036 81 8000 3.6 360 19:55 06.01.2023
343 Clouds 10 1036 81 8000 3.6 360 19:37 06.01.2023
344 Clouds 10 1036 81 8000 3.6 360 19:19 06.01.2023
345 Clouds 13 1037 62 10000 4.12 100 17:55 06.01.2023
346 Clouds 11 1038 71 10000 4.63 100 16:52 06.01.2023
347 Clouds 11 1038 71 10000 4.63 100 16:22 06.01.2023
348 Clouds 10 1038 81 6000 4.12 110 15:52 06.01.2023
349 Clouds 10 1038 81 6000 4.12 110 15:29 06.01.2023
350 Clouds 8 1037 87 6000 5.14 100 13:42 06.01.2023
351 Fog 6 1036 100 4000 2.57 110 11:50 06.01.2023
352 Fog 6 1035 100 4000 3.09 100 10:34 06.01.2023
353 Fog 7 1036 93 4000 4.12 100 08:42 06.01.2023
354 Fog 8 1037 87 4000 2.06 10 05:22 06.01.2023
355 Clouds 12 1034 76 10000 5.14 110 22:56 05.01.2023
356 Clouds 12 1034 76 10000 5.14 110 22:29 05.01.2023
357 Clouds 12 1035 76 10000 5.66 100 20:24 05.01.2023
358 Clouds 6 1037 100 8000 4.63 50 17:30 05.01.2023
359 Clouds 10 1037 81 10000 3.09 140 16:38 05.01.2023
360 Clouds 9 1038 87 8000 2.06 280 15:48 05.01.2023
361 Clouds 7 1037 100 8000 1.03 0 14:56 05.01.2023
362 Clouds 8 1037 81 6000 1.03 0 13:28 05.01.2023
363 Clouds 7 1036 87 6000 1.03 0 12:38 05.01.2023
364 Fog 7 1035 100 4000 2.06 90 09:57 05.01.2023
365 Fog 7 1035 100 4000 2.06 90 09:33 05.01.2023
366 Fog 7 1035 100 4000 4.12 110 07:21 05.01.2023
367 Fog 8 1036 93 4000 3.09 110 06:37 05.01.2023
368 Clouds 11 1032 81 10000 4.63 90 00:27 05.01.2023
369 Clouds 12 1032 57 10000 2.57 280 22:18 04.01.2023
370 Clouds 12 1033 76 10000 1.03 0 21:29 04.01.2023
371 Clouds 10 1034 76 10000 2.57 340 19:58 04.01.2023
372 Rain 10 1034 76 10000 2.57 340 19:34 04.01.2023
373 Thunderstorm 9 1034 81 7000 5.14 130 18:59 04.01.2023
374 Clouds 14 1035 66 10000 2.06 120 16:32 04.01.2023
375 Clouds 13 1035 66 10000 1.03 0 15:56 04.01.2023
376 Clouds 13 1035 76 10000 1.03 0 14:47 04.01.2023
377 Fog 7 1033 100 4000 2.57 120 11:45 04.01.2023
378 Fog 7 1033 100 4000 2.57 120 11:22 04.01.2023
379 Fog 9 1033 93 4000 3.09 120 10:43 04.01.2023
380 Fog 9 1033 93 4000 3.09 120 10:23 04.01.2023
381 Fog 9 1033 93 4000 1.03 0 08:55 04.01.2023
382 Fog 10 1034 93 4000 2.06 120 05:36 04.01.2023
383 Clouds 13 1031 66 10000 3.6 110 00:32 04.01.2023
384 Clouds 14 1031 58 10000 2.06 50 23:35 03.01.2023
385 Clouds 13 1031 66 10000 2.06 300 22:54 03.01.2023
386 Rain 13 1033 66 10000 3.09 310 20:53 03.01.2023
387 Clouds 13 1033 71 10000 3.09 340 19:26 03.01.2023
388 Clouds 15 1035 54 10000 2.57 260 17:37 03.01.2023
389 Clouds 14 1035 62 10000 2.57 270 16:36 03.01.2023
390 Clouds 10 1035 76 10000 1.03 0 13:55 03.01.2023
391 Clouds 10 1035 76 10000 1.03 0 13:30 03.01.2023
392 Clouds 8 1035 87 10000 1.03 0 12:57 03.01.2023
393 Clouds 8 1035 87 10000 1.03 0 12:30 03.01.2023
394 Clouds 8 1035 87 10000 1.03 0 12:30 03.01.2023
395 Clouds 8 1034 93 10000 1.03 0 11:21 03.01.2023
396 Clouds 8 1035 93 10000 2.06 160 07:29 03.01.2023
397 Clouds 10 1037 87 10000 2.06 340 04:22 03.01.2023
398 Clouds 9 1036 93 10000 2.06 60 03:43 03.01.2023
399 Clouds 11 1034 81 10000 2.06 80 01:39 03.01.2023
400 Clouds 12 1034 71 10000 5.66 10 22:42 02.01.2023
401 Clouds 12 1034 71 10000 5.66 10 22:18 02.01.2023
402 Clouds 13 1035 62 10000 2.06 270 20:40 02.01.2023
403 Rain 12 1036 76 10000 2.57 260 19:44 02.01.2023
404 Clouds 11 1038 76 10000 1.03 0 17:18 02.01.2023
405 Rain 6 1040 93 4000 3.09 350 14:52 02.01.2023
406 Clouds 6 1038 100 5000 2.57 310 13:23 02.01.2023
407 Clouds 7 1037 100 5000 2.57 250 11:41 02.01.2023
408 Rain 7 1037 100 6000 2.57 230 10:34 02.01.2023
409 Thunderstorm 7 1037 100 4000 7.2 190 07:33 02.01.2023
410 Rain 10 1034 87 8000 3.6 40 00:58 02.01.2023
411 Clouds 18 1033 39 10000 4.63 300 21:58 01.01.2023
412 Clouds 18 1033 39 10000 4.63 300 21:24 01.01.2023
413 Clouds 18 1034 36 10000 3.09 90 20:46 01.01.2023
414 Clouds 18 1035 36 10000 4.12 120 19:42 01.01.2023
415 Clouds 14 1038 54 10000 5.14 90 17:55 01.01.2023
416 Clouds 14 1038 54 10000 5.14 90 17:20 01.01.2023
417 Clouds 12 1038 71 10000 5.14 130 16:31 01.01.2023
418 Clouds 12 1039 66 10000 4.12 140 14:47 01.01.2023
419 Clouds 12 1038 66 8000 1.54 120 13:29 01.01.2023
420 Clouds 9 1037 87 6000 1.03 0 12:32 01.01.2023
421 Fog 7 1036 93 4000 1.03 0 11:36 01.01.2023
422 Fog 9 1036 87 4000 1.03 0 09:53 01.01.2023
423 Fog 9 1036 93 4000 2.06 250 08:46 01.01.2023
424 Fog 9 1036 93 4000 2.06 250 08:18 01.01.2023
425 Fog 9 1036 93 4000 2.06 250 08:18 01.01.2023
426 Fog 9 1037 93 4000 3.09 290 06:51 01.01.2023
427 Clouds 13 1034 54 10000 2.06 70 00:33 01.01.2023
428 Clouds 14 1033 50 10000 3.6 10 23:40 31.12.2022
429 Clouds 15 1033 44 10000 4.12 40 22:30 31.12.2022
430 Clouds 17 1034 38 10000 5.66 70 21:25 31.12.2022
431 Clouds 17 1035 38 10000 6.69 50 20:34 31.12.2022
432 Clouds 16 1037 44 10000 4.12 60 18:59 31.12.2022
433 Clouds 16 1037 44 10000 4.12 60 18:39 31.12.2022
434 Clouds 15 1037 47 10000 4.63 70 17:58 31.12.2022
435 Clouds 15 1037 47 10000 4.63 70 17:34 31.12.2022
436 Clouds 14 1038 50 10000 6.17 70 16:32 31.12.2022
437 Clouds 14 1038 50 10000 5.66 50 15:54 31.12.2022
438 Clouds 13 1038 50 10000 4.63 60 14:35 31.12.2022
439 Clouds 11 1037 61 10000 4.12 60 13:28 31.12.2022
440 Fog 7 1037 100 4000 2.57 70 12:24 31.12.2022
441 Fog 6 1036 100 4000 1.54 70 11:56 31.12.2022
442 Fog 6 1036 100 4000 1.54 70 11:38 31.12.2022
443 Fog 6 1036 100 4000 1.54 70 11:38 31.12.2022
444 Fog 8 1036 93 4000 1.54 150 10:18 31.12.2022
445 Clouds 8 1036 81 10000 1.03 0 09:50 31.12.2022
446 Clouds 7 1036 81 10000 1.03 0 08:30 31.12.2022
447 Clouds 9 1038 87 10000 2.57 250 04:52 31.12.2022
448 Clouds 14 1034 50 10000 3.09 30 00:33 31.12.2022
449 Clouds 14 1033 58 10000 2.57 250 23:20 30.12.2022
450 Clouds 14 1033 58 10000 2.06 120 22:18 30.12.2022
451 Clouds 15 1033 47 10000 3.6 100 21:38 30.12.2022
452 Clouds 15 1033 47 10000 3.6 100 21:18 30.12.2022
453 Clouds 16 1036 51 10000 6.17 90 18:28 30.12.2022
454 Clouds 15 1037 54 10000 4.63 120 17:34 30.12.2022
455 Clouds 15 1037 54 10000 4.63 120 17:34 30.12.2022
456 Clouds 15 1038 54 10000 4.12 120 16:46 30.12.2022
457 Clouds 12 1038 66 10000 2.06 110 14:55 30.12.2022
458 Fog 9 1037 93 4000 2.06 50 12:54 30.12.2022
459 Fog 8 1037 93 4000 2.06 80 08:24 30.12.2022
460 Clouds 10 1036 66 10000 4.12 60 03:55 30.12.2022
461 Clouds 11 1036 57 10000 3.6 70 02:26 30.12.2022
462 Clouds 14 1034 50 10000 5.14 50 23:45 29.12.2022
463 Clouds 15 1034 44 10000 3.09 80 21:55 29.12.2022
464 Clouds 15 1035 47 10000 4.12 50 20:54 29.12.2022
465 Clouds 15 1035 47 10000 4.12 50 20:34 29.12.2022
466 Rain 15 1037 54 10000 5.14 90 18:38 29.12.2022
467 Clouds 15 1037 54 10000 4.63 100 17:53 29.12.2022
468 Clouds 15 1037 54 10000 4.63 100 17:25 29.12.2022
469 Clouds 15 1038 58 10000 4.12 120 16:54 29.12.2022
470 Clouds 14 1038 62 10000 4.12 120 15:49 29.12.2022
471 Clouds 9 1038 87 6000 2.57 130 13:37 29.12.2022
472 Clouds 8 1036 87 10000 2.57 90 11:48 29.12.2022
473 Clouds 8 1036 81 10000 1.03 0 09:29 29.12.2022
474 Clouds 12 1036 50 10000 2.57 60 02:31 29.12.2022
475 Clouds 15 1034 47 10000 5.66 50 23:28 28.12.2022
476 Clouds 16 1034 47 10000 4.63 50 21:49 28.12.2022
477 Clouds 17 1034 41 10000 4.63 90 21:19 28.12.2022
478 Clouds 17 1036 38 10000 5.14 130 19:47 28.12.2022
479 Clouds 13 1038 50 10000 4.12 90 16:58 28.12.2022
480 Clouds 12 1039 66 10000 3.6 110 15:38 28.12.2022
481 Clouds 10 1037 53 8000 1.03 0 12:59 28.12.2022
482 Clouds 10 1037 53 8000 1.03 0 12:24 28.12.2022
483 Clouds 7 1036 93 10000 0 0 11:32 28.12.2022
484 Clouds 8 1036 87 10000 1.03 0 09:19 28.12.2022
485 Clouds 10 1037 71 10000 1.03 0 07:28 28.12.2022
486 Clouds 10 1009 71 10000 2.06 120 06:43 28.12.2022
487 Thunderstorm 12 1035 62 8000 7.72 250 00:24 28.12.2022
488 Clouds 20 1034 24 10000 2.57 280 20:31 27.12.2022
489 Clouds 20 1035 24 10000 4.12 300 19:40 27.12.2022
490 Clouds 17 1037 33 10000 3.09 320 17:47 27.12.2022
491 Clouds 16 1038 35 10000 2.06 100 16:43 27.12.2022
492 Clouds 14 1038 43 10000 2.06 220 15:31 27.12.2022
493 Clouds 9 1037 65 10000 1.54 360 12:36 27.12.2022
494 Clouds 4 1036 87 10000 1.54 30 11:30 27.12.2022
495 Fog 5 1035 100 4000 2.06 100 09:47 27.12.2022
496 Fog 5 1035 100 4000 2.06 100 09:23 27.12.2022
497 Clouds 8 1035 81 10000 2.06 10 06:51 27.12.2022
498 Clouds 6 1035 93 10000 2.06 70 04:31 27.12.2022
499 Clouds 16 1032 41 10000 5.66 90 22:26 26.12.2022
500 Clouds 17 1033 38 10000 4.63 100 20:56 26.12.2022
501 Clouds 17 1033 38 10000 4.63 100 20:34 26.12.2022
502 Clouds 17 1035 41 10000 4.63 140 18:44 26.12.2022
503 Clouds 15 1036 41 10000 5.14 130 17:44 26.12.2022
504 Clouds 14 1037 47 10000 3.6 130 16:20 26.12.2022
505 Clouds 9 1037 70 8000 2.57 90 13:54 26.12.2022
506 Fog 6 1037 93 4000 1.03 0 12:45 26.12.2022
507 Clouds 7 1036 87 10000 1.03 0 07:29 26.12.2022
508 Clouds 15 1033 22 10000 7.2 60 23:56 25.12.2022
509 Clouds 15 1033 22 10000 7.2 60 23:35 25.12.2022
510 Clouds 18 1033 18 10000 5.14 60 22:27 25.12.2022
511 Clouds 17 1033 20 10000 5.14 40 21:37 25.12.2022
512 Clouds 17 1035 20 10000 3.6 90 18:49 25.12.2022
513 Clouds 15 1035 33 10000 3.09 110 17:52 25.12.2022
514 Clouds 15 1035 33 10000 3.09 110 17:33 25.12.2022
515 Clouds 12 1035 66 10000 4.63 100 15:19 25.12.2022
516 Fog 9 1033 87 4000 4.63 100 11:50 25.12.2022
517 Clouds 12 1035 27 10000 1.03 0 06:21 25.12.2022
518 Clouds 21 1031 18 10000 5.66 130 23:25 24.12.2022
519 Clouds 22 1031 18 10000 6.69 230 21:18 24.12.2022
520 Clouds 18 1035 18 10000 4.63 220 17:56 24.12.2022
521 Clouds 17 1036 20 10000 4.12 230 16:27 24.12.2022
522 Clouds 14 1036 43 10000 3.09 260 14:37 24.12.2022
523 Clear 9 1036 45 10000 1.03 0 12:41 24.12.2022
524 Clouds 6 1034 75 10000 1.03 0 10:31 24.12.2022
525 Clouds 8 1034 70 10000 1.54 360 09:55 24.12.2022
526 Clouds 8 1034 70 10000 1.54 360 09:36 24.12.2022
527 Clouds 9 1036 93 10000 2.57 60 04:28 24.12.2022
528 Clouds 16 1032 41 10000 3.09 100 00:52 24.12.2022
529 Clouds 18 1032 29 10000 2.06 70 23:31 23.12.2022
530 Clouds 17 1033 33 10000 2.57 90 21:53 23.12.2022
531 Clouds 13 1034 66 10000 4.63 80 20:20 23.12.2022
532 Clouds 13 1035 54 7000 7.72 90 19:39 23.12.2022
533 Clouds 17 1035 29 10000 5.14 110 19:21 23.12.2022
534 Clouds 17 1035 36 10000 5.66 240 18:38 23.12.2022
535 Clouds 17 1036 33 10000 5.14 240 18:18 23.12.2022
536 Clouds 14 1038 58 10000 1.03 0 15:55 23.12.2022
537 Clouds 12 1038 71 10000 1.03 0 14:37 23.12.2022
538 Fog 9 1035 93 4000 2.06 80 10:34 23.12.2022
539 Fog 9 1035 93 4000 1.03 0 09:36 23.12.2022
540 Clouds 10 1008 87 10000 2.06 70 07:43 23.12.2022
541 Clouds 11 1036 66 10000 2.06 60 06:50 23.12.2022
542 Clouds 12 1034 57 10000 4.63 90 02:45 23.12.2022
543 Clouds 16 1032 38 10000 5.14 120 23:20 22.12.2022
544 Clouds 17 1033 33 10000 3.6 120 21:56 22.12.2022
545 Clouds 16 1035 35 10000 4.12 100 19:56 22.12.2022
546 Clouds 16 1035 35 10000 4.12 100 19:22 22.12.2022
547 Clouds 14 1037 62 10000 4.12 110 17:59 22.12.2022
548 Clouds 12 1038 71 10000 4.12 120 16:54 22.12.2022
549 Clouds 11 1038 76 6000 4.63 100 15:48 22.12.2022
550 Clouds 11 1038 76 6000 4.63 100 15:29 22.12.2022
551 Clouds 12 1038 71 6000 2.06 110 14:28 22.12.2022
552 Clouds 10 1038 81 6000 1.03 0 13:20 22.12.2022
553 Fog 7 1037 93 4000 2.57 130 12:29 22.12.2022
554 Clouds 8 1036 81 10000 2.06 40 10:31 22.12.2022
555 Clouds 7 1036 87 10000 5.66 60 09:24 22.12.2022
556 Fog 8 1037 93 4000 5.14 100 08:53 22.12.2022
557 Fog 9 1037 87 4000 3.6 100 07:52 22.12.2022
558 Clouds 9 1037 87 8000 6.17 350 04:19 22.12.2022
559 Clouds 12 1033 57 10000 4.63 60 00:46 22.12.2022
560 Rain 11 1034 76 10000 3.6 350 22:29 21.12.2022
561 Rain 10 1034 81 10000 4.12 270 21:46 21.12.2022
562 Clouds 15 1034 44 8000 4.12 50 20:59 21.12.2022
563 Clouds 17 1034 36 10000 5.14 110 20:31 21.12.2022
564 Clouds 17 1035 41 10000 6.17 80 19:47 21.12.2022
565 Clouds 17 1035 41 10000 6.17 80 19:28 21.12.2022
566 Clouds 16 1036 44 10000 6.17 90 18:51 21.12.2022
567 Clouds 16 1036 44 10000 6.17 90 18:33 21.12.2022
568 Clouds 12 1038 71 10000 4.12 110 15:50 21.12.2022
569 Fog 9 1037 93 4000 3.6 100 13:52 21.12.2022
570 Fog 8 1036 93 4000 3.09 100 11:50 21.12.2022
571 Fog 8 1036 93 4000 3.09 100 11:20 21.12.2022
572 Fog 8 1035 93 4000 3.09 100 10:26 21.12.2022
573 Fog 8 1035 93 4000 2.57 100 08:48 21.12.2022
574 Fog 9 1037 93 4000 2.57 120 06:30 21.12.2022
575 Clouds 12 1034 76 10000 3.09 60 00:24 21.12.2022
576 Clouds 19 1033 31 10000 4.12 60 21:47 20.12.2022
577 Clouds 17 1034 36 10000 4.12 130 20:33 20.12.2022
578 Clouds 17 1035 36 10000 4.63 160 19:43 20.12.2022
579 Clouds 16 1036 41 10000 3.6 170 18:41 20.12.2022
580 Clouds 16 1036 41 10000 3.6 170 18:21 20.12.2022
581 Clouds 16 1037 47 10000 3.6 150 17:46 20.12.2022
582 Clouds 13 1038 62 10000 1.03 0 16:53 20.12.2022
583 Clouds 14 1038 50 10000 2.57 130 15:48 20.12.2022
584 Clouds 13 1038 62 10000 3.09 150 14:50 20.12.2022
585 Clouds 13 1038 62 10000 3.09 150 14:29 20.12.2022
586 Clouds 9 1037 87 6000 1.54 60 12:59 20.12.2022
587 Clouds 9 1037 87 6000 1.54 60 12:31 20.12.2022
588 Fog 5 1036 93 4000 1.54 100 11:37 20.12.2022
589 Fog 8 1035 93 4000 1.03 0 08:49 20.12.2022
590 Clouds 10 1036 71 10000 5.14 310 03:40 20.12.2022
591 Clouds 17 1032 31 10000 4.63 150 22:46 19.12.2022
592 Clouds 18 1032 29 10000 2.57 170 21:56 19.12.2022
593 Clouds 18 1034 31 10000 3.6 170 19:58 19.12.2022
594 Clouds 18 1034 31 10000 3.6 170 19:39 19.12.2022
595 Clouds 15 1035 35 10000 3.6 120 18:33 19.12.2022
596 Clouds 14 1037 54 10000 3.6 120 16:47 19.12.2022
597 Clouds 9 1036 81 10000 2.57 70 13:28 19.12.2022
598 Clouds 6 1034 93 10000 0 0 11:56 19.12.2022
599 Fog 5 1033 100 4000 1.54 40 10:45 19.12.2022
600 Clouds 6 1034 87 10000 2.06 70 07:43 19.12.2022
601 Clouds 9 1036 65 4000 5.66 150 03:42 19.12.2022
602 Clouds 17 1029 41 10000 5.66 100 22:35 18.12.2022
603 Clouds 18 1029 39 10000 2.06 210 21:46 18.12.2022
604 Clouds 18 1029 39 10000 2.06 210 21:22 18.12.2022
605 Clouds 17 1031 41 10000 3.6 50 19:57 18.12.2022
606 Clouds 17 1031 41 10000 3.6 50 19:39 18.12.2022
607 Clouds 17 1032 44 10000 3.09 120 18:24 18.12.2022
608 Clouds 15 1034 54 10000 3.6 180 16:37 18.12.2022
609 Clouds 13 1034 71 10000 2.57 110 15:40 18.12.2022
610 Clouds 13 1034 71 10000 2.57 110 15:40 18.12.2022
611 Clouds 13 1034 71 10000 2.57 110 15:19 18.12.2022
612 Clouds 11 1033 76 6000 2.57 100 13:40 18.12.2022
613 Fog 8 1032 93 4000 2.57 80 12:53 18.12.2022
614 Fog 8 1032 93 4000 2.57 80 12:19 18.12.2022
615 Fog 6 1031 100 4000 2.57 90 10:38 18.12.2022
616 Fog 6 1031 100 4000 2.57 60 08:47 18.12.2022
617 Fog 7 1031 93 4000 3.09 60 07:21 18.12.2022
618 Clouds 9 1032 81 10000 2.57 110 06:21 18.12.2022
619 Clouds 12 1033 46 10000 3.09 350 03:40 18.12.2022
620 Clouds 13 1030 66 10000 5.66 120 00:34 18.12.2022
621 Clouds 15 1029 41 10000 5.66 50 21:54 17.12.2022
622 Clouds 17 1030 47 10000 4.12 80 19:27 17.12.2022
623 Clouds 13 1033 58 10000 3.09 270 16:49 17.12.2022
624 Clouds 10 1034 71 10000 2.57 300 14:30 17.12.2022
625 Fog 7 1032 100 4000 1.03 0 11:38 17.12.2022
626 Clouds 7 1014 90 9013 0.71 196 10:47 17.12.2022
627 Clouds 7 1032 100 10000 2.06 270 09:46 17.12.2022
628 Clouds 8 1033 87 10000 2.57 160 07:28 17.12.2022
629 Clouds 8 1034 93 10000 1.03 0 06:45 17.12.2022
630 Clouds 13 1031 58 8000 5.66 50 23:49 16.12.2022
631 Clouds 17 1031 41 10000 5.66 70 21:22 16.12.2022
632 Clouds 17 1034 38 10000 4.63 90 19:57 16.12.2022
633 Clouds 14 1036 54 10000 4.63 40 16:40 16.12.2022
634 Clouds 12 1037 53 10000 4.63 70 14:48 16.12.2022
635 Clouds 11 1036 57 10000 5.66 60 13:45 16.12.2022
636 Clouds 6 1035 93 10000 2.57 50 11:58 16.12.2022
637 Clouds 7 1035 81 10000 3.6 70 09:53 16.12.2022
638 Rain 7 1035 81 10000 3.6 70 09:24 16.12.2022
639 Clouds 8 1035 65 10000 3.6 40 07:55 16.12.2022
640 Clouds 8 1035 65 10000 3.6 40 07:31 16.12.2022
641 Rain 14 1033 47 10000 4.63 50 23:30 15.12.2022
642 Clouds 16 1033 44 10000 6.17 60 22:20 15.12.2022
643 Clouds 18 1034 39 10000 5.14 70 20:33 15.12.2022
644 Clouds 17 1035 55 10000 4.12 100 19:36 15.12.2022
645 Clouds 15 1037 71 10000 5.14 100 17:59 15.12.2022
646 Clouds 15 1037 71 10000 5.14 100 17:20 15.12.2022
647 Clouds 11 1038 71 10000 2.06 110 14:58 15.12.2022
648 Clouds 10 1038 76 10000 2.06 110 13:30 15.12.2022
649 Clouds 7 1037 93 10000 1.03 0 12:25 15.12.2022
650 Clouds 7 1037 93 10000 1.03 0 12:25 15.12.2022
651 Rain 5 1037 100 6000 2.06 50 09:32 15.12.2022
652 Rain 5 1037 100 5000 5.14 70 08:49 15.12.2022
653 Rain 8 1038 100 6000 3.6 270 05:48 15.12.2022
654 Clouds 8 1038 100 6000 4.12 260 04:37 15.12.2022
655 Clouds 14 1034 58 10000 6.17 260 21:25 14.12.2022
656 Clouds 17 1035 44 10000 4.63 110 20:59 14.12.2022
657 Clouds 17 1035 44 10000 4.63 110 20:23 14.12.2022
658 Clouds 15 1037 54 10000 2.06 120 17:56 14.12.2022
659 Clouds 13 1038 58 10000 2.57 250 16:57 14.12.2022
660 Clouds 13 1038 62 10000 2.57 220 15:39 14.12.2022
661 Clouds 9 1038 87 6000 1.03 0 13:40 14.12.2022
662 Fog 8 1037 93 4000 1.03 0 11:20 14.12.2022
663 Fog 8 1036 93 4000 2.06 100 10:25 14.12.2022
664 Fog 7 1036 100 2000 2.57 40 08:48 14.12.2022
665 Clouds 15 1034 50 10000 5.66 100 22:47 13.12.2022
666 Clouds 16 1034 44 10000 5.14 70 21:48 13.12.2022
667 Clouds 15 1035 47 10000 4.12 70 20:48 13.12.2022
668 Clouds 14 1036 50 10000 4.12 80 19:57 13.12.2022
669 Clouds 12 1038 66 10000 4.63 70 16:50 13.12.2022
670 Clouds 12 1038 66 10000 4.12 80 15:34 13.12.2022
671 Clouds 10 1038 81 6000 3.09 90 14:19 13.12.2022
672 Fog 8 1035 93 4000 3.09 110 10:55 13.12.2022
673 Fog 8 1035 93 4000 3.09 110 10:55 13.12.2022
674 Fog 8 1035 93 4000 3.09 110 10:35 13.12.2022
675 Fog 8 1034 93 4000 3.09 110 09:23 13.12.2022
676 Clouds 9 1033 93 6000 5.66 50 22:55 12.12.2022
677 Clouds 11 1033 81 6000 5.66 80 22:21 12.12.2022
678 Clouds 12 1033 81 8000 4.63 100 20:43 12.12.2022
679 Clouds 13 1035 66 10000 5.66 110 18:32 12.12.2022
680 Clouds 11 1036 76 10000 4.12 120 16:23 12.12.2022
681 Clouds 8 1037 93 6000 3.09 150 14:26 12.12.2022
682 Clouds 7 1034 93 10000 1.03 0 10:19 12.12.2022
683 Clouds 7 1034 93 10000 0 0 09:18 12.12.2022
684 Clouds 6 1038 87 10000 2.06 320 04:53 12.12.2022
685 Clouds 7 1036 100 6000 4.12 250 01:52 12.12.2022
686 Clouds 12 1034 71 10000 3.6 270 22:19 11.12.2022
687 Clouds 11 1036 71 10000 2.06 260 20:41 11.12.2022
688 Rain 9 1037 81 10000 3.09 280 19:40 11.12.2022
689 Rain 7 1038 93 10000 3.09 290 18:55 11.12.2022
690 Rain 7 1039 93 6000 2.06 280 17:57 11.12.2022
691 Rain 7 1039 93 6000 2.06 280 17:28 11.12.2022
692 Rain 7 1039 93 6000 1.03 0 16:49 11.12.2022
693 Rain 7 1039 93 6000 1.03 0 15:45 11.12.2022
694 Rain 7 1039 81 6000 2.57 310 13:43 11.12.2022
695 Thunderstorm 8 1037 81 8000 3.6 210 12:43 11.12.2022
696 Fog 10 1036 81 4000 1.54 240 10:44 11.12.2022
697 Clouds 12 1037 57 10000 3.09 80 03:39 11.12.2022
698 Clouds 16 1034 35 10000 5.14 280 00:28 11.12.2022
699 Clouds 18 1034 25 10000 3.6 40 22:50 10.12.2022
700 Clouds 18 1034 25 10000 3.6 40 22:32 10.12.2022
701 Clouds 19 1034 27 10000 7.2 40 21:18 10.12.2022
702 Clouds 20 1035 24 10000 6.69 70 20:20 10.12.2022
703 Clouds 18 1037 33 10000 7.2 130 17:54 10.12.2022
704 Clouds 16 1038 41 10000 5.66 120 16:47 10.12.2022
705 Clouds 14 1039 58 10000 5.14 140 15:52 10.12.2022
706 Clouds 14 1039 58 10000 5.14 140 15:33 10.12.2022
707 Clouds 10 1039 76 10000 2.57 130 13:44 10.12.2022
708 Clouds 8 1037 81 8000 1.03 0 12:27 10.12.2022
709 Clouds 6 1036 93 10000 1.03 0 10:57 10.12.2022
710 Clouds 5 1036 100 10000 3.09 50 09:46 10.12.2022
711 Clouds 7 1036 93 10000 1.03 0 07:23 10.12.2022
712 Clouds 5 1037 100 10000 2.57 80 06:53 10.12.2022
713 Clouds 13 1034 46 10000 7.2 40 23:43 09.12.2022
714 Clouds 14 1034 47 10000 7.2 40 22:42 09.12.2022
715 Clouds 14 1034 47 10000 6.17 50 21:41 09.12.2022
716 Rain 17 1034 33 10000 6.17 30 20:59 09.12.2022
717 Clouds 16 1035 38 10000 8.23 50 19:46 09.12.2022
718 Clouds 15 1037 44 10000 5.66 100 17:56 09.12.2022
719 Clouds 15 1037 44 10000 5.66 100 17:27 09.12.2022
720 Clouds 15 1038 44 10000 3.09 40 16:26 09.12.2022
721 Clouds 14 1038 47 10000 4.12 60 15:29 09.12.2022
722 Clouds 9 1037 87 10000 2.06 50 12:41 09.12.2022
723 Fog 4 1035 100 4000 1.03 0 10:50 09.12.2022
724 Fog 4 1035 100 4000 1.03 0 10:22 09.12.2022
725 Clouds 6 1037 87 10000 2.06 50 05:38 09.12.2022
726 Clouds 9 1036 61 10000 1.03 0 03:18 09.12.2022
727 Rain 16 1033 41 10000 4.63 70 22:51 08.12.2022
728 Clouds 11 1035 71 10000 6.17 320 20:55 08.12.2022
729 Clouds 16 1036 47 10000 4.12 220 18:57 08.12.2022
730 Clouds 14 1038 54 10000 4.12 220 16:26 08.12.2022
731 Clouds 12 1039 66 10000 3.6 240 14:30 08.12.2022
732 Clouds 7 1037 81 10000 1.03 0 12:25 08.12.2022
733 Fog 4 1036 100 4000 2.06 60 10:34 08.12.2022
734 Fog 6 1036 93 4000 1.54 90 09:28 08.12.2022
735 Clouds 9 1037 81 10000 2.06 80 06:51 08.12.2022
736 Clouds 14 1035 54 10000 3.09 60 22:43 07.12.2022
737 Clouds 14 1035 54 10000 3.09 60 22:18 07.12.2022
738 Clouds 14 1035 58 10000 6.17 110 21:45 07.12.2022
739 Clouds 14 1036 58 10000 5.66 100 19:49 07.12.2022
740 Clouds 11 1038 76 4000 5.66 110 17:51 07.12.2022
741 Rain 10 1039 71 6000 4.63 120 15:29 07.12.2022
742 Clouds 8 1038 87 6000 4.12 130 13:20 07.12.2022
743 Fog 7 1036 93 4000 4.12 130 10:47 07.12.2022
744 Fog 7 1036 93 4000 3.6 120 09:57 07.12.2022
745 Fog 7 1036 87 4000 4.12 110 08:54 07.12.2022
746 Clouds 7 1037 87 10000 3.09 100 06:49 07.12.2022
747 Clouds 8 1038 81 10000 4.63 100 05:23 07.12.2022
748 Clouds 10 1035 61 10000 4.63 120 23:43 06.12.2022
749 Clouds 11 1035 53 10000 5.14 110 21:24 06.12.2022
750 Clouds 9 1038 65 8000 4.12 110 18:28 06.12.2022
751 Clouds 9 1038 65 8000 4.63 120 16:56 06.12.2022
752 Rain 9 1038 65 8000 4.63 120 16:20 06.12.2022
753 Rain 9 1038 70 6000 3.09 130 15:34 06.12.2022
754 Rain 9 1038 70 6000 2.06 130 14:32 06.12.2022
755 Clouds 7 1020 79 10000 1.47 153 13:00 06.12.2022
756 Clouds 8 1036 81 6000 1.54 80 12:40 06.12.2022
757 Fog 7 1035 87 4000 2.06 130 09:43 06.12.2022
758 Clouds 8 1035 70 10000 1.03 0 06:48 06.12.2022
759 Rain 11 1034 49 10000 4.63 50 01:32 06.12.2022
760 Clouds 12 1032 53 10000 5.14 200 22:37 05.12.2022
761 Clouds 14 1032 35 10000 5.14 80 21:37 05.12.2022
762 Clouds 14 1032 40 10000 5.14 60 20:36 05.12.2022
763 Clouds 14 1033 43 8000 5.66 30 19:46 05.12.2022
764 Clouds 11 1035 57 10000 4.63 30 18:37 05.12.2022
765 Clouds 13 1036 54 10000 5.14 140 16:49 05.12.2022
766 Clouds 11 1036 61 10000 2.06 130 15:24 05.12.2022
767 Clouds 8 1036 75 10000 2.06 130 13:27 05.12.2022
768 Clouds 6 1035 87 10000 2.57 110 12:52 05.12.2022
769 Clouds 6 1035 87 10000 2.57 110 12:34 05.12.2022
770 Fog 6 1033 93 4000 3.6 110 10:58 05.12.2022
771 Clouds 8 1034 70 10000 3.09 80 04:52 05.12.2022
772 Clouds 12 1030 50 8000 7.2 110 23:25 04.12.2022
773 Clouds 15 1030 30 10000 4.12 80 22:37 04.12.2022
774 Clouds 15 1030 30 10000 4.12 80 22:18 04.12.2022
775 Clouds 16 1030 28 10000 4.63 90 21:27 04.12.2022
776 Clouds 17 1032 29 10000 4.12 150 19:47 04.12.2022
777 Clouds 17 1032 29 10000 4.12 150 19:22 04.12.2022
778 Clouds 14 1034 30 10000 4.12 170 17:24 04.12.2022
779 Clouds 13 1035 32 10000 4.12 150 16:59 04.12.2022
780 Clouds 13 1035 32 10000 4.12 150 16:36 04.12.2022
781 Clouds 13 1035 32 10000 4.12 150 16:18 04.12.2022
782 Clouds 11 1036 37 10000 4.63 120 14:46 04.12.2022
783 Clouds 9 1035 70 8000 3.6 150 13:37 04.12.2022
784 Clouds 8 1035 70 6000 1.03 0 12:44 04.12.2022
785 Clouds 6 1034 81 6000 2.06 120 11:59 04.12.2022
786 Fog 6 1033 87 4000 2.57 120 09:33 04.12.2022
787 Clouds 3 1032 93 10000 2.57 80 07:32 04.12.2022
788 Clouds 14 1030 37 10000 4.63 120 00:59 04.12.2022
789 Clouds 17 1029 11 10000 3.6 280 23:43 03.12.2022
790 Clouds 18 1029 10 10000 4.63 280 22:22 03.12.2022
791 Clouds 18 1030 11 10000 5.14 280 21:21 03.12.2022
792 Clouds 17 1031 13 10000 4.12 290 20:23 03.12.2022
793 Clouds 16 1033 19 10000 4.63 240 18:39 03.12.2022
794 Clouds 13 1035 30 10000 3.09 280 16:45 03.12.2022
795 Clouds 9 1036 53 10000 1.03 0 14:27 03.12.2022
796 Fog 4 1035 87 4000 1.03 0 12:54 03.12.2022
797 Fog 4 1035 87 4000 1.03 0 12:23 03.12.2022
798 Fog 1 1033 93 4000 2.06 60 10:21 03.12.2022
799 Clouds 4 1033 64 10000 2.06 90 07:22 03.12.2022
800 Clouds 10 1031 46 10000 4.12 60 01:29 03.12.2022
801 Clouds 18 1028 20 10000 4.63 150 22:41 02.12.2022
802 Clouds 17 1029 20 10000 4.12 310 20:53 02.12.2022
803 Clouds 17 1029 20 10000 4.12 310 20:53 02.12.2022
804 Clouds 17 1029 20 10000 4.12 310 20:53 02.12.2022
805 Clouds 16 1031 19 10000 4.12 200 19:26 02.12.2022
806 Clouds 11 1034 20 10000 3.6 240 15:59 02.12.2022
807 Clouds 10 1034 23 10000 1.03 0 14:43 02.12.2022
808 Clouds 10 1034 23 10000 1.03 0 14:23 02.12.2022
809 Clouds 7 1033 30 10000 1.03 0 12:55 02.12.2022
810 Clouds 4 1032 44 10000 1.03 0 11:32 02.12.2022
811 Clouds 6 1031 65 8000 1.03 0 08:35 02.12.2022
812 Clouds 4 1032 55 10000 2.06 360 07:23 02.12.2022
813 Clouds 17 1027 15 10000 5.14 230 23:35 01.12.2022
814 Clouds 18 1027 16 10000 4.12 320 21:46 01.12.2022
815 Clouds 18 1027 16 10000 4.12 320 21:27 01.12.2022
816 Clouds 18 1029 17 10000 2.57 250 19:24 01.12.2022
817 Clouds 15 1032 18 10000 3.09 160 17:48 01.12.2022
818 Clouds 12 1032 20 10000 2.57 230 15:39 01.12.2022
819 Clouds 5 1031 25 10000 1.03 0 11:37 01.12.2022
820 Clear 5 1030 18 10000 1.54 260 09:55 01.12.2022
821 Clear 5 1030 18 10000 1.54 260 09:37 01.12.2022
822 Clear 6 1030 20 10000 1.54 240 08:18 01.12.2022
823 Clouds 16 1026 23 10000 5.14 140 23:59 30.11.2022
824 Clouds 19 1026 15 10000 4.63 240 22:35 30.11.2022
825 Clouds 19 1027 16 10000 4.63 280 21:19 30.11.2022
826 Clouds 17 1028 20 10000 3.6 270 20:25 30.11.2022
827 Clouds 18 1030 20 10000 4.63 270 19:36 30.11.2022
828 Clouds 16 1031 21 10000 4.63 290 18:33 30.11.2022
829 Clouds 15 1032 24 10000 4.12 260 17:35 30.11.2022
830 Clouds 10 1034 25 10000 2.06 250 14:47 30.11.2022
831 Clouds 10 1034 25 10000 2.06 250 14:27 30.11.2022
832 Clouds 6 1032 35 10000 1.03 0 12:32 30.11.2022
833 Clear 4 1031 38 10000 1.03 0 10:24 30.11.2022
834 Clouds 4 1030 41 10000 1.03 0 08:38 30.11.2022
835 Clouds 8 1031 24 10000 4.63 230 06:44 30.11.2022
836 Clouds 14 1028 37 10000 2.57 30 23:32 29.11.2022
837 Clouds 17 1028 20 10000 2.06 200 22:20 29.11.2022
838 Clouds 16 1030 28 10000 5.14 110 20:52 29.11.2022
839 Clouds 16 1030 28 10000 5.14 110 20:32 29.11.2022
840 Clouds 17 1032 20 10000 2.06 280 18:56 29.11.2022
841 Clouds 15 1034 22 10000 1.54 130 16:57 29.11.2022
842 Clouds 15 1034 22 10000 1.54 130 16:20 29.11.2022
843 Clouds 12 1035 37 9000 1.54 190 14:49 29.11.2022
844 Fog 7 1034 93 4000 2.57 60 12:43 29.11.2022
845 Mist 3 1033 93 2000 2.57 90 11:31 29.11.2022
846 Fog 3 1032 100 4000 3.09 80 10:31 29.11.2022
847 Fog 4 1032 93 4000 1.03 0 09:28 29.11.2022
848 Clouds 7 1034 87 10000 2.06 60 07:27 29.11.2022
849 Clouds 14 1032 40 7000 5.14 90 00:29 29.11.2022
850 Clouds 17 1031 20 8000 2.57 100 23:26 28.11.2022
851 Clouds 18 1030 20 8000 3.09 70 22:21 28.11.2022
852 Clouds 17 1032 20 8000 5.14 60 21:43 28.11.2022
853 Clouds 17 1033 25 8000 3.6 170 20:25 28.11.2022
854 Clouds 17 1033 25 8000 4.63 150 19:36 28.11.2022
855 Clouds 18 1035 25 6000 4.12 110 18:28 28.11.2022
856 Smoke 16 1036 30 5000 3.6 110 17:23 28.11.2022
857 Smoke 11 1037 61 2500 4.63 110 14:57 28.11.2022
858 Smoke 10 1037 66 2500 4.12 110 13:55 28.11.2022
859 Clouds 10 1037 66 6000 4.12 100 13:18 28.11.2022
860 Mist 4 1036 100 2000 3.09 80 11:32 28.11.2022
861 Fog 4 1036 93 4000 2.57 80 08:20 28.11.2022
862 Clouds 10 1038 49 10000 3.09 300 04:56 28.11.2022
863 Clouds 10 1038 49 10000 3.09 300 04:37 28.11.2022
864 Clouds 8 1038 49 10000 1.03 0 03:21 28.11.2022
865 Clouds 13 1035 32 8000 4.63 70 00:29 28.11.2022
866 Clouds 18 1035 20 10000 6.69 120 21:55 27.11.2022
867 Clouds 18 1036 20 10000 7.2 130 20:43 27.11.2022
868 Clouds 17 1039 23 10000 5.66 140 18:31 27.11.2022
869 Clouds 12 1040 50 8000 3.6 130 15:40 27.11.2022
870 Clouds 9 1040 70 8000 3.6 120 13:44 27.11.2022
871 Clouds 2 1038 93 6000 2.57 100 11:31 27.11.2022
872 Clear 3 1037 80 10000 2.57 90 08:59 27.11.2022
873 Clouds 8 1039 42 10000 0 0 05:48 27.11.2022
874 Clouds 15 1036 26 10000 5.14 50 23:18 26.11.2022
875 Clouds 18 1037 20 10000 6.69 60 20:57 26.11.2022
876 Clouds 17 1038 25 10000 5.14 90 19:40 26.11.2022
877 Clouds 17 1039 31 10000 5.66 100 18:38 26.11.2022
878 Clouds 14 1040 40 10000 5.14 130 16:27 26.11.2022
879 Clouds 9 1040 70 6000 3.09 110 13:55 26.11.2022
880 Clouds 7 1039 81 6000 2.06 130 12:40 26.11.2022
881 Fog 6 1038 87 4000 2.57 110 10:52 26.11.2022
882 Fog 6 1038 93 4000 2.06 100 09:32 26.11.2022
883 Clouds 7 1038 81 10000 2.57 120 07:21 26.11.2022
884 Clouds 16 1035 30 10000 7.72 90 21:47 25.11.2022
885 Clouds 16 1035 30 10000 7.72 90 21:27 25.11.2022
886 Clouds 16 1037 26 10000 4.63 90 19:57 25.11.2022
887 Clouds 14 1040 24 10000 4.12 100 16:50 25.11.2022
888 Clouds 12 1040 43 10000 1.54 110 14:37 25.11.2022
889 Clouds 6 1038 87 8000 5.14 90 09:24 25.11.2022
890 Clouds 6 1037 87 6000 6.69 80 08:41 25.11.2022
891 Clouds 8 1038 65 10000 4.63 70 06:55 25.11.2022
892 Clouds 8 1038 65 10000 4.63 70 06:26 25.11.2022
893 Clouds 14 1034 35 10000 5.14 50 23:57 24.11.2022
894 Clouds 14 1035 32 10000 5.14 40 22:51 24.11.2022
895 Clouds 14 1035 32 10000 6.69 30 21:59 24.11.2022
896 Clouds 15 1035 30 10000 6.17 40 20:33 24.11.2022
897 Clouds 16 1036 33 10000 5.14 110 18:54 24.11.2022
898 Clouds 15 1037 33 10000 5.14 150 17:43 24.11.2022
899 Clouds 15 1037 33 10000 5.14 150 17:20 24.11.2022
900 Clouds 12 1038 57 10000 4.63 130 15:18 24.11.2022
901 Clouds 9 1038 76 6000 3.6 120 13:49 24.11.2022
902 Fog 7 1036 93 4000 3.09 110 11:55 24.11.2022
903 Fog 7 1036 87 4000 3.09 120 10:36 24.11.2022
904 Clouds 4 1037 93 10000 2.57 80 07:53 24.11.2022
905 Clouds 10 1038 53 10000 4.12 110 03:22 24.11.2022
906 Clouds 12 1034 53 10000 7.2 170 23:45 23.11.2022
907 Clouds 15 1033 38 10000 7.72 40 21:56 23.11.2022
908 Clouds 15 1033 38 10000 7.72 40 21:23 23.11.2022
909 Clouds 16 1033 35 10000 6.69 50 20:21 23.11.2022
910 Clouds 14 1035 47 10000 3.09 80 18:59 23.11.2022
911 Clouds 14 1035 47 10000 3.09 80 18:41 23.11.2022
912 Clouds 14 1036 54 10000 4.12 150 16:33 23.11.2022
913 Clouds 10 1036 71 6000 3.09 120 13:39 23.11.2022
914 Clouds 10 1036 71 6000 3.09 120 13:19 23.11.2022
915 Fog 7 1034 87 4000 1.54 110 11:59 23.11.2022
916 Fog 7 1034 87 4000 1.54 110 11:40 23.11.2022
917 Fog 7 1034 93 4000 4.12 110 10:42 23.11.2022
918 Fog 6 1033 93 4000 2.57 100 09:42 23.11.2022
919 Fog 6 1033 93 4000 2.57 100 09:24 23.11.2022
920 Fog 7 1034 93 4000 3.09 110 08:36 23.11.2022
921 Clouds 9 1036 76 10000 1.03 0 05:22 23.11.2022
922 Clouds 8 1036 81 10000 3.09 80 04:22 23.11.2022
923 Clouds 14 1033 40 10000 2.06 150 22:59 22.11.2022
924 Clouds 14 1033 40 10000 2.06 150 22:18 22.11.2022
925 Clouds 15 1033 41 10000 3.09 50 21:33 22.11.2022
926 Clouds 15 1033 44 10000 4.12 100 20:45 22.11.2022
927 Clouds 15 1033 44 10000 5.14 100 19:52 22.11.2022
928 Clouds 16 1035 44 10000 4.63 120 17:55 22.11.2022
929 Clouds 14 1036 54 10000 4.63 110 16:48 22.11.2022
930 Clouds 13 1036 54 10000 4.63 120 15:24 22.11.2022
931 Clouds 10 1035 66 10000 4.63 100 13:24 22.11.2022
932 Clouds 7 1034 81 10000 3.09 80 10:25 22.11.2022
933 Clouds 8 1034 70 10000 4.12 90 09:00 22.11.2022
934 Clouds 9 1034 65 10000 5.66 60 06:46 22.11.2022
935 Clouds 13 1032 50 10000 4.63 70 01:38 22.11.2022
936 Clouds 16 1030 41 10000 3.6 40 23:33 21.11.2022
937 Clouds 17 1029 33 10000 5.14 70 22:31 21.11.2022
938 Clouds 20 1030 20 10000 2.57 280 21:58 21.11.2022
939 Clouds 20 1031 20 10000 4.63 110 20:35 21.11.2022
940 Clouds 20 1032 20 10000 4.63 140 19:41 21.11.2022
941 Clouds 18 1033 25 10000 4.12 190 18:53 21.11.2022
942 Clouds 18 1034 21 10000 3.6 140 17:46 21.11.2022
943 Clouds 16 1035 26 10000 3.09 130 16:51 21.11.2022
944 Clouds 16 1035 26 10000 3.09 130 16:33 21.11.2022
945 Clouds 15 1035 33 10000 2.57 150 15:24 21.11.2022
946 Clouds 11 1035 61 8000 3.09 80 13:55 21.11.2022
947 Clouds 11 1035 61 8000 3.09 80 13:34 21.11.2022
948 Clouds 6 1033 60 10000 1.03 0 10:24 21.11.2022
949 Fog 5 1033 100 4000 2.06 70 08:21 21.11.2022
950 Clouds 8 1034 81 10000 1.03 0 05:41 21.11.2022
951 Clouds 23 1029 10 10000 5.14 250 22:19 20.11.2022
952 Clouds 22 1031 10 10000 3.6 200 20:55 20.11.2022
953 Clouds 22 1031 10 10000 3.6 200 20:22 20.11.2022
954 Clouds 18 1035 23 10000 4.12 230 17:49 20.11.2022
955 Clouds 15 1037 44 10000 3.09 270 15:57 20.11.2022
956 Clouds 15 1037 44 10000 3.09 270 15:25 20.11.2022
957 Clouds 13 1036 62 8000 3.09 280 14:25 20.11.2022
958 Clouds 13 1036 58 8000 2.57 290 13:32 20.11.2022
959 Clouds 10 1035 61 8000 1.03 0 12:25 20.11.2022
960 Clouds 7 1034 81 10000 1.03 0 10:58 20.11.2022
961 Clouds 7 1034 81 10000 0 0 09:47 20.11.2022
962 Clouds 7 1034 81 10000 1.03 0 08:55 20.11.2022
963 Clouds 7 1034 81 10000 1.03 0 08:32 20.11.2022
964 Clouds 7 1034 81 10000 1.03 0 08:32 20.11.2022
965 Clouds 9 1035 70 10000 1.54 350 07:27 20.11.2022
966 Clouds 7 1038 87 6000 4.63 130 01:30 20.11.2022
967 Rain 8 1036 75 4000 7.2 220 00:57 20.11.2022
968 Rain 8 1036 75 4000 7.2 220 00:38 20.11.2022
969 Rain 8 1036 75 4000 7.2 220 00:38 20.11.2022
970 Clouds 14 1034 40 7000 4.63 70 00:19 20.11.2022
971 Clouds 15 1033 47 8000 6.17 50 23:47 19.11.2022
972 Clouds 15 1033 47 8000 6.17 50 23:20 19.11.2022
973 Clouds 16 1032 41 10000 6.69 70 22:20 19.11.2022
974 Clouds 18 1032 33 8000 5.14 130 21:28 19.11.2022
975 Clouds 19 1033 22 10000 4.63 60 20:42 19.11.2022
976 Clouds 19 1033 22 10000 4.63 60 20:22 19.11.2022
977 Clouds 20 1035 20 10000 4.12 110 18:54 19.11.2022
978 Clouds 19 1037 20 10000 4.12 150 17:39 19.11.2022
979 Clouds 19 1037 20 10000 4.12 150 17:18 19.11.2022
980 Clouds 17 1038 25 10000 2.06 150 15:33 19.11.2022
981 Clouds 12 1038 62 6000 3.6 90 13:36 19.11.2022
982 Clouds 4 1036 80 10000 1.54 40 11:56 19.11.2022
983 Clouds 5 1035 81 10000 1.54 70 09:51 19.11.2022
984 Clouds 4 1035 80 10000 2.57 60 08:19 19.11.2022
985 Clouds 4 1035 80 10000 2.57 60 08:19 19.11.2022
986 Clouds 10 1038 34 10000 3.09 80 04:45 19.11.2022
987 Clouds 15 1035 26 10000 5.66 40 00:50 19.11.2022
988 Clouds 17 1034 25 10000 6.69 50 23:34 18.11.2022
989 Clouds 17 1034 25 10000 6.69 50 23:34 18.11.2022
990 Clouds 17 1034 25 10000 6.69 50 23:34 18.11.2022
991 Clouds 20 1034 19 10000 5.66 40 22:24 18.11.2022
992 Clouds 21 1034 18 10000 6.69 90 21:35 18.11.2022
993 Clouds 20 1035 24 10000 5.66 80 20:58 18.11.2022
994 Clouds 20 1035 24 10000 5.66 80 20:25 18.11.2022
995 Clouds 22 1036 19 10000 6.17 140 19:37 18.11.2022
996 Clouds 19 1038 27 10000 4.12 150 17:45 18.11.2022
997 Clouds 17 1039 33 9000 4.12 120 16:27 18.11.2022
998 Fog 5 1038 93 4000 1.03 0 11:57 18.11.2022
999 Fog 7 1037 93 4000 2.57 110 10:25 18.11.2022
1000 Fog 8 1038 87 4000 4.12 100 07:52 18.11.2022
1001 Clouds 8 1038 70 10000 3.6 90 05:27 18.11.2022
1002 Clouds 13 1037 20 10000 4.63 60 02:40 18.11.2022
1003 Clouds 18 1036 17 10000 5.14 60 23:29 17.11.2022
1004 Clouds 20 1036 14 10000 6.69 110 20:48 17.11.2022
1005 Clouds 20 1037 15 10000 7.2 120 19:54 17.11.2022
1006 Clouds 20 1037 15 10000 7.2 120 19:25 17.11.2022
1007 Clouds 20 1038 16 10000 6.69 120 18:27 17.11.2022
1008 Clouds 19 1039 17 10000 5.14 140 17:30 17.11.2022
1009 Clouds 19 1039 17 10000 5.14 140 17:30 17.11.2022
1010 Clouds 15 1041 15 10000 1.54 120 15:45 17.11.2022
1011 Clouds 9 1040 31 10000 1.03 0 12:19 17.11.2022
1012 Clouds 2 1038 43 10000 1.03 0 10:29 17.11.2022
1013 Clouds 4 1039 48 10000 1.03 0 07:20 17.11.2022
1014 Clouds 14 1038 15 10000 6.69 50 00:52 17.11.2022
1015 Clouds 18 1037 18 10000 5.14 120 22:44 16.11.2022
1016 Clouds 20 1037 17 10000 5.14 120 21:49 16.11.2022
1017 Clouds 21 1038 16 10000 7.72 150 20:31 16.11.2022
1018 Clouds 19 1040 27 10000 4.63 140 18:48 16.11.2022
1019 Clouds 19 1040 27 10000 4.63 140 18:27 16.11.2022
1020 Clouds 14 1042 54 10000 4.63 130 15:35 16.11.2022
1021 Fog 7 1039 93 4000 3.09 100 10:56 16.11.2022
1022 Fog 9 1040 87 4000 3.09 70 06:49 16.11.2022
1023 Clouds 15 1038 33 10000 2.57 170 01:35 16.11.2022
1024 Clouds 17 1036 21 10000 3.6 110 23:18 15.11.2022
1025 Clouds 18 1037 25 10000 3.09 110 21:23 15.11.2022
1026 Clouds 18 1038 29 10000 5.14 110 19:42 15.11.2022
1027 Clouds 18 1039 39 10000 5.66 70 18:51 15.11.2022
1028 Clouds 16 1039 44 10000 5.14 90 17:35 15.11.2022
1029 Clouds 15 1040 50 10000 5.66 130 16:20 15.11.2022
1030 Clouds 14 1040 54 10000 4.63 120 15:22 15.11.2022
1031 Clouds 11 1040 61 6000 1.03 0 13:39 15.11.2022
1032 Clouds 10 1039 71 6000 1.03 0 12:26 15.11.2022
1033 Fog 7 1038 93 4000 2.06 350 11:21 15.11.2022
1034 Clouds 6 1036 100 10000 1.03 0 09:28 15.11.2022
1035 Clouds 14 1034 40 10000 4.63 50 00:40 15.11.2022
1036 Clouds 14 1034 40 10000 4.63 50 00:18 15.11.2022
1037 Clouds 21 1033 20 10000 5.14 100 21:51 14.11.2022
1038 Clouds 21 1034 19 10000 5.14 110 20:43 14.11.2022
1039 Clouds 19 1036 16 10000 5.14 160 18:58 14.11.2022
1040 Clouds 19 1037 17 10000 6.69 130 17:28 14.11.2022
1041 Clouds 9 1036 49 10000 2.57 100 12:55 14.11.2022
1042 Clear -1 1035 68 10000 2.57 100 11:42 14.11.2022
1043 Clear -1 1034 68 10000 2.06 90 09:54 14.11.2022
1044 Clear 4 1016 38 10000 1.54 30 07:54 14.11.2022
1045 Clear 7 1036 24 10000 1.54 10 06:43 14.11.2022
1046 Clouds 16 1032 19 10000 4.63 270 00:19 14.11.2022
1047 Clouds 18 1032 20 10000 2.57 200 21:58 13.11.2022
1048 Clouds 18 1032 20 10000 2.57 200 21:40 13.11.2022
1049 Clouds 18 1034 21 10000 7.72 230 19:45 13.11.2022
1050 Clouds 18 1035 20 10000 3.6 210 18:24 13.11.2022
1051 Clouds 17 1036 20 10000 5.14 210 17:46 13.11.2022
1052 Clouds 11 1037 17 10000 2.06 260 14:58 13.11.2022
1053 Clouds 11 1037 17 10000 2.06 260 14:23 13.11.2022
1054 Clouds 5 1035 18 10000 2.06 360 12:38 13.11.2022
1055 Clouds 3 1035 19 10000 2.57 10 11:20 13.11.2022
1056 Clear 4 1034 25 10000 2.57 10 08:56 13.11.2022
1057 Clear 11 1034 21 10000 5.66 230 02:24 13.11.2022
1058 Clouds 20 1031 13 10000 6.17 260 22:57 12.11.2022
1059 Clouds 19 1032 14 10000 4.63 270 21:24 12.11.2022
1060 Clouds 20 1033 13 10000 5.14 290 20:21 12.11.2022
1061 Clouds 19 1035 13 10000 6.69 300 18:18 12.11.2022
1062 Clouds 16 1037 11 10000 4.12 250 16:26 12.11.2022
1063 Clouds 13 1037 11 10000 2.06 260 15:23 12.11.2022
1064 Clouds 8 1036 26 10000 1.03 0 12:38 12.11.2022
1065 Clouds 5 1034 44 10000 1.03 0 09:24 12.11.2022
1066 Clouds 6 1035 30 10000 1.03 0 06:55 12.11.2022
1067 Clouds 19 1031 17 10000 6.69 260 22:49 11.11.2022
1068 Clouds 19 1033 17 10000 6.17 260 20:51 11.11.2022
1069 Clouds 18 1034 18 10000 5.14 310 19:44 11.11.2022
1070 Clouds 18 1034 18 10000 5.14 310 19:21 11.11.2022
1071 Clouds 16 1036 19 10000 4.63 250 17:56 11.11.2022
1072 Clouds 15 1037 21 10000 4.12 260 16:28 11.11.2022
1073 Clouds 11 1037 43 10000 1.03 0 14:21 11.11.2022
1074 Clouds 10 1037 46 10000 1.03 0 13:29 11.11.2022
1075 Clouds 4 1035 80 10000 2.06 40 09:49 11.11.2022
1076 Clouds 2 1035 93 10000 2.06 100 08:27 11.11.2022
1077 Clouds 5 1036 75 10000 2.06 120 05:44 11.11.2022
1078 Clouds 17 1031 17 10000 4.12 250 23:22 10.11.2022
1079 Clouds 18 1031 14 10000 4.12 350 22:35 10.11.2022
1080 Clouds 19 1032 15 10000 5.66 310 21:33 10.11.2022
1081 Clouds 19 1033 16 10000 6.17 270 20:50 10.11.2022
1082 Clouds 19 1033 16 10000 6.17 270 20:21 10.11.2022
1083 Clouds 18 1034 18 10000 6.69 280 19:42 10.11.2022
1084 Clouds 18 1035 20 10000 5.66 280 18:32 10.11.2022
1085 Clouds 15 1037 21 10000 4.63 240 16:26 10.11.2022
1086 Clouds 11 1037 40 10000 0 0 13:56 10.11.2022
1087 Clouds 3 1036 60 10000 2.06 50 11:38 10.11.2022
1088 Clouds 4 1035 48 10000 1.03 0 08:43 10.11.2022
1089 Clouds 12 1034 43 10000 5.14 10 01:31 10.11.2022
1090 Clouds 13 1032 43 10000 8.23 100 23:34 09.11.2022
1091 Clouds 19 1031 15 10000 5.14 280 22:36 09.11.2022
1092 Clouds 20 1032 19 10000 8.23 280 20:48 09.11.2022
1093 Clouds 20 1032 19 10000 8.23 280 20:29 09.11.2022
1094 Clouds 17 1033 17 10000 5.66 260 19:41 09.11.2022
1095 Clouds 16 1035 26 10000 4.12 280 18:51 09.11.2022
1096 Clouds 14 1037 32 8000 1.54 220 15:56 09.11.2022
1097 Clouds 12 1038 34 8000 2.06 190 14:47 09.11.2022
1098 Clouds 12 1038 34 8000 2.06 190 14:24 09.11.2022
1099 Clouds 10 1037 39 8000 1.03 0 13:18 09.11.2022
1100 Clear 3 1036 55 10000 0 0 11:36 09.11.2022
1101 Clouds 3 1035 86 10000 1.03 0 08:35 09.11.2022
1102 Fog 4 1036 93 4000 3.09 80 07:42 09.11.2022
1103 Clouds 17 1032 31 10000 6.69 100 23:53 08.11.2022
1104 Clouds 21 1033 8 10000 4.63 270 21:44 08.11.2022
1105 Clouds 21 1033 8 10000 4.63 270 21:25 08.11.2022
1106 Clouds 21 1033 11 10000 5.66 250 20:40 08.11.2022
1107 Clouds 20 1035 14 10000 3.6 240 19:36 08.11.2022
1108 Clouds 19 1036 16 10000 3.6 260 18:24 08.11.2022
1109 Clouds 17 1037 20 10000 3.6 150 16:20 08.11.2022
1110 Clear 12 1038 32 8000 2.57 210 14:55 08.11.2022
1111 Clear 10 1037 53 8000 1.03 0 13:37 08.11.2022
1112 Clouds 5 1037 87 6000 2.57 70 12:45 08.11.2022
1113 Fog -1 1035 100 4000 2.57 80 09:18 08.11.2022
1114 Fog 1 1036 93 4000 2.06 90 07:25 08.11.2022
1115 Clouds 11 1033 49 10000 4.12 80 00:33 08.11.2022
1116 Clouds 18 1032 21 10000 5.14 70 22:24 07.11.2022
1117 Clouds 18 1032 23 10000 5.66 60 21:21 07.11.2022
1118 Clouds 18 1033 25 10000 6.17 130 20:33 07.11.2022
1119 Clouds 17 1037 26 10000 3.6 300 17:51 07.11.2022
1120 Clouds 17 1038 29 10000 3.09 230 16:32 07.11.2022
1121 Clouds 15 1039 38 8000 1.03 0 15:34 07.11.2022
1122 Clouds 13 1038 43 8000 1.03 0 14:44 07.11.2022
1123 Clouds 6 1037 81 8000 2.06 90 12:35 07.11.2022
1124 Clouds 1 1035 74 10000 1.03 0 10:55 07.11.2022
1125 Clouds 1 1035 93 10000 0 0 09:29 07.11.2022
1126 Clear 5 1036 70 10000 1.03 0 07:31 07.11.2022
1127 Clouds 8 1036 65 10000 6.17 100 03:39 07.11.2022
1128 Clouds 11 1034 40 10000 4.12 90 01:19 07.11.2022
1129 Clouds 17 1032 29 10000 5.66 100 22:18 06.11.2022
1130 Clouds 20 1032 22 10000 6.17 130 21:19 06.11.2022
1131 Clouds 19 1033 16 10000 5.14 130 20:20 06.11.2022
1132 Clouds 21 1034 18 10000 5.14 100 19:32 06.11.2022
1133 Clouds 19 1035 19 10000 4.63 150 18:21 06.11.2022
1134 Clouds 18 1036 21 10000 4.63 140 17:46 06.11.2022
1135 Clouds 18 1036 21 10000 4.63 140 17:19 06.11.2022
1136 Clouds 16 1037 26 10000 3.6 190 16:30 06.11.2022
1137 Clear 15 1038 19 10000 3.09 210 15:39 06.11.2022
1138 Clear 7 1036 33 10000 1.54 10 12:48 06.11.2022
1139 Clear 3 1035 47 10000 1.03 0 11:42 06.11.2022
1140 Clear 0 1035 74 10000 0 0 10:34 06.11.2022
1141 Clouds 5 1035 87 10000 3.09 100 07:44 06.11.2022
1142 Clouds 19 1031 20 10000 6.17 120 23:26 05.11.2022
1143 Clouds 21 1031 18 10000 5.14 170 22:35 05.11.2022
1144 Clouds 21 1033 18 10000 3.6 230 19:18 05.11.2022
1145 Clear 17 1037 20 10000 2.57 230 16:56 05.11.2022
1146 Clear 15 1038 14 10000 3.09 130 14:50 05.11.2022
1147 Clear 12 1038 25 10000 1.03 0 13:40 05.11.2022
1148 Clear 5 1036 44 10000 1.03 0 11:52 05.11.2022
1149 Clouds 2 1035 86 10000 2.57 110 08:59 05.11.2022
1150 Clear 4 1035 87 10000 3.6 80 07:23 05.11.2022
1151 Clear 5 1036 75 10000 3.6 80 06:54 05.11.2022
1152 Clouds 15 1033 16 10000 4.63 50 00:45 05.11.2022
1153 Clouds 17 1033 15 10000 4.63 70 23:28 04.11.2022
1154 Clouds 19 1034 15 10000 4.63 150 20:56 04.11.2022
1155 Clouds 21 1034 13 10000 2.57 150 19:31 04.11.2022
1156 Clouds 19 1037 11 10000 3.09 160 17:39 04.11.2022
1157 Clear 14 1038 35 10000 1.03 0 14:25 04.11.2022
1158 Clouds 7 1037 70 10000 2.06 60 12:28 04.11.2022
1159 Fog 1 1037 93 4000 2.57 100 11:45 04.11.2022
1160 Fog 1 1036 93 4000 2.57 70 09:24 04.11.2022
1161 Clouds 4 1037 87 10000 2.06 50 07:46 04.11.2022
1162 Clouds 4 1038 75 10000 3.09 70 05:50 04.11.2022
1163 Clouds 15 1035 33 10000 6.69 120 00:25 04.11.2022
1164 Clouds 21 1035 19 10000 5.14 120 20:53 03.11.2022
1165 Clouds 21 1035 19 10000 5.14 120 20:29 03.11.2022
1166 Clouds 20 1036 22 10000 4.12 140 19:40 03.11.2022
1167 Clouds 18 1039 25 10000 3.09 140 17:51 03.11.2022
1168 Clouds 16 1040 33 10000 3.09 140 16:53 03.11.2022
1169 Clouds 13 1040 46 10000 2.57 100 14:20 03.11.2022
1170 Clouds 5 1039 87 6000 5.14 90 12:39 03.11.2022
1171 Fog 3 1038 93 4000 4.12 90 11:51 03.11.2022
1172 Fog 4 1037 93 4000 4.63 90 09:37 03.11.2022
1173 Fog 5 1038 93 4000 5.14 80 07:43 03.11.2022
1174 Clouds 21 1036 18 10000 5.66 120 21:30 02.11.2022
1175 Clouds 21 1036 16 10000 6.69 140 20:40 02.11.2022
1176 Clouds 21 1037 16 10000 5.66 130 19:59 02.11.2022
1177 Clouds 19 1040 20 10000 6.17 130 17:18 02.11.2022
1178 Clouds 15 1041 30 10000 5.66 120 15:54 02.11.2022
1179 Clouds 13 1041 35 10000 3.6 110 14:47 02.11.2022
1180 Fog 5 1040 87 3000 4.12 90 12:44 02.11.2022
1181 Fog 5 1039 87 2500 4.12 80 11:39 02.11.2022
1182 Fog 5 1038 93 2000 5.14 100 08:52 02.11.2022
1183 Fog 6 1039 93 800 5.14 90 05:30 02.11.2022
1184 Clouds 13 1035 50 10000 5.14 120 00:27 02.11.2022
1185 Clouds 20 1034 20 10000 5.14 120 22:19 01.11.2022
1186 Clouds 20 1034 22 10000 5.14 110 21:38 01.11.2022
1187 Clouds 20 1034 24 10000 5.14 130 20:26 01.11.2022
1188 Clouds 19 1035 22 10000 2.57 230 19:43 01.11.2022
1189 Clouds 19 1036 27 10000 6.17 140 18:49 01.11.2022
1190 Clouds 17 1037 38 10000 2.57 120 17:28 01.11.2022
1191 Clouds 16 1038 38 10000 3.09 210 16:18 01.11.2022
1192 Clouds 13 1038 62 6000 3.6 100 14:20 01.11.2022
1193 Fog 8 1037 93 4000 3.6 110 12:27 01.11.2022
1194 Fog 8 1036 87 4000 3.09 90 11:23 01.11.2022
1195 Fog 9 1035 87 4000 2.06 120 09:54 01.11.2022
1196 Fog 9 1035 93 4000 1.03 0 08:38 01.11.2022
1197 Fog 9 1035 87 4000 1.03 0 07:29 01.11.2022
1198 Fog 9 1036 87 4000 2.57 60 06:47 01.11.2022
1199 Clouds 9 1036 81 10000 3.09 70 05:56 01.11.2022
1200 Clouds 12 1036 62 10000 5.14 90 03:32 01.11.2022
1201 Clouds 21 1031 12 10000 6.69 260 21:36 31.10.2022
1202 Clouds 21 1031 24 10000 6.69 280 20:25 31.10.2022
1203 Clouds 20 1034 20 10000 3.6 220 18:48 31.10.2022
1204 Clouds 19 1035 19 10000 5.14 280 17:26 31.10.2022
1205 Clouds 18 1036 20 10000 3.09 240 16:39 31.10.2022
1206 Clouds 9 1036 19 10000 1.03 0 13:23 31.10.2022
1207 Clear 3 1033 69 10000 1.03 0 09:54 31.10.2022
1208 Clouds 3 1033 64 10000 1.03 0 08:24 31.10.2022
1209 Clear 13 1033 32 10000 3.6 150 02:51 31.10.2022
1210 Clouds 15 1032 41 10000 2.57 200 01:49 31.10.2022
1211 Clouds 20 1029 22 10000 5.14 260 22:33 30.10.2022
1212 Clouds 20 1031 22 10000 5.14 290 20:45 30.10.2022
1213 Clouds 20 1031 22 10000 5.66 270 19:54 30.10.2022
1214 Clouds 17 1034 25 10000 2.06 200 16:48 30.10.2022
1215 Clouds 16 1035 26 10000 2.06 140 15:28 30.10.2022
1216 Clouds 12 1034 66 10000 3.09 110 13:51 30.10.2022
1217 Clouds 9 1033 57 10000 0 0 12:30 30.10.2022
1218 Clouds 5 1032 75 10000 0 0 10:49 30.10.2022
1219 Clouds 5 1032 75 10000 0 0 10:49 30.10.2022
1220 Clouds 5 1032 87 10000 1.54 60 09:36 30.10.2022
1221 Clouds 5 1032 81 10000 0 0 08:18 30.10.2022
1222 Clouds 18 1030 16 10000 4.12 280 00:30 30.10.2022
1223 Clouds 19 1030 19 10000 5.14 310 23:48 29.10.2022
1224 Clouds 20 1031 17 10000 5.14 260 22:52 29.10.2022
1225 Clouds 18 1034 21 10000 3.09 340 19:57 29.10.2022
1226 Clouds 16 1036 26 10000 3.09 190 17:24 29.10.2022
1227 Clouds 12 1037 43 10000 3.09 130 15:51 29.10.2022
1228 Clouds 12 1037 43 10000 3.09 130 15:23 29.10.2022
1229 Clouds 13 1037 30 10000 2.57 90 14:41 29.10.2022
1230 Clouds 5 1035 30 10000 1.03 0 12:34 29.10.2022
1231 Clouds 3 1035 51 10000 1.03 0 09:57 29.10.2022
1232 Clear 8 1036 22 10000 1.03 0 07:31 29.10.2022
1233 Clear 7 1036 70 10000 2.57 70 05:55 29.10.2022
1234 Clouds 17 1032 25 10000 6.17 60 00:27 29.10.2022
1235 Clouds 20 1033 19 10000 3.09 240 22:23 28.10.2022
1236 Clouds 20 1035 20 10000 1.54 310 20:45 28.10.2022
1237 Clouds 17 1037 20 10000 2.57 220 18:50 28.10.2022
1238 Clouds 17 1037 20 10000 2.57 220 18:29 28.10.2022
1239 Clouds 13 1038 32 8000 2.06 220 15:28 28.10.2022
1240 Clouds 8 1037 75 6000 2.06 290 13:44 28.10.2022
1241 Fog 7 1037 87 4000 1.03 0 12:23 28.10.2022
1242 Fog 4 1036 100 4000 1.03 0 11:33 28.10.2022
1243 Fog 7 1036 93 4000 2.57 130 10:45 28.10.2022
1244 Fog 6 1036 93 4000 1.03 0 09:44 28.10.2022
1245 Fog 9 1036 87 4000 3.6 120 07:51 28.10.2022
1246 Clouds 13 1033 46 10000 5.14 100 02:58 28.10.2022
1247 Clouds 20 1032 11 10000 6.69 280 23:47 27.10.2022
1248 Clouds 21 1032 13 10000 5.14 230 22:37 27.10.2022
1249 Clouds 21 1033 8 10000 4.63 240 21:21 27.10.2022
1250 Clouds 18 1036 13 10000 3.09 160 18:33 27.10.2022
1251 Clouds 17 1037 15 10000 4.63 140 17:26 27.10.2022
1252 Clouds 9 1037 53 10000 2.06 20 13:32 27.10.2022
1253 Clouds 5 1035 25 10000 1.03 0 08:31 27.10.2022
1254 Clouds 11 1034 29 10000 3.6 80 02:56 27.10.2022
1255 Clouds 21 1033 24 10000 5.14 290 23:54 26.10.2022
1256 Clouds 21 1033 24 10000 5.14 280 22:44 26.10.2022
1257 Clouds 21 1034 24 10000 5.66 290 21:49 26.10.2022
1258 Clouds 18 1037 23 10000 3.09 240 18:38 26.10.2022
1259 Clouds 15 1038 26 10000 2.57 250 16:22 26.10.2022
1260 Clouds 6 1036 60 10000 1.54 90 13:34 26.10.2022
1261 Clouds 0 1035 64 10000 2.57 100 12:36 26.10.2022
1262 Clouds 3 1035 69 10000 1.03 0 09:31 26.10.2022
1263 Clouds 6 1035 70 10000 1.54 30 08:53 26.10.2022
1264 Clouds 6 1036 87 10000 1.54 50 07:57 26.10.2022
1265 Clouds 16 1032 35 10000 4.63 70 00:42 26.10.2022
1266 Clouds 17 1032 33 10000 5.14 60 23:57 25.10.2022
1267 Clouds 19 1034 27 10000 4.63 50 21:47 25.10.2022
1268 Clouds 19 1035 27 10000 4.63 80 20:46 25.10.2022
1269 Clouds 18 1037 29 10000 4.12 130 18:58 25.10.2022
1270 Clouds 17 1038 31 10000 3.6 200 17:49 25.10.2022
1271 Clouds 6 1037 81 7000 0 0 13:40 25.10.2022
1272 Clouds 5 1036 81 10000 1.03 0 11:38 25.10.2022
1273 Clouds 5 1036 81 10000 1.03 0 11:38 25.10.2022
1274 Fog 5 1036 93 4000 1.54 70 10:36 25.10.2022
1275 Fog 7 1036 93 4000 4.63 100 08:44 25.10.2022
1276 Fog 7 1036 93 4000 4.63 100 08:18 25.10.2022
1277 Fog 6 1036 93 4000 4.12 90 07:54 25.10.2022
1278 Clouds 6 1037 87 10000 3.09 90 06:53 25.10.2022
1279 Clouds 8 1036 45 10000 1.03 0 03:35 25.10.2022
1280 Clouds 15 1034 33 10000 5.14 70 00:33 25.10.2022
1281 Clouds 17 1034 31 10000 4.12 50 22:29 24.10.2022
1282 Clouds 19 1035 20 10000 4.63 70 21:50 24.10.2022
1283 Clouds 19 1035 20 10000 4.63 70 21:32 24.10.2022
1284 Clouds 20 1036 22 10000 3.6 170 20:40 24.10.2022
1285 Clouds 17 1039 36 10000 4.12 150 18:46 24.10.2022
1286 Clouds 14 1040 50 10000 2.57 150 16:59 24.10.2022
1287 Clouds 11 1040 61 6000 1.54 80 15:42 24.10.2022
1288 Clouds 9 1040 65 6000 2.06 130 14:20 24.10.2022
1289 Clouds 6 1038 81 6000 2.06 110 12:41 24.10.2022
1290 Fog 6 1037 93 4000 5.14 100 09:28 24.10.2022
1291 Fog 7 1037 93 4000 4.12 80 07:51 24.10.2022
1292 Clouds 18 1035 21 10000 5.66 100 22:40 23.10.2022
1293 Clouds 18 1036 29 10000 4.63 90 20:39 23.10.2022
1294 Clouds 16 1039 35 10000 3.6 120 18:53 23.10.2022
1295 Clouds 15 1039 44 10000 2.06 190 17:30 23.10.2022
1296 Clouds 12 1040 57 10000 2.57 130 15:41 23.10.2022
1297 Clouds 9 1039 65 6000 2.57 100 14:56 23.10.2022
1298 Fog 3 1037 93 4000 1.54 100 11:56 23.10.2022
1299 Fog 3 1036 93 4000 2.06 90 10:40 23.10.2022
1300 Clouds 7 1038 93 10000 4.12 110 05:53 23.10.2022
1301 Clouds 20 1032 24 10000 4.12 120 22:51 22.10.2022
1302 Clouds 20 1033 25 10000 4.12 260 21:45 22.10.2022
1303 Clouds 20 1033 25 10000 4.12 260 21:20 22.10.2022
1304 Clouds 20 1034 22 10000 3.6 240 20:18 22.10.2022
1305 Clouds 18 1035 25 10000 3.6 200 19:31 22.10.2022
1306 Clouds 15 1037 26 10000 3.09 140 17:39 22.10.2022
1307 Clouds 15 1037 30 10000 3.09 150 16:28 22.10.2022
1308 Clouds 11 1037 61 6000 3.6 110 14:49 22.10.2022
1309 Clouds 6 1036 81 6000 3.6 70 13:58 22.10.2022
1310 Fog 3 1034 93 4000 3.09 80 11:22 22.10.2022
1311 Clouds 4 1034 93 10000 3.09 70 09:43 22.10.2022
1312 Clouds 3 1035 93 10000 2.57 90 08:37 22.10.2022
1313 Clouds 9 1035 81 10000 3.6 80 04:25 22.10.2022
1314 Clouds 17 1030 20 10000 4.63 310 00:19 22.10.2022
1315 Clouds 20 1030 17 10000 7.72 300 22:19 21.10.2022
1316 Clouds 19 1031 19 10000 6.17 290 21:32 21.10.2022
1317 Clouds 18 1032 21 10000 6.17 260 20:20 21.10.2022
1318 Clouds 16 1036 21 10000 4.63 280 17:21 21.10.2022
1319 Clouds 11 1037 49 10000 2.57 90 14:30 21.10.2022
1320 Clouds 6 1036 52 6000 2.06 40 13:22 21.10.2022
1321 Clouds 5 1034 41 10000 2.06 20 11:33 21.10.2022
1322 Clouds 5 1034 41 10000 2.57 360 10:21 21.10.2022
1323 Clouds 6 1035 35 10000 1.03 0 08:39 21.10.2022
1324 Clouds 4 1035 93 10000 2.06 60 07:47 21.10.2022
1325 Clouds 12 1034 50 10000 4.12 100 02:29 21.10.2022
1326 Clouds 20 1031 15 10000 5.66 280 22:26 20.10.2022
1327 Clouds 19 1034 17 10000 7.2 270 20:38 20.10.2022
1328 Clouds 19 1035 15 10000 5.14 260 19:39 20.10.2022
1329 Clouds 16 1037 15 10000 4.12 210 17:54 20.10.2022
1330 Clouds 16 1037 15 10000 4.12 210 17:33 20.10.2022
1331 Fog 3 1036 86 4000 2.57 90 12:37 20.10.2022
1332 Fog 3 1036 86 4000 2.57 90 12:18 20.10.2022
1333 Clouds 1 1035 86 10000 2.57 80 11:23 20.10.2022
1334 Clouds 2 1035 80 10000 2.57 90 10:50 20.10.2022
1335 Clouds 2 1036 80 10000 2.06 80 08:22 20.10.2022
1336 Clouds 5 1037 93 10000 4.12 70 05:43 20.10.2022
1337 Clouds 13 1034 58 10000 6.17 130 01:50 20.10.2022
1338 Clouds 21 1032 15 10000 4.12 300 22:46 19.10.2022
1339 Clouds 21 1034 14 10000 5.14 280 21:57 19.10.2022
1340 Clouds 20 1035 20 10000 5.14 310 20:53 19.10.2022
1341 Clouds 16 1038 35 10000 3.09 260 18:50 19.10.2022
1342 Clouds 16 1038 38 10000 5.66 290 17:38 19.10.2022
1343 Clouds 10 1039 66 10000 1.03 0 15:47 19.10.2022
1344 Clouds 6 1038 75 6000 1.03 0 13:51 19.10.2022
1345 Fog 3 1037 93 4000 2.57 80 09:42 19.10.2022
1346 Fog 4 1037 93 4000 2.57 90 08:35 19.10.2022
1347 Fog 7 1039 87 4000 3.09 100 06:25 19.10.2022
1348 Clouds 10 1035 66 10000 5.66 100 01:25 19.10.2022
1349 Clouds 15 1033 54 10000 6.69 110 23:18 18.10.2022
1350 Clouds 16 1034 41 10000 4.63 40 21:45 18.10.2022
1351 Clouds 17 1035 38 10000 5.14 80 20:59 18.10.2022
1352 Clouds 13 1036 46 8000 6.17 50 19:58 18.10.2022
1353 Clouds 14 1037 50 10000 3.09 120 17:44 18.10.2022
1354 Clouds 12 1038 50 10000 2.06 240 16:49 18.10.2022
1355 Clouds 8 1037 81 6000 2.57 80 14:26 18.10.2022
1356 Fog 5 1036 93 4000 3.09 100 12:32 18.10.2022
1357 Fog 6 1035 93 4000 3.6 100 11:21 18.10.2022
1358 Fog 6 1035 93 4000 3.09 100 09:45 18.10.2022
1359 Fog 4 1036 100 4000 2.57 80 07:56 18.10.2022
1360 Clouds 6 1036 93 10000 2.57 70 03:19 18.10.2022
1361 Clouds 17 1032 38 10000 6.69 100 22:24 17.10.2022
1362 Clouds 14 1034 54 10000 4.63 100 20:55 17.10.2022
1363 Clouds 14 1034 54 10000 4.63 100 20:31 17.10.2022
1364 Clouds 14 1035 58 10000 5.66 110 19:51 17.10.2022
1365 Clouds 14 1036 50 10000 3.09 130 18:51 17.10.2022
1366 Clouds 12 1037 57 10000 2.57 250 16:49 17.10.2022
1367 Clouds 9 1037 70 8000 4.12 340 15:29 17.10.2022
1368 Clouds 7 1037 93 8000 4.12 280 14:34 17.10.2022
1369 Clouds 7 1036 93 8000 0 0 10:30 17.10.2022
1370 Fog 5 1038 93 4000 3.6 80 05:26 17.10.2022
1371 Clouds 15 1033 44 10000 7.2 80 23:30 16.10.2022
1372 Clouds 13 1034 50 10000 6.17 60 21:48 16.10.2022
1373 Clouds 12 1035 57 10000 6.69 90 20:41 16.10.2022
1374 Clouds 15 1036 41 10000 5.66 90 19:46 16.10.2022
1375 Clouds 14 1038 40 10000 3.6 90 17:51 16.10.2022
1376 Clouds 11 1019 63 9777 5.03 46 16:33 16.10.2022
1377 Clouds 12 1039 53 10000 4.12 90 15:57 16.10.2022
1378 Clouds 8 1038 81 6000 4.12 80 14:26 16.10.2022
1379 Fog 4 1038 93 4000 2.06 80 12:21 16.10.2022
1380 Fog 6 1037 87 4000 3.09 80 10:27 16.10.2022
1381 Fog 6 1038 93 4000 3.09 80 08:36 16.10.2022
1382 Clouds 13 1036 54 10000 7.2 120 00:48 16.10.2022
1383 Clouds 15 1035 38 10000 5.14 40 22:42 15.10.2022
1384 Clouds 12 1037 50 10000 7.72 20 21:25 15.10.2022
1385 Clouds 14 1037 40 10000 6.69 30 20:43 15.10.2022
1386 Clouds 16 1039 44 10000 4.12 110 18:43 15.10.2022
1387 Clouds 10 1040 66 10000 4.63 90 15:46 15.10.2022
1388 Clouds 8 1022 69 10000 1.78 67 14:24 15.10.2022
1389 Fog 5 1037 93 3000 2.57 80 11:54 15.10.2022
1390 Fog 5 1037 87 3000 2.57 80 10:32 15.10.2022
1391 Fog 5 1038 93 4000 2.57 110 08:34 15.10.2022
1392 Clouds 9 1035 53 10000 4.12 80 02:35 15.10.2022
1393 Clouds 15 1033 35 10000 6.17 80 23:31 14.10.2022
1394 Clouds 15 1034 33 10000 6.17 100 22:23 14.10.2022
1395 Clouds 15 1034 33 10000 6.17 100 21:28 14.10.2022
1396 Clouds 15 1036 35 10000 7.2 60 19:44 14.10.2022
1397 Clouds 12 1038 50 10000 3.09 60 16:26 14.10.2022
1398 Fog 4 1036 93 4000 3.09 80 13:26 14.10.2022
1399 Fog 2 1036 100 4000 3.09 80 12:18 14.10.2022
1400 Clouds 0 1035 86 10000 0 0 09:29 14.10.2022
1401 Clouds 6 1036 60 10000 3.09 40 06:54 14.10.2022
1402 Clouds 6 1036 60 10000 3.09 40 06:18 14.10.2022
1403 Clouds 6 1035 60 10000 5.66 90 05:42 14.10.2022
1404 Clouds 8 1034 52 10000 4.12 100 03:24 14.10.2022
1405 Clouds 15 1032 18 10000 6.17 300 23:43 13.10.2022
1406 Clouds 16 1033 13 10000 8.23 290 21:57 13.10.2022
1407 Clouds 16 1033 13 10000 8.23 290 21:20 13.10.2022
1408 Clouds 15 1035 18 10000 5.14 320 19:43 13.10.2022
1409 Clouds 14 1036 16 10000 4.63 270 18:52 13.10.2022
1410 Clouds 14 1036 16 10000 4.63 270 18:21 13.10.2022
1411 Clear 9 1037 26 10000 3.09 220 15:58 13.10.2022
1412 Clear 9 1037 26 10000 3.09 220 15:40 13.10.2022
1413 Clear 7 1036 33 10000 3.09 240 14:18 13.10.2022
1414 Clear -3 1034 33 10000 1.03 0 12:43 13.10.2022
1415 Clear 3 1034 32 10000 2.06 360 11:27 13.10.2022
1416 Clouds 4 1035 32 10000 2.06 360 08:50 13.10.2022
1417 Clouds 3 1035 44 10000 3.6 20 07:38 13.10.2022
1418 Clear 4 1036 38 10000 2.06 160 05:28 13.10.2022
1419 Clouds 13 1032 13 10000 9.26 230 01:41 13.10.2022
1420 Clouds 16 1031 15 10000 7.2 270 00:41 13.10.2022
1421 Clouds 17 1031 17 10000 6.17 310 22:45 12.10.2022
1422 Clouds 16 1032 15 10000 7.72 290 21:48 12.10.2022
1423 Clouds 16 1032 15 10000 7.72 290 21:19 12.10.2022
1424 Clouds 17 1033 15 10000 6.69 300 20:35 12.10.2022
1425 Clouds 16 1035 14 10000 6.17 280 19:23 12.10.2022
1426 Clouds 16 1036 15 10000 8.75 290 18:18 12.10.2022
1427 Clouds 14 1037 16 10000 7.2 270 17:42 12.10.2022
1428 Clear 9 1037 21 10000 3.6 260 14:45 12.10.2022
1429 Clear 7 1036 24 10000 2.57 320 13:53 12.10.2022
1430 Clear 2 1035 29 10000 2.57 10 11:54 12.10.2022
1431 Clear 4 1035 25 10000 2.57 360 09:36 12.10.2022
1432 Clear 5 1037 22 10000 2.06 360 07:42 12.10.2022
1433 Clear 5 1037 22 10000 2.06 10 06:44 12.10.2022
1434 Clear 6 1038 22 10000 1.03 0 05:27 12.10.2022
1435 Clouds 18 1033 17 10000 5.14 270 23:56 11.10.2022
1436 Clouds 18 1034 17 10000 5.66 270 21:25 11.10.2022
1437 Clouds 18 1035 18 10000 6.69 290 20:26 11.10.2022
1438 Clouds 17 1038 14 10000 6.69 290 18:25 11.10.2022
1439 Clouds 12 1039 12 10000 4.12 280 15:56 11.10.2022
1440 Clear 5 1038 20 10000 2.06 330 13:37 11.10.2022
1441 Clear 4 1037 27 10000 3.09 10 10:47 11.10.2022
1442 Clear 4 1037 27 10000 3.09 10 10:26 11.10.2022
1443 Clear 4 1037 27 10000 2.57 10 08:32 11.10.2022
1444 Clouds 12 1036 25 10000 4.12 240 02:59 11.10.2022
1445 Clouds 18 1032 20 10000 5.14 290 00:39 11.10.2022
1446 Clouds 19 1032 19 10000 5.14 310 23:52 10.10.2022
1447 Clouds 18 1034 13 10000 5.14 280 20:58 10.10.2022
1448 Clouds 18 1035 17 10000 5.66 300 19:40 10.10.2022
1449 Clouds 16 1038 21 10000 5.14 280 17:34 10.10.2022
1450 Clouds 14 1038 35 10000 4.63 290 16:37 10.10.2022
1451 Clouds 9 1037 57 10000 2.57 250 14:22 10.10.2022
1452 Clouds 0 1036 80 10000 1.03 0 12:23 10.10.2022
1453 Fog 2 1035 93 4000 1.03 0 10:20 10.10.2022
1454 Clouds 5 1036 87 10000 0 0 07:21 10.10.2022
1455 Clouds 7 1037 70 10000 1.03 0 05:35 10.10.2022
1456 Clouds 11 1033 46 10000 6.69 50 01:58 10.10.2022
1457 Clouds 11 1033 46 10000 6.69 50 01:58 10.10.2022
1458 Clouds 11 1033 46 10000 6.69 50 01:58 10.10.2022
1459 Clouds 11 1033 46 10000 6.69 50 01:58 10.10.2022
1460 Clouds 15 1031 33 10000 7.2 60 00:23 10.10.2022
1461 Clouds 17 1031 26 10000 5.66 60 22:26 09.10.2022
1462 Clouds 17 1032 29 10000 6.69 60 21:45 09.10.2022
1463 Clouds 15 1033 33 10000 7.2 50 20:45 09.10.2022
1464 Clouds 16 1034 33 10000 4.63 90 19:51 09.10.2022
1465 Clouds 18 1035 27 10000 4.63 120 18:52 09.10.2022
1466 Clouds 18 1035 27 10000 4.63 120 18:25 09.10.2022
1467 Clouds 14 1036 28 10000 3.09 160 16:56 09.10.2022
1468 Clouds 14 1036 28 10000 3.09 160 16:21 09.10.2022
1469 Clear 13 1036 35 10000 1.03 0 15:25 09.10.2022
1470 Clouds 10 1036 18 10000 1.03 0 14:26 09.10.2022
1471 Clouds 4 1034 21 10000 2.57 10 12:53 09.10.2022
1472 Clear 4 1034 23 10000 2.57 10 11:28 09.10.2022
1473 Clear 7 1034 30 10000 2.57 30 08:41 09.10.2022
1474 Clouds 7 1036 48 10000 2.06 30 06:46 09.10.2022
1475 Clouds 12 1034 34 10000 1.03 0 03:29 09.10.2022
1476 Clouds 14 1031 28 10000 5.14 100 01:54 09.10.2022
1477 Clouds 20 1031 17 10000 4.12 290 23:33 08.10.2022
1478 Clouds 21 1031 15 10000 3.6 290 22:52 08.10.2022
1479 Clouds 19 1034 22 10000 4.12 240 20:45 08.10.2022
1480 Clouds 18 1035 20 10000 3.6 300 19:48 08.10.2022
1481 Clouds 14 1037 19 10000 4.63 270 17:45 08.10.2022
1482 Clear 11 1037 43 10000 5.14 280 15:36 08.10.2022
1483 Clear 6 1036 41 10000 1.03 0 13:53 08.10.2022
1484 Clear -1 1035 63 10000 1.03 0 12:30 08.10.2022
1485 Fog 0 1034 93 4000 3.09 70 10:35 08.10.2022
1486 Fog 0 1035 93 4000 2.57 70 09:42 08.10.2022
1487 Fog 1 1036 93 4000 3.09 80 07:29 08.10.2022
1488 Clear 7 1034 36 10000 2.06 60 02:41 08.10.2022
1489 Clouds 18 1032 16 10000 5.14 180 23:52 07.10.2022
1490 Clouds 18 1032 16 10000 5.14 180 23:20 07.10.2022
1491 Clouds 18 1033 16 10000 5.14 160 22:19 07.10.2022
1492 Clouds 18 1035 12 10000 2.57 60 20:35 07.10.2022
1493 Clouds 16 1038 15 10000 4.12 60 18:29 07.10.2022
1494 Clouds 12 1039 12 10000 1.03 0 16:58 07.10.2022
1495 Clouds 10 1039 21 8000 2.57 230 15:50 07.10.2022
1496 Clouds 9 1039 24 8000 1.03 0 14:35 07.10.2022
1497 Clouds -2 1037 54 10000 0 0 11:48 07.10.2022
1498 Clouds 3 1037 29 10000 2.06 270 09:26 07.10.2022
1499 Clouds 4 1038 32 10000 2.57 360 08:47 07.10.2022
1500 Clouds 9 1039 70 10000 3.09 150 05:51 07.10.2022
1501 Clouds 16 1034 15 10000 6.17 220 00:28 07.10.2022
1502 Clouds 18 1033 12 10000 5.14 230 22:50 06.10.2022
1503 Clouds 17 1034 13 10000 4.63 230 21:42 06.10.2022
1504 Clouds 18 1035 16 10000 4.12 240 20:54 06.10.2022
1505 Clouds 16 1036 18 10000 3.09 190 19:46 06.10.2022
1506 Clouds 14 1010 30 10000 2.06 300 18:37 06.10.2022
1507 Clouds 9 1038 19 10000 1.03 0 16:58 06.10.2022
1508 Clouds 6 1038 16 10000 1.03 0 14:19 06.10.2022
1509 Clouds 2 1035 23 10000 2.06 10 11:24 06.10.2022
1510 Clouds 9 1037 14 10000 3.6 200 05:47 06.10.2022
1511 Clouds 10 1036 13 10000 5.14 210 03:24 06.10.2022
1512 Clouds 19 1031 16 10000 6.69 310 22:34 05.10.2022
1513 Clouds 17 1034 26 10000 5.14 290 19:54 05.10.2022
1514 Clouds 16 1036 38 10000 5.66 260 17:50 05.10.2022
1515 Clouds 16 1036 38 10000 5.66 260 17:29 05.10.2022
1516 Clouds 12 1036 40 10000 4.12 260 15:46 05.10.2022
1517 Clouds 10 1036 36 10000 3.09 280 14:38 05.10.2022
1518 Clouds 7 1035 42 10000 2.06 340 13:39 05.10.2022
1519 Clouds 4 1034 41 10000 2.06 360 12:19 05.10.2022
1520 Clouds 5 1034 44 10000 2.06 20 08:45 05.10.2022
1521 Clouds 6 1035 52 10000 1.03 0 07:23 05.10.2022
1522 Clouds 6 1036 60 10000 1.03 0 05:35 05.10.2022
1523 Clouds 12 1033 43 10000 3.6 10 02:40 05.10.2022
1524 Clouds 15 1032 35 10000 5.66 60 00:41 05.10.2022
1525 Clouds 15 1032 35 10000 5.66 60 00:23 05.10.2022
1526 Clouds 16 1033 21 10000 2.06 70 21:38 04.10.2022
1527 Clouds 18 1034 17 10000 4.12 220 20:20 04.10.2022
1528 Clouds 15 1037 24 10000 2.06 210 18:56 04.10.2022
1529 Clouds 15 1037 24 10000 2.06 210 18:34 04.10.2022
1530 Clouds 13 1038 50 10000 2.06 110 16:58 04.10.2022
1531 Clouds 11 1038 57 10000 2.06 120 15:21 04.10.2022
1532 Fog 1 1035 100 4000 2.06 60 10:54 04.10.2022
1533 Fog 3 1036 93 3000 2.06 60 08:28 04.10.2022
1534 Clouds 8 1038 70 10000 2.57 10 05:56 04.10.2022
1535 Clouds 11 1035 61 10000 5.14 50 00:25 04.10.2022
1536 Rain 12 1035 62 10000 6.17 160 22:57 03.10.2022
1537 Clouds 16 1035 44 10000 5.14 90 21:41 03.10.2022
1538 Clouds 13 1037 54 10000 6.17 160 20:40 03.10.2022
1539 Clouds 12 1038 66 10000 2.57 60 18:52 03.10.2022
1540 Clouds 12 1039 66 10000 4.12 120 17:35 03.10.2022
1541 Clouds 11 1040 61 10000 2.06 160 16:22 03.10.2022
1542 Clouds 9 1039 76 6000 2.57 80 14:30 03.10.2022
1543 Fog 7 1039 93 4000 2.57 70 12:46 03.10.2022
1544 Fog 7 1038 93 4000 3.6 100 11:21 03.10.2022
1545 Fog 7 1039 93 4000 2.57 80 09:59 03.10.2022
1546 Clouds 6 1039 100 10000 1.03 0 08:47 03.10.2022
1547 Clouds 9 1040 65 10000 3.09 320 04:45 03.10.2022
1548 Clouds 10 1037 61 10000 6.69 60 23:51 02.10.2022
1549 Clouds 14 1036 37 10000 7.2 50 22:19 02.10.2022
1550 Clouds 17 1038 33 10000 4.12 130 19:52 02.10.2022
1551 Clouds 15 1040 41 10000 2.57 150 17:56 02.10.2022
1552 Clouds 12 1041 46 10000 2.06 150 16:57 02.10.2022
1553 Clouds 12 1041 46 10000 2.06 150 16:32 02.10.2022
1554 Clouds 10 1041 53 10000 2.06 80 15:34 02.10.2022
1555 Fog 1 1039 93 4000 3.09 80 13:46 02.10.2022
1556 Fog 0 1038 100 4000 3.6 70 12:42 02.10.2022
1557 Fog -1 1038 93 4000 2.57 80 11:53 02.10.2022
1558 Fog -1 1038 93 4000 2.57 80 11:33 02.10.2022
1559 Fog 1 1038 93 4000 3.09 70 10:19 02.10.2022
1560 Clouds 2 1038 93 10000 3.09 70 08:28 02.10.2022
1561 Clouds 5 1039 70 10000 3.6 80 05:19 02.10.2022
1562 Clouds 13 1036 25 10000 5.66 50 00:58 02.10.2022
1563 Clouds 13 1036 25 10000 5.66 50 00:38 02.10.2022
1564 Clouds 15 1036 26 10000 6.17 40 23:28 01.10.2022
1565 Clouds 16 1036 30 10000 5.14 110 21:39 01.10.2022
1566 Clouds 16 1039 33 10000 3.6 250 18:54 01.10.2022
1567 Clouds 13 1040 43 10000 2.57 300 17:28 01.10.2022
1568 Clouds 10 1040 57 10000 1.03 0 15:28 01.10.2022
1569 Clouds 3 1038 80 10000 2.06 70 13:52 01.10.2022
1570 Clouds -1 1037 86 10000 2.06 70 12:34 01.10.2022
1571 Clouds 3 1037 80 10000 1.03 0 11:22 01.10.2022
1572 Clouds 3 1036 80 10000 1.03 0 10:47 01.10.2022
1573 Clouds 3 1036 80 10000 1.03 0 10:26 01.10.2022
1574 Clouds 5 1037 81 10000 1.03 0 09:21 01.10.2022
1575 Clouds 4 1037 93 10000 1.03 0 08:26 01.10.2022
1576 Clouds 8 1036 33 10000 5.66 80 03:39 01.10.2022
1577 Clouds 11 1035 49 10000 6.17 50 01:31 01.10.2022
1578 Clouds 16 1034 26 10000 5.66 90 23:21 30.09.2022
1579 Clouds 17 1034 33 10000 5.14 100 21:57 30.09.2022
1580 Clouds 17 1035 36 10000 4.63 110 20:45 30.09.2022
1581 Clouds 17 1035 36 10000 4.63 110 20:20 30.09.2022
1582 Clouds 14 1038 43 10000 2.57 270 17:59 30.09.2022
1583 Clouds 11 1038 43 10000 3.09 250 16:31 30.09.2022
1584 Clouds 7 1037 75 6000 1.03 0 14:22 30.09.2022
1585 Fog 1 1035 93 4000 2.57 80 12:29 30.09.2022
1586 Fog 1 1035 86 4000 2.57 70 11:54 30.09.2022
1587 Fog 4 1035 87 4000 4.63 90 08:51 30.09.2022
1588 Fog 4 1036 93 4000 3.6 80 06:34 30.09.2022
1589 Clouds 11 1034 14 10000 2.06 260 02:50 30.09.2022
1590 Clouds 16 1032 9 10000 4.12 270 00:35 30.09.2022
1591 Clouds 18 1032 11 10000 4.63 280 21:39 29.09.2022
1592 Clouds 18 1032 11 10000 4.63 280 21:18 29.09.2022
1593 Clouds 17 1035 18 10000 5.14 270 18:54 29.09.2022
1594 Clouds 14 1036 30 10000 6.17 270 17:48 29.09.2022
1595 Clouds 13 1036 43 10000 6.17 280 16:29 29.09.2022
1596 Clouds 10 1036 46 10000 1.03 0 15:36 29.09.2022
1597 Clouds 8 1036 49 10000 1.03 0 14:59 29.09.2022
1598 Clouds 1 1034 43 10000 0 0 11:53 29.09.2022
1599 Clouds 6 1036 48 10000 1.03 0 07:39 29.09.2022
1600 Clouds 9 1036 39 10000 2.57 80 03:24 29.09.2022
1601 Clouds 18 1032 13 10000 3.09 290 00:29 29.09.2022
1602 Clouds 18 1032 11 10000 2.57 310 23:19 28.09.2022
1603 Clouds 18 1034 10 10000 5.66 300 21:30 28.09.2022
1604 Clouds 19 1035 12 10000 6.17 290 20:45 28.09.2022
1605 Clouds 17 1038 10 10000 5.14 290 18:53 28.09.2022
1606 Clouds 11 1038 27 10000 3.6 290 15:46 28.09.2022
1607 Clouds 5 1037 41 10000 2.57 360 13:28 28.09.2022
1608 Clouds 0 1035 43 10000 1.03 0 11:34 28.09.2022
1609 Clouds 4 1035 35 10000 2.57 20 09:26 28.09.2022
1610 Clouds 4 1037 51 10000 2.06 330 07:40 28.09.2022
1611 Clear 5 1038 25 10000 1.03 0 05:31 28.09.2022
1612 Clouds 15 1034 21 10000 4.63 280 01:40 28.09.2022
1613 Clouds 19 1033 11 10000 7.2 280 23:30 27.09.2022
1614 Clouds 19 1034 11 10000 9.26 280 21:55 27.09.2022
1615 Clouds 19 1035 12 10000 7.2 300 20:49 27.09.2022
1616 Clouds 18 1036 13 10000 5.66 290 19:49 27.09.2022
1617 Clouds 18 1036 13 10000 5.66 290 19:30 27.09.2022
1618 Clouds 16 1037 21 10000 6.69 280 17:46 27.09.2022
1619 Clouds 16 1037 21 10000 6.69 280 17:46 27.09.2022
1620 Clouds 12 1037 50 10000 2.57 270 15:59 27.09.2022
1621 Clouds 10 1037 66 10000 2.06 80 14:59 27.09.2022
1622 Fog 3 1036 86 4000 2.06 60 13:28 27.09.2022
1623 Clouds 2 1035 86 10000 0 0 12:22 27.09.2022
1624 Clouds 7 1035 81 10000 1.03 0 09:46 27.09.2022
1625 Clouds 7 1037 81 10000 1.03 0 07:28 27.09.2022
1626 Clouds 10 1035 61 10000 5.14 90 02:51 27.09.2022
1627 Clouds 11 1033 53 10000 4.63 80 01:35 27.09.2022
1628 Clouds 18 1032 31 10000 5.14 310 23:35 26.09.2022
1629 Clouds 18 1033 27 10000 6.69 300 22:40 26.09.2022
1630 Clouds 17 1034 33 10000 5.66 280 20:46 26.09.2022
1631 Clouds 16 1035 35 10000 4.63 270 19:34 26.09.2022
1632 Clouds 17 1036 37 10000 4.63 270 18:34 26.09.2022
1633 Clouds 12 1037 46 10000 3.09 260 16:41 26.09.2022
1634 Clouds 8 1036 75 6000 4.12 70 14:41 26.09.2022
1635 Fog 1 1034 93 4000 2.06 100 11:35 26.09.2022
1636 Fog 3 1034 86 4000 2.06 80 10:41 26.09.2022
1637 Fog 3 1034 86 4000 2.06 80 10:21 26.09.2022
1638 Fog 2 1035 93 4000 2.57 80 09:55 26.09.2022
1639 Fog 2 1035 93 4000 2.57 80 09:24 26.09.2022
1640 Clouds 6 1035 65 10000 2.06 40 08:57 26.09.2022
1641 Clouds 10 1034 46 10000 4.12 80 02:57 26.09.2022
1642 Clouds 18 1032 11 10000 4.63 260 23:57 25.09.2022
1643 Clouds 17 1032 11 10000 5.14 300 22:45 25.09.2022
1644 Clouds 18 1033 11 10000 6.69 300 21:35 25.09.2022
1645 Clouds 17 1034 17 10000 5.66 310 20:48 25.09.2022
1646 Clouds 16 1035 19 10000 3.6 280 19:43 25.09.2022
1647 Clouds 15 1037 18 10000 6.17 270 18:43 25.09.2022
1648 Clouds 15 1037 18 10000 6.17 270 18:20 25.09.2022
1649 Clouds 13 1037 30 10000 3.6 280 16:45 25.09.2022
1650 Clouds 10 1037 39 10000 4.63 310 15:45 25.09.2022
1651 Clouds 6 1036 70 10000 2.57 260 14:22 25.09.2022
1652 Clouds 4 1034 80 10000 2.06 250 12:55 25.09.2022
1653 Clouds 4 1034 93 10000 1.54 260 10:32 25.09.2022
1654 Clouds 5 1035 81 10000 3.6 360 08:24 25.09.2022
1655 Clouds 3 1039 93 3000 5.66 280 05:47 25.09.2022
1656 Clouds 8 1035 65 6000 9.26 180 01:55 25.09.2022
1657 Clouds 17 1032 36 10000 4.12 270 22:35 24.09.2022
1658 Clouds 19 1033 22 10000 4.12 120 20:55 24.09.2022
1659 Clouds 16 1034 35 10000 4.63 130 19:22 24.09.2022
1660 Clouds 14 1037 43 10000 3.6 120 17:49 24.09.2022
1661 Clouds 12 1037 62 10000 3.6 120 16:25 24.09.2022
1662 Clouds 10 1037 66 6000 4.63 100 15:20 24.09.2022
1663 Fog 5 1035 87 4000 3.09 80 13:25 24.09.2022
1664 Fog 3 1035 93 4000 3.09 90 12:49 24.09.2022
1665 Fog 5 1035 93 4000 3.09 80 10:38 24.09.2022
1666 Fog 5 1035 93 4000 4.12 90 09:35 24.09.2022
1667 Fog 6 1035 93 4000 4.12 80 08:43 24.09.2022
1668 Clouds 5 1037 87 10000 3.6 70 06:53 24.09.2022
1669 Clouds 9 1036 70 10000 3.6 100 04:35 24.09.2022
1670 Clouds 13 1033 37 10000 4.63 70 01:45 24.09.2022
1671 Clouds 20 1033 14 10000 3.6 280 22:24 23.09.2022
1672 Clouds 20 1034 17 10000 4.12 320 21:26 23.09.2022
1673 Clouds 19 1035 20 10000 4.12 260 20:55 23.09.2022
1674 Clouds 18 1036 25 10000 3.6 230 19:46 23.09.2022
1675 Clouds 17 1037 23 10000 3.09 240 18:24 23.09.2022
1676 Fog 4 1037 87 2500 4.12 80 13:44 23.09.2022
1677 Clouds 0 1036 74 10000 1.03 0 10:26 23.09.2022
1678 Clouds 2 1037 80 10000 1.03 0 08:56 23.09.2022
1679 Clouds 6 1037 70 10000 1.54 100 04:42 23.09.2022
1680 Clouds 16 1033 38 10000 6.17 60 23:30 22.09.2022
1681 Clouds 18 1033 31 10000 4.12 100 22:28 22.09.2022
1682 Clouds 18 1034 29 10000 4.12 50 21:39 22.09.2022
1683 Clouds 17 1035 31 10000 4.12 120 20:31 22.09.2022
1684 Clouds 17 1038 21 10000 2.57 30 18:59 22.09.2022
1685 Clouds 12 1039 43 10000 4.12 100 15:58 22.09.2022
1686 Clouds 4 1036 44 10000 3.09 10 10:55 22.09.2022
1687 Clouds 4 1036 44 10000 3.09 10 10:19 22.09.2022
1688 Clouds 5 1036 28 10000 2.06 10 08:20 22.09.2022
1689 Clouds 7 1038 33 10000 1.03 0 05:22 22.09.2022
1690 Clouds 15 1035 33 10000 4.12 240 01:27 22.09.2022
1691 Clouds 20 1034 16 10000 5.66 240 22:29 21.09.2022
1692 Clouds 20 1034 11 10000 6.69 230 21:24 21.09.2022
1693 Clouds 17 1037 21 10000 5.14 260 18:51 21.09.2022
1694 Clouds 15 1038 24 10000 5.14 280 17:45 21.09.2022
1695 Clouds 10 1038 31 10000 2.06 260 15:47 21.09.2022
1696 Clouds 4 1036 23 10000 1.54 10 13:54 21.09.2022
1697 Clouds 0 1034 16 10000 1.03 0 11:43 21.09.2022
1698 Clouds 0 1035 34 10000 1.03 0 10:59 21.09.2022
1699 Clouds 5 1035 32 10000 2.57 10 09:40 21.09.2022
1700 Clouds 5 1036 35 10000 2.57 10 08:43 21.09.2022
1701 Clouds 11 1037 21 10000 2.57 240 03:56 21.09.2022
1702 Clouds 13 1035 37 10000 2.06 100 02:38 21.09.2022
1703 Clouds 15 1034 21 10000 5.14 280 01:56 21.09.2022
1704 Clouds 18 1033 20 10000 4.63 280 00:19 21.09.2022
1705 Clouds 20 1034 16 10000 6.69 270 21:53 20.09.2022
1706 Clouds 20 1035 20 10000 6.17 290 20:32 20.09.2022
1707 Clouds 18 1037 25 10000 5.14 280 18:41 20.09.2022
1708 Clouds 10 1038 49 10000 2.57 270 15:37 20.09.2022
1709 Clouds 7 1038 56 9000 1.03 0 14:18 20.09.2022
1710 Clouds 4 1035 55 10000 1.54 360 11:29 20.09.2022
1711 Clouds 2 1036 80 10000 1.03 0 08:38 20.09.2022
1712 Clouds 4 1037 60 10000 1.54 30 07:37 20.09.2022
1713 Clear 8 1037 61 10000 1.03 0 04:35 20.09.2022
1714 Clouds 14 1034 43 10000 3.09 100 01:42 20.09.2022
1715 Clouds 19 1034 17 10000 4.63 300 22:42 19.09.2022
1716 Clouds 19 1035 17 10000 4.12 240 21:28 19.09.2022
1717 Clouds 19 1036 15 10000 5.14 250 20:40 19.09.2022
1718 Clouds 17 1038 12 10000 5.14 330 18:45 19.09.2022
1719 Clouds 14 1038 22 10000 1.03 0 16:48 19.09.2022
1720 Clouds 2 1036 51 10000 1.03 0 13:47 19.09.2022
1721 Clouds 0 1035 59 10000 1.03 0 11:57 19.09.2022
1722 Clouds 3 1035 60 10000 1.03 0 09:38 19.09.2022
1723 Clouds 2 1035 74 10000 1.03 0 08:32 19.09.2022
1724 Clouds 11 1036 66 10000 1.03 0 03:37 19.09.2022
1725 Clouds 17 1033 17 10000 4.63 280 00:44 19.09.2022
1726 Clouds 20 1033 19 10000 5.66 300 22:32 18.09.2022
1727 Clouds 20 1035 24 10000 5.14 310 20:47 18.09.2022
1728 Clouds 18 1035 23 10000 5.66 280 19:33 18.09.2022
1729 Clouds 15 1037 41 10000 4.63 240 17:51 18.09.2022
1730 Clouds 13 1037 54 10000 4.12 240 16:47 18.09.2022
1731 Clouds 9 1037 57 10000 1.03 0 14:44 18.09.2022
1732 Clouds 3 1036 64 6000 1.03 0 13:34 18.09.2022
1733 Clouds 4 1035 51 10000 2.06 300 11:55 18.09.2022
1734 Clouds 5 1036 100 10000 1.03 0 07:46 18.09.2022
1735 Clouds 14 1033 43 10000 2.57 300 01:41 18.09.2022
1736 Clouds 14 1033 43 10000 2.57 300 01:19 18.09.2022
1737 Clouds 19 1033 27 10000 5.14 270 22:55 17.09.2022
1738 Clouds 18 1035 27 10000 4.63 310 20:51 17.09.2022
1739 Clouds 17 1036 29 10000 3.09 250 19:36 17.09.2022
1740 Clouds 14 1039 30 10000 3.6 250 17:36 17.09.2022
1741 Clouds 8 1038 49 10000 2.06 250 14:22 17.09.2022
1742 Clouds 5 1037 65 10000 2.06 10 12:44 17.09.2022
1743 Clouds 5 1036 56 10000 2.06 360 10:48 17.09.2022
1744 Clouds 7 1037 65 10000 1.03 0 06:31 17.09.2022
1745 Clouds 8 1037 52 10000 3.6 90 03:55 17.09.2022
1746 Clouds 17 1034 31 10000 3.6 300 23:36 16.09.2022
1747 Clouds 16 1035 33 10000 3.09 320 21:47 16.09.2022
1748 Clouds 13 1037 43 10000 7.2 360 20:41 16.09.2022
1749 Clouds 15 1039 35 10000 2.57 250 18:28 16.09.2022
1750 Clouds 11 1040 53 10000 3.09 270 16:21 16.09.2022
1751 Clouds 5 1038 93 9000 1.03 0 14:44 16.09.2022
1752 Fog 3 1037 93 4000 2.06 80 12:35 16.09.2022
1753 Fog 3 1037 100 4000 2.57 70 09:37 16.09.2022
1754 Fog 5 1038 93 3000 3.09 80 07:22 16.09.2022
1755 Fog 5 1038 93 4000 3.6 90 06:47 16.09.2022
1756 Fog 6 1039 87 4000 4.12 100 05:19 16.09.2022
1757 Clouds 13 1034 43 10000 6.17 140 23:50 15.09.2022
1758 Clouds 16 1035 26 10000 3.09 200 21:24 15.09.2022
1759 Clouds 16 1036 26 10000 3.09 230 20:28 15.09.2022
1760 Clouds 14 1038 30 10000 3.6 310 18:54 15.09.2022
1761 Clouds 13 1039 35 10000 3.09 270 17:34 15.09.2022
1762 Clouds 13 1039 35 10000 3.09 270 17:34 15.09.2022
1763 Clouds 13 1039 35 10000 3.09 270 17:34 15.09.2022
1764 Clouds 10 1039 61 10000 1.54 210 16:57 15.09.2022
1765 Clouds 5 1038 70 10000 0 0 14:58 15.09.2022
1766 Clouds 2 1036 93 10000 1.03 0 12:49 15.09.2022
1767 Clouds 5 1036 75 10000 2.06 30 10:42 15.09.2022
1768 Clouds 4 1036 87 10000 5.66 40 09:42 15.09.2022
1769 Fog 7 1037 87 4000 3.6 110 04:46 15.09.2022
1770 Clouds 8 1035 81 10000 5.14 110 02:18 15.09.2022
1771 Clouds 19 1032 22 10000 5.14 300 22:26 14.09.2022
1772 Clouds 18 1034 31 10000 5.14 290 20:19 14.09.2022
1773 Clouds 17 1035 29 10000 4.63 280 19:32 14.09.2022
1774 Clouds 13 1037 62 10000 4.12 280 17:26 14.09.2022
1775 Clouds 9 1037 81 10000 1.03 0 15:58 14.09.2022
1776 Clouds 7 1036 81 10000 1.03 0 14:35 14.09.2022
1777 Fog 7 1035 93 4000 2.06 110 11:54 14.09.2022
1778 Fog 7 1034 100 4000 3.09 130 09:48 14.09.2022
1779 Fog 7 1036 93 4000 3.09 110 07:39 14.09.2022
1780 Fog 8 1036 93 4000 3.09 120 06:47 14.09.2022
1781 Fog 8 1035 93 4000 5.14 140 04:51 14.09.2022
1782 Clouds 14 1032 32 10000 2.57 300 01:51 14.09.2022
1783 Clouds 14 1032 32 10000 2.57 300 01:29 14.09.2022
1784 Clouds 16 1031 24 10000 5.14 320 00:50 14.09.2022
1785 Clouds 18 1032 20 10000 6.69 290 23:54 13.09.2022
1786 Clouds 18 1032 20 10000 6.69 290 23:36 13.09.2022
1787 Clouds 18 1032 20 10000 6.69 290 23:18 13.09.2022
1788 Clouds 19 1032 16 10000 9.26 290 22:20 13.09.2022
1789 Clouds 18 1034 25 10000 7.2 300 19:52 13.09.2022
1790 Clouds 18 1035 21 10000 6.69 280 18:18 13.09.2022
1791 Clouds 11 1036 53 8000 3.09 280 15:55 13.09.2022
1792 Clouds 8 1036 49 8000 1.03 0 14:36 13.09.2022
1793 Clouds 8 1036 49 8000 1.03 0 14:36 13.09.2022
1794 Fog 2 1035 93 4000 1.54 30 12:40 13.09.2022
1795 Fog 4 1035 100 4000 2.06 70 08:50 13.09.2022
1796 Clouds 7 1035 87 10000 3.09 90 05:45 13.09.2022
1797 Clouds 17 1032 26 10000 4.63 320 00:22 13.09.2022
1798 Clouds 19 1033 22 10000 5.66 300 22:50 12.09.2022
1799 Clouds 19 1033 23 10000 7.72 260 21:37 12.09.2022
1800 Clouds 19 1034 22 10000 5.66 270 20:25 12.09.2022
1801 Clouds 16 1037 23 10000 7.2 280 18:44 12.09.2022
1802 Clouds 13 1038 28 10000 3.09 290 16:38 12.09.2022
1803 Clouds 8 1038 75 10000 1.03 0 14:36 12.09.2022
1804 Clouds 4 1036 64 10000 2.57 360 11:29 12.09.2022
1805 Clouds 2 1036 86 10000 1.54 20 09:46 12.09.2022
1806 Clouds 7 1038 81 10000 1.03 0 04:50 12.09.2022
1807 Clouds 7 1038 81 10000 1.03 0 04:20 12.09.2022
1808 Clouds 20 1034 19 10000 4.63 300 23:23 11.09.2022
1809 Clouds 20 1036 22 10000 5.14 290 21:59 11.09.2022
1810 Clouds 19 1037 22 10000 5.14 260 20:47 11.09.2022
1811 Clouds 19 1011 22 10000 4.12 290 19:53 11.09.2022
1812 Clouds 19 1013 22 10000 4.12 290 19:22 11.09.2022
1813 Clouds 17 1039 26 10000 4.12 250 18:20 11.09.2022
1814 Clouds 13 1040 37 9000 1.54 200 16:34 11.09.2022
1815 Clouds 8 1040 81 9000 1.54 120 14:19 11.09.2022
1816 Fog 6 1038 100 4000 2.06 130 12:40 11.09.2022
1817 Fog 6 1039 93 4000 3.09 70 08:48 11.09.2022
1818 Fog 7 1040 93 4000 3.6 100 06:56 11.09.2022
1819 Clouds 14 1036 54 10000 4.12 80 00:50 11.09.2022
1820 Clouds 17 1036 38 10000 4.63 270 22:55 10.09.2022
1821 Clouds 17 1037 44 10000 3.09 110 20:59 10.09.2022
1822 Clouds 15 1039 50 10000 3.6 120 19:46 10.09.2022
1823 Clouds 15 1039 50 10000 3.6 120 19:28 10.09.2022
1824 Clouds 15 1040 54 10000 2.57 150 18:22 10.09.2022
1825 Clouds 11 1040 61 8000 1.03 0 15:49 10.09.2022
1826 Clouds 7 1040 87 6000 1.03 0 14:40 10.09.2022
1827 Fog 5 1038 93 4000 2.06 120 12:52 10.09.2022
1828 Fog 2 1037 93 3000 2.06 100 10:46 10.09.2022
1829 Fog 2 1038 86 4000 1.03 0 09:28 10.09.2022
1830 Clouds 5 1038 75 10000 1.03 0 08:27 10.09.2022
1831 Clouds 5 1038 75 10000 2.57 60 05:50 10.09.2022
1832 Clouds 16 1035 41 9000 6.17 290 00:19 10.09.2022
1833 Clouds 17 1034 36 10000 4.63 90 23:31 09.09.2022
1834 Clouds 17 1035 29 10000 4.63 100 21:38 09.09.2022
1835 Clouds 18 1036 27 10000 4.12 340 20:31 09.09.2022
1836 Clouds 17 1037 31 10000 4.12 80 19:24 09.09.2022
1837 Clouds 16 1038 26 10000 4.63 130 18:38 09.09.2022
1838 Clear 12 1038 32 10000 4.12 130 16:21 09.09.2022
1839 Clear 0 1036 80 10000 2.06 110 13:48 09.09.2022
1840 Clouds 1 1035 86 10000 3.09 100 11:52 09.09.2022
1841 Fog 4 1035 93 4000 4.12 70 09:21 09.09.2022
1842 Clouds 9 1034 45 10000 3.6 90 03:48 09.09.2022
1843 Clouds 17 1033 25 10000 4.12 280 00:40 09.09.2022
1844 Clouds 19 1034 19 10000 4.63 240 21:52 08.09.2022
1845 Clouds 19 1035 19 10000 5.66 280 20:50 08.09.2022
1846 Clouds 19 1035 19 10000 5.66 280 20:29 08.09.2022
1847 Clouds 18 1036 20 10000 4.63 260 19:28 08.09.2022
1848 Clouds 15 1038 22 10000 2.57 250 17:40 08.09.2022
1849 Clear 13 1038 24 10000 2.06 220 16:19 08.09.2022
1850 Clouds 2 1036 80 10000 2.06 360 13:56 08.09.2022
1851 Clouds 2 1035 80 10000 1.54 10 12:50 08.09.2022
1852 Clouds 1 1034 74 10000 1.54 10 11:32 08.09.2022
1853 Clouds 3 1034 64 10000 2.06 10 09:57 08.09.2022
1854 Clear 3 1036 64 10000 1.03 0 07:38 08.09.2022
1855 Clear 3 1036 80 10000 1.03 0 04:53 08.09.2022
1856 Clear 10 1034 31 10000 3.09 30 02:36 08.09.2022
1857 Clear 10 1034 31 10000 3.09 30 02:18 08.09.2022
1858 Clouds 19 1034 15 10000 4.12 300 23:25 07.09.2022
1859 Clouds 20 1035 14 10000 4.63 260 21:46 07.09.2022
1860 Clouds 20 1035 14 10000 4.63 260 21:24 07.09.2022
1861 Clouds 19 1036 16 10000 4.12 290 20:29 07.09.2022
1862 Clouds 18 1038 16 10000 2.57 260 19:20 07.09.2022
1863 Clouds 13 1040 19 10000 1.03 0 16:30 07.09.2022
1864 Clear 1 1037 59 10000 1.03 0 11:28 07.09.2022
1865 Clear 1 1038 64 10000 1.03 0 10:32 07.09.2022
1866 Clear 1 1038 59 10000 2.57 30 08:29 07.09.2022
1867 Clear 2 1039 86 10000 3.6 70 06:31 07.09.2022
1868 Clouds 15 1036 26 10000 5.14 120 00:38 07.09.2022
1869 Clouds 17 1037 18 10000 1.03 0 21:56 06.09.2022
1870 Clouds 17 1037 18 10000 1.03 0 21:33 06.09.2022
1871 Clouds 16 1039 15 10000 2.57 250 19:39 06.09.2022
1872 Clouds 14 1040 20 10000 3.09 260 18:40 06.09.2022
1873 Clouds 12 1041 27 10000 2.57 260 17:39 06.09.2022
1874 Clear 9 1041 57 10000 3.6 260 16:47 06.09.2022
1875 Clear 6 1041 56 6000 1.03 0 15:58 06.09.2022
1876 Fog 0 1040 93 3000 1.03 0 13:48 06.09.2022
1877 Clouds -2 1039 93 6000 1.03 0 13:27 06.09.2022
1878 Clouds -4 1038 100 10000 1.03 0 12:57 06.09.2022
1879 Fog -1 1037 100 4000 2.57 80 10:55 06.09.2022
1880 Fog 2 1038 93 4000 3.6 80 09:18 06.09.2022
1881 Fog 4 1039 100 4000 3.09 80 07:52 06.09.2022
1882 Fog 4 1039 100 4000 3.09 80 07:52 06.09.2022
1883 Fog 5 1039 93 4000 4.12 80 06:18 06.09.2022
1884 Clouds 15 1034 26 10000 5.66 290 00:45 06.09.2022
1885 Clouds 17 1034 23 10000 6.17 290 22:43 05.09.2022
1886 Clouds 17 1035 25 10000 8.75 300 21:38 05.09.2022
1887 Clouds 15 1037 44 10000 6.69 290 19:56 05.09.2022
1888 Clouds 13 1039 46 10000 4.12 310 18:51 05.09.2022
1889 Clouds 13 1039 46 10000 4.12 310 18:24 05.09.2022
1890 Clouds 9 1040 61 10000 2.06 350 17:35 05.09.2022
1891 Clouds 6 1039 81 6000 4.12 130 15:53 05.09.2022
1892 Fog 1 1037 100 4000 3.6 70 13:54 05.09.2022
1893 Fog 1 1037 100 4000 3.09 70 12:29 05.09.2022
1894 Fog 2 1036 100 4000 3.6 90 10:35 05.09.2022
1895 Fog 3 1038 93 4000 3.6 100 07:44 05.09.2022
1896 Clouds 8 1036 75 10000 5.14 110 02:58 05.09.2022
1897 Clouds 17 1034 20 10000 5.66 290 23:48 04.09.2022
1898 Clouds 17 1034 21 10000 6.69 300 22:28 04.09.2022
1899 Clouds 16 1035 23 10000 7.2 300 21:41 04.09.2022
1900 Clouds 15 1037 35 10000 5.66 300 19:39 04.09.2022
1901 Clouds 14 1038 40 10000 5.14 250 18:21 04.09.2022
1902 Clouds 12 1039 50 10000 2.06 10 17:22 04.09.2022
1903 Fog 6 1038 87 4000 2.06 90 14:56 04.09.2022
1904 Fog 6 1038 87 4000 2.06 90 14:18 04.09.2022
1905 Fog 4 1037 100 4000 3.09 70 12:21 04.09.2022
1906 Fog 6 1037 81 4000 2.57 130 10:47 04.09.2022
1907 Fog 6 1037 93 4000 2.06 90 08:21 04.09.2022
1908 Fog 6 1038 93 4000 3.6 140 05:36 04.09.2022
1909 Clouds 9 1037 70 10000 5.14 120 01:31 04.09.2022
1910 Clouds 17 1034 21 10000 5.14 300 22:26 03.09.2022
1911 Clouds 18 1035 23 10000 6.17 290 21:23 03.09.2022
1912 Clouds 14 1038 37 10000 6.17 300 19:56 03.09.2022
1913 Clouds 11 1039 66 10000 3.09 130 17:29 03.09.2022
1914 Clouds 12 1039 53 10000 1.54 290 16:33 03.09.2022
1915 Clouds 5 1038 93 6000 2.06 80 14:46 03.09.2022
1916 Clouds 5 1038 93 6000 2.06 80 14:26 03.09.2022
1917 Fog 1 1037 100 4000 2.06 70 12:32 03.09.2022
1918 Fog 3 1037 100 2000 2.06 60 10:49 03.09.2022
1919 Clouds 6 1037 75 10000 2.57 360 08:41 03.09.2022
1920 Fog 7 1039 87 4000 5.14 290 06:58 03.09.2022
1921 Fog 7 1039 87 4000 1.03 0 04:38 03.09.2022
1922 Clouds 12 1034 50 10000 4.12 10 00:32 03.09.2022
1923 Clouds 14 1034 43 10000 5.66 20 23:20 02.09.2022
1924 Clouds 12 1035 57 10000 4.63 100 20:59 02.09.2022
1925 Clouds 12 1035 57 10000 4.63 100 20:39 02.09.2022
1926 Clouds 13 1036 50 8000 4.12 120 19:30 02.09.2022
1927 Clouds 14 1037 47 10000 3.6 100 18:43 02.09.2022
1928 Clouds 14 1037 47 10000 3.6 100 18:24 02.09.2022
1929 Clouds 11 1038 61 8000 2.57 140 16:48 02.09.2022
1930 Clouds 10 1037 66 6000 3.09 110 15:21 02.09.2022
1931 Fog 0 1035 93 10000 0 0 12:39 02.09.2022
1932 Clouds 1 1035 86 10000 1.03 0 10:22 02.09.2022
1933 Clouds 3 1035 86 10000 0 0 09:40 02.09.2022
1934 Clouds 3 1036 93 10000 1.54 70 07:32 02.09.2022
1935 Fog 4 1036 100 4000 3.6 90 06:38 02.09.2022
1936 Clouds 8 1034 52 10000 2.57 80 02:52 02.09.2022
1937 Clouds 17 1033 20 10000 5.66 290 22:30 01.09.2022
1938 Clouds 18 1034 23 10000 5.66 300 21:43 01.09.2022
1939 Clouds 18 1034 23 10000 5.66 300 21:25 01.09.2022
1940 Clouds 17 1035 29 10000 6.17 280 20:43 01.09.2022
1941 Clouds 15 1037 33 10000 6.17 290 18:54 01.09.2022
1942 Clouds 13 1038 46 10000 4.63 280 17:21 01.09.2022
1943 Clouds 10 1037 66 10000 3.6 290 15:47 01.09.2022
1944 Clouds 2 1036 86 10000 1.03 0 13:55 01.09.2022
1945 Clouds 5 1036 87 10000 1.03 0 12:57 01.09.2022
1946 Clouds 5 1035 81 10000 1.03 0 11:52 01.09.2022
1947 Clouds 5 1035 81 10000 1.03 0 11:30 01.09.2022
1948 Clouds 6 1036 75 10000 4.12 360 09:49 01.09.2022
1949 Thunderstorm 7 1037 80 10000 1.03 0 07:50 01.09.2022
1950 Clouds 9 1037 65 10000 3.09 90 05:58 01.09.2022
1951 Clouds 12 1034 50 10000 2.57 70 01:31 01.09.2022
1952 Clouds 12 1034 50 10000 2.57 70 01:31 01.09.2022
1953 Clouds 12 1034 50 10000 2.57 70 01:31 01.09.2022
1954 Clouds 18 1033 29 10000 4.12 290 23:19 31.08.2022
1955 Clouds 18 1036 25 10000 3.09 190 20:48 31.08.2022
1956 Clouds 17 1037 26 10000 5.14 250 19:23 31.08.2022
1957 Clouds 12 1040 32 8000 4.12 220 16:49 31.08.2022
1958 Clouds 10 1040 42 8000 2.06 230 15:28 31.08.2022
1959 Fog 1 1038 93 4000 2.57 90 13:38 31.08.2022
1960 Fog 1 1038 93 4000 2.57 90 13:38 31.08.2022
1961 Fog 2 1038 93 4000 3.09 80 12:18 31.08.2022
1962 Clouds 2 1038 93 10000 1.54 90 09:36 31.08.2022
1963 Clouds 3 1038 100 10000 3.09 80 08:31 31.08.2022
1964 Clouds 10 1037 57 10000 3.6 100 02:59 31.08.2022
1965 Clouds 17 1035 33 10000 3.6 100 22:29 30.08.2022
1966 Clouds 17 1035 33 10000 3.6 100 22:29 30.08.2022
1967 Clouds 18 1036 33 10000 4.12 120 21:29 30.08.2022
1968 Clouds 17 1037 33 10000 3.6 100 20:35 30.08.2022
1969 Clouds 11 1041 53 10000 1.03 0 16:58 30.08.2022
1970 Fog 4 1040 93 4000 2.06 50 13:53 30.08.2022
1971 Fog 4 1039 93 4000 2.57 70 12:25 30.08.2022
1972 Fog 3 1038 93 4000 2.57 70 11:20 30.08.2022
1973 Fog 4 1039 93 4000 1.54 50 09:39 30.08.2022
1974 Fog 3 1041 93 4000 1.03 0 06:48 30.08.2022
1975 Clouds 8 1039 65 10000 2.57 90 01:18 30.08.2022
1976 Clouds 14 1037 40 10000 5.66 100 22:38 29.08.2022
1977 Clouds 14 1038 43 10000 5.14 90 21:53 29.08.2022
1978 Clouds 15 1039 41 10000 5.14 110 20:47 29.08.2022
1979 Clouds 13 1041 54 10000 3.09 140 18:59 29.08.2022
1980 Clouds 11 1041 61 8000 3.09 110 17:33 29.08.2022
1981 Clouds 10 1041 61 6000 2.06 120 16:58 29.08.2022
1982 Fog 7 1041 75 4000 1.03 0 15:19 29.08.2022
1983 Fog 4 1041 93 4000 2.57 260 13:54 29.08.2022
1984 Fog 3 1040 93 4000 1.03 0 12:24 29.08.2022
1985 Fog 4 1040 87 4000 1.03 0 10:43 29.08.2022
1986 Fog 3 1040 93 4000 1.03 0 09:18 29.08.2022
1987 Clouds 6 1041 65 10000 4.63 50 06:52 29.08.2022
1988 Clouds 7 1038 60 10000 4.12 60 02:25 29.08.2022
1989 Clouds 11 1037 46 10000 8.23 80 23:33 28.08.2022
1990 Clouds 15 1038 41 10000 7.2 60 21:47 28.08.2022
1991 Clouds 15 1038 41 10000 7.2 60 21:25 28.08.2022
1992 Clouds 15 1039 38 10000 8.23 60 20:18 28.08.2022
1993 Clouds 14 1040 37 10000 9.77 60 18:22 28.08.2022
1994 Clouds 13 1040 37 10000 8.75 60 17:50 28.08.2022
1995 Clouds 12 1040 43 10000 7.2 60 16:42 28.08.2022
1996 Clouds 6 1039 81 6000 5.66 80 14:46 28.08.2022
1997 Clouds 6 1039 81 6000 5.66 80 14:46 28.08.2022
1998 Mist 3 1037 100 1600 5.14 90 12:56 28.08.2022
1999 Clouds 1 1036 80 10000 1.03 0 11:19 28.08.2022
2000 Clouds 3 1036 51 10000 2.57 40 10:19 28.08.2022
2001 Clouds 2 1037 93 10000 1.03 0 08:42 28.08.2022
2002 Clouds 3 1038 80 10000 2.06 60 07:50 28.08.2022
2003 Clouds 9 1036 33 10000 1.03 0 03:44 28.08.2022
2004 Clouds 13 1035 37 10000 4.12 70 00:33 28.08.2022
2005 Clouds 17 1034 25 10000 2.57 30 22:41 27.08.2022
2006 Clouds 17 1034 25 10000 2.57 30 22:18 27.08.2022
2007 Clouds 18 1036 18 10000 4.12 140 20:27 27.08.2022
2008 Clouds 16 1038 17 8000 2.57 130 18:42 27.08.2022
2009 Clear 14 1039 20 8000 2.06 110 16:25 27.08.2022
2010 Clear 10 1039 29 8000 1.03 0 15:30 27.08.2022
2011 Clouds 2 1037 69 10000 2.06 340 12:41 27.08.2022
2012 Clouds 4 1037 60 10000 1.03 0 11:53 27.08.2022
2013 Clouds 3 1037 60 10000 2.57 10 09:51 27.08.2022
2014 Clouds 3 1037 60 10000 2.57 20 08:53 27.08.2022
2015 Clouds 3 1037 69 10000 3.09 60 04:39 27.08.2022
2016 Clouds 14 1034 30 10000 5.14 40 00:20 27.08.2022
2017 Clouds 16 1034 26 10000 6.17 50 23:24 26.08.2022
2018 Clouds 16 1035 24 10000 5.14 110 21:43 26.08.2022
2019 Clouds 17 1037 26 10000 3.09 120 19:25 26.08.2022
2020 Clouds 14 1039 26 8000 3.09 270 17:29 26.08.2022
2021 Clouds 10 1039 34 8000 1.03 0 15:35 26.08.2022
2022 Clear 7 1038 36 10000 1.03 0 14:42 26.08.2022
2023 Clouds -3 1037 54 10000 2.06 40 12:53 26.08.2022
2024 Clouds -2 1037 50 10000 2.06 40 11:35 26.08.2022
2025 Clouds 0 1037 54 10000 1.03 0 10:46 26.08.2022
2026 Clouds 1 1038 80 10000 3.09 60 07:31 26.08.2022
2027 Clouds 8 1037 39 10000 2.57 20 02:31 26.08.2022
2028 Clouds 18 1036 17 10000 4.12 310 23:44 25.08.2022
2029 Clouds 18 1037 16 10000 4.63 230 21:37 25.08.2022
2030 Clouds 18 1038 18 10000 3.09 110 20:50 25.08.2022
2031 Clouds 17 1039 20 10000 3.09 170 19:20 25.08.2022
2032 Clouds 13 1040 25 10000 3.09 180 17:59 25.08.2022
2033 Clouds 13 1040 25 10000 3.09 180 17:31 25.08.2022
2034 Clear 9 1040 31 6000 1.03 0 15:43 25.08.2022
2035 Clear 9 1040 31 6000 1.03 0 15:25 25.08.2022
2036 Clear -1 1038 50 10000 2.06 20 11:55 25.08.2022
2037 Clear -3 1037 54 10000 0 0 10:48 25.08.2022
2038 Clear 1 1038 59 10000 1.03 0 09:20 25.08.2022
2039 Clear 7 1039 48 10000 3.09 150 05:39 25.08.2022
2040 Clear 11 1037 29 10000 4.63 120 01:42 25.08.2022
2041 Clouds 18 1036 13 10000 4.63 290 23:26 24.08.2022
2042 Clouds 18 1036 16 10000 3.09 250 22:22 24.08.2022
2043 Clouds 18 1037 14 10000 4.12 160 21:36 24.08.2022
2044 Clouds 17 1038 17 10000 4.63 100 20:52 24.08.2022
2045 Clouds 16 1040 10 10000 4.63 150 18:58 24.08.2022
2046 Clear 14 1041 12 10000 3.09 120 16:37 24.08.2022
2047 Clear 10 1041 17 10000 1.03 0 15:52 24.08.2022
2048 Clouds -5 1039 42 10000 1.54 30 13:40 24.08.2022
2049 Clouds -6 1038 49 10000 1.03 0 11:38 24.08.2022
2050 Clouds -5 1038 53 10000 1.03 0 09:35 24.08.2022
2051 Clouds 0 1038 59 10000 1.03 0 07:50 24.08.2022
2052 Clouds 3 1036 37 10000 3.6 70 02:29 24.08.2022
2053 Clouds 18 1035 12 10000 4.12 150 23:26 23.08.2022
2054 Clouds 19 1035 10 10000 4.12 240 22:32 23.08.2022
2055 Clouds 19 1036 10 10000 4.12 220 21:29 23.08.2022
2056 Clouds 18 1037 11 10000 2.57 240 20:20 23.08.2022
2057 Clouds 16 1039 9 10000 4.12 230 18:44 23.08.2022
2058 Clouds 14 1040 13 10000 3.09 270 17:48 23.08.2022
2059 Clouds 11 1040 27 10000 2.06 260 16:53 23.08.2022
2060 Clouds 8 1039 36 10000 2.06 250 15:37 23.08.2022
2061 Clouds -2 1037 74 10000 1.03 0 13:26 23.08.2022
2062 Clouds -2 1037 74 10000 1.03 0 13:26 23.08.2022
2063 Clouds -4 1036 53 10000 1.03 0 11:24 23.08.2022
2064 Clouds -2 1036 63 10000 2.06 10 10:36 23.08.2022
2065 Clear -1 1036 68 10000 2.06 20 09:52 23.08.2022
2066 Clouds -2 1037 80 10000 2.57 60 08:51 23.08.2022
2067 Clouds -2 1037 80 10000 2.57 60 08:20 23.08.2022
2068 Clouds -1 1038 93 10000 2.57 80 07:34 23.08.2022
2069 Clear 0 1038 93 10000 3.6 70 06:27 23.08.2022
2070 Clouds 7 1037 56 10000 2.57 90 03:24 23.08.2022
2071 Clouds 16 1033 10 10000 2.57 290 00:28 23.08.2022
2072 Clouds 18 1033 10 10000 4.12 310 23:33 22.08.2022
2073 Clouds 19 1033 10 10000 4.63 300 22:34 22.08.2022
2074 Clouds 19 1034 11 10000 3.6 250 21:25 22.08.2022
2075 Clouds 17 1036 15 10000 2.06 270 19:47 22.08.2022
2076 Clouds 15 1038 18 10000 2.06 260 18:45 22.08.2022
2077 Clouds 10 1038 34 10000 2.06 230 16:47 22.08.2022
2078 Clouds 8 1038 39 10000 1.03 0 15:39 22.08.2022
2079 Clouds 8 1038 39 10000 1.03 0 15:39 22.08.2022
2080 Fog -3 1037 86 4000 2.57 90 13:47 22.08.2022
2081 Clouds -4 1037 93 10000 1.54 20 10:38 22.08.2022
2082 Clouds -2 1038 86 10000 2.57 80 07:58 22.08.2022
2083 Clear 6 1037 30 10000 5.66 80 03:49 22.08.2022
2084 Clouds 13 1035 25 10000 6.17 100 00:38 22.08.2022
2085 Clouds 13 1035 25 10000 6.17 100 00:18 22.08.2022
2086 Clouds 18 1035 11 10000 5.66 110 22:18 21.08.2022
2087 Clouds 18 1035 12 10000 4.12 90 21:23 21.08.2022
2088 Clouds 16 1037 21 10000 3.6 120 20:27 21.08.2022
2089 Clouds 16 1038 24 10000 2.57 130 19:23 21.08.2022
2090 Clear 11 1039 34 10000 1.03 0 16:54 21.08.2022
2091 Clouds 8 1039 49 10000 1.03 0 15:53 21.08.2022
2092 Clouds 8 1039 49 10000 1.03 0 15:18 21.08.2022
2093 Clear -7 1037 73 10000 1.03 0 13:51 21.08.2022
2094 Clouds -6 1037 67 10000 1.03 0 12:57 21.08.2022
2095 Clouds -5 1036 79 10000 2.06 60 10:49 21.08.2022
2096 Clear -5 1037 73 10000 0 0 09:24 21.08.2022
2097 Clear -3 1037 68 10000 0 0 08:56 21.08.2022
2098 Clear -3 1037 68 10000 0 0 08:38 21.08.2022
2099 Clear -2 1038 80 10000 0 0 07:26 21.08.2022
2100 Clear 6 1037 41 10000 4.63 70 02:52 21.08.2022
2101 Clouds 16 1035 9 10000 3.09 80 23:44 20.08.2022
2102 Clouds 17 1036 7 10000 3.6 140 22:23 20.08.2022
2103 Clouds 16 1036 8 10000 4.12 160 21:22 20.08.2022
2104 Clouds 15 1039 11 10000 3.09 170 19:49 20.08.2022
2105 Clouds 15 1039 11 10000 3.09 170 19:21 20.08.2022
2106 Clouds 14 1040 14 10000 2.57 210 18:27 20.08.2022
2107 Clouds 11 1040 21 10000 2.57 240 17:25 20.08.2022
2108 Clear 8 1041 31 10000 2.57 240 16:23 20.08.2022
2109 Clouds 3 1039 19 10000 0 0 14:35 20.08.2022
2110 Clouds -6 1037 38 10000 1.54 360 12:19 20.08.2022
2111 Clear 1 1022 56 10000 0.63 234 11:42 20.08.2022
2112 Clear 3 1022 70 10000 1.02 277 09:20 20.08.2022
2113 Clouds -2 1038 93 10000 3.6 80 07:31 20.08.2022
2114 Clear 0 1039 93 10000 4.12 70 05:22 20.08.2022
2115 Clouds 10 1035 49 10000 5.66 100 00:58 20.08.2022
2116 Clouds 12 1035 40 10000 5.66 100 23:51 19.08.2022
2117 Clouds 13 1035 37 10000 4.12 100 22:45 19.08.2022
2118 Clouds 14 1036 32 10000 4.12 150 21:30 19.08.2022
2119 Clouds 17 1038 29 10000 3.09 80 19:22 19.08.2022
2120 Clouds 9 1040 53 10000 3.09 210 16:23 19.08.2022
2121 Fog -4 1038 79 4000 2.57 100 13:56 19.08.2022
2122 Clouds -3 1037 68 10000 1.03 0 11:51 19.08.2022
2123 Clouds 2 1037 64 10000 2.06 10 10:33 19.08.2022
2124 Clouds 0 1038 74 10000 1.03 0 08:43 19.08.2022
2125 Clouds 2 1038 59 10000 3.09 80 04:39 19.08.2022
2126 Clouds 14 1035 17 10000 3.09 70 00:40 19.08.2022
2127 Clouds 14 1035 17 10000 3.09 70 00:19 19.08.2022
2128 Clouds 16 1034 12 10000 4.12 120 22:56 18.08.2022
2129 Clouds 16 1034 12 10000 4.12 120 22:23 18.08.2022
2130 Clouds 15 1035 10 10000 4.63 130 21:47 18.08.2022
2131 Clouds 15 1036 18 10000 3.6 160 20:45 18.08.2022
2132 Clouds 14 1037 11 10000 2.06 170 19:34 18.08.2022
2133 Clouds 13 1037 7 10000 2.57 230 18:43 18.08.2022
2134 Clouds 10 1038 10 10000 3.6 230 17:32 18.08.2022
2135 Clouds 5 1038 11 10000 1.03 0 15:51 18.08.2022
2136 Clouds 3 1037 15 10000 1.54 360 14:21 18.08.2022
2137 Clouds 0 1036 26 10000 1.03 0 13:42 18.08.2022
2138 Clouds -3 1036 18 10000 1.03 0 12:27 18.08.2022
2139 Clouds 0 1036 20 10000 3.09 20 10:52 18.08.2022
2140 Clouds -3 1037 21 10000 1.03 0 09:42 18.08.2022
2141 Clear 3 1037 15 10000 1.03 0 07:26 18.08.2022
2142 Clouds 5 1036 15 10000 4.12 240 05:30 18.08.2022
2143 Clouds 15 1031 12 10000 6.69 300 00:23 18.08.2022
2144 Clouds 17 1031 9 10000 7.72 300 22:20 17.08.2022
2145 Clouds 17 1033 10 10000 8.23 290 20:20 17.08.2022
2146 Clear 17 1034 10 10000 8.75 290 19:33 17.08.2022
2147 Clouds 15 1034 10 10000 8.75 280 18:21 17.08.2022
2148 Clear 12 1035 27 10000 6.17 280 16:50 17.08.2022
2149 Clear 8 1035 42 10000 2.06 320 15:30 17.08.2022
2150 Clouds 0 1033 74 10000 1.03 0 13:52 17.08.2022
2151 Clouds -2 1033 58 10000 1.54 350 11:42 17.08.2022
2152 Clouds 4 1033 35 10000 3.09 360 10:22 17.08.2022
2153 Clear 5 1034 41 10000 3.09 10 08:24 17.08.2022
2154 Clear 4 1033 75 10000 3.6 80 03:52 17.08.2022
2155 Clouds 15 1032 13 10000 4.63 290 00:38 17.08.2022
2156 Clouds 18 1032 11 10000 5.66 290 22:42 16.08.2022
2157 Clouds 17 1034 12 10000 6.69 280 20:59 16.08.2022
2158 Clouds 17 1034 11 10000 6.69 290 19:54 16.08.2022
2159 Clouds 17 1034 11 10000 6.69 290 19:19 16.08.2022
2160 Clouds 14 1036 19 10000 5.66 260 17:53 16.08.2022
2161 Clouds 8 1036 24 10000 2.06 230 15:59 16.08.2022
2162 Clouds 5 1036 25 10000 1.03 0 14:55 16.08.2022
2163 Clouds 5 1036 25 10000 1.03 0 14:37 16.08.2022
2164 Clouds -1 1035 36 10000 1.54 350 13:54 16.08.2022
2165 Clouds 1 1035 37 10000 1.03 0 11:39 16.08.2022
2166 Clouds 3 1036 34 10000 1.54 20 09:52 16.08.2022
2167 Clouds 4 1036 30 10000 1.03 0 08:48 16.08.2022
2168 Clouds 4 1036 30 10000 1.03 0 08:18 16.08.2022
2169 Clouds 9 1036 16 10000 3.6 250 04:25 16.08.2022
2170 Clouds 18 1034 14 10000 6.17 270 22:55 15.08.2022
2171 Clouds 18 1035 16 10000 5.66 280 21:56 15.08.2022
2172 Clouds 18 1035 16 10000 5.66 280 21:35 15.08.2022
2173 Clouds 18 1036 13 10000 4.63 280 20:29 15.08.2022
2174 Clouds 15 1038 14 10000 3.09 240 18:43 15.08.2022
2175 Clouds 14 1039 13 10000 3.09 220 17:46 15.08.2022
2176 Clear 11 1039 15 10000 2.57 190 16:22 15.08.2022
2177 Clouds 2 1037 34 10000 2.57 10 13:58 15.08.2022
2178 Clouds 2 1036 32 10000 1.54 360 12:38 15.08.2022
2179 Clouds 6 1017 68 10000 1.21 240 10:18 15.08.2022
2180 Clear -1 1037 80 10000 1.03 0 08:51 15.08.2022
2181 Clear 4 1038 55 10000 2.06 90 06:33 15.08.2022
2182 Clear 9 1035 36 10000 2.57 90 02:57 15.08.2022
2183 Clouds 18 1035 12 10000 4.63 270 23:22 14.08.2022
2184 Clouds 20 1036 11 10000 5.14 280 21:42 14.08.2022
2185 Clouds 18 1037 13 10000 2.57 340 20:29 14.08.2022
2186 Clouds 18 1038 17 10000 2.57 320 19:32 14.08.2022
2187 Clouds 16 1039 21 10000 4.12 250 18:20 14.08.2022
2188 Clear 14 1040 26 10000 2.57 250 17:22 14.08.2022
2189 Clear 9 1040 39 10000 2.57 230 15:51 14.08.2022
2190 Clear 7 1039 42 10000 2.06 360 14:38 14.08.2022
2191 Clouds 5 1038 48 10000 2.57 10 13:50 14.08.2022
2192 Clouds 5 1038 48 10000 2.57 10 13:26 14.08.2022
2193 Clouds 3 1037 55 10000 2.57 20 12:34 14.08.2022
2194 Clouds -1 1037 80 10000 1.03 0 11:20 14.08.2022
2195 Clouds 2 1038 69 10000 2.06 10 08:56 14.08.2022
2196 Clouds 0 1021 86 10000 2.57 60 06:23 14.08.2022
2197 Clouds 0 1021 86 10000 2.57 60 06:23 14.08.2022
2198 Clear 4 1038 51 10000 2.57 110 04:21 14.08.2022
2199 Clouds 17 1035 12 10000 2.57 300 00:42 14.08.2022
2200 Clouds 19 1036 10 10000 3.09 300 22:56 13.08.2022
2201 Clouds 20 1037 10 10000 3.6 260 21:55 13.08.2022
2202 Clouds 19 1038 10 10000 2.57 230 20:49 13.08.2022
2203 Clouds 18 1039 12 10000 2.57 240 19:46 13.08.2022
2204 Clouds 17 1040 14 10000 1.03 0 18:19 13.08.2022
2205 Clouds 9 1040 26 10000 1.03 0 15:57 13.08.2022
2206 Clouds 6 1039 38 10000 1.54 360 14:40 13.08.2022
2207 Clouds 1 1039 51 10000 1.54 20 13:46 13.08.2022
2208 Clouds 2 1038 47 10000 1.54 20 11:59 13.08.2022
2209 Clear 4 1038 44 10000 2.06 10 10:44 13.08.2022
2210 Clear 4 1038 48 10000 2.57 360 09:22 13.08.2022
2211 Clear 2 1038 51 10000 1.54 20 05:59 13.08.2022
2212 Clouds 16 1036 17 10000 3.6 300 00:36 13.08.2022
2213 Clouds 18 1036 10 10000 3.09 220 22:26 12.08.2022
2214 Clouds 19 1037 10 10000 4.63 200 21:20 12.08.2022
2215 Clouds 17 1039 11 10000 4.12 250 19:44 12.08.2022
2216 Clouds 15 1040 14 10000 3.6 200 18:58 12.08.2022
2217 Clear 13 1040 19 10000 4.12 230 17:57 12.08.2022
2218 Clear 11 1040 23 10000 2.57 240 16:24 12.08.2022
2219 Clear 5 1039 25 10000 1.03 0 14:47 12.08.2022
2220 Clear 0 1038 40 10000 2.57 20 12:59 12.08.2022
2221 Clear 0 1038 34 10000 1.03 0 11:19 12.08.2022
2222 Clear 1 1039 13 10000 1.03 0 08:47 12.08.2022
2223 Clear 4 1039 13 10000 2.57 30 07:44 12.08.2022
2224 Clear 8 1039 12 10000 2.06 20 03:41 12.08.2022
2225 Clouds 16 1037 8 10000 5.66 110 00:31 12.08.2022
2226 Clouds 18 1036 10 10000 4.63 120 23:40 11.08.2022
2227 Clouds 19 1036 11 10000 3.6 110 22:35 11.08.2022
2228 Clouds 18 1037 12 10000 4.12 120 21:43 11.08.2022
2229 Clouds 18 1037 12 10000 4.12 120 21:19 11.08.2022
2230 Clouds 18 1038 11 10000 3.09 170 20:27 11.08.2022
2231 Clouds 17 1039 10 10000 3.6 140 19:33 11.08.2022
2232 Clear 15 1040 12 10000 3.09 140 18:39 11.08.2022
2233 Clear 11 1041 34 10000 1.03 0 16:38 11.08.2022
2234 Clear 9 1040 39 10000 1.03 0 15:37 11.08.2022
2235 Clear -3 1039 74 10000 1.03 0 13:51 11.08.2022
2236 Clouds -4 1038 86 10000 2.06 20 11:26 11.08.2022
2237 Clear 2 1040 100 10000 2.06 70 07:49 11.08.2022
2238 Clear 6 1039 65 10000 3.6 60 03:57 11.08.2022
2239 Clouds 11 1038 37 10000 3.6 120 01:54 11.08.2022
2240 Clouds 17 1038 13 10000 3.09 250 22:38 10.08.2022
2241 Clouds 17 1038 12 10000 4.12 230 21:44 10.08.2022
2242 Clouds 16 1040 18 10000 3.09 230 20:55 10.08.2022
2243 Clouds 15 1041 30 10000 2.06 120 19:32 10.08.2022
2244 Clouds 13 1042 35 10000 2.57 230 18:42 10.08.2022
2245 Clouds 10 1042 49 10000 1.03 0 16:55 10.08.2022
2246 Clouds 0 1040 100 10000 2.06 90 13:36 10.08.2022
2247 Fog 1 1040 100 4000 2.57 120 12:46 10.08.2022
2248 Fog 5 1040 93 4000 4.12 110 09:55 10.08.2022
2249 Fog 5 1040 100 4000 4.12 110 08:35 10.08.2022
2250 Fog 5 1041 100 4000 4.63 100 07:20 10.08.2022
2251 Clouds 5 1040 81 10000 2.57 70 03:32 10.08.2022
2252 Clouds 15 1036 16 10000 4.63 320 23:51 09.08.2022
2253 Clouds 15 1036 16 10000 4.63 320 23:24 09.08.2022
2254 Clouds 15 1037 18 10000 7.2 300 21:36 09.08.2022
2255 Clouds 15 1038 19 10000 7.72 290 20:36 09.08.2022
2256 Clouds 14 1040 26 10000 6.17 270 18:45 09.08.2022
2257 Clouds 12 1041 29 10000 5.66 270 17:31 09.08.2022
2258 Clouds 10 1041 39 10000 4.12 290 16:42 09.08.2022
2259 Clouds 8 1040 52 10000 3.09 300 15:58 09.08.2022
2260 Clouds 0 1039 86 10000 0 0 13:51 09.08.2022
2261 Clouds 3 1038 100 10000 2.57 330 09:56 09.08.2022
2262 Clouds 4 1038 93 10000 1.54 360 08:50 09.08.2022
2263 Clouds 4 1038 93 10000 4.12 40 07:54 09.08.2022
2264 Clouds 2 1039 100 3000 5.14 210 04:28 09.08.2022
2265 Clouds 14 1033 28 10000 6.17 310 23:35 08.08.2022
2266 Clouds 14 1033 28 10000 7.2 290 22:56 08.08.2022
2267 Clouds 14 1033 28 10000 7.2 290 22:22 08.08.2022
2268 Clouds 14 1034 35 10000 6.17 320 21:22 08.08.2022
2269 Clouds 8 1036 70 10000 6.17 340 19:51 08.08.2022
2270 Clouds 10 1037 42 10000 5.66 320 18:50 08.08.2022
2271 Clouds 11 1037 40 10000 3.6 290 16:44 08.08.2022
2272 Clouds 9 1037 49 10000 3.09 330 15:40 08.08.2022
2273 Clouds 6 1035 52 10000 2.06 320 13:55 08.08.2022
2274 Clouds 6 1035 65 8000 2.06 320 12:19 08.08.2022
2275 Fog 6 1035 93 4000 1.03 0 09:46 08.08.2022
2276 Clouds 6 1035 81 10000 1.03 0 05:54 08.08.2022
2277 Clouds 10 1034 29 10000 2.57 320 02:55 08.08.2022
2278 Clouds 14 1033 19 10000 7.2 290 22:32 07.08.2022
2279 Clouds 14 1033 19 10000 7.2 290 21:39 07.08.2022
2280 Clouds 14 1034 20 10000 6.69 310 20:26 07.08.2022
2281 Clouds 14 1034 20 10000 6.69 310 20:26 07.08.2022
2282 Clouds 13 1035 20 10000 7.72 300 19:55 07.08.2022
2283 Clouds 13 1035 20 10000 7.72 300 19:34 07.08.2022
2284 Clouds 13 1036 24 10000 4.12 270 18:23 07.08.2022
2285 Clouds 10 1037 21 10000 3.6 250 16:54 07.08.2022
2286 Clouds 10 1037 21 10000 3.6 250 16:35 07.08.2022
2287 Clouds 8 1036 26 10000 1.03 0 15:19 07.08.2022
2288 Clouds 3 1035 37 10000 2.06 280 13:24 07.08.2022
2289 Clouds 3 1034 40 10000 1.03 0 10:59 07.08.2022
2290 Clouds 3 1034 40 10000 1.03 0 10:33 07.08.2022
2291 Clouds 3 1036 21 10000 1.54 220 06:52 07.08.2022
2292 Clouds 8 1035 39 10000 2.06 150 03:19 07.08.2022
2293 Clouds 14 1032 20 10000 5.14 300 23:44 06.08.2022
2294 Clouds 16 1032 19 10000 6.17 290 22:20 06.08.2022
2295 Clouds 16 1034 24 10000 4.63 280 20:26 06.08.2022
2296 Clouds 15 1035 35 10000 5.14 270 19:41 06.08.2022
2297 Clouds 15 1035 35 10000 5.14 270 19:41 06.08.2022
2298 Clouds 13 1036 43 10000 4.63 290 18:25 06.08.2022
2299 Clouds 11 1037 53 10000 2.57 250 17:28 06.08.2022
2300 Clouds 6 1036 93 10000 1.03 0 14:31 06.08.2022
2301 Clouds 2 1035 93 10000 1.54 50 13:40 06.08.2022
2302 Clouds 4 1034 93 10000 2.57 240 11:24 06.08.2022
2303 Clouds 4 1035 93 10000 1.03 0 09:51 06.08.2022
2304 Clouds 5 1035 100 10000 0 0 08:28 06.08.2022
2305 Clouds 8 1034 93 10000 4.12 110 03:35 06.08.2022
2306 Clouds 16 1031 24 10000 5.14 280 23:32 05.08.2022
2307 Clouds 16 1032 30 10000 6.17 280 21:54 05.08.2022
2308 Clouds 16 1035 30 10000 4.12 260 19:32 05.08.2022
2309 Clouds 16 1036 33 10000 3.6 310 18:44 05.08.2022
2310 Clouds 13 1037 50 10000 1.03 0 17:27 05.08.2022
2311 Clouds 11 1037 61 8000 1.03 0 16:48 05.08.2022
2312 Clouds 9 1036 70 6000 1.03 0 15:21 05.08.2022
2313 Fog 4 1036 100 3000 2.57 60 13:53 05.08.2022
2314 Fog 4 1036 100 3000 2.57 60 13:22 05.08.2022
2315 Fog 3 1035 100 4000 2.57 100 12:24 05.08.2022
2316 Clouds 0 1035 100 10000 2.06 90 10:35 05.08.2022
2317 Fog 5 1037 93 4000 2.57 290 07:58 05.08.2022
2318 Clouds 3 1036 100 10000 2.57 70 05:32 05.08.2022
2319 Clouds 15 1033 30 10000 3.09 160 00:30 05.08.2022
2320 Clouds 20 1033 10 10000 3.09 310 22:25 04.08.2022
2321 Clouds 19 1033 15 10000 4.12 150 21:25 04.08.2022
2322 Clouds 18 1034 20 10000 2.06 80 20:42 04.08.2022
2323 Clouds 17 1035 21 10000 3.09 160 19:23 04.08.2022
2324 Clouds 16 1037 24 10000 3.6 130 18:35 04.08.2022
2325 Clouds 14 1037 37 10000 2.06 190 17:31 04.08.2022
2326 Clouds -3 1035 100 10000 0 0 13:57 04.08.2022
2327 Clouds -4 1035 100 10000 0 0 12:43 04.08.2022
2328 Clear 4 1018 87 10000 0.19 213 10:50 04.08.2022
2329 Clouds -1 1036 100 10000 2.06 70 07:52 04.08.2022
2330 Clouds 5 1036 100 10000 3.6 80 04:30 04.08.2022
2331 Clouds 7 1034 75 10000 3.6 80 02:20 04.08.2022
2332 Clouds 18 1032 10 10000 5.66 300 23:43 03.08.2022
2333 Clouds 19 1034 14 10000 5.14 270 21:50 03.08.2022
2334 Clouds 18 1035 16 10000 5.14 280 20:45 03.08.2022
2335 Clouds 17 1036 21 10000 5.14 280 19:29 03.08.2022
2336 Clouds 15 1037 33 10000 5.14 290 17:58 03.08.2022
2337 Clouds 12 1038 50 10000 2.57 260 16:24 03.08.2022
2338 Clouds 12 1038 50 10000 2.57 260 16:24 03.08.2022
2339 Clouds 5 1036 87 10000 2.06 340 14:44 03.08.2022
2340 Clouds 3 1035 93 10000 2.06 280 11:53 03.08.2022
2341 Fog 4 1036 100 4000 3.6 100 08:20 03.08.2022
2342 Clouds 8 1037 70 8000 1.03 0 04:46 03.08.2022
2343 Clouds 8 1035 70 10000 3.6 110 03:27 03.08.2022
2344 Clouds 10 1033 49 10000 4.12 90 01:18 03.08.2022
2345 Clouds 10 1033 49 10000 4.12 90 01:18 03.08.2022
2346 Clouds 10 1033 49 10000 4.12 90 01:18 03.08.2022
2347 Clouds 19 1032 19 10000 5.66 110 22:59 02.08.2022
2348 Clouds 19 1032 17 10000 5.14 110 21:53 02.08.2022
2349 Clouds 18 1034 18 10000 3.6 150 20:58 02.08.2022
2350 Clouds 17 1035 23 10000 2.57 120 18:48 02.08.2022
2351 Clouds 13 1037 20 10000 1.03 0 16:24 02.08.2022
2352 Clouds -2 1034 54 10000 1.03 0 12:34 02.08.2022
2353 Clouds -1 1035 63 10000 2.57 30 09:34 02.08.2022
2354 Clouds -1 1036 93 10000 2.57 70 07:54 02.08.2022
2355 Clouds 3 1036 93 10000 3.09 40 06:43 02.08.2022
2356 Clouds 3 1035 86 10000 3.6 70 04:55 02.08.2022
2357 Clouds 19 1033 13 10000 4.63 270 23:51 01.08.2022
2358 Clouds 19 1034 10 10000 4.12 310 22:25 01.08.2022
2359 Clouds 19 1035 10 10000 3.6 230 20:52 01.08.2022
2360 Clear 19 1036 10 10000 2.57 290 19:25 01.08.2022
2361 Clear 17 1037 10 10000 2.06 270 18:31 01.08.2022
2362 Clear 11 1038 15 10000 2.06 220 16:53 01.08.2022
2363 Clear 11 1037 10 10000 2.57 290 15:52 01.08.2022
2364 Clear 11 1037 10 10000 2.57 290 15:30 01.08.2022
2365 Clear 6 1037 17 10000 2.06 30 14:20 01.08.2022
2366 Clear 4 1036 21 10000 2.57 10 11:50 01.08.2022
2367 Clear 4 1012 23 10000 2.06 10 09:40 01.08.2022
2368 Clear 3 1037 34 10000 2.06 340 08:25 01.08.2022
2369 Clear 8 1036 10 10000 4.12 70 04:48 01.08.2022
2370 Clear 11 1035 15 10000 4.12 20 02:32 01.08.2022
2371 Clouds 21 1034 10 10000 3.6 100 23:54 31.07.2022
2372 Clouds 21 1034 10 10000 3.09 300 22:38 31.07.2022
2373 Clouds 21 1035 10 10000 4.63 270 21:24 31.07.2022
2374 Clear 18 1037 12 10000 3.6 200 19:41 31.07.2022
2375 Clear 16 1039 14 10000 2.57 220 17:48 31.07.2022
2376 Clear 10 1039 21 10000 2.57 230 15:37 31.07.2022
2377 Clear 3 1037 25 10000 2.57 350 13:42 31.07.2022
2378 Clear 4 1036 23 10000 2.06 350 11:55 31.07.2022
2379 Clear 3 1037 25 10000 2.06 40 09:36 31.07.2022
2380 Clouds 3 1038 19 10000 1.03 0 06:48 31.07.2022
2381 Clear 10 1037 13 10000 2.57 10 02:57 31.07.2022
2382 Clouds 19 1036 9 10000 3.09 130 23:35 30.07.2022
2383 Clouds 20 1036 9 10000 2.57 130 22:19 30.07.2022
2384 Clouds 19 1036 9 10000 4.12 150 21:47 30.07.2022
2385 Clouds 19 1037 10 10000 4.12 130 20:56 30.07.2022
2386 Clouds 18 1038 13 10000 4.12 130 19:58 30.07.2022
2387 Clouds 17 1039 13 10000 3.6 130 18:51 30.07.2022
2388 Clouds 15 1040 19 10000 2.57 170 17:41 30.07.2022
2389 Clouds 10 1039 25 10000 2.57 240 15:38 30.07.2022
2390 Clouds 7 1038 26 10000 2.57 10 14:53 30.07.2022
2391 Clouds 1 1037 43 10000 1.03 0 12:47 30.07.2022
2392 Clear 5 1036 32 10000 2.06 10 11:55 30.07.2022
2393 Clear 5 1036 38 10000 3.09 10 10:25 30.07.2022
2394 Clear 6 1037 35 10000 3.6 10 09:45 30.07.2022
2395 Clear 1 1038 74 10000 1.03 0 07:47 30.07.2022
2396 Clear 7 1037 48 10000 1.03 0 02:34 30.07.2022
2397 Clear 9 1036 36 10000 2.06 90 01:43 30.07.2022
2398 Clear 19 1037 10 10000 3.6 130 21:39 29.07.2022
2399 Clear 20 1037 10 10000 2.06 300 20:58 29.07.2022
2400 Clouds 18 1039 11 10000 2.06 320 19:48 29.07.2022
2401 Clear 15 1040 14 10000 2.06 280 17:40 29.07.2022
2402 Clear 6 1039 26 10000 1.03 0 14:53 29.07.2022
2403 Clouds 3 1038 25 10000 2.57 10 12:58 29.07.2022
2404 Clouds 3 1038 25 10000 2.57 360 09:35 29.07.2022
2405 Clouds 0 1039 34 10000 2.06 30 08:46 29.07.2022
2406 Clouds 0 1039 46 10000 1.03 0 07:39 29.07.2022
2407 Clouds 14 1037 10 10000 3.09 130 01:46 29.07.2022
2408 Clouds 20 1038 10 10000 2.06 190 21:57 28.07.2022
2409 Clouds 19 1038 10 10000 2.06 190 20:55 28.07.2022
2410 Clouds 19 1038 10 10000 2.06 190 20:22 28.07.2022
2411 Clouds 18 1040 10 10000 2.06 210 19:41 28.07.2022
2412 Clouds 17 1041 12 10000 2.57 230 18:26 28.07.2022
2413 Clouds 15 1041 15 10000 2.57 250 17:42 28.07.2022
2414 Clouds 13 1041 13 10000 2.57 240 16:41 28.07.2022
2415 Clouds 5 1040 15 10000 2.06 10 14:50 28.07.2022
2416 Clouds 2 1038 23 10000 2.57 10 12:41 28.07.2022
2417 Clouds 3 1039 19 10000 2.06 10 09:34 28.07.2022
2418 Clear 1 1040 31 10000 1.03 0 05:45 28.07.2022
2419 Clear 1 1040 31 10000 1.03 0 05:24 28.07.2022
2420 Clear 15 1038 18 10000 4.63 120 00:44 28.07.2022
2421 Clear 18 1038 13 10000 3.6 120 22:26 27.07.2022
2422 Clear 19 1039 13 10000 3.6 150 20:20 27.07.2022
2423 Clear 18 1040 13 10000 2.57 140 19:32 27.07.2022
2424 Clear 10 1042 36 10000 2.57 240 16:34 27.07.2022
2425 Clear 8 1041 36 10000 1.03 0 15:51 27.07.2022
2426 Clear 4 1040 30 10000 2.57 360 14:42 27.07.2022
2427 Clouds -5 1039 63 10000 1.03 0 13:58 27.07.2022
2428 Clouds 0 1039 54 10000 2.06 10 11:49 27.07.2022
2429 Clouds 0 1040 93 10000 3.09 80 07:53 27.07.2022
2430 Clouds 3 1040 93 10000 2.57 90 05:23 27.07.2022
2431 Clouds 16 1037 30 10000 4.12 110 23:41 26.07.2022
2432 Clouds 16 1037 35 10000 5.14 130 22:20 26.07.2022
2433 Clouds 17 1038 31 10000 4.12 130 21:18 26.07.2022
2434 Clouds 16 1039 35 10000 3.6 120 19:33 26.07.2022
2435 Clouds 15 1040 38 10000 2.57 140 18:41 26.07.2022
2436 Clouds 12 1041 53 10000 3.6 160 17:54 26.07.2022
2437 Clouds 7 1040 87 6000 3.09 110 15:46 26.07.2022
2438 Fog 4 1039 93 4000 3.09 90 14:43 26.07.2022
2439 Fog -1 1037 100 500 2.06 110 12:35 26.07.2022
2440 Clouds -2 1037 100 10000 1.54 50 10:32 26.07.2022
2441 Fog 0 1038 100 4000 2.57 80 08:27 26.07.2022
2442 Clouds 10 1036 53 10000 3.6 100 01:55 26.07.2022
2443 Clouds 13 1035 32 10000 4.12 70 00:21 26.07.2022
2444 Clouds 18 1035 21 10000 4.63 110 22:40 25.07.2022
2445 Clouds 18 1036 18 10000 5.14 130 21:43 25.07.2022
2446 Clouds 17 1037 17 10000 5.14 120 20:43 25.07.2022
2447 Clouds 17 1037 17 10000 5.14 120 20:24 25.07.2022
2448 Clouds 17 1038 17 10000 5.14 140 19:24 25.07.2022
2449 Clouds 15 1039 18 10000 2.57 160 17:42 25.07.2022
2450 Clouds 12 1040 22 10000 1.03 0 16:44 25.07.2022
2451 Clouds 2 1038 43 10000 1.03 0 13:27 25.07.2022
2452 Clear 3 1037 51 10000 1.03 0 10:54 25.07.2022
2453 Clouds 2 1039 93 10000 2.57 70 07:53 25.07.2022
2454 Clouds 17 1035 13 10000 3.09 260 00:57 25.07.2022
2455 Clouds 18 1034 12 10000 4.12 260 23:45 24.07.2022
2456 Clouds 19 1035 12 10000 4.12 280 22:44 24.07.2022
2457 Clouds 19 1035 11 10000 3.09 240 21:41 24.07.2022
2458 Clouds 17 1036 14 10000 3.09 140 20:58 24.07.2022
2459 Clouds 17 1036 14 10000 3.09 140 20:37 24.07.2022
2460 Clouds 17 1037 13 10000 2.57 240 19:18 24.07.2022
2461 Clear 11 1039 18 10000 2.06 230 16:54 24.07.2022
2462 Clear 9 1038 23 10000 1.03 0 15:54 24.07.2022
2463 Clear 6 1038 35 10000 1.03 0 14:41 24.07.2022
2464 Clear 3 1020 40 10000 2.57 20 13:47 24.07.2022
2465 Clear 3 1036 40 10000 2.57 360 12:19 24.07.2022
2466 Clear 1 1036 47 10000 2.57 360 11:29 24.07.2022
2467 Clear 5 1036 35 10000 3.09 10 09:33 24.07.2022
2468 Clouds -1 1036 63 10000 3.09 70 07:53 24.07.2022
2469 Clouds 1 1036 59 10000 2.57 50 06:55 24.07.2022
2470 Clouds 4 1035 38 10000 3.09 80 02:41 24.07.2022
2471 Clouds 19 1034 10 10000 3.6 280 22:45 23.07.2022
2472 Clouds 18 1036 14 10000 3.6 150 20:47 23.07.2022
2473 Clear 16 1038 13 10000 3.09 250 18:59 23.07.2022
2474 Clouds 14 1038 16 10000 1.54 180 17:58 23.07.2022
2475 Clouds 14 1038 16 10000 1.54 180 17:25 23.07.2022
2476 Clouds 11 1038 18 10000 2.57 230 16:21 23.07.2022
2477 Clear 8 1038 26 8000 1.03 0 15:21 23.07.2022
2478 Clear 6 1037 28 10000 2.57 10 14:50 23.07.2022
2479 Clouds 1 1036 37 10000 1.54 10 13:54 23.07.2022
2480 Clouds 0 1035 40 10000 2.06 360 11:47 23.07.2022
2481 Clouds 2 1035 37 10000 2.57 20 10:28 23.07.2022
2482 Clouds -3 1036 58 10000 2.57 70 09:26 23.07.2022
2483 Clouds -2 1036 46 10000 3.09 70 05:58 23.07.2022
2484 Clear 6 1036 22 10000 2.57 70 02:54 23.07.2022
2485 Clear 18 1034 11 10000 4.12 270 23:59 22.07.2022
2486 Clear 19 1035 10 10000 3.6 250 21:28 22.07.2022
2487 Clear 17 1038 10 10000 4.63 290 19:58 22.07.2022
2488 Clear 15 1014 11 10000 1.84 112 18:41 22.07.2022
2489 Clear 14 1039 13 10000 3.6 270 17:38 22.07.2022
2490 Clear 10 1038 21 8000 1.03 0 15:30 22.07.2022
2491 Clear -1 1036 43 10000 1.03 0 12:33 22.07.2022
2492 Clear -4 1036 53 10000 0 0 09:45 22.07.2022
2493 Clear 5 1019 44 10000 1.82 44 09:19 22.07.2022
2494 Clouds -1 1037 39 10000 1.54 90 07:23 22.07.2022
2495 Clouds 5 1037 32 10000 2.06 40 04:18 22.07.2022
2496 Clouds 19 1035 10 10000 2.06 340 22:56 21.07.2022
2497 Clouds 19 1036 10 10000 2.06 210 21:35 21.07.2022
2498 Clouds 17 1038 10 10000 2.57 190 19:31 21.07.2022
2499 Clouds 16 1039 12 10000 3.09 230 18:29 21.07.2022
2500 Clouds 15 1039 14 10000 1.03 0 17:20 21.07.2022
2501 Clouds 11 1040 13 10000 1.03 0 15:39 21.07.2022
2502 Clouds 5 1039 22 10000 2.57 10 14:44 21.07.2022
2503 Clouds 2 1038 32 10000 2.57 360 12:54 21.07.2022
2504 Clouds -2 1037 36 10000 1.03 0 11:23 21.07.2022
2505 Clouds -1 1037 46 10000 1.03 0 09:42 21.07.2022
2506 Clouds 5 1038 35 10000 3.09 20 08:52 21.07.2022
2507 Clouds 1 1039 47 10000 2.57 40 07:50 21.07.2022
2508 Clear 6 1039 35 10000 3.09 20 06:24 21.07.2022
2509 Clouds 10 1038 29 10000 1.03 0 01:42 21.07.2022
2510 Clouds 18 1036 11 10000 4.12 140 22:22 20.07.2022
2511 Clouds 18 1037 12 10000 3.6 220 21:30 20.07.2022
2512 Clouds 17 1039 13 10000 2.06 160 19:54 20.07.2022
2513 Clouds 17 1039 13 10000 2.06 160 19:25 20.07.2022
2514 Clouds 15 1040 16 10000 3.09 220 18:51 20.07.2022
2515 Clouds 15 1040 16 10000 3.09 220 18:22 20.07.2022
2516 Clouds 10 1040 25 10000 3.09 250 16:46 20.07.2022
2517 Clouds 6 1040 41 10000 1.03 0 15:32 20.07.2022
2518 Clouds 4 1039 18 10000 2.06 360 14:20 20.07.2022
2519 Clouds -4 1038 53 10000 1.03 0 11:55 20.07.2022
2520 Clouds -4 1039 93 10000 1.03 0 09:43 20.07.2022
2521 Clouds 0 1040 100 10000 2.57 70 04:36 20.07.2022
2522 Clouds 12 1039 50 10000 4.12 110 00:52 20.07.2022
2523 Clouds 13 1038 46 10000 4.63 120 23:41 19.07.2022
2524 Clouds 14 1038 40 10000 4.12 110 22:33 19.07.2022
2525 Clouds 16 1039 35 10000 4.12 100 21:35 19.07.2022
2526 Clouds 15 1040 41 10000 4.12 120 20:33 19.07.2022
2527 Clouds 13 1042 54 10000 3.09 150 18:58 19.07.2022
2528 Clouds 13 1042 54 10000 3.09 150 18:28 19.07.2022
2529 Clouds 11 1042 61 10000 2.57 190 16:37 19.07.2022
2530 Clouds 4 1041 64 10000 1.03 0 14:53 19.07.2022
2531 Clouds -2 1040 86 10000 0 0 11:43 19.07.2022
2532 Clouds 3 1040 86 10000 1.54 350 10:52 19.07.2022
2533 Fog 0 1040 93 4000 0 0 09:23 19.07.2022
2534 Fog 2 1041 100 4000 1.03 0 08:38 19.07.2022
2535 Fog 5 1041 100 4000 1.03 0 07:19 19.07.2022
2536 Fog 6 1041 100 3000 4.63 100 05:28 19.07.2022
2537 Fog 6 1041 100 3000 4.63 80 04:53 19.07.2022
2538 Clouds 13 1039 35 10000 4.12 20 00:38 19.07.2022
2539 Clouds 15 1039 38 10000 3.6 60 23:36 18.07.2022
2540 Clouds 15 1039 38 10000 3.6 60 23:18 18.07.2022
2541 Clouds 16 1039 35 10000 3.09 150 21:58 18.07.2022
2542 Clouds 16 1039 33 10000 3.09 160 20:51 18.07.2022
2543 Clouds 14 1040 40 10000 2.57 180 19:26 18.07.2022
2544 Clouds 11 1042 57 10000 2.57 250 17:24 18.07.2022
2545 Clouds 5 1042 87 6000 1.03 0 15:51 18.07.2022
2546 Clouds 4 1041 93 6000 1.03 0 14:30 18.07.2022
2547 Fog 1 1039 93 4000 1.03 0 12:58 18.07.2022
2548 Fog 4 1039 87 4000 2.06 20 11:30 18.07.2022
2549 Fog 6 1039 100 4000 4.63 100 08:54 18.07.2022
2550 Fog 6 1039 100 3000 4.12 100 07:28 18.07.2022
2551 Clouds 16 1035 15 10000 4.12 280 00:42 18.07.2022
2552 Clouds 18 1035 12 10000 8.23 290 22:37 17.07.2022
2553 Clouds 16 1036 24 10000 8.23 310 21:49 17.07.2022
2554 Clouds 16 1036 24 10000 8.23 310 21:18 17.07.2022
2555 Clouds 18 1037 18 10000 8.23 280 20:37 17.07.2022
2556 Clouds 17 1037 23 10000 6.17 290 19:29 17.07.2022
2557 Clouds 15 1038 35 10000 5.66 290 18:27 17.07.2022
2558 Clouds 13 1039 43 10000 3.6 260 17:38 17.07.2022
2559 Clouds 10 1039 53 10000 1.03 0 16:50 17.07.2022
2560 Clouds 10 1039 53 10000 1.03 0 16:26 17.07.2022
2561 Clouds 3 1038 100 10000 1.03 0 14:44 17.07.2022
2562 Fog -5 1037 100 500 1.03 0 13:31 17.07.2022
2563 Clouds -1 1036 93 10000 2.57 60 11:35 17.07.2022
2564 Clouds -1 1037 74 10000 2.06 50 08:57 17.07.2022
2565 Clear 1 1036 29 10000 2.57 80 03:43 17.07.2022
2566 Clear 3 1035 29 10000 2.06 40 02:32 17.07.2022
2567 Clouds 15 1034 9 10000 7.2 300 23:20 16.07.2022
2568 Clouds 16 1034 9 10000 7.2 300 21:25 16.07.2022
2569 Clouds 14 1036 8 10000 6.69 280 19:26 16.07.2022
2570 Clouds 13 1037 7 10000 4.12 270 18:27 16.07.2022
2571 Clouds 9 1038 12 10000 1.03 0 16:31 16.07.2022
2572 Clouds -2 1036 28 10000 1.03 0 13:47 16.07.2022
2573 Clouds -2 1035 39 10000 2.06 280 10:50 16.07.2022
2574 Clouds -4 1035 38 10000 1.03 0 09:32 16.07.2022
2575 Clouds 1 1036 34 10000 1.54 10 08:43 16.07.2022
2576 Clouds -3 1036 36 10000 0 0 07:59 16.07.2022
2577 Clouds 8 1035 21 10000 2.57 220 03:41 16.07.2022
2578 Clouds 9 1034 14 10000 2.06 330 02:35 16.07.2022
2579 Clouds 15 1033 10 10000 8.23 300 23:28 15.07.2022
2580 Clouds 16 1033 10 10000 7.2 300 22:38 15.07.2022
2581 Clouds 15 1033 12 10000 7.2 300 21:24 15.07.2022
2582 Clouds 14 1035 14 10000 7.72 290 19:59 15.07.2022
2583 Clouds 14 1036 20 10000 7.2 280 18:35 15.07.2022
2584 Clouds 11 1036 31 10000 7.72 280 17:34 15.07.2022
2585 Clouds 3 1035 37 10000 3.09 280 14:48 15.07.2022
2586 Clouds -3 1035 42 10000 1.03 0 12:49 15.07.2022
2587 Clouds -3 1035 36 10000 1.03 0 10:54 15.07.2022
2588 Clouds 2 1036 25 10000 2.57 10 08:49 15.07.2022
2589 Clouds 4 1037 23 10000 2.57 280 05:55 15.07.2022
2590 Clouds 12 1034 12 10000 6.17 300 00:52 15.07.2022
2591 Clouds 14 1034 12 10000 5.14 290 23:35 14.07.2022
2592 Clouds 16 1033 11 10000 6.17 300 22:42 14.07.2022
2593 Clouds 15 1034 13 10000 7.72 280 21:43 14.07.2022
2594 Clouds 15 1034 13 10000 7.72 280 21:24 14.07.2022
2595 Clouds 16 1035 11 10000 8.75 300 20:43 14.07.2022
2596 Clouds 16 1035 11 10000 8.75 300 20:19 14.07.2022
2597 Clouds 14 1037 16 10000 8.23 300 18:41 14.07.2022
2598 Clouds 10 1037 23 10000 5.66 270 16:21 14.07.2022
2599 Clouds 8 1037 22 10000 5.14 290 15:26 14.07.2022
2600 Clouds 3 1035 29 10000 2.57 320 13:52 14.07.2022
2601 Clouds 0 1035 37 10000 1.03 0 12:40 14.07.2022
2602 Clouds 2 1035 29 10000 2.57 320 11:41 14.07.2022
2603 Clouds 2 1035 29 10000 2.57 320 11:21 14.07.2022
2604 Clouds 4 1036 41 10000 2.06 360 09:29 14.07.2022
2605 Clouds 5 1037 30 10000 1.03 0 05:20 14.07.2022
2606 Clouds 12 1034 29 10000 3.09 290 01:22 14.07.2022
2607 Clouds 15 1033 24 10000 6.69 310 00:52 14.07.2022
2608 Clouds 16 1034 26 10000 8.75 310 22:32 13.07.2022
2609 Clouds 17 1034 29 10000 7.72 300 21:51 13.07.2022
2610 Clouds 16 1035 30 10000 9.26 280 20:44 13.07.2022
2611 Clouds 15 1037 35 10000 9.26 300 18:48 13.07.2022
2612 Clouds 14 1037 47 10000 5.66 270 17:34 13.07.2022
2613 Clouds 11 1038 61 10000 4.63 280 16:19 13.07.2022
2614 Clouds 5 1036 100 9000 1.03 0 14:54 13.07.2022
2615 Fog 6 1035 100 4000 2.06 80 11:56 13.07.2022
2616 Fog 6 1035 100 4000 1.54 90 10:45 13.07.2022
2617 Fog 6 1035 93 4000 2.06 60 09:56 13.07.2022
2618 Fog 6 1035 93 4000 2.06 60 09:20 13.07.2022
2619 Fog 6 1037 100 4000 2.06 90 05:29 13.07.2022
2620 Clouds 10 1035 71 10000 2.06 330 01:27 13.07.2022
2621 Clouds 16 1034 41 10000 5.14 280 23:39 12.07.2022
2622 Clouds 17 1034 31 10000 5.66 270 21:54 12.07.2022
2623 Clouds 17 1034 31 10000 5.66 270 21:18 12.07.2022
2624 Clouds 17 1036 26 10000 4.12 240 20:41 12.07.2022
2625 Clouds 13 1037 28 10000 3.6 240 18:56 12.07.2022
2626 Clouds 11 1038 25 10000 1.03 0 17:38 12.07.2022
2627 Clouds 7 1038 24 10000 1.03 0 15:42 12.07.2022
2628 Clouds 4 1037 30 10000 1.03 0 14:23 12.07.2022
2629 Clouds -6 1036 53 10000 0 0 12:19 12.07.2022
2630 Clouds -6 1036 62 10000 1.54 60 10:51 12.07.2022
2631 Clouds -4 1036 73 10000 2.57 70 09:22 12.07.2022
2632 Clouds -4 1037 63 10000 3.09 60 08:18 12.07.2022
2633 Clear 3 1037 19 10000 1.54 60 05:57 12.07.2022
2634 Clear 3 1037 19 10000 1.54 60 05:39 12.07.2022
2635 Clear 10 1035 15 10000 3.09 280 01:43 12.07.2022
2636 Clouds 16 1034 10 10000 4.63 260 22:52 11.07.2022
2637 Clouds 16 1035 9 10000 6.17 280 21:44 11.07.2022
2638 Clouds 16 1035 9 10000 6.17 270 20:33 11.07.2022
2639 Clouds 15 1036 11 10000 7.2 290 19:32 11.07.2022
2640 Clouds 12 1038 13 10000 6.17 300 18:32 11.07.2022
2641 Clouds 11 1038 18 10000 7.72 300 17:31 11.07.2022
2642 Clouds 7 1038 33 10000 4.12 300 15:46 11.07.2022
2643 Clouds -3 1036 63 10000 0 0 13:39 11.07.2022
2644 Clouds 1 1036 51 10000 0 0 11:38 11.07.2022
2645 Clouds -2 1035 63 10000 1.03 0 10:18 11.07.2022
2646 Clouds 3 1036 47 10000 1.03 0 09:41 11.07.2022
2647 Clouds 3 1036 47 10000 2.06 30 08:33 11.07.2022
2648 Clouds 9 1035 36 10000 2.57 340 03:23 11.07.2022
2649 Clouds 14 1034 24 10000 5.66 290 00:20 11.07.2022
2650 Clouds 16 1035 21 10000 7.2 280 22:55 10.07.2022
2651 Clouds 16 1036 21 10000 8.23 270 21:39 10.07.2022
2652 Clouds 16 1037 26 10000 7.72 320 20:41 10.07.2022
2653 Clouds 16 1038 28 10000 6.69 280 19:48 10.07.2022
2654 Clouds 15 1039 33 10000 7.72 280 18:43 10.07.2022
2655 Clouds 14 1039 35 10000 5.14 290 17:36 10.07.2022
2656 Clouds 13 1040 40 10000 3.6 250 16:41 10.07.2022
2657 Clouds 10 1039 49 10000 1.54 30 15:24 10.07.2022
2658 Clouds 0 1038 86 10000 1.03 0 13:48 10.07.2022
2659 Clouds 3 1038 86 10000 2.06 60 12:26 10.07.2022
2660 Clouds 0 1038 93 10000 1.03 0 09:57 10.07.2022
2661 Clouds 3 1038 80 10000 1.03 0 08:44 10.07.2022
2662 Clouds 3 1038 100 10000 2.06 60 07:29 10.07.2022
2663 Clouds 10 1037 39 10000 2.57 10 01:23 10.07.2022
2664 Clouds 16 1037 28 10000 5.66 290 22:27 09.07.2022
2665 Clouds 17 1037 25 10000 5.14 260 21:56 09.07.2022
2666 Clouds 15 1038 33 10000 6.17 280 20:23 09.07.2022
2667 Clouds 14 1041 40 10000 3.09 280 18:35 09.07.2022
2668 Clouds 13 1041 46 10000 3.09 250 17:33 09.07.2022
2669 Clouds 10 1042 53 10000 1.03 0 16:44 09.07.2022
2670 Clouds 7 1041 70 8000 0 0 15:40 09.07.2022
2671 Clouds 2 1040 86 8000 2.06 60 14:27 09.07.2022
2672 Fog 1 1040 86 4000 2.06 360 13:49 09.07.2022
2673 Fog -1 1039 100 4000 2.06 60 12:43 09.07.2022
2674 Fog -2 1038 100 4000 2.57 80 11:19 09.07.2022
2675 Fog -1 1038 100 4000 3.09 70 10:22 09.07.2022
2676 Fog 3 1040 100 4000 2.57 70 07:45 09.07.2022
2677 Fog 3 1040 100 4000 2.57 70 07:45 09.07.2022
2678 Fog 4 1039 100 4000 3.6 60 04:53 09.07.2022
2679 Clouds 14 1037 20 10000 3.09 320 00:59 09.07.2022
2680 Clouds 17 1037 17 10000 7.72 250 22:42 08.07.2022
2681 Clouds 17 1037 17 10000 6.69 270 21:31 08.07.2022
2682 Clouds 17 1038 17 10000 5.66 250 20:40 08.07.2022
2683 Clouds 15 1039 33 10000 3.6 140 19:48 08.07.2022
2684 Clouds 14 1039 43 10000 2.57 120 18:19 08.07.2022
2685 Clouds 10 1040 61 8000 2.57 140 16:39 08.07.2022
2686 Clouds 3 1039 86 8000 2.57 80 14:51 08.07.2022
2687 Fog 1 1038 100 4000 3.6 90 13:24 08.07.2022
2688 Fog 1 1038 100 4000 3.6 90 13:24 08.07.2022
2689 Fog 3 1037 100 4000 3.6 90 11:25 08.07.2022
2690 Fog -2 1037 100 2000 3.6 80 10:26 08.07.2022
2691 Clouds -2 1037 68 10000 1.03 0 08:26 08.07.2022
2692 Clouds 3 1038 51 10000 1.03 0 06:47 08.07.2022
2693 Clouds 11 1036 31 10000 5.14 30 01:19 08.07.2022
2694 Clouds 15 1035 24 10000 6.17 70 22:57 07.07.2022
2695 Clouds 15 1035 24 10000 6.17 70 22:57 07.07.2022
2696 Clouds 15 1035 24 10000 6.17 70 22:27 07.07.2022
2697 Clouds 17 1038 20 10000 3.09 180 19:53 07.07.2022
2698 Clouds 15 1039 22 10000 3.09 200 18:18 07.07.2022
2699 Clouds 11 1040 29 10000 3.6 130 16:43 07.07.2022
2700 Clouds 4 1038 60 10000 1.03 0 14:32 07.07.2022
2701 Clouds 1 1037 64 10000 2.06 20 12:46 07.07.2022
2702 Clouds 1 1037 64 10000 2.06 20 12:23 07.07.2022
2703 Clouds -3 1036 74 10000 0 0 11:34 07.07.2022
2704 Clear -1 1036 80 10000 1.03 0 10:46 07.07.2022
2705 Clear -1 1036 80 10000 1.03 0 10:28 07.07.2022
2706 Clear 0 1036 80 10000 2.06 100 09:32 07.07.2022
2707 Clear 3 1038 44 10000 1.03 0 06:31 07.07.2022
2708 Clouds 11 1013 49 10000 2.44 87 00:28 07.07.2022
2709 Clouds 13 1012 36 10000 2.47 112 23:36 06.07.2022
2710 Clouds 13 1012 37 10000 2.46 110 23:18 06.07.2022
2711 Clouds 18 1035 13 10000 2.57 210 22:51 06.07.2022
2712 Clouds 18 1035 13 10000 2.57 210 22:33 06.07.2022
2713 Clouds 17 1037 15 10000 3.09 160 20:23 06.07.2022
2714 Clouds 16 1038 18 10000 3.09 130 19:18 06.07.2022
2715 Clouds 14 1040 22 10000 2.57 190 17:21 06.07.2022
2716 Clouds 8 1040 36 10000 1.03 0 15:50 06.07.2022
2717 Clouds 0 1037 54 10000 1.54 10 12:44 06.07.2022
2718 Clouds -2 1037 58 10000 1.03 0 11:52 06.07.2022
2719 Clouds 1 1038 55 10000 1.54 20 10:48 06.07.2022
2720 Clear 0 1038 64 10000 2.57 80 08:46 06.07.2022
2721 Clouds 1 1039 47 10000 2.06 30 07:41 06.07.2022
2722 Clouds 2 1039 47 10000 2.06 30 06:40 06.07.2022
2723 Clouds 17 1037 14 10000 3.6 140 22:52 05.07.2022
2724 Clouds 17 1037 14 10000 3.6 140 22:34 05.07.2022
2725 Clouds 18 1039 13 10000 3.09 100 20:45 05.07.2022
2726 Clouds 17 1040 17 10000 3.6 140 19:54 05.07.2022
2727 Clouds 17 1040 17 10000 3.6 140 19:35 05.07.2022
2728 Clouds 13 1042 24 10000 2.06 240 17:49 05.07.2022
2729 Clouds 13 1042 24 10000 2.06 240 17:18 05.07.2022
2730 Clouds 9 1041 39 8000 0 0 15:39 05.07.2022
2731 Clouds 3 1041 60 10000 1.03 0 14:39 05.07.2022
2732 Clouds -3 1039 68 10000 1.03 0 12:52 05.07.2022
2733 Clouds -3 1039 68 10000 1.03 0 12:19 05.07.2022
2734 Clouds -2 1039 68 10000 1.03 0 10:44 05.07.2022
2735 Clouds 0 1040 80 10000 2.57 90 09:28 05.07.2022
2736 Clouds 2 1040 74 10000 4.12 70 08:18 05.07.2022
2737 Clouds 2 1040 64 10000 3.09 80 05:45 05.07.2022
2738 Clouds 2 1040 59 10000 3.6 70 04:25 05.07.2022
2739 Clouds 13 1038 19 10000 3.09 120 00:37 05.07.2022
2740 Clouds 16 1038 13 10000 4.12 110 23:34 04.07.2022
2741 Clouds 17 1038 11 10000 4.63 120 22:47 04.07.2022
2742 Clouds 18 1039 11 10000 4.12 120 21:48 04.07.2022
2743 Clouds 17 1040 11 10000 3.6 130 20:53 04.07.2022
2744 Clouds 17 1040 11 10000 3.6 130 20:34 04.07.2022
2745 Clouds 16 1040 11 10000 2.57 130 19:55 04.07.2022
2746 Clouds 16 1040 11 10000 2.57 130 19:35 04.07.2022
2747 Clouds 15 1042 10 10000 1.03 0 17:58 04.07.2022
2748 Clouds 10 1042 18 10000 1.03 0 15:58 04.07.2022
2749 Clouds 10 1042 18 10000 1.03 0 15:33 04.07.2022
2750 Clouds 0 1041 40 10000 1.03 0 13:29 04.07.2022
2751 Clouds 1 1040 40 10000 1.03 0 12:30 04.07.2022
2752 Clouds 2 1040 43 10000 1.03 0 10:34 04.07.2022
2753 Clouds 1 1040 59 10000 1.03 0 09:52 04.07.2022
2754 Clouds 3 1041 55 10000 1.03 0 07:37 04.07.2022
2755 Clouds 1 1040 59 10000 2.06 120 04:48 04.07.2022
2756 Clouds 12 1038 14 10000 4.63 270 00:36 04.07.2022
2757 Clouds 17 1038 9 10000 4.12 270 22:59 03.07.2022
2758 Clouds 18 1039 8 10000 4.12 270 20:58 03.07.2022
2759 Clouds 18 1039 8 10000 4.12 270 20:31 03.07.2022
2760 Clouds 17 1040 7 10000 2.57 290 19:27 03.07.2022
2761 Clouds 15 1041 8 10000 1.03 0 18:43 03.07.2022
2762 Clouds 13 1041 11 10000 3.09 240 17:43 03.07.2022
2763 Clouds 9 1041 15 10000 1.03 0 15:51 03.07.2022
2764 Clouds 8 1040 11 10000 2.06 20 14:59 03.07.2022
2765 Clouds 8 1040 11 10000 2.06 20 14:18 03.07.2022
2766 Clouds 2 1039 29 10000 2.06 360 13:48 03.07.2022
2767 Clouds 3 1039 29 10000 2.06 360 12:33 03.07.2022
2768 Clouds 1 1038 29 10000 1.54 350 11:20 03.07.2022
2769 Clouds 5 1038 20 10000 2.06 360 10:38 03.07.2022
2770 Clouds -2 1038 42 10000 0 0 09:31 03.07.2022
2771 Clouds -1 1038 46 10000 2.57 60 07:34 03.07.2022
2772 Clouds 11 1037 27 10000 3.09 10 01:42 03.07.2022
2773 Clouds 15 1036 21 10000 5.14 110 23:50 02.07.2022
2774 Clouds 17 1036 17 10000 5.66 90 22:33 02.07.2022
2775 Clouds 17 1037 13 10000 2.57 150 20:37 02.07.2022
2776 Clouds 17 1038 15 10000 2.57 250 19:51 02.07.2022
2777 Clouds 17 1038 15 10000 2.57 250 19:19 02.07.2022
2778 Clouds 13 1039 20 8000 2.57 160 17:41 02.07.2022
2779 Clouds 11 1039 25 8000 3.09 250 16:38 02.07.2022
2780 Clouds -4 1037 63 10000 2.06 20 13:51 02.07.2022
2781 Clouds -1 1036 50 10000 1.54 20 11:52 02.07.2022
2782 Clouds 3 1036 44 10000 2.06 20 10:53 02.07.2022
2783 Clouds 3 1036 44 10000 2.06 20 10:32 02.07.2022
2784 Clear 2 1037 51 10000 2.06 40 08:39 02.07.2022
2785 Clear 2 1037 51 10000 2.06 40 08:19 02.07.2022
2786 Clear 2 1037 55 10000 1.03 0 05:59 02.07.2022
2787 Clouds 15 1035 15 10000 2.57 280 00:47 02.07.2022
2788 Clouds 18 1035 11 10000 2.57 250 23:31 01.07.2022
2789 Clouds 19 1035 14 10000 5.66 260 22:40 01.07.2022
2790 Clouds 19 1035 12 10000 4.12 280 21:40 01.07.2022
2791 Clouds 18 1037 11 10000 5.14 270 20:59 01.07.2022
2792 Clouds 18 1037 11 10000 5.14 270 20:37 01.07.2022
2793 Clouds 17 1037 13 10000 5.14 270 19:41 01.07.2022
2794 Clouds 14 1038 24 10000 4.12 280 17:45 01.07.2022
2795 Clouds 9 1038 29 10000 2.06 310 15:21 01.07.2022
2796 Clouds 2 1037 40 10000 2.57 360 13:54 01.07.2022
2797 Clouds 1 1036 40 10000 2.57 20 11:49 01.07.2022
2798 Clouds 1 1036 37 10000 2.06 340 10:19 01.07.2022
2799 Clouds 1 1037 40 10000 2.06 20 08:46 01.07.2022
2800 Clear 10 1037 19 10000 2.06 320 02:49 01.07.2022
2801 Clouds 15 1036 13 10000 2.57 70 00:25 01.07.2022
2802 Clouds 18 1036 11 10000 3.09 120 22:54 30.06.2022
2803 Clouds 18 1036 11 10000 3.09 120 22:32 30.06.2022
2804 Clouds 18 1037 8 10000 2.57 200 21:59 30.06.2022
2805 Clouds 18 1037 8 10000 2.57 200 21:34 30.06.2022
2806 Clouds 17 1038 10 10000 2.57 230 20:22 30.06.2022
2807 Clouds 17 1039 11 10000 2.57 200 19:53 30.06.2022
2808 Clouds 17 1039 11 10000 2.57 200 19:18 30.06.2022
2809 Clouds 17 1040 13 10000 1.03 0 18:34 30.06.2022
2810 Clouds 14 1041 22 10000 1.03 0 17:37 30.06.2022
2811 Clouds 11 1041 27 10000 1.03 0 16:28 30.06.2022
2812 Clouds 4 1040 48 10000 1.03 0 14:31 30.06.2022
2813 Clouds 0 1039 54 10000 1.03 0 13:29 30.06.2022
2814 Clouds 3 1038 47 10000 2.57 10 12:34 30.06.2022
2815 Clear 2 1038 51 10000 1.03 0 11:23 30.06.2022
2816 Clear 4 1039 48 10000 3.09 10 09:53 30.06.2022
2817 Clouds 4 1039 48 10000 3.09 10 09:29 30.06.2022
2818 Clear -1 1039 74 10000 1.03 0 07:41 30.06.2022
2819 Clear 1 1040 74 10000 1.54 30 05:47 30.06.2022
2820 Clouds 15 1037 22 10000 3.09 110 00:27 30.06.2022
2821 Clouds 18 1037 13 10000 2.57 220 22:58 29.06.2022
2822 Clouds 18 1037 13 10000 2.57 220 22:37 29.06.2022
2823 Clouds 18 1038 16 10000 3.6 190 21:34 29.06.2022
2824 Clouds 18 1039 16 10000 2.57 260 20:33 29.06.2022
2825 Clouds 18 1039 16 10000 2.57 260 20:33 29.06.2022
2826 Clouds 17 1040 20 10000 2.57 190 19:34 29.06.2022
2827 Clear 14 1041 24 10000 3.09 150 17:40 29.06.2022
2828 Clear 11 1041 31 10000 1.03 0 16:35 29.06.2022
2829 Clear 5 1040 41 10000 1.03 0 14:50 29.06.2022
2830 Clear 0 1039 46 10000 1.03 0 12:39 29.06.2022
2831 Clear -2 1038 54 10000 1.54 40 10:25 29.06.2022
2832 Clear -1 1039 43 10000 1.03 0 09:31 29.06.2022
2833 Clear 0 1040 54 10000 2.06 40 07:30 29.06.2022
2834 Clear 1 1040 51 10000 2.06 100 04:49 29.06.2022
2835 Clouds 14 1038 13 10000 3.6 320 00:55 29.06.2022
2836 Clouds 14 1038 13 10000 3.6 320 00:35 29.06.2022
2837 Clouds 18 1038 12 10000 4.12 280 22:53 28.06.2022
2838 Clouds 18 1038 12 10000 4.12 280 22:21 28.06.2022
2839 Clouds 17 1039 14 10000 4.12 250 21:50 28.06.2022
2840 Clouds 17 1039 14 10000 4.12 250 21:30 28.06.2022
2841 Clouds 17 1040 17 10000 4.12 240 20:20 28.06.2022
2842 Clear 15 1041 22 10000 3.6 240 19:32 28.06.2022
2843 Clear 14 1042 24 10000 3.09 230 18:42 28.06.2022
2844 Clear 12 1042 27 10000 3.09 230 17:37 28.06.2022
2845 Clear 9 1042 36 10000 1.03 0 15:56 28.06.2022
2846 Clear 6 1041 41 10000 2.06 10 14:59 28.06.2022
2847 Clear 6 1041 41 10000 2.06 10 14:19 28.06.2022
2848 Clear 1 1040 51 10000 1.03 0 13:47 28.06.2022
2849 Clear -1 1039 50 10000 1.03 0 12:47 28.06.2022
2850 Clear -1 1038 43 10000 0 0 10:44 28.06.2022
2851 Clear 4 1038 27 10000 2.57 20 08:56 28.06.2022
2852 Clear 4 1038 27 10000 2.57 20 08:38 28.06.2022
2853 Clear 4 1039 25 10000 2.57 30 07:20 28.06.2022
2854 Clear 7 1038 19 10000 2.57 40 04:56 28.06.2022
2855 Clouds 16 1037 17 10000 5.14 300 23:56 27.06.2022
2856 Clouds 16 1037 17 10000 5.14 300 23:28 27.06.2022
2857 Clouds 17 1037 15 10000 4.12 290 22:42 27.06.2022
2858 Clouds 17 1038 14 10000 4.63 260 21:30 27.06.2022
2859 Clouds 17 1038 14 10000 3.09 270 20:34 27.06.2022
2860 Clouds 15 1040 21 10000 2.57 250 18:52 27.06.2022
2861 Clouds 12 1041 23 10000 1.54 200 17:45 27.06.2022
2862 Clear 9 1041 24 10000 1.03 0 15:51 27.06.2022
2863 Clouds 5 1040 28 10000 1.54 10 14:26 27.06.2022
2864 Clouds -1 1038 50 10000 2.06 360 12:59 27.06.2022
2865 Clouds -1 1038 50 10000 2.06 360 12:36 27.06.2022
2866 Clear -2 1037 80 10000 3.6 80 09:53 27.06.2022
2867 Clear 0 1037 54 10000 4.12 90 08:43 27.06.2022
2868 Clear 0 1038 50 10000 3.6 90 07:52 27.06.2022
2869 Clear 0 1038 50 10000 3.09 80 06:28 27.06.2022
2870 Clear 10 1038 27 10000 3.6 280 01:25 27.06.2022
2871 Clouds 16 1036 18 10000 6.17 280 23:22 26.06.2022
2872 Clouds 17 1037 13 10000 5.66 280 21:40 26.06.2022
2873 Clouds 17 1038 12 10000 6.17 260 20:33 26.06.2022
2874 Clouds 15 1040 18 10000 4.12 280 18:38 26.06.2022
2875 Clouds 15 1040 18 10000 4.12 280 18:20 26.06.2022
2876 Clear 9 1041 24 10000 3.09 310 15:37 26.06.2022
2877 Clouds 2 1040 40 10000 1.03 0 14:23 26.06.2022
2878 Clouds -5 1039 53 10000 1.03 0 13:26 26.06.2022
2879 Clouds 2 1039 34 10000 2.57 360 11:49 26.06.2022
2880 Clouds -3 1038 50 10000 1.03 0 10:42 26.06.2022
2881 Clouds -3 1038 50 10000 1.03 0 10:22 26.06.2022
2882 Clouds 0 1039 59 10000 2.57 60 08:36 26.06.2022
2883 Clouds 1 1040 51 10000 1.54 140 06:31 26.06.2022
2884 Clouds 11 1038 17 10000 5.66 10 00:37 26.06.2022
2885 Clouds 11 1038 17 10000 5.66 10 00:19 26.06.2022
2886 Clouds 14 1038 12 10000 6.17 20 23:31 25.06.2022
2887 Clouds 15 1038 13 10000 5.66 20 22:48 25.06.2022
2888 Clouds 15 1038 13 10000 5.66 20 22:25 25.06.2022
2889 Clouds 16 1038 13 10000 5.14 360 21:21 25.06.2022
2890 Clouds 16 1039 12 10000 5.14 40 20:48 25.06.2022
2891 Clouds 16 1039 12 10000 5.14 40 20:25 25.06.2022
2892 Clouds 16 1039 12 10000 5.14 40 20:25 25.06.2022
2893 Clouds 14 1041 22 10000 4.12 110 18:24 25.06.2022
2894 Clouds 13 1042 25 10000 1.03 0 17:27 25.06.2022
2895 Clear 10 1042 23 10000 1.03 0 16:28 25.06.2022
2896 Clouds 3 1041 75 10000 1.03 0 14:41 25.06.2022
2897 Clouds -5 1039 86 10000 1.03 0 12:51 25.06.2022
2898 Clouds -5 1039 86 10000 1.03 0 12:27 25.06.2022
2899 Clouds 2 1038 100 10000 2.57 80 09:24 25.06.2022
2900 Clouds 2 1038 100 10000 2.57 80 09:24 25.06.2022
2901 Clear 2 1038 64 10000 2.06 80 08:54 25.06.2022
2902 Clear 2 1038 64 10000 2.06 80 08:20 25.06.2022
2903 Clear 1 1039 59 10000 3.6 80 06:35 25.06.2022
2904 Clouds 11 1037 46 10000 3.09 110 00:45 25.06.2022
2905 Clouds 12 1037 40 10000 4.12 110 23:54 24.06.2022
2906 Clouds 13 1037 37 10000 4.12 110 22:26 24.06.2022
2907 Clouds 14 1037 35 10000 2.57 100 21:22 24.06.2022
2908 Clouds 14 1038 32 10000 2.57 120 20:23 24.06.2022
2909 Clouds 15 1038 28 10000 2.57 270 19:24 24.06.2022
2910 Clouds 14 1039 32 10000 2.06 170 18:51 24.06.2022
2911 Clouds 14 1039 32 10000 2.06 170 18:31 24.06.2022
2912 Clouds 14 1040 35 10000 2.57 120 17:47 24.06.2022
2913 Clouds 11 1040 43 7000 1.03 0 16:45 24.06.2022
2914 Clouds 11 1040 43 7000 1.03 0 16:45 24.06.2022
2915 Clouds 3 1039 86 6000 1.03 0 14:30 24.06.2022
2916 Clouds -3 1038 100 6000 2.06 20 13:58 24.06.2022
2917 Clouds -3 1038 100 6000 2.06 20 13:58 24.06.2022
2918 Clouds -2 1038 93 6000 2.06 50 12:49 24.06.2022
2919 Mist 2 1037 93 4000 2.06 10 11:40 24.06.2022
2920 Mist 0 1037 93 4000 2.06 70 10:34 24.06.2022
2921 Mist -1 1037 100 4000 2.06 80 09:41 24.06.2022
2922 Mist 4 1037 100 3000 2.57 20 08:53 24.06.2022
2923 Mist 5 1038 93 2000 2.57 30 07:39 24.06.2022
2924 Mist 5 1037 93 4000 1.03 0 06:42 24.06.2022
2925 Mist 5 1037 93 4000 1.03 0 06:18 24.06.2022
2926 Clear 4 1036 100 8000 3.6 80 03:33 24.06.2022
2927 Clouds 11 1034 49 10000 2.57 80 22:59 23.06.2022
2928 Clouds 11 1034 49 10000 2.57 80 22:40 23.06.2022
2929 Clouds 11 1035 46 10000 3.6 80 20:58 23.06.2022
2930 Clouds 11 1035 46 10000 3.6 80 20:35 23.06.2022
2931 Clouds 13 1036 35 10000 3.09 230 19:34 23.06.2022
2932 Clouds 12 1038 37 10000 1.03 0 17:52 23.06.2022
2933 Clouds 12 1038 37 10000 1.03 0 17:23 23.06.2022
2934 Clouds 7 1037 42 8000 1.03 0 15:50 23.06.2022
2935 Clouds 7 1037 42 8000 1.03 0 15:24 23.06.2022
2936 Clouds -3 1035 93 10000 1.54 30 13:40 23.06.2022
2937 Fog -3 1035 93 4000 2.06 70 11:27 23.06.2022
2938 Fog -3 1035 100 4000 3.09 70 10:35 23.06.2022
2939 Fog -2 1035 93 4000 1.03 0 08:53 23.06.2022
2940 Clear 2 1035 86 10000 3.6 60 03:35 23.06.2022
2941 Clouds 12 1033 14 10000 6.17 310 00:26 23.06.2022
2942 Clouds 14 1033 9 10000 7.2 300 23:30 22.06.2022
2943 Clouds 15 1033 15 10000 7.2 290 22:39 22.06.2022
2944 Clouds 14 1034 16 10000 7.72 290 21:22 22.06.2022
2945 Clouds 16 1035 19 10000 7.72 290 20:42 22.06.2022
2946 Clouds 14 1035 22 10000 7.72 290 19:56 22.06.2022
2947 Clouds 14 1036 24 10000 7.2 300 18:40 22.06.2022
2948 Clouds 12 1037 27 10000 6.17 280 17:27 22.06.2022
2949 Clouds 10 1037 25 10000 4.12 270 16:18 22.06.2022
2950 Clouds 7 1036 26 10000 2.57 280 15:26 22.06.2022
2951 Clouds 1 1035 47 10000 1.03 0 14:18 22.06.2022
2952 Clouds -1 1035 43 10000 1.03 0 13:37 22.06.2022
2953 Clouds -1 1035 43 10000 1.03 0 13:37 22.06.2022
2954 Clouds -1 1035 43 10000 1.03 0 13:18 22.06.2022
2955 Clouds 2 1034 32 10000 1.03 0 11:49 22.06.2022
2956 Clouds 2 1034 40 10000 2.06 10 10:55 22.06.2022
2957 Clouds -2 1035 42 10000 0 0 09:59 22.06.2022
2958 Clouds 1 1036 31 10000 1.03 0 07:59 22.06.2022
2959 Clouds 8 1036 21 10000 2.06 200 03:40 22.06.2022
2960 Clouds 10 1034 29 10000 3.09 280 01:23 22.06.2022
2961 Clouds 14 1034 20 10000 6.69 280 23:42 21.06.2022
2962 Clouds 15 1035 19 10000 7.72 290 21:49 21.06.2022
2963 Clouds 15 1036 13 10000 10.8 290 19:50 21.06.2022
2964 Clouds 14 1037 26 10000 7.72 280 18:35 21.06.2022
2965 Clouds 12 1038 34 10000 7.2 290 17:31 21.06.2022
2966 Clouds 4 1036 87 10000 2.06 320 13:45 21.06.2022
2967 Clouds 1 1035 100 10000 1.03 0 11:31 21.06.2022
2968 Fog 4 1036 93 4000 1.03 0 09:48 21.06.2022
2969 Fog 6 1036 93 4000 2.06 220 08:37 21.06.2022
2970 Fog 4 1036 100 4000 3.09 80 06:35 21.06.2022
2971 Clouds 12 1034 32 10000 4.63 320 00:43 21.06.2022
2972 Clouds 14 1034 22 10000 7.2 300 23:18 20.06.2022
2973 Clouds 16 1034 19 10000 7.2 290 21:52 20.06.2022
2974 Clouds 16 1035 18 10000 7.2 280 20:47 20.06.2022
2975 Clouds 15 1038 18 10000 5.66 290 19:39 20.06.2022
2976 Clouds 14 1038 17 10000 2.57 270 18:45 20.06.2022
2977 Clouds 12 1038 17 10000 2.57 230 17:52 20.06.2022
2978 Clouds 12 1038 17 10000 2.57 230 17:29 20.06.2022
2979 Clouds 7 1039 33 10000 1.03 0 15:56 20.06.2022
2980 Clear -4 1037 58 10000 1.03 0 12:44 20.06.2022
2981 Clear -4 1036 49 10000 1.03 0 10:41 20.06.2022
2982 Clear 1 1037 37 10000 2.06 20 09:41 20.06.2022
2983 Clear 0 1037 37 10000 2.57 30 08:44 20.06.2022
2984 Clear 4 1038 25 10000 2.57 20 05:55 20.06.2022
2985 Clear 7 1037 15 10000 3.09 350 02:27 20.06.2022
2986 Clouds 12 1036 13 10000 4.12 300 00:26 20.06.2022
2987 Clouds 14 1036 14 10000 7.2 290 22:53 19.06.2022
2988 Clouds 15 1036 14 10000 7.2 290 21:58 19.06.2022
2989 Clouds 15 1036 14 10000 7.2 290 21:40 19.06.2022
2990 Clouds 15 1037 13 10000 5.66 280 20:39 19.06.2022
2991 Clouds 14 1038 14 10000 6.17 280 19:47 19.06.2022
2992 Clear 13 1039 13 10000 3.09 270 18:46 19.06.2022
2993 Clear 13 1039 13 10000 3.09 270 18:26 19.06.2022
2994 Clear 12 1040 16 10000 4.63 270 17:22 19.06.2022
2995 Clear 10 1040 34 10000 3.09 260 16:35 19.06.2022
2996 Clear 8 1039 36 10000 3.09 340 15:41 19.06.2022
2997 Clouds 5 1038 44 10000 3.6 10 14:57 19.06.2022
2998 Clouds 5 1038 44 10000 3.6 10 14:20 19.06.2022
2999 Clouds 2 1037 55 10000 3.09 10 13:23 19.06.2022
3000 Clouds 0 1037 54 10000 1.03 0 11:21 19.06.2022
3001 Clouds -2 1037 68 10000 1.03 0 09:58 19.06.2022
3002 Fog -3 1037 93 4000 2.06 30 08:47 19.06.2022
3003 Fog -3 1037 93 4000 2.06 30 08:19 19.06.2022
3004 Fog 1 1037 93 4000 3.6 80 05:37 19.06.2022
3005 Clear 10 1034 14 10000 3.09 320 01:29 19.06.2022
3006 Clouds 12 1034 9 10000 6.17 310 00:25 19.06.2022
3007 Clouds 14 1034 9 10000 7.72 310 23:36 18.06.2022
3008 Clouds 15 1034 13 10000 8.75 280 22:39 18.06.2022
3009 Clouds 15 1035 24 10000 8.23 280 20:57 18.06.2022
3010 Clouds 15 1035 24 10000 8.23 280 20:38 18.06.2022
3011 Clouds 15 1037 24 10000 7.2 280 19:38 18.06.2022
3012 Clouds 14 1037 30 10000 6.17 270 18:45 18.06.2022
3013 Clouds 11 1038 43 10000 5.14 280 17:35 18.06.2022
3014 Clouds 8 1038 42 10000 2.57 250 16:47 18.06.2022
3015 Clouds 5 1038 44 10000 1.03 0 15:31 18.06.2022
3016 Clouds 1 1037 59 10000 1.03 0 14:44 18.06.2022
3017 Clouds -6 1036 79 10000 0 0 13:22 18.06.2022
3018 Clouds -1 1036 59 10000 1.54 20 11:39 18.06.2022
3019 Clouds -1 1036 74 10000 1.54 360 10:47 18.06.2022
3020 Fog 2 1036 100 4000 1.03 0 09:23 18.06.2022
3021 Fog -4 1036 93 4000 2.06 90 08:24 18.06.2022
3022 Clouds -2 1036 93 10000 3.6 70 06:46 18.06.2022
3023 Clear 4 1035 15 10000 2.06 30 03:30 18.06.2022
3024 Clear 9 1035 14 10000 3.09 290 01:25 18.06.2022
3025 Clear 11 1034 11 10000 4.63 300 00:46 18.06.2022
3026 Clear 13 1034 10 10000 6.69 290 23:52 17.06.2022
3027 Clear 13 1034 10 10000 6.69 290 23:20 17.06.2022
3028 Clear 14 1035 8 10000 9.26 280 20:55 17.06.2022
3029 Clear 13 1036 10 10000 7.72 300 19:31 17.06.2022
3030 Clear 13 1037 10 10000 8.23 280 18:37 17.06.2022
3031 Clear 12 1037 8 10000 8.23 290 17:43 17.06.2022
3032 Clear 10 1038 23 10000 6.17 290 16:43 17.06.2022
3033 Clear 8 1037 22 10000 5.14 300 15:43 17.06.2022
3034 Clear 5 1037 35 10000 2.57 320 14:58 17.06.2022
3035 Clear 5 1037 35 10000 2.57 320 14:20 17.06.2022
3036 Clear 3 1036 37 10000 3.09 330 13:44 17.06.2022
3037 Clear 3 1036 40 10000 3.09 330 12:45 17.06.2022
3038 Clear 2 1035 34 10000 2.57 290 11:56 17.06.2022
3039 Clear 2 1035 34 10000 2.57 290 11:35 17.06.2022
3040 Clear 3 1035 34 10000 2.06 310 10:48 17.06.2022
3041 Clear 3 1035 34 10000 2.06 310 10:48 17.06.2022
3042 Clear 3 1035 34 10000 2.06 310 10:48 17.06.2022
3043 Clear 3 1035 34 10000 2.57 20 08:29 17.06.2022
3044 Clear 0 1036 43 10000 1.54 230 06:58 17.06.2022
3045 Clear 3 1035 34 10000 2.57 40 05:35 17.06.2022
3046 Clouds 10 1033 21 10000 2.06 340 02:47 17.06.2022
3047 Clouds 13 1033 16 10000 5.14 300 00:36 17.06.2022
3048 Clouds 15 1034 14 10000 9.77 280 22:44 16.06.2022
3049 Clouds 15 1034 18 10000 9.77 290 21:36 16.06.2022
3050 Clouds 15 1034 18 10000 9.77 290 21:18 16.06.2022
3051 Clouds 15 1035 14 10000 9.26 290 20:36 16.06.2022
3052 Clouds 15 1037 16 10000 8.75 290 19:56 16.06.2022
3053 Clouds 14 1038 26 10000 7.2 280 18:30 16.06.2022
3054 Clouds 13 1038 25 10000 6.17 290 17:44 16.06.2022
3055 Clouds 11 1038 21 10000 3.6 270 16:40 16.06.2022
3056 Clouds 8 1038 39 10000 2.57 250 15:24 16.06.2022
3057 Clouds 4 1037 48 10000 2.57 350 14:46 16.06.2022
3058 Clouds -6 1036 67 10000 2.57 350 13:34 16.06.2022
3059 Clear -4 1036 63 10000 0 0 12:37 16.06.2022
3060 Clear -5 1035 58 10000 0 0 11:52 16.06.2022
3061 Clear -5 1035 58 10000 0 0 11:18 16.06.2022
3062 Clear 0 1035 50 10000 0 0 10:32 16.06.2022
3063 Clear 2 1036 47 10000 2.57 360 09:22 16.06.2022
3064 Clear -2 1036 63 10000 1.03 0 08:36 16.06.2022
3065 Clear -2 1036 86 10000 1.03 0 07:28 16.06.2022
3066 Clear 3 1036 64 10000 3.6 80 05:29 16.06.2022
3067 Clear 2 1035 47 10000 2.57 70 02:50 16.06.2022
3068 Clear 6 1035 33 10000 1.54 80 01:50 16.06.2022
3069 Clear 6 1035 33 10000 1.54 80 01:21 16.06.2022
3070 Clouds 16 1034 21 10000 4.63 280 23:47 15.06.2022
3071 Clouds 17 1034 23 10000 3.6 200 22:42 15.06.2022
3072 Clouds 18 1034 18 10000 3.09 280 21:23 15.06.2022
3073 Clouds 16 1035 21 10000 3.09 250 20:45 15.06.2022
3074 Clouds 16 1035 21 10000 3.09 250 20:27 15.06.2022
3075 Clear 14 1036 30 10000 3.09 260 19:30 15.06.2022
3076 Clear 12 1037 25 10000 4.12 280 17:56 15.06.2022
3077 Clear 12 1037 25 10000 4.12 280 17:32 15.06.2022
3078 Clear 9 1036 15 10000 2.06 300 15:38 15.06.2022
3079 Clear 4 1036 21 10000 2.57 10 14:23 15.06.2022
3080 Clear 0 1035 24 10000 2.57 10 12:54 15.06.2022
3081 Clear 0 1035 24 10000 2.57 10 12:28 15.06.2022
3082 Clear 0 1034 29 10000 2.57 10 10:24 15.06.2022
3083 Clear -1 1035 36 10000 2.06 10 09:43 15.06.2022
3084 Clear -5 1036 38 10000 1.03 0 08:50 15.06.2022
3085 Clear -4 1035 53 10000 1.54 100 06:36 15.06.2022
3086 Clear 1 1036 27 10000 1.03 0 04:46 15.06.2022
3087 Clear 8 1034 16 10000 1.03 0 01:55 15.06.2022
3088 Clear 13 1034 11 10000 3.6 270 00:51 15.06.2022
3089 Clear 16 1034 7 10000 3.09 280 23:39 14.06.2022
3090 Clear 16 1034 7 10000 3.09 280 23:21 14.06.2022
3091 Clear 17 1034 6 10000 3.09 280 22:23 14.06.2022
3092 Clear 16 1034 8 10000 3.6 230 21:38 14.06.2022
3093 Clear 16 1035 4 10000 2.57 210 20:54 14.06.2022
3094 Clear 16 1035 4 10000 2.57 210 20:28 14.06.2022
3095 Clear 14 1036 7 10000 3.09 230 19:18 14.06.2022
3096 Clear 11 1038 17 10000 2.57 260 17:54 14.06.2022
3097 Clear 8 1038 19 10000 2.06 260 16:47 14.06.2022
3098 Clear 5 1037 23 10000 2.06 250 15:50 14.06.2022
3099 Clear 5 1037 23 10000 2.06 250 15:24 14.06.2022
3100 Clear 1 1036 22 10000 3.09 360 14:33 14.06.2022
3101 Clouds -2 1036 28 10000 3.09 350 13:42 14.06.2022
3102 Clouds -4 1035 30 10000 2.06 350 12:44 14.06.2022
3103 Clouds -1 1035 26 10000 2.06 360 11:32 14.06.2022
3104 Clouds -1 1035 26 10000 2.06 350 10:47 14.06.2022
3105 Clouds -1 1035 26 10000 2.06 350 10:20 14.06.2022
3106 Clear 0 1036 34 10000 2.06 10 08:47 14.06.2022
3107 Clear -3 1037 50 10000 2.06 20 07:33 14.06.2022
3108 Clear -2 1038 50 10000 1.03 0 05:21 14.06.2022
3109 Clear 4 1037 30 10000 2.06 90 02:57 14.06.2022
3110 Clear 10 1036 15 10000 3.09 110 00:32 14.06.2022
3111 Clear 13 1035 11 10000 2.57 70 23:27 13.06.2022
3112 Clear 15 1035 10 10000 2.57 60 22:26 13.06.2022
3113 Clouds 15 1036 11 10000 2.57 80 21:49 13.06.2022
3114 Clouds 14 1037 11 10000 3.09 120 20:31 13.06.2022
3115 Clouds 13 1038 11 10000 3.09 170 19:34 13.06.2022
3116 Clear 11 1039 14 10000 3.6 150 17:58 13.06.2022
3117 Clear 11 1039 14 10000 3.6 150 17:38 13.06.2022
3118 Clear 9 1040 19 10000 2.06 210 16:40 13.06.2022
3119 Clear 6 1040 26 10000 1.03 0 15:37 13.06.2022
3120 Clear 1 1038 47 10000 2.06 20 14:42 13.06.2022
3121 Clear -3 1037 63 10000 2.06 40 13:53 13.06.2022
3122 Clear -5 1037 73 10000 2.06 50 12:47 13.06.2022
3123 Clear -5 1037 93 10000 2.06 40 11:26 13.06.2022
3124 Clear -6 1036 93 10000 2.57 70 10:26 13.06.2022
3125 Clear 1 1023 74 10000 1.19 133 09:31 13.06.2022
3126 Clouds -2 1038 86 10000 3.09 80 07:38 13.06.2022
3127 Clear -2 1038 80 10000 2.06 100 05:42 13.06.2022
3128 Clear 2 1036 43 10000 3.09 80 02:50 13.06.2022
3129 Clear 5 1035 35 10000 3.09 70 01:37 13.06.2022
3130 Clear 12 1035 10 10000 2.57 280 00:18 13.06.2022
3131 Clouds 14 1035 8 10000 4.63 270 23:24 12.06.2022
3132 Clouds 15 1035 8 10000 5.66 270 22:22 12.06.2022
3133 Clouds 15 1036 12 10000 4.12 290 21:20 12.06.2022
3134 Clouds 15 1037 14 10000 4.12 260 20:29 12.06.2022
3135 Clouds 14 1038 15 10000 2.57 290 19:30 12.06.2022
3136 Clouds 14 1038 15 10000 2.57 290 19:30 12.06.2022
3137 Clear 11 1039 34 10000 3.09 260 17:51 12.06.2022
3138 Clear 9 1039 36 10000 2.57 270 16:24 12.06.2022
3139 Clear 4 1038 41 10000 1.54 20 14:57 12.06.2022
3140 Clear 4 1038 41 10000 1.54 20 14:21 12.06.2022
3141 Clear -5 1037 58 10000 1.03 0 13:51 12.06.2022
3142 Clear -3 1036 54 10000 2.06 30 12:37 12.06.2022
3143 Clear -2 1036 50 10000 2.06 10 11:37 12.06.2022
3144 Clear -1 1036 43 10000 2.06 20 10:22 12.06.2022
3145 Clear -6 1036 62 10000 1.03 0 08:54 12.06.2022
3146 Clear -6 1036 62 10000 1.03 0 08:35 12.06.2022
3147 Clear -5 1037 73 10000 3.09 90 07:32 12.06.2022
3148 Clear -3 1037 63 10000 3.09 60 04:35 12.06.2022
3149 Clear 0 1036 50 10000 2.57 80 02:38 12.06.2022
3150 Clear 5 1035 30 10000 2.06 60 01:37 12.06.2022
3151 Clear 11 1035 14 10000 1.03 0 00:58 12.06.2022
3152 Clear 11 1035 14 10000 1.03 0 00:20 12.06.2022
3153 Clouds 14 1034 11 10000 2.57 330 23:40 11.06.2022
3154 Clouds 14 1035 13 10000 2.57 250 22:38 11.06.2022
3155 Clouds 14 1035 13 10000 2.57 250 22:38 11.06.2022
3156 Clouds 14 1035 11 10000 4.12 290 21:42 11.06.2022
3157 Clouds 13 1036 11 10000 3.09 260 20:34 11.06.2022
3158 Clouds 13 1038 10 10000 3.6 280 19:46 11.06.2022
3159 Clouds 12 1039 18 10000 3.09 250 18:56 11.06.2022
3160 Clouds 12 1039 18 10000 3.09 250 18:33 11.06.2022
3161 Clouds 9 1039 45 10000 2.57 240 17:50 11.06.2022
3162 Clouds 9 1039 45 10000 2.57 240 17:26 11.06.2022
3163 Clear 7 1039 56 10000 3.6 250 16:50 11.06.2022
3164 Clear 7 1039 56 10000 3.6 250 16:26 11.06.2022
3165 Clouds 4 1039 64 10000 1.03 0 15:27 11.06.2022
3166 Clouds -3 1037 74 10000 1.03 0 13:53 11.06.2022
3167 Clouds -6 1037 93 10000 1.54 30 12:25 11.06.2022
3168 Fog -4 1037 100 4000 0 0 10:40 11.06.2022
3169 Fog -2 1037 93 4000 1.03 0 09:43 11.06.2022
3170 Fog -1 1038 93 4000 1.54 70 08:46 11.06.2022
3171 Fog -1 1038 100 4000 2.57 90 06:47 11.06.2022
3172 Clouds 1 1038 93 10000 3.6 80 05:58 11.06.2022
3173 Clouds 4 1037 75 10000 4.12 90 03:45 11.06.2022
3174 Clouds 5 1035 70 10000 5.14 110 01:52 11.06.2022
3175 Clouds 5 1035 70 10000 5.14 110 01:26 11.06.2022
3176 Clouds 11 1035 23 10000 2.57 260 23:28 10.06.2022
3177 Clouds 12 1035 17 10000 3.09 300 22:27 10.06.2022
3178 Clouds 13 1035 13 10000 3.09 280 21:46 10.06.2022
3179 Clouds 12 1036 18 10000 3.6 280 20:39 10.06.2022
3180 Clouds 12 1036 18 10000 3.6 280 20:20 10.06.2022
3181 Clouds 13 1037 15 10000 3.6 270 19:19 10.06.2022
3182 Clouds 11 1038 25 10000 1.03 0 18:44 10.06.2022
3183 Clouds 9 1039 42 10000 1.03 0 17:54 10.06.2022
3184 Clouds 9 1039 42 10000 1.03 0 17:22 10.06.2022
3185 Clouds 7 1039 48 10000 1.03 0 16:26 10.06.2022
3186 Clouds 6 1039 60 10000 1.03 0 15:39 10.06.2022
3187 Clouds 0 1038 74 10000 1.03 0 14:24 10.06.2022
3188 Clouds -4 1037 49 10000 2.06 360 12:57 10.06.2022
3189 Clouds 0 1036 37 10000 2.57 20 11:59 10.06.2022
3190 Clouds -2 1036 39 10000 2.06 10 10:45 10.06.2022
3191 Clouds -4 1036 45 10000 1.54 70 09:55 10.06.2022
3192 Clouds -4 1037 53 10000 1.03 0 08:47 10.06.2022
3193 Clouds 0 1037 43 10000 2.57 60 07:31 10.06.2022
3194 Clear 1 1038 51 10000 2.57 40 06:45 10.06.2022
3195 Clear 1 1038 51 10000 2.57 40 06:26 10.06.2022
3196 Clear 1 1037 29 10000 1.03 0 04:37 10.06.2022
3197 Clouds 7 1034 16 10000 2.06 270 01:42 10.06.2022
3198 Clouds 11 1034 11 10000 2.57 310 00:40 10.06.2022
3199 Clouds 14 1034 10 10000 4.12 320 23:49 09.06.2022
3200 Clouds 14 1034 10 10000 4.63 290 22:18 09.06.2022
3201 Clouds 15 1034 11 10000 4.63 310 21:37 09.06.2022
3202 Clouds 15 1035 10 10000 4.12 260 20:55 09.06.2022
3203 Clouds 15 1035 10 10000 4.12 260 20:21 09.06.2022
3204 Clouds 13 1036 11 10000 4.63 280 19:29 09.06.2022
3205 Clouds 12 1037 12 10000 4.12 240 18:34 09.06.2022
3206 Clear 8 1038 16 10000 3.09 230 16:56 09.06.2022
3207 Clear 6 1038 20 10000 1.03 0 15:49 09.06.2022
3208 Clear 3 1037 34 10000 2.06 10 14:38 09.06.2022
3209 Clear 0 1036 43 10000 2.57 10 13:54 09.06.2022
3210 Clear 0 1036 43 10000 2.57 10 13:28 09.06.2022
3211 Clear -1 1035 46 10000 2.06 10 11:54 09.06.2022
3212 Clear -1 1035 46 10000 2.06 10 11:19 09.06.2022
3213 Clear -4 1035 42 10000 1.03 0 09:45 09.06.2022
3214 Clear -4 1035 42 10000 1.03 0 09:24 09.06.2022
3215 Clear 1 1036 29 10000 2.06 20 07:52 09.06.2022
3216 Clear -1 1036 36 10000 2.06 30 06:33 09.06.2022
3217 Clear 8 1035 31 10000 2.06 330 02:52 09.06.2022
3218 Clear 15 1033 5 10000 5.66 300 23:39 08.06.2022
3219 Clear 15 1034 7 10000 4.12 280 22:58 08.06.2022
3220 Clear 15 1034 7 10000 4.12 280 22:27 08.06.2022
3221 Clouds 16 1034 7 10000 5.14 270 21:54 08.06.2022
3222 Clouds 16 1034 7 10000 5.14 270 21:21 08.06.2022
3223 Clouds 15 1035 6 10000 4.12 260 20:20 08.06.2022
3224 Clear 13 1011 6 10000 4.12 260 19:38 08.06.2022
3225 Clear 13 1037 6 10000 2.06 270 18:43 08.06.2022
3226 Clear 7 1039 19 10000 2.57 250 16:54 08.06.2022
3227 Clear 5 1038 22 10000 2.57 250 15:44 08.06.2022
3228 Clear -1 1036 31 10000 2.57 360 13:51 08.06.2022
3229 Clouds -2 1035 36 10000 1.54 30 11:52 08.06.2022
3230 Clouds -2 1035 36 10000 1.54 30 11:29 08.06.2022
3231 Clear -5 1036 53 10000 1.03 0 09:55 08.06.2022
3232 Clear -5 1036 53 10000 1.03 0 09:21 08.06.2022
3233 Clear -2 1036 46 10000 1.54 10 08:22 08.06.2022
3234 Clear 3 1037 32 10000 2.06 10 05:47 08.06.2022
3235 Clear 7 1036 24 10000 3.09 240 03:20 08.06.2022
3236 Clouds 12 1033 23 10000 3.09 280 00:28 08.06.2022
3237 Clouds 15 1033 15 10000 3.6 290 23:25 07.06.2022
3238 Clouds 17 1033 15 10000 6.69 280 22:42 07.06.2022
3239 Clouds 17 1033 15 10000 6.69 280 22:20 07.06.2022
3240 Clouds 17 1034 18 10000 6.69 280 21:28 07.06.2022
3241 Clouds 16 1035 24 10000 7.2 280 20:52 07.06.2022
3242 Clouds 16 1035 24 10000 7.2 280 20:31 07.06.2022
3243 Clouds 15 1035 26 10000 6.17 300 19:24 07.06.2022
3244 Clouds 10 1037 71 10000 4.12 260 17:57 07.06.2022
3245 Clouds 10 1037 71 10000 4.12 260 17:19 07.06.2022
3246 Clouds 9 1038 76 8000 3.09 270 16:39 07.06.2022
3247 Clouds 6 1037 81 10000 1.03 0 15:42 07.06.2022
3248 Clouds 6 1037 81 10000 1.03 0 15:23 07.06.2022
3249 Fog 3 1037 100 8000 1.03 0 14:46 07.06.2022
3250 Clouds 0 1035 80 10000 2.06 40 13:50 07.06.2022
3251 Clouds 0 1035 80 10000 2.06 40 13:29 07.06.2022
3252 Clouds 1 1035 93 10000 2.06 20 12:39 07.06.2022
3253 Fog 0 1035 100 4000 1.03 0 10:57 07.06.2022
3254 Fog 1 1035 100 4000 0 0 09:58 07.06.2022
3255 Fog 3 1036 93 4000 2.06 80 08:32 07.06.2022
3256 Fog 3 1036 93 4000 3.09 80 07:22 07.06.2022
3257 Fog 7 1036 93 4000 4.12 110 05:48 07.06.2022
3258 Clouds 9 1035 57 10000 2.57 20 02:28 07.06.2022
3259 Clouds 12 1034 22 10000 7.2 280 00:33 07.06.2022
3260 Clouds 14 1034 32 10000 6.69 270 23:32 06.06.2022
3261 Clouds 16 1033 28 10000 6.69 280 22:37 06.06.2022
3262 Clouds 16 1034 30 10000 7.2 280 21:36 06.06.2022
3263 Clouds 15 1036 44 10000 6.17 290 19:53 06.06.2022
3264 Clouds 15 1036 44 10000 6.17 290 19:19 06.06.2022
3265 Clouds 13 1037 58 10000 6.17 280 18:34 06.06.2022
3266 Clouds 12 1037 62 10000 5.14 280 17:42 06.06.2022
3267 Clouds 11 1037 71 10000 3.09 270 16:33 06.06.2022
3268 Clouds 7 1037 93 10000 3.09 250 15:39 06.06.2022
3269 Clouds 7 1036 87 10000 2.06 230 14:39 06.06.2022
3270 Fog 6 1036 93 4000 1.03 0 13:27 06.06.2022
3271 Clouds 6 1035 93 10000 2.06 280 12:37 06.06.2022
3272 Fog 7 1035 93 4000 3.6 330 11:58 06.06.2022
3273 Fog 7 1035 93 4000 3.6 330 11:28 06.06.2022
3274 Rain 7 1035 93 4000 1.03 0 09:40 06.06.2022
3275 Fog 7 1036 100 4000 1.03 0 08:35 06.06.2022
3276 Fog 7 1036 100 4000 2.06 100 07:28 06.06.2022
3277 Clouds 4 1037 100 10000 1.54 60 05:29 06.06.2022
3278 Clouds 4 1037 100 10000 1.54 60 05:29 06.06.2022
3279 Clouds 4 1037 100 10000 1.54 60 05:29 06.06.2022
3280 Rain 5 1036 100 10000 2.57 80 03:44 06.06.2022
3281 Clouds 9 1035 87 10000 2.57 90 01:23 06.06.2022
3282 Clouds 12 1035 66 10000 3.6 90 00:42 06.06.2022
3283 Clouds 14 1035 43 10000 5.14 270 23:44 05.06.2022
3284 Clouds 15 1035 44 10000 5.66 270 22:47 05.06.2022
3285 Clouds 14 1037 58 10000 4.63 260 20:59 05.06.2022
3286 Clouds 14 1038 58 10000 4.12 270 19:50 05.06.2022
3287 Clouds 12 1039 66 10000 3.6 230 18:30 05.06.2022
3288 Clouds 12 1039 66 10000 3.6 230 18:30 05.06.2022
3289 Clouds 10 1040 76 10000 3.09 70 17:55 05.06.2022
3290 Clouds 10 1040 76 10000 3.09 70 17:26 05.06.2022
3291 Clouds 7 1040 87 10000 2.57 260 16:52 05.06.2022
3292 Clouds 7 1040 87 10000 2.57 260 16:34 05.06.2022
3293 Clouds 3 1040 100 500 5.14 320 14:27 05.06.2022
3294 Fog 7 1038 100 4000 1.03 0 12:57 05.06.2022
3295 Fog 7 1037 100 4000 2.57 100 11:47 05.06.2022
3296 Fog 7 1037 100 4000 2.57 150 10:34 05.06.2022
3297 Fog 8 1037 93 4000 2.06 70 09:59 05.06.2022
3298 Fog 8 1038 93 4000 2.57 130 08:34 05.06.2022
3299 Fog 8 1038 93 4000 2.57 100 07:43 05.06.2022
3300 Fog 8 1037 93 800 4.63 90 05:22 05.06.2022
3301 Clouds 6 1036 93 10000 2.57 80 03:47 05.06.2022
3302 Clouds 10 1036 76 10000 3.6 130 01:32 05.06.2022
3303 Clouds 12 1035 57 10000 5.14 110 00:33 05.06.2022
3304 Clouds 14 1035 50 10000 3.09 70 22:22 04.06.2022
3305 Rain 14 1037 50 10000 3.09 280 20:31 04.06.2022
3306 Clouds 11 1039 66 10000 3.09 280 18:19 04.06.2022
3307 Clouds 8 1039 87 6000 2.57 170 16:44 04.06.2022
3308 Clouds 8 1039 87 6000 2.57 170 16:18 04.06.2022
3309 Fog 6 1038 100 4000 3.09 100 14:53 04.06.2022
3310 Fog 1 1037 100 4000 3.09 80 12:35 04.06.2022
3311 Fog 2 1037 100 4000 1.03 0 11:18 04.06.2022
3312 Fog 4 1037 100 4000 2.57 90 10:43 04.06.2022
3313 Fog 6 1037 100 4000 2.57 110 09:42 04.06.2022
3314 Fog 7 1038 93 4000 2.06 120 08:41 04.06.2022
3315 Fog 7 1038 100 4000 3.09 90 07:40 04.06.2022
3316 Fog 6 1036 100 4000 4.12 90 04:57 04.06.2022
3317 Clouds 11 1035 46 10000 2.06 350 01:27 04.06.2022
3318 Clouds 15 1035 33 10000 6.17 280 23:59 03.06.2022
3319 Clouds 15 1035 33 10000 3.6 250 22:40 03.06.2022
3320 Clouds 16 1036 30 10000 5.14 270 21:24 03.06.2022
3321 Clouds 16 1036 30 10000 3.6 270 20:33 03.06.2022
3322 Clouds 15 1038 33 10000 4.12 270 18:23 03.06.2022
3323 Clouds 12 1039 50 10000 1.03 0 16:47 03.06.2022
3324 Clouds 10 1039 66 10000 1.03 0 15:18 03.06.2022
3325 Fog 7 1037 93 4000 2.06 130 13:20 03.06.2022
3326 Fog 4 1037 100 4000 2.06 110 11:19 03.06.2022
3327 Fog 4 1037 100 4000 1.54 80 09:38 03.06.2022
3328 Fog 6 1037 100 4000 2.57 120 08:45 03.06.2022
3329 Fog 5 1037 93 4000 2.57 90 07:26 03.06.2022
3330 Fog 5 1037 93 4000 2.57 90 07:26 03.06.2022
3331 Fog 8 1037 93 4000 3.6 110 06:34 03.06.2022
3332 Fog 7 1037 93 4000 2.57 80 05:36 03.06.2022
3333 Clouds 13 1034 37 10000 4.12 300 00:28 03.06.2022
3334 Clouds 17 1034 26 10000 6.17 290 22:41 02.06.2022
3335 Clouds 16 1034 28 10000 6.17 290 21:40 02.06.2022
3336 Clouds 16 1035 28 10000 7.2 290 20:22 02.06.2022
3337 Clouds 16 1036 26 10000 7.2 280 19:46 02.06.2022
3338 Clouds 16 1036 26 10000 7.2 280 19:28 02.06.2022
3339 Clouds 13 1037 32 10000 4.63 270 17:32 02.06.2022
3340 Clouds 10 1037 49 10000 2.57 260 16:27 02.06.2022
3341 Clouds 4 1036 93 10000 1.03 0 14:19 02.06.2022
3342 Clouds 5 1035 81 10000 2.06 10 13:29 02.06.2022
3343 Clouds 4 1035 93 10000 1.03 0 11:24 02.06.2022
3344 Clouds 4 1034 100 10000 1.03 0 10:20 02.06.2022
3345 Fog 5 1035 100 4000 1.03 0 09:27 02.06.2022
3346 Fog 5 1035 100 4000 1.54 150 08:26 02.06.2022
3347 Fog 4 1035 100 4000 2.06 100 07:21 02.06.2022
3348 Fog 6 1035 100 4000 2.57 70 04:49 02.06.2022
3349 Clouds 8 1033 87 10000 3.09 90 02:37 02.06.2022
3350 Clouds 14 1032 37 10000 5.14 300 23:43 01.06.2022
3351 Clouds 14 1032 37 10000 5.14 300 23:43 01.06.2022
3352 Rain 15 1032 33 10000 7.72 290 22:31 01.06.2022
3353 Clouds 16 1032 28 10000 9.77 280 21:32 01.06.2022
3354 Clouds 16 1032 30 10000 9.26 290 20:40 01.06.2022
3355 Clouds 16 1033 28 10000 9.26 290 19:59 01.06.2022
3356 Clouds 16 1033 28 10000 9.26 290 19:19 01.06.2022
3357 Clouds 15 1035 33 10000 7.2 300 17:44 01.06.2022
3358 Clouds 13 1035 40 10000 6.69 310 16:34 01.06.2022
3359 Clouds 7 1034 70 10000 2.06 250 14:52 01.06.2022
3360 Fog 4 1034 93 4000 0 0 13:45 01.06.2022
3361 Fog 2 1033 93 4000 0 0 12:25 01.06.2022
3362 Clouds 7 1033 70 10000 1.03 0 09:36 01.06.2022
3363 Clouds 3 1033 93 10000 1.03 0 08:29 01.06.2022
3364 Clouds 5 1034 93 10000 2.57 40 07:21 01.06.2022
3365 Clouds 10 1034 49 10000 2.57 210 04:59 01.06.2022
3366 Clouds 15 1031 24 10000 6.69 320 23:57 31.05.2022
3367 Clouds 15 1031 22 10000 8.75 300 22:51 31.05.2022
3368 Clouds 15 1031 22 10000 8.75 300 22:29 31.05.2022
3369 Clouds 16 1032 23 10000 8.23 310 21:45 31.05.2022
3370 Clouds 17 1033 23 10000 7.2 300 20:44 31.05.2022
3371 Clouds 16 1034 26 10000 6.69 290 19:52 31.05.2022
3372 Clouds 15 1035 33 10000 6.69 290 18:45 31.05.2022
3373 Clouds 14 1036 30 10000 5.14 290 17:49 31.05.2022
3374 Clouds 12 1036 46 10000 5.66 290 16:48 31.05.2022
3375 Clouds 10 1036 66 10000 3.09 310 15:40 31.05.2022
3376 Clouds 4 1034 93 10000 1.03 0 13:37 31.05.2022
3377 Clouds 4 1034 100 10000 0 0 12:19 31.05.2022
3378 Clouds 0 1033 93 10000 0 0 10:52 31.05.2022
3379 Fog 3 1035 100 4000 2.06 60 08:37 31.05.2022
3380 Fog 2 1035 100 4000 2.06 60 06:52 31.05.2022
3381 Clouds 3 1034 100 10000 3.09 80 04:34 31.05.2022
3382 Clouds 16 1032 19 10000 7.2 300 23:49 30.05.2022
3383 Clouds 16 1032 19 10000 7.2 300 23:25 30.05.2022
3384 Clouds 17 1033 21 10000 6.69 290 22:43 30.05.2022
3385 Clouds 17 1033 23 10000 6.17 300 21:47 30.05.2022
3386 Clouds 17 1033 23 10000 6.17 300 21:29 30.05.2022
3387 Clouds 16 1035 23 10000 6.17 280 19:51 30.05.2022
3388 Clouds 15 1036 21 10000 6.17 280 18:26 30.05.2022
3389 Clouds 13 1037 24 10000 4.12 280 17:23 30.05.2022
3390 Clouds 12 1037 23 10000 3.6 270 16:36 30.05.2022
3391 Clouds 1 1036 59 10000 2.57 10 13:44 30.05.2022
3392 Clear 3 1035 44 10000 2.57 10 11:54 30.05.2022
3393 Clear 2 1035 51 10000 2.57 360 10:20 30.05.2022
3394 Clear 3 1035 51 10000 2.57 10 09:18 30.05.2022
3395 Clear 0 1036 93 10000 2.06 50 06:28 30.05.2022
3396 Clear 4 1036 80 10000 2.57 90 04:52 30.05.2022
3397 Clear 11 1034 23 10000 2.57 300 01:23 30.05.2022
3398 Clouds 16 1033 15 10000 7.2 290 22:49 29.05.2022
3399 Clouds 16 1033 15 10000 7.2 290 22:28 29.05.2022
3400 Clouds 16 1035 17 10000 6.69 280 20:29 29.05.2022
3401 Clouds 16 1036 15 10000 6.17 280 19:29 29.05.2022
3402 Clouds 15 1037 19 10000 5.66 260 18:34 29.05.2022
3403 Clouds 12 1038 22 10000 4.12 300 16:25 29.05.2022
3404 Clouds 11 1037 23 10000 2.57 300 15:46 29.05.2022
3405 Clouds 5 1036 41 10000 1.03 0 14:54 29.05.2022
3406 Clear -2 1035 74 10000 2.06 10 12:57 29.05.2022
3407 Clear -1 1035 74 10000 1.03 0 11:20 29.05.2022
3408 Clear 3 1035 55 10000 2.57 10 10:34 29.05.2022
3409 Clear 3 1036 44 10000 3.09 10 08:31 29.05.2022
3410 Clear 3 1036 86 10000 2.57 60 04:58 29.05.2022
3411 Clear 3 1036 86 10000 2.57 60 04:36 29.05.2022
3412 Clear 11 1034 25 10000 3.6 310 01:28 29.05.2022
3413 Clouds 15 1033 19 10000 6.17 300 23:48 28.05.2022
3414 Clouds 15 1033 19 10000 6.17 300 23:19 28.05.2022
3415 Clouds 16 1034 19 10000 6.69 290 21:53 28.05.2022
3416 Clouds 16 1035 17 10000 6.69 270 20:58 28.05.2022
3417 Clouds 16 1036 15 10000 5.14 280 19:20 28.05.2022
3418 Clouds 15 1037 15 10000 4.63 280 18:24 28.05.2022
3419 Clouds 13 1038 17 10000 3.6 280 17:33 28.05.2022
3420 Clear 9 1038 21 10000 1.03 0 15:51 28.05.2022
3421 Clear 9 1038 21 10000 1.03 0 15:20 28.05.2022
3422 Clear 2 1037 47 10000 2.06 10 13:38 28.05.2022
3423 Clear 1 1036 55 10000 1.03 0 12:43 28.05.2022
3424 Clear -1 1035 54 10000 2.06 360 11:37 28.05.2022
3425 Clear 0 1036 46 10000 1.03 0 10:39 28.05.2022
3426 Clear -1 1036 54 10000 2.06 40 09:54 28.05.2022
3427 Clear 0 1037 54 10000 1.03 0 08:33 28.05.2022
3428 Clear 5 1038 56 10000 2.06 360 06:50 28.05.2022
3429 Clear 1 1038 80 10000 1.03 0 05:18 28.05.2022
3430 Clear 5 1036 60 10000 3.09 80 02:26 28.05.2022
3431 Clouds 16 1035 15 10000 5.66 300 23:57 27.05.2022
3432 Clouds 18 1035 12 10000 5.66 290 22:38 27.05.2022
3433 Clouds 17 1036 13 10000 3.09 270 21:28 27.05.2022
3434 Clouds 17 1037 13 10000 4.63 250 20:44 27.05.2022
3435 Clouds 17 1037 13 10000 4.63 250 20:19 27.05.2022
3436 Clouds 16 1038 14 10000 4.63 260 19:38 27.05.2022
3437 Clouds 16 1038 14 10000 4.63 260 19:19 27.05.2022
3438 Clouds 14 1039 16 10000 1.54 220 17:19 27.05.2022
3439 Clouds 11 1040 18 10000 1.54 80 15:56 27.05.2022
3440 Clouds 6 1040 45 10000 1.03 0 14:53 27.05.2022
3441 Clouds -1 1039 63 10000 1.03 0 13:40 27.05.2022
3442 Clouds 2 1037 51 10000 2.57 10 11:55 27.05.2022
3443 Clouds 2 1037 51 10000 2.57 10 11:30 27.05.2022
3444 Clouds 1 1038 55 10000 2.06 10 10:38 27.05.2022
3445 Clouds -1 1038 74 10000 1.03 0 09:58 27.05.2022
3446 Clouds -1 1038 74 10000 1.03 0 09:28 27.05.2022
3447 Clear 3 1039 80 10000 2.57 30 07:30 27.05.2022
3448 Clouds 6 1039 81 10000 3.09 200 03:38 27.05.2022
3449 Clouds 6 1036 65 10000 3.6 80 01:19 27.05.2022
3450 Clouds 15 1036 24 10000 3.6 110 23:23 26.05.2022
3451 Clouds 16 1037 24 10000 2.57 150 21:53 26.05.2022
3452 Clouds 16 1037 24 10000 2.57 150 21:27 26.05.2022
3453 Clouds 16 1039 23 10000 1.54 80 19:34 26.05.2022
3454 Clouds 13 1040 28 10000 2.06 170 18:31 26.05.2022
3455 Clouds 13 1040 24 10000 2.06 150 17:36 26.05.2022
3456 Clouds 13 1041 17 10000 1.03 0 16:18 26.05.2022
3457 Clouds 10 1041 34 10000 1.03 0 15:19 26.05.2022
3458 Clouds 3 1039 47 10000 2.06 360 13:56 26.05.2022
3459 Clouds 1 1038 64 10000 2.06 30 11:49 26.05.2022
3460 Clouds 2 1038 80 10000 1.03 0 10:39 26.05.2022
3461 Clouds 1 1038 100 10000 1.03 0 09:38 26.05.2022
3462 Fog 1 1038 93 4000 2.06 70 08:38 26.05.2022
3463 Clouds 3 1039 86 10000 2.57 60 05:26 26.05.2022
3464 Clouds 5 1037 70 10000 3.6 80 02:19 26.05.2022
3465 Clouds 15 1035 15 10000 5.14 300 23:41 25.05.2022
3466 Clouds 16 1035 17 10000 5.14 280 22:51 25.05.2022
3467 Clouds 16 1035 18 10000 4.63 290 21:39 25.05.2022
3468 Clouds 16 1037 18 10000 4.63 280 20:43 25.05.2022
3469 Clouds 16 1038 19 10000 4.12 280 19:32 25.05.2022
3470 Clouds 15 1038 22 10000 3.09 250 18:23 25.05.2022
3471 Clouds 10 1039 34 10000 3.09 260 16:42 25.05.2022
3472 Clouds 10 1039 34 10000 3.09 260 16:21 25.05.2022
3473 Clouds 8 1039 36 10000 2.06 270 15:24 25.05.2022
3474 Clouds 3 1038 47 10000 1.03 0 14:38 25.05.2022
3475 Clouds 3 1038 47 10000 1.03 0 14:19 25.05.2022
3476 Clear 1 1037 47 10000 1.03 0 12:52 25.05.2022
3477 Clear 2 1021 66 10000 0.77 307 11:31 25.05.2022
3478 Clear 2 1037 43 10000 3.09 10 10:22 25.05.2022
3479 Clear 2 1020 72 10000 0.72 112 08:45 25.05.2022
3480 Clear 3 1020 73 10000 1.1 114 07:23 25.05.2022
3481 Clear 3 1020 73 10000 1.1 114 07:23 25.05.2022
3482 Clear 2 1037 80 10000 4.12 80 05:23 25.05.2022
3483 Clear 13 1035 13 10000 3.6 280 00:31 25.05.2022
3484 Clouds 16 1034 12 10000 3.6 290 23:47 24.05.2022
3485 Clouds 16 1034 9 10000 4.63 260 22:52 24.05.2022
3486 Clouds 17 1035 10 10000 4.12 320 21:46 24.05.2022
3487 Clouds 17 1035 10 10000 4.12 320 21:21 24.05.2022
3488 Clouds 16 1036 9 10000 4.63 290 20:38 24.05.2022
3489 Clouds 15 1038 11 10000 3.09 270 18:57 24.05.2022
3490 Clear 13 1038 20 10000 4.63 270 17:19 24.05.2022
3491 Clear 10 1038 31 10000 3.6 260 16:28 24.05.2022
3492 Clear 8 1038 26 10000 2.57 290 15:20 24.05.2022
3493 Clear 4 1037 35 10000 1.03 0 14:34 24.05.2022
3494 Clear 0 1036 54 10000 0 0 13:27 24.05.2022
3495 Clear 2 1035 34 10000 3.09 10 11:53 24.05.2022
3496 Clear -1 1036 43 10000 1.03 0 09:49 24.05.2022
3497 Clear 2 1019 47 10000 0.83 281 08:51 24.05.2022
3498 Clear -1 1037 46 10000 1.54 10 07:30 24.05.2022
3499 Clear 0 1037 46 10000 3.09 90 05:59 24.05.2022
3500 Clear 5 1036 22 10000 0 0 02:53 24.05.2022
3501 Clear 10 1035 19 10000 2.57 290 01:44 24.05.2022
3502 Clouds 16 1035 8 10000 2.06 290 23:44 23.05.2022
3503 Clouds 16 1035 9 10000 2.06 290 22:22 23.05.2022
3504 Clouds 15 1035 8 10000 3.09 320 21:41 23.05.2022
3505 Clouds 15 1036 8 10000 3.6 250 20:45 23.05.2022
3506 Clear 14 1037 9 10000 3.09 250 19:41 23.05.2022
3507 Clear 14 1037 9 10000 3.09 250 19:18 23.05.2022
3508 Clear 13 1039 9 10000 3.09 260 18:37 23.05.2022
3509 Clear 11 1039 17 10000 2.57 250 17:55 23.05.2022
3510 Clear 6 1038 17 10000 2.06 250 15:53 23.05.2022
3511 Clear -2 1037 42 10000 1.54 280 13:44 23.05.2022
3512 Clear -6 1037 57 10000 2.06 360 11:40 23.05.2022
3513 Clear -4 1037 49 10000 1.03 0 10:44 23.05.2022
3514 Clear 1 1037 40 10000 2.57 360 09:45 23.05.2022
3515 Clouds 1 1038 31 10000 2.06 10 08:44 23.05.2022
3516 Clear 3 1038 25 10000 2.06 350 06:48 23.05.2022
3517 Clear 3 1038 25 10000 2.06 350 06:24 23.05.2022
3518 Clouds 8 1037 26 10000 2.57 320 02:36 23.05.2022
3519 Clouds 10 1036 21 10000 3.6 280 01:48 23.05.2022
3520 Clouds 10 1036 21 10000 3.6 280 01:19 23.05.2022
3521 Clouds 15 1036 15 10000 5.14 270 22:48 22.05.2022
3522 Clouds 15 1036 15 10000 5.14 270 22:21 22.05.2022
3523 Clouds 16 1036 15 10000 8.23 270 21:50 22.05.2022
3524 Clouds 16 1037 14 10000 7.72 270 20:42 22.05.2022
3525 Clouds 16 1037 14 10000 7.72 270 20:20 22.05.2022
3526 Clouds 14 1039 19 10000 7.72 270 18:58 22.05.2022
3527 Clouds 14 1039 19 10000 7.72 270 18:31 22.05.2022
3528 Clouds 13 1040 20 10000 4.12 270 17:55 22.05.2022
3529 Clouds 11 1041 20 10000 3.09 270 16:51 22.05.2022
3530 Clouds 9 1040 36 10000 2.57 260 15:22 22.05.2022
3531 Clouds 7 1039 38 10000 2.06 360 14:35 22.05.2022
3532 Clouds 3 1038 55 10000 0 0 12:54 22.05.2022
3533 Clouds 4 1038 51 10000 0 0 11:53 22.05.2022
3534 Clouds 3 1038 55 10000 0 0 10:38 22.05.2022
3535 Clouds 2 1038 59 10000 2.06 70 09:27 22.05.2022
3536 Clouds 1 1039 74 10000 1.03 0 07:44 22.05.2022
3537 Clouds 1 1039 74 10000 2.57 80 06:41 22.05.2022
3538 Clear 4 1039 48 10000 3.09 70 03:25 22.05.2022
3539 Clouds 14 1037 19 10000 4.12 300 00:49 22.05.2022
3540 Clouds 16 1037 18 10000 6.17 290 23:56 21.05.2022
3541 Clouds 16 1037 18 10000 6.17 290 23:27 21.05.2022
3542 Clouds 17 1037 14 10000 6.17 290 21:59 21.05.2022
3543 Clouds 17 1037 14 10000 6.17 290 21:34 21.05.2022
3544 Clouds 17 1038 14 10000 4.63 260 20:34 21.05.2022
3545 Clouds 17 1039 14 10000 4.63 260 19:44 21.05.2022
3546 Clouds 16 1040 12 10000 4.12 300 18:45 21.05.2022
3547 Clouds 12 1041 22 10000 2.57 250 16:57 21.05.2022
3548 Clouds 6 1040 38 10000 2.06 10 14:39 21.05.2022
3549 Clouds 2 1039 51 10000 2.57 360 13:55 21.05.2022
3550 Clouds 2 1039 51 10000 2.57 360 13:19 21.05.2022
3551 Clouds 3 1038 51 10000 3.09 360 12:38 21.05.2022
3552 Clouds 3 1038 47 10000 3.09 360 11:20 21.05.2022
3553 Clouds 2 1038 47 10000 2.06 20 09:57 21.05.2022
3554 Clouds -1 1039 68 10000 1.54 60 08:59 21.05.2022
3555 Clouds -1 1039 68 10000 1.54 60 08:37 21.05.2022
3556 Clouds 5 1020 55 10000 1.05 142 05:52 21.05.2022
3557 Clouds 10 1038 18 10000 3.6 280 01:33 21.05.2022
3558 Clouds 16 1036 14 10000 5.14 250 23:30 20.05.2022
3559 Clouds 17 1036 13 10000 5.66 250 22:26 20.05.2022
3560 Clouds 17 1037 13 10000 4.63 230 21:55 20.05.2022
3561 Clouds 17 1037 13 10000 4.63 230 21:55 20.05.2022
3562 Clouds 17 1037 13 10000 4.63 230 21:18 20.05.2022
3563 Clouds 17 1038 13 10000 4.12 290 20:44 20.05.2022
3564 Clouds 16 1039 12 10000 4.63 310 19:45 20.05.2022
3565 Clouds 14 1040 16 10000 4.63 290 18:48 20.05.2022
3566 Clouds 12 1040 20 10000 3.09 260 17:47 20.05.2022
3567 Clouds 10 1040 23 10000 3.09 240 16:21 20.05.2022
3568 Clouds 8 1040 24 10000 2.06 260 15:53 20.05.2022
3569 Clouds 5 1039 35 10000 2.06 350 14:31 20.05.2022
3570 Clouds 1 1039 47 10000 2.57 360 13:56 20.05.2022
3571 Clouds 1 1038 43 10000 2.57 10 11:49 20.05.2022
3572 Clouds 3 1038 40 10000 2.57 350 10:24 20.05.2022
3573 Clouds 3 1039 37 10000 1.03 0 08:50 20.05.2022
3574 Clouds 4 1040 38 10000 1.03 0 07:25 20.05.2022
3575 Clouds 5 1040 35 10000 2.57 260 06:36 20.05.2022
3576 Clouds 6 1040 30 10000 1.03 0 05:22 20.05.2022
3577 Clouds 12 1037 22 10000 2.06 250 00:54 20.05.2022
3578 Clouds 14 1037 17 10000 3.6 270 23:25 19.05.2022
3579 Clouds 15 1037 18 10000 6.17 230 22:26 19.05.2022
3580 Clouds 16 1037 17 10000 5.14 230 21:49 19.05.2022
3581 Clouds 16 1037 17 10000 5.14 230 21:23 19.05.2022
3582 Clouds 17 1038 15 10000 4.12 250 20:40 19.05.2022
3583 Clouds 16 1039 18 10000 6.17 280 19:53 19.05.2022
3584 Clouds 14 1040 20 10000 4.12 230 18:34 19.05.2022
3585 Clouds 13 1041 24 10000 4.12 240 17:31 19.05.2022
3586 Clouds 11 1040 29 10000 1.54 240 15:21 19.05.2022
3587 Clouds 6 1039 45 10000 1.03 0 14:26 19.05.2022
3588 Clouds 3 1039 51 10000 2.57 10 13:47 19.05.2022
3589 Clouds 4 1038 44 10000 2.57 360 11:41 19.05.2022
3590 Clouds 4 1038 41 10000 2.06 360 09:34 19.05.2022
3591 Clouds 3 1039 47 10000 2.06 10 08:18 19.05.2022
3592 Clouds 3 1040 47 10000 2.06 30 06:18 19.05.2022
3593 Clouds 3 1040 47 10000 2.06 30 06:18 19.05.2022
3594 Clouds 8 1038 45 10000 1.54 60 02:27 19.05.2022
3595 Clouds 15 1036 13 10000 2.57 250 00:40 19.05.2022
3596 Clouds 19 1037 14 10000 4.12 280 22:51 18.05.2022
3597 Clouds 19 1037 14 10000 4.12 280 22:24 18.05.2022
3598 Clouds 19 1037 12 10000 2.06 260 21:30 18.05.2022
3599 Clouds 19 1039 11 10000 5.14 230 20:50 18.05.2022
3600 Clouds 19 1039 11 10000 5.14 230 20:18 18.05.2022
3601 Clouds 19 1039 11 10000 5.14 230 20:18 18.05.2022
3602 Clouds 16 1041 12 10000 3.6 240 18:33 18.05.2022
3603 Clouds 16 1042 11 10000 3.6 270 17:41 18.05.2022
3604 Clouds 16 1042 11 10000 3.6 270 17:23 18.05.2022
3605 Clouds 14 1042 12 10000 1.03 0 16:34 18.05.2022
3606 Clouds 11 1042 11 10000 1.03 0 15:42 18.05.2022
3607 Clouds 6 1041 28 10000 2.57 10 14:35 18.05.2022
3608 Clouds 2 1040 29 10000 1.03 0 13:41 18.05.2022
3609 Clouds 3 1039 21 10000 2.57 10 12:43 18.05.2022
3610 Clouds 3 1039 21 10000 2.57 360 11:34 18.05.2022
3611 Clouds 1 1039 29 10000 1.54 20 10:56 18.05.2022
3612 Clear 2 1039 25 10000 1.03 0 09:31 18.05.2022
3613 Clouds 2 1040 29 10000 1.03 0 07:51 18.05.2022
3614 Clouds 5 1040 30 10000 3.09 10 06:41 18.05.2022
3615 Clouds 12 1038 20 10000 1.54 330 01:22 18.05.2022
3616 Clouds 15 1037 18 10000 2.06 300 00:23 18.05.2022
3617 Clouds 18 1038 16 10000 4.12 290 21:57 17.05.2022
3618 Clouds 18 1038 16 10000 4.12 290 21:20 17.05.2022
3619 Clouds 18 1038 16 10000 4.12 290 21:20 17.05.2022
3620 Clouds 18 1039 14 10000 4.63 270 20:19 17.05.2022
3621 Clouds 17 1040 15 10000 4.63 270 19:28 17.05.2022
3622 Clouds 14 1042 19 10000 3.09 250 17:51 17.05.2022
3623 Clouds 13 1042 20 10000 1.03 0 16:59 17.05.2022
3624 Clouds 13 1042 20 10000 1.03 0 16:29 17.05.2022
3625 Clouds 10 1042 27 10000 1.03 0 15:25 17.05.2022
3626 Clouds 6 1041 38 10000 2.06 360 14:30 17.05.2022
3627 Clouds 1 1040 55 10000 2.57 10 13:35 17.05.2022
3628 Clouds 2 1039 55 10000 2.06 10 11:43 17.05.2022
3629 Clouds -2 1040 93 10000 2.57 60 09:27 17.05.2022
3630 Clouds 0 1040 100 8000 1.54 60 08:25 17.05.2022
3631 Clouds 4 1040 64 8000 1.03 0 06:46 17.05.2022
3632 Clear 9 1039 39 10000 2.57 310 03:20 17.05.2022
3633 Clouds 14 1037 26 10000 3.6 320 00:36 17.05.2022
3634 Clouds 17 1037 23 10000 5.14 280 22:42 16.05.2022
3635 Clouds 17 1038 23 10000 5.66 280 21:37 16.05.2022
3636 Clouds 17 1038 25 10000 6.17 300 20:46 16.05.2022
3637 Clouds 17 1039 26 10000 5.66 280 19:22 16.05.2022
3638 Clouds 15 1040 35 10000 4.63 310 18:18 16.05.2022
3639 Clouds 8 1041 33 10000 1.03 0 15:49 16.05.2022
3640 Clouds 1 1039 80 10000 1.54 10 13:49 16.05.2022
3641 Clouds 1 1039 80 10000 1.54 10 13:20 16.05.2022
3642 Clouds 0 1038 86 10000 1.03 0 10:53 16.05.2022
3643 Fog 0 1039 100 4000 2.06 90 09:23 16.05.2022
3644 Fog 3 1039 93 4000 2.06 90 06:34 16.05.2022
3645 Clouds 9 1037 36 10000 1.03 0 02:38 16.05.2022
3646 Clouds 16 1036 15 10000 5.66 280 23:19 15.05.2022
3647 Clouds 17 1036 21 10000 5.66 280 22:29 15.05.2022
3648 Clouds 18 1036 18 10000 6.17 270 21:39 15.05.2022
3649 Clouds 16 1037 19 10000 5.14 280 20:53 15.05.2022
3650 Clouds 16 1038 19 10000 5.14 300 19:24 15.05.2022
3651 Clouds 13 1040 20 10000 4.12 300 17:48 15.05.2022
3652 Clouds 11 1040 21 10000 1.54 320 15:44 15.05.2022
3653 Clouds 3 1038 44 10000 2.57 10 13:49 15.05.2022
3654 Clouds 3 1038 44 10000 3.09 10 12:22 15.05.2022
3655 Clouds 3 1038 40 10000 3.09 10 11:38 15.05.2022
3656 Clouds 3 1038 44 10000 2.06 360 10:20 15.05.2022
3657 Clear 1 1038 47 10000 1.03 0 07:36 15.05.2022
3658 Clear 4 1038 35 10000 1.03 0 06:57 15.05.2022
3659 Clear 8 1038 36 10000 2.06 170 04:26 15.05.2022
3660 Clouds 14 1035 32 10000 6.69 320 00:48 15.05.2022
3661 Clouds 16 1035 19 10000 6.69 300 23:38 14.05.2022
3662 Clouds 17 1035 23 10000 8.23 310 22:45 14.05.2022
3663 Clouds 17 1035 26 10000 7.72 300 21:27 14.05.2022
3664 Clouds 18 1036 21 10000 6.69 270 20:32 14.05.2022
3665 Clouds 17 1037 21 10000 7.2 290 19:21 14.05.2022
3666 Clouds 16 1038 19 10000 4.63 270 18:59 14.05.2022
3667 Clouds 15 1039 21 10000 4.63 250 17:53 14.05.2022
3668 Clouds 13 1039 22 10000 3.6 250 16:23 14.05.2022
3669 Clouds 7 1038 45 10000 1.03 0 14:50 14.05.2022
3670 Clouds 7 1038 45 10000 1.03 0 14:26 14.05.2022
3671 Clouds 3 1037 55 10000 2.57 360 12:18 14.05.2022
3672 Clouds 3 1037 60 10000 1.03 0 10:53 14.05.2022
3673 Clouds 3 1037 60 10000 1.03 0 10:20 14.05.2022
3674 Clouds 4 1037 60 10000 2.57 80 09:46 14.05.2022
3675 Clouds 2 1038 74 10000 1.03 0 07:59 14.05.2022
3676 Clouds 3 1038 93 10000 2.57 70 05:21 14.05.2022
3677 Clouds 12 1034 27 10000 2.57 320 01:57 14.05.2022
3678 Clouds 17 1034 17 10000 6.17 290 23:28 13.05.2022
3679 Clouds 17 1034 18 10000 7.2 290 22:56 13.05.2022
3680 Clouds 17 1034 18 10000 7.2 290 22:22 13.05.2022
3681 Clouds 18 1035 18 10000 6.17 300 21:24 13.05.2022
3682 Clouds 18 1036 17 10000 6.17 270 20:43 13.05.2022
3683 Clouds 18 1036 17 10000 6.17 270 20:22 13.05.2022
3684 Clouds 17 1037 20 10000 5.66 270 19:19 13.05.2022
3685 Clouds 15 1038 22 10000 3.6 290 17:47 13.05.2022
3686 Clouds 15 1038 22 10000 3.6 290 17:23 13.05.2022
3687 Clouds 10 1038 39 10000 2.57 260 15:48 13.05.2022
3688 Clouds 7 1037 45 10000 2.06 360 14:45 13.05.2022
3689 Clear 2 1036 64 10000 1.54 270 12:54 13.05.2022
3690 Clear 2 1036 64 10000 1.54 270 12:20 13.05.2022
3691 Clear -2 1035 80 10000 2.06 40 10:19 13.05.2022
3692 Clear -1 1036 74 10000 1.03 0 09:29 13.05.2022
3693 Clear 0 1037 69 10000 3.09 90 07:59 13.05.2022
3694 Clear 0 1037 69 10000 3.09 90 07:26 13.05.2022
3695 Clear 1 1037 93 10000 2.57 50 05:31 13.05.2022
3696 Clouds 11 1035 34 10000 3.09 310 01:21 13.05.2022
3697 Clouds 16 1034 18 10000 5.66 290 23:24 12.05.2022
3698 Clouds 17 1035 14 10000 5.14 290 22:34 12.05.2022
3699 Clouds 17 1035 15 10000 4.12 300 21:26 12.05.2022
3700 Clouds 17 1037 14 10000 4.12 260 19:51 12.05.2022
3701 Clouds 16 1038 17 10000 2.06 260 18:27 12.05.2022
3702 Clouds 11 1040 43 10000 1.03 0 16:45 12.05.2022
3703 Clouds 5 1038 65 10000 1.03 0 14:57 12.05.2022
3704 Clouds 0 1038 74 10000 1.03 0 13:50 12.05.2022
3705 Fog 2 1037 100 4000 0 0 11:55 12.05.2022
3706 Fog 4 1037 100 4000 1.03 0 10:32 12.05.2022
3707 Fog 6 1037 93 4000 4.12 80 08:53 12.05.2022
3708 Clouds 5 1038 100 4000 4.63 90 07:59 12.05.2022
3709 Clouds 5 1038 100 4000 4.63 90 07:22 12.05.2022
3710 Clouds 5 1037 93 10000 3.09 90 03:50 12.05.2022
3711 Clouds 10 1035 19 10000 1.03 0 01:29 12.05.2022
3712 Clouds 15 1035 21 10000 5.14 300 23:18 11.05.2022
3713 Clouds 16 1035 13 10000 5.66 290 22:18 11.05.2022
3714 Clouds 17 1035 12 10000 3.6 270 21:24 11.05.2022
3715 Clouds 16 1036 13 10000 3.6 270 20:20 11.05.2022
3716 Clouds 14 1039 30 10000 4.63 130 17:33 11.05.2022
3717 Clouds 12 1039 34 10000 4.12 100 16:19 11.05.2022
3718 Clouds 7 1039 45 10000 1.03 0 14:47 11.05.2022
3719 Clouds 7 1039 45 10000 1.03 0 14:24 11.05.2022
3720 Clouds 1 1038 80 10000 1.03 0 12:39 11.05.2022
3721 Clouds 1 1037 100 10000 2.06 50 11:47 11.05.2022
3722 Clouds 6 1038 87 10000 1.03 0 09:29 11.05.2022
3723 Fog 7 1039 93 4000 3.6 90 06:27 11.05.2022
3724 Clouds 10 1036 57 10000 3.6 100 01:53 11.05.2022
3725 Clouds 17 1035 21 10000 6.17 280 22:56 10.05.2022
3726 Clouds 17 1035 21 10000 6.17 280 22:21 10.05.2022
3727 Clouds 17 1036 25 10000 5.14 260 21:26 10.05.2022
3728 Clouds 17 1036 23 10000 5.14 300 20:26 10.05.2022
3729 Clouds 15 1016 24 10000 3.09 300 18:38 10.05.2022
3730 Clouds 14 1039 37 10000 2.57 250 17:38 10.05.2022
3731 Clouds 7 1040 87 6000 1.03 0 15:56 10.05.2022
3732 Fog 3 1038 100 4000 2.06 90 12:51 10.05.2022
3733 Fog 3 1037 100 4000 2.57 70 11:53 10.05.2022
3734 Fog 3 1037 100 4000 2.57 70 11:30 10.05.2022
3735 Fog 5 1037 100 4000 2.57 90 10:56 10.05.2022
3736 Fog 4 1038 93 4000 2.57 80 09:28 10.05.2022
3737 Fog 3 1038 100 4000 2.57 80 07:51 10.05.2022
3738 Fog 6 1038 100 4000 4.12 90 05:43 10.05.2022
3739 Clear 11 1035 37 10000 2.57 50 01:53 10.05.2022
3740 Clouds 16 1035 24 10000 5.14 280 23:43 09.05.2022
3741 Clouds 17 1035 23 10000 6.69 280 22:33 09.05.2022
3742 Clouds 17 1035 18 10000 6.69 270 21:36 09.05.2022
3743 Clouds 17 1037 17 10000 5.66 320 19:52 09.05.2022
3744 Clouds 16 1038 33 10000 6.17 290 18:25 09.05.2022
3745 Clouds 14 1039 35 10000 4.63 270 17:25 09.05.2022
3746 Clouds 9 1039 39 10000 1.03 0 15:54 09.05.2022
3747 Clouds 9 1039 39 10000 1.03 0 15:35 09.05.2022
3748 Clouds 4 1038 87 10000 1.54 90 14:33 09.05.2022
3749 Clouds -3 1037 80 10000 0 0 13:51 09.05.2022
3750 Clouds 0 1036 74 10000 1.03 0 12:51 09.05.2022
3751 Clouds 2 1036 69 10000 1.54 10 11:52 09.05.2022
3752 Clouds -3 1036 93 10000 0 0 10:46 09.05.2022
3753 Clouds -1 1037 93 10000 0 0 09:59 09.05.2022
3754 Clouds 3 1037 86 10000 2.06 40 07:56 09.05.2022
3755 Fog 6 1038 100 4000 3.09 90 04:33 09.05.2022
3756 Fog 6 1038 100 4000 3.09 90 04:33 09.05.2022
3757 Clouds 14 1034 30 10000 4.63 300 00:22 09.05.2022
3758 Clouds 17 1035 21 10000 6.69 280 22:58 08.05.2022
3759 Clouds 17 1035 21 10000 6.69 280 22:27 08.05.2022
3760 Clouds 17 1036 23 10000 6.17 290 20:41 08.05.2022
3761 Clouds 16 1037 38 10000 5.66 290 19:53 08.05.2022
3762 Clouds 16 1037 38 10000 5.66 290 19:27 08.05.2022
3763 Clouds 16 1037 38 10000 5.66 290 19:27 08.05.2022
3764 Clouds 15 1038 47 10000 4.63 270 18:25 08.05.2022
3765 Clouds 13 1039 58 10000 4.12 230 17:21 08.05.2022
3766 Clouds 9 1038 76 6000 2.06 100 15:43 08.05.2022
3767 Clouds 9 1038 76 6000 2.06 100 15:20 08.05.2022
3768 Mist 4 1036 100 2500 3.09 90 12:41 08.05.2022
3769 Fog 3 1037 100 4000 3.09 80 10:34 08.05.2022
3770 Fog 4 1037 100 3000 3.09 80 09:59 08.05.2022
3771 Fog 4 1037 100 3000 3.09 80 09:33 08.05.2022
3772 Fog 1 1038 93 4000 2.57 90 07:33 08.05.2022
3773 Clouds 5 1038 93 10000 3.09 80 04:24 08.05.2022
3774 Clouds 6 1037 93 10000 4.12 90 03:19 08.05.2022
3775 Clouds 12 1036 53 10000 3.6 120 00:28 08.05.2022
3776 Clouds 15 1035 44 10000 4.12 120 23:53 07.05.2022
3777 Clouds 16 1035 38 10000 3.6 110 22:51 07.05.2022
3778 Clouds 16 1035 38 10000 3.6 110 22:33 07.05.2022
3779 Clouds 17 1036 36 10000 3.6 130 21:34 07.05.2022
3780 Clouds 16 1037 38 10000 2.57 160 20:42 07.05.2022
3781 Clouds 16 1039 35 10000 3.09 250 19:57 07.05.2022
3782 Clouds 12 1040 40 10000 1.03 0 17:43 07.05.2022
3783 Clouds 7 1040 81 10000 2.57 90 15:51 07.05.2022
3784 Clouds 4 1040 93 6000 5.14 90 14:19 07.05.2022
3785 Fog 2 1038 100 4000 3.6 80 10:56 07.05.2022
3786 Fog 2 1038 100 3000 4.12 80 09:20 07.05.2022
3787 Fog 4 1039 100 4000 4.63 70 07:51 07.05.2022
3788 Fog 4 1040 100 4000 4.12 70 06:43 07.05.2022
3789 Clear 5 1040 100 10000 4.12 70 04:56 07.05.2022
3790 Clouds 10 1037 53 10000 3.6 80 01:46 07.05.2022
3791 Clouds 17 1036 23 10000 6.69 110 23:38 06.05.2022
3792 Clouds 19 1036 16 10000 6.17 110 22:28 06.05.2022
3793 Clouds 19 1037 15 10000 4.63 110 21:43 06.05.2022
3794 Clear 18 1038 14 10000 4.63 120 20:34 06.05.2022
3795 Clear 18 1039 12 10000 4.12 120 19:30 06.05.2022
3796 Clear 17 1040 12 10000 3.09 140 18:59 06.05.2022
3797 Clear 17 1040 12 10000 3.09 140 18:18 06.05.2022
3798 Clear 14 1041 26 10000 1.03 0 16:39 06.05.2022
3799 Clear 11 1040 40 10000 1.03 0 15:39 06.05.2022
3800 Clear 8 1040 42 10000 2.06 10 14:46 06.05.2022
3801 Clear 1 1038 59 10000 1.03 0 12:54 06.05.2022
3802 Clear 1 1038 59 10000 1.03 0 12:33 06.05.2022
3803 Clear 1 1038 59 10000 2.06 10 11:41 06.05.2022
3804 Clear 3 1038 51 10000 2.06 20 10:26 06.05.2022
3805 Clear 2 1038 64 10000 2.06 30 09:39 06.05.2022
3806 Clear 2 1039 59 10000 2.06 30 08:27 06.05.2022
3807 Clear 1 1040 69 10000 2.57 80 06:42 06.05.2022
3808 Clear 3 1040 69 10000 3.09 70 04:51 06.05.2022
3809 Clear 9 1038 42 10000 1.03 0 02:43 06.05.2022
3810 Clouds 18 1037 16 10000 3.6 110 23:36 05.05.2022
3811 Clouds 18 1038 13 10000 2.06 180 21:52 05.05.2022
3812 Clouds 18 1038 13 10000 2.06 180 21:19 05.05.2022
3813 Clouds 17 1039 20 10000 1.03 0 19:49 05.05.2022
3814 Clouds 12 1041 43 10000 2.06 90 16:57 05.05.2022
3815 Clouds 12 1041 43 10000 2.06 90 16:18 05.05.2022
3816 Clouds 6 1040 87 10000 2.57 80 14:43 05.05.2022
3817 Fog 0 1039 93 4000 3.6 80 13:20 05.05.2022
3818 Fog -1 1038 100 4000 3.09 90 12:24 05.05.2022
3819 Fog 1 1038 100 4000 2.06 90 10:30 05.05.2022
3820 Fog 4 1038 100 3000 3.09 80 09:34 05.05.2022
3821 Fog 4 1039 100 2000 3.6 70 07:19 05.05.2022
3822 Clear 8 1037 56 10000 3.09 100 02:30 05.05.2022
3823 Clouds 11 1036 46 10000 4.12 110 01:47 05.05.2022
3824 Clouds 11 1036 46 10000 4.12 110 01:20 05.05.2022
3825 Clouds 18 1036 20 10000 3.09 240 23:28 04.05.2022
3826 Clouds 19 1036 17 10000 3.09 300 22:25 04.05.2022
3827 Clouds 19 1037 20 10000 4.63 290 21:48 04.05.2022
3828 Clouds 19 1037 20 10000 4.63 290 21:22 04.05.2022
3829 Clouds 17 1038 23 10000 3.09 200 20:20 04.05.2022
3830 Clouds 17 1039 18 10000 3.6 200 19:44 04.05.2022
3831 Clouds 15 1040 30 10000 2.57 160 18:45 04.05.2022
3832 Clouds 15 1040 30 10000 2.57 160 18:20 04.05.2022
3833 Clouds 14 1041 35 10000 4.12 120 17:22 04.05.2022
3834 Clouds 10 1040 71 10000 2.06 90 15:35 04.05.2022
3835 Clouds 6 1039 100 6000 3.09 80 14:46 04.05.2022
3836 Clouds 6 1039 100 6000 3.09 80 14:20 04.05.2022
3837 Fog 7 1038 93 4000 3.09 110 12:58 04.05.2022
3838 Fog 7 1038 93 4000 3.09 110 12:24 04.05.2022
3839 Fog 7 1038 100 3000 3.6 90 10:28 04.05.2022
3840 Fog 7 1038 100 4000 2.57 120 09:22 04.05.2022
3841 Fog 4 1038 100 4000 3.09 90 08:26 04.05.2022
3842 Fog 8 1038 100 3000 5.66 100 05:42 04.05.2022
3843 Clear 8 1036 93 10000 3.6 110 02:42 04.05.2022
3844 Clouds 18 1035 33 10000 7.72 290 23:23 03.05.2022
3845 Clouds 19 1035 25 10000 6.17 290 21:55 03.05.2022
3846 Clouds 19 1035 25 10000 6.17 290 21:31 03.05.2022
3847 Clouds 20 1036 19 10000 6.17 310 20:52 03.05.2022
3848 Clouds 19 1037 16 10000 6.69 300 19:33 03.05.2022
3849 Clouds 18 1038 25 10000 5.66 290 18:47 03.05.2022
3850 Clouds 16 1038 35 10000 3.09 250 17:22 03.05.2022
3851 Clouds 14 1038 37 10000 1.03 0 16:19 03.05.2022
3852 Clouds 6 1038 81 10000 1.03 0 14:25 03.05.2022
3853 Clouds 1 1036 100 10000 1.54 20 12:42 03.05.2022
3854 Fog 2 1036 100 4000 2.57 80 11:39 03.05.2022
3855 Fog 4 1037 100 4000 3.09 80 10:49 03.05.2022
3856 Mist 5 1037 100 1000 2.57 90 08:29 03.05.2022
3857 Fog 5 1037 100 4000 4.12 80 06:45 03.05.2022
3858 Clouds 8 1035 87 10000 3.09 80 02:48 03.05.2022
3859 Clouds 19 1034 19 10000 4.63 290 23:32 02.05.2022
3860 Clouds 20 1034 17 10000 4.63 280 22:29 02.05.2022
3861 Clouds 20 1034 17 10000 4.63 280 22:29 02.05.2022
3862 Clouds 21 1034 18 10000 6.69 260 21:47 02.05.2022
3863 Clouds 19 1036 19 10000 5.14 280 19:30 02.05.2022
3864 Clouds 19 1037 20 10000 4.12 310 18:26 02.05.2022
3865 Clouds 17 1039 23 10000 4.63 290 17:41 02.05.2022
3866 Clouds 17 1039 23 10000 4.63 290 17:41 02.05.2022
3867 Clouds 14 1039 35 10000 3.09 280 16:43 02.05.2022
3868 Clear 13 1038 28 10000 2.57 300 15:41 02.05.2022
3869 Clear 9 1038 53 10000 1.03 0 14:45 02.05.2022
3870 Clouds 4 1037 75 10000 2.57 360 13:42 02.05.2022
3871 Clouds 2 1036 80 10000 2.57 10 11:41 02.05.2022
3872 Clouds 2 1036 86 10000 1.03 0 09:45 02.05.2022
3873 Clouds 5 1037 81 10000 1.03 0 08:29 02.05.2022
3874 Clouds 5 1038 87 10000 2.06 30 06:53 02.05.2022
3875 Clouds 13 1035 46 10000 3.09 50 00:47 02.05.2022
3876 Clouds 13 1035 46 10000 3.09 50 00:22 02.05.2022
3877 Clouds 10 1036 61 10000 6.69 20 22:55 01.05.2022
3878 Clouds 11 1036 53 8000 7.2 350 21:43 01.05.2022
3879 Thunderstorm 10 1036 61 8000 8.23 340 20:36 01.05.2022
3880 Clouds 16 1036 41 10000 3.6 120 19:22 01.05.2022
3881 Clouds 16 1038 54 10000 2.06 100 18:52 01.05.2022
3882 Clouds 15 1038 54 10000 2.06 100 17:49 01.05.2022
3883 Clouds 14 1038 62 10000 1.03 0 16:37 01.05.2022
3884 Clouds 11 1038 66 8000 1.03 0 15:51 01.05.2022
3885 Clouds 8 1038 93 8000 1.03 0 14:45 01.05.2022
3886 Fog 6 1036 100 1600 3.6 80 12:24 01.05.2022
3887 Fog 5 1036 100 2000 3.09 90 10:22 01.05.2022
3888 Fog 6 1036 100 500 5.14 90 08:50 01.05.2022
3889 Clouds 9 1037 76 10000 3.09 30 06:50 01.05.2022
3890 Clouds 11 1036 61 10000 3.6 80 01:56 01.05.2022
3891 Clouds 19 1011 22 10000 3.09 110 22:18 30.04.2022
3892 Clouds 18 1036 29 10000 3.09 160 21:32 30.04.2022
3893 Clouds 16 1038 44 10000 3.09 30 19:54 30.04.2022
3894 Clouds 17 1040 44 10000 3.09 60 18:53 30.04.2022
3895 Clouds 15 1040 50 10000 3.09 110 17:26 30.04.2022
3896 Clouds 10 1040 76 6000 1.03 0 15:51 30.04.2022
3897 Clouds 10 1040 76 6000 1.03 0 15:18 30.04.2022
3898 Fog 3 1039 93 4000 1.03 0 13:52 30.04.2022
3899 Fog 5 1038 100 4000 1.03 0 11:41 30.04.2022
3900 Fog 3 1038 100 4000 1.54 90 10:56 30.04.2022
3901 Fog 5 1039 100 4000 2.06 90 09:57 30.04.2022
3902 Fog 7 1040 100 4000 2.57 100 07:47 30.04.2022
3903 Clouds 7 1040 93 10000 1.03 0 03:58 30.04.2022
3904 Clouds 15 1038 28 10000 4.63 60 23:55 29.04.2022
3905 Clouds 14 1038 32 10000 5.66 40 22:37 29.04.2022
3906 Clouds 15 1038 47 10000 5.14 110 21:55 29.04.2022
3907 Clouds 15 1038 47 10000 5.14 110 21:24 29.04.2022
3908 Clouds 16 1040 41 10000 2.06 90 19:55 29.04.2022
3909 Clouds 16 1040 41 10000 2.06 90 19:26 29.04.2022
3910 Clouds 14 1042 47 10000 2.57 300 17:34 29.04.2022
3911 Clouds 12 1042 57 10000 1.03 0 16:30 29.04.2022
3912 Clouds 6 1041 93 8000 2.06 30 14:34 29.04.2022
3913 Fog 4 1040 100 4000 2.06 360 13:27 29.04.2022
3914 Fog 2 1039 93 4000 1.54 350 12:33 29.04.2022
3915 Fog 5 1038 100 4000 1.54 100 09:52 29.04.2022
3916 Fog 5 1039 100 4000 1.03 0 07:52 29.04.2022
3917 Fog 5 1039 100 4000 1.03 0 07:24 29.04.2022
3918 Clouds 4 1039 100 10000 3.09 70 05:57 29.04.2022
3919 Clouds 14 1036 37 10000 4.63 60 00:51 29.04.2022
3920 Clouds 15 1036 33 10000 5.14 60 23:49 28.04.2022
3921 Clouds 19 1036 25 10000 6.17 70 22:47 28.04.2022
3922 Clouds 19 1036 25 10000 6.17 100 21:59 28.04.2022
3923 Clouds 19 1036 25 10000 6.17 100 21:37 28.04.2022
3924 Clouds 19 1037 22 10000 5.14 120 20:41 28.04.2022
3925 Clouds 18 1038 20 10000 5.14 140 19:46 28.04.2022
3926 Clouds 18 1038 20 10000 5.14 140 19:23 28.04.2022
3927 Clouds 17 1039 11 10000 5.66 120 18:38 28.04.2022
3928 Clouds 16 1039 15 10000 6.17 130 17:32 28.04.2022
3929 Clouds 15 1039 16 10000 5.14 120 16:49 28.04.2022
3930 Clouds 15 1039 16 10000 5.14 120 16:19 28.04.2022
3931 Clouds 12 1039 27 10000 3.6 100 15:41 28.04.2022
3932 Clouds 7 1038 56 10000 1.03 0 14:47 28.04.2022
3933 Clouds 3 1038 64 10000 1.54 10 13:20 28.04.2022
3934 Clouds -1 1037 74 10000 1.54 360 12:28 28.04.2022
3935 Clouds 0 1037 59 10000 1.54 40 10:47 28.04.2022
3936 Clouds 0 1037 59 10000 1.54 40 10:26 28.04.2022
3937 Clouds 2 1037 59 10000 2.06 20 08:59 28.04.2022
3938 Clear 3 1038 64 10000 2.06 40 07:37 28.04.2022
3939 Clear 3 1038 93 10000 1.54 60 06:33 28.04.2022
3940 Clear 3 1038 86 10000 1.54 80 05:39 28.04.2022
3941 Clear 4 1037 75 10000 3.6 80 04:40 28.04.2022
3942 Clouds 17 1035 11 10000 3.09 100 00:36 28.04.2022
3943 Clouds 20 1035 9 10000 3.09 120 22:49 27.04.2022
3944 Clouds 20 1036 9 10000 3.6 150 21:57 27.04.2022
3945 Clouds 20 1036 9 10000 3.6 150 21:27 27.04.2022
3946 Clouds 19 1037 5 10000 4.12 120 20:43 27.04.2022
3947 Clouds 19 1008 8 10000 2.57 130 19:39 27.04.2022
3948 Clouds 19 1008 8 10000 2.57 130 19:18 27.04.2022
3949 Clouds 17 1039 6 10000 3.09 130 18:25 27.04.2022
3950 Clouds 16 1040 7 10000 2.57 160 17:26 27.04.2022
3951 Clouds 10 1039 39 8000 1.03 0 15:22 27.04.2022
3952 Clouds 2 1037 64 10000 1.54 10 12:27 27.04.2022
3953 Clouds -1 1037 80 10000 1.03 0 11:21 27.04.2022
3954 Clouds 1 1037 80 10000 0 0 09:45 27.04.2022
3955 Clouds 4 1038 93 10000 2.57 70 07:19 27.04.2022
3956 Clouds 5 1038 100 10000 2.57 80 05:37 27.04.2022
3957 Clouds 13 1036 28 10000 3.6 340 01:35 27.04.2022
3958 Clouds 16 1035 19 10000 3.6 160 00:38 27.04.2022
3959 Clouds 19 1035 9 10000 2.57 150 23:40 26.04.2022
3960 Clouds 19 1035 9 10000 2.57 150 23:22 26.04.2022
3961 Clouds 19 1036 12 10000 3.6 280 22:41 26.04.2022
3962 Clouds 20 1036 15 10000 5.66 160 21:37 26.04.2022
3963 Clouds 20 1037 12 10000 4.63 140 20:53 26.04.2022
3964 Clouds 20 1037 12 10000 4.63 140 20:33 26.04.2022
3965 Clouds 19 1038 15 10000 4.63 130 19:32 26.04.2022
3966 Clouds 18 1039 14 10000 3.09 150 18:45 26.04.2022
3967 Clouds 16 1040 30 10000 3.09 270 17:59 26.04.2022
3968 Clouds 14 1041 47 10000 3.09 240 16:58 26.04.2022
3969 Clouds 8 1040 61 8000 1.03 0 14:27 26.04.2022
3970 Clouds 5 1039 65 10000 1.03 0 13:33 26.04.2022
3971 Clouds 6 1037 65 10000 2.57 10 11:57 26.04.2022
3972 Clouds 5 1037 75 10000 2.57 20 10:37 26.04.2022
3973 Clouds 3 1038 80 10000 1.03 0 09:25 26.04.2022
3974 Clouds 6 1039 70 10000 2.06 360 07:22 26.04.2022
3975 Clouds 6 1038 87 10000 3.6 80 04:33 26.04.2022
3976 Clouds 9 1037 57 10000 3.6 80 01:25 26.04.2022
3977 Clouds 15 1036 26 10000 3.09 110 00:26 26.04.2022
3978 Clouds 19 1036 12 10000 3.09 130 22:36 25.04.2022
3979 Clouds 19 1037 12 10000 4.12 130 21:40 25.04.2022
3980 Clouds 19 1038 13 10000 3.6 140 20:40 25.04.2022
3981 Clouds 14 1039 37 8000 2.06 210 18:58 25.04.2022
3982 Clouds 13 1040 40 8000 2.06 230 17:54 25.04.2022
3983 Haze 13 1040 32 5000 1.03 0 16:55 25.04.2022
3984 Haze 9 1040 70 5000 1.03 0 15:29 25.04.2022
3985 Clouds 5 1039 93 8000 1.03 0 14:38 25.04.2022
3986 Clouds 3 1038 100 10000 2.57 70 13:32 25.04.2022
3987 Fog 4 1037 100 4000 4.12 80 11:37 25.04.2022
3988 Fog 1 1037 100 4000 3.09 80 10:23 25.04.2022
3989 Clouds 2 1037 100 10000 2.57 80 08:35 25.04.2022
3990 Clouds 4 1038 100 10000 2.06 50 06:38 25.04.2022
3991 Clouds 7 1037 93 10000 2.06 100 03:44 25.04.2022
3992 Clouds 15 1035 21 10000 2.57 320 00:33 25.04.2022
3993 Clouds 16 1035 24 10000 5.14 280 23:51 24.04.2022
3994 Clouds 18 1035 23 10000 6.17 280 22:41 24.04.2022
3995 Clouds 18 1035 23 10000 5.14 270 21:58 24.04.2022
3996 Clouds 18 1035 23 10000 5.14 270 21:24 24.04.2022
3997 Clouds 18 1036 23 10000 4.12 270 20:48 24.04.2022
3998 Clouds 18 1036 23 10000 4.12 270 20:21 24.04.2022
3999 Clouds 16 1038 41 10000 3.6 280 18:59 24.04.2022
4000 Clouds 15 1039 47 10000 2.57 270 17:55 24.04.2022
4001 Clouds 15 1039 47 10000 2.57 270 17:22 24.04.2022
4002 Clouds 12 1039 62 10000 2.06 230 16:58 24.04.2022
4003 Clouds 12 1039 62 10000 2.06 230 16:30 24.04.2022
4004 Clouds 9 1038 87 10000 2.06 240 15:53 24.04.2022
4005 Clouds 7 1038 87 10000 1.03 0 14:40 24.04.2022
4006 Clouds 4 1037 93 10000 2.06 60 13:38 24.04.2022
4007 Clouds 4 1037 93 10000 2.06 60 13:18 24.04.2022
4008 Fog 3 1036 100 4000 2.57 80 11:53 24.04.2022
4009 Fog 5 1035 100 4000 3.09 80 10:59 24.04.2022
4010 Clear 5 1018 81 10000 0.58 46 09:47 24.04.2022
4011 Fog 4 1036 93 4000 2.57 90 08:23 24.04.2022
4012 Clouds 4 1036 93 10000 2.57 90 05:46 24.04.2022
4013 Clouds 12 1034 37 10000 3.09 350 02:48 24.04.2022
4014 Clouds 16 1034 23 10000 5.14 270 00:47 24.04.2022
4015 Clouds 18 1033 18 10000 5.66 300 23:55 23.04.2022
4016 Clouds 18 1033 18 10000 5.66 300 23:25 23.04.2022
4017 Clouds 19 1033 15 10000 5.14 270 22:39 23.04.2022
4018 Clouds 19 1034 15 10000 5.14 280 21:41 23.04.2022
4019 Clouds 19 1034 15 10000 5.14 280 21:22 23.04.2022
4020 Clouds 18 1036 11 10000 4.12 230 19:56 23.04.2022
4021 Clouds 18 1036 11 10000 4.12 230 19:20 23.04.2022
4022 Clouds 17 1037 10 10000 4.12 240 18:54 23.04.2022
4023 Clouds 17 1037 10 10000 4.12 240 18:32 23.04.2022
4024 Clouds 16 1038 9 10000 2.57 200 17:46 23.04.2022
4025 Clouds 14 1015 9 10000 3.09 220 16:45 23.04.2022
4026 Clouds 12 1037 9 10000 1.03 0 15:51 23.04.2022
4027 Clouds 5 1036 30 10000 3.09 360 13:31 23.04.2022
4028 Clouds 1 1035 51 10000 1.54 360 11:29 23.04.2022
4029 Clouds 6 1035 33 10000 2.57 10 09:41 23.04.2022
4030 Clouds 6 1037 30 10000 1.03 0 07:52 23.04.2022
4031 Clouds 12 1036 20 10000 4.12 220 03:57 23.04.2022
4032 Clouds 12 1035 29 10000 3.6 250 02:34 23.04.2022
4033 Clouds 19 1033 16 10000 2.57 280 23:34 22.04.2022
4034 Clouds 20 1033 16 10000 4.12 290 22:40 22.04.2022
4035 Clouds 20 1034 16 10000 3.6 290 21:55 22.04.2022
4036 Clouds 20 1034 16 10000 3.6 290 21:55 22.04.2022
4037 Clouds 20 1034 16 10000 3.6 290 21:37 22.04.2022
4038 Clouds 19 1035 17 10000 4.63 280 20:29 22.04.2022
4039 Clouds 19 1036 17 10000 4.63 270 19:23 22.04.2022
4040 Clouds 18 1037 17 10000 2.06 270 18:53 22.04.2022
4041 Clouds 15 1013 33 10000 3.86 263 18:20 22.04.2022
4042 Clouds 14 1038 24 10000 2.57 270 16:53 22.04.2022
4043 Clouds 12 1038 27 10000 1.03 0 15:56 22.04.2022
4044 Clouds 12 1038 27 10000 1.03 0 15:22 22.04.2022
4045 Clouds 2 1037 80 10000 1.03 0 13:54 22.04.2022
4046 Clouds 2 1037 80 10000 1.03 0 13:27 22.04.2022
4047 Clear 2 1036 74 10000 1.54 360 12:29 22.04.2022
4048 Clear 4 1036 60 10000 1.03 0 11:22 22.04.2022
4049 Clear 4 1036 60 10000 0 0 10:52 22.04.2022
4050 Clear 4 1036 60 10000 0 0 10:31 22.04.2022
4051 Clear 6 1036 56 10000 2.57 360 09:53 22.04.2022
4052 Clear 3 1037 86 10000 1.03 0 08:56 22.04.2022
4053 Clouds 3 1038 93 10000 2.57 60 07:44 22.04.2022
4054 Clouds 6 1037 87 10000 2.57 50 04:24 22.04.2022
4055 Clouds 16 1035 23 10000 5.14 310 00:52 22.04.2022
4056 Clouds 20 1035 17 10000 2.57 260 23:26 21.04.2022
4057 Clouds 20 1035 19 10000 2.57 130 22:29 21.04.2022
4058 Clouds 20 1037 13 10000 2.57 250 20:43 21.04.2022
4059 Clouds 20 1037 13 10000 2.57 250 20:24 21.04.2022
4060 Clouds 18 1039 17 10000 2.06 240 18:44 21.04.2022
4061 Clouds 18 1039 17 10000 2.06 240 18:19 21.04.2022
4062 Clear 13 1040 30 10000 2.06 220 16:47 21.04.2022
4063 Clear 10 1040 46 10000 2.06 230 15:22 21.04.2022
4064 Clear 8 1039 45 10000 1.03 0 14:50 21.04.2022
4065 Clouds 4 1038 55 10000 1.54 10 13:23 21.04.2022
4066 Clouds 2 1037 64 10000 1.03 0 12:57 21.04.2022
4067 Clouds 3 1037 80 10000 2.06 20 10:57 21.04.2022
4068 Clouds 2 1038 100 10000 2.57 50 08:57 21.04.2022
4069 Clouds 4 1038 100 10000 3.6 80 07:32 21.04.2022
4070 Clouds 5 1038 87 10000 1.54 70 05:42 21.04.2022
4071 Clouds 6 1038 93 10000 3.6 70 03:32 21.04.2022
4072 Clouds 8 1037 81 10000 4.12 70 02:47 21.04.2022
4073 Clouds 15 1036 44 10000 3.09 60 00:47 21.04.2022
4074 Clouds 15 1035 41 10000 4.63 110 23:50 20.04.2022
4075 Clouds 15 1035 41 10000 4.63 110 23:22 20.04.2022
4076 Clouds 19 1035 23 10000 4.63 120 22:49 20.04.2022
4077 Clouds 19 1035 23 10000 4.63 120 22:30 20.04.2022
4078 Clouds 19 1036 27 10000 3.6 110 21:27 20.04.2022
4079 Clouds 18 1037 29 10000 3.09 150 20:24 20.04.2022
4080 Clouds 17 1037 36 10000 4.12 130 19:52 20.04.2022
4081 Clouds 17 1037 36 10000 4.12 130 19:20 20.04.2022
4082 Clear 16 1039 35 10000 4.12 150 17:56 20.04.2022
4083 Clear 14 1039 40 10000 1.03 0 16:48 20.04.2022
4084 Clear 14 1039 40 10000 1.03 0 16:30 20.04.2022
4085 Clouds 0 1037 86 10000 2.06 20 13:59 20.04.2022
4086 Clouds 2 1036 86 10000 2.06 50 11:50 20.04.2022
4087 Clouds 2 1036 86 10000 2.06 50 11:21 20.04.2022
4088 Clouds 1 1037 93 10000 0 0 10:19 20.04.2022
4089 Clouds 2 1037 93 10000 0 0 09:25 20.04.2022
4090 Clouds 3 1037 93 10000 2.06 50 08:22 20.04.2022
4091 Clouds 3 1037 93 10000 2.06 50 08:22 20.04.2022
4092 Clouds 3 1037 93 10000 3.09 60 07:36 20.04.2022
4093 Clouds 7 1036 87 10000 4.12 70 03:38 20.04.2022
4094 Clouds 16 1035 33 10000 3.6 100 00:23 20.04.2022
4095 Clouds 19 1034 15 10000 4.12 120 23:41 19.04.2022
4096 Clouds 20 1034 15 10000 4.12 120 22:26 19.04.2022
4097 Clouds 20 1035 16 10000 3.6 280 21:56 19.04.2022
4098 Clouds 20 1035 16 10000 3.6 280 21:23 19.04.2022
4099 Clouds 20 1036 16 10000 3.6 280 20:41 19.04.2022
4100 Clouds 19 1037 15 10000 3.09 250 19:56 19.04.2022
4101 Clouds 17 1038 25 10000 1.03 0 18:47 19.04.2022
4102 Clouds 15 1039 33 10000 2.57 270 17:32 19.04.2022
4103 Clear 13 1039 35 10000 2.06 250 16:43 19.04.2022
4104 Clear 13 1039 35 10000 2.06 250 16:22 19.04.2022
4105 Clear 8 1038 52 10000 1.03 0 14:48 19.04.2022
4106 Mist -2 1037 93 4000 1.54 60 13:35 19.04.2022
4107 Fog -1 1036 93 4000 1.03 0 12:50 19.04.2022
4108 Clouds 1 1036 74 10000 1.54 30 11:55 19.04.2022
4109 Clouds 0 1036 93 10000 1.54 40 10:25 19.04.2022
4110 Clouds 2 1036 80 10000 1.03 0 09:18 19.04.2022
4111 Clear 6 1037 93 10000 3.6 70 04:42 19.04.2022
4112 Clear 6 1036 87 10000 4.12 70 03:25 19.04.2022
4113 Clouds 17 1035 13 10000 2.57 270 00:54 19.04.2022
4114 Clouds 19 1035 13 10000 4.12 280 23:29 18.04.2022
4115 Clear 16 1011 27 10000 2.91 218 21:30 18.04.2022
4116 Clouds 18 1037 14 10000 4.63 300 20:54 18.04.2022
4117 Clouds 18 1037 14 10000 4.63 300 20:30 18.04.2022
4118 Clouds 19 1038 16 10000 4.63 280 19:42 18.04.2022
4119 Clouds 16 1039 23 10000 4.63 250 18:54 18.04.2022
4120 Clouds 14 1039 26 10000 3.09 230 17:55 18.04.2022
4121 Clouds 14 1039 26 10000 3.09 230 17:33 18.04.2022
4122 Clouds 11 1039 37 10000 2.57 160 16:50 18.04.2022
4123 Clouds 11 1039 37 10000 2.57 160 16:21 18.04.2022
4124 Clouds 5 1038 93 10000 3.6 110 14:43 18.04.2022
4125 Clouds 3 1037 93 6000 4.12 90 13:35 18.04.2022
4126 Clouds 3 1037 93 6000 4.12 90 13:35 18.04.2022
4127 Fog 3 1036 93 4000 4.12 90 12:29 18.04.2022
4128 Fog 3 1036 93 4000 4.12 80 11:34 18.04.2022
4129 Fog 3 1036 93 4000 3.6 90 10:31 18.04.2022
4130 Fog 3 1036 93 4000 3.6 80 09:30 18.04.2022
4131 Fog 3 1037 100 4000 4.63 90 07:42 18.04.2022
4132 Clouds 4 1037 87 10000 1.54 20 05:35 18.04.2022
4133 Clouds 19 1034 13 10000 3.09 270 23:51 17.04.2022
4134 Clear 19 1034 14 10000 5.14 260 22:40 17.04.2022
4135 Clear 19 1035 15 10000 3.6 290 21:42 17.04.2022
4136 Clear 19 1035 15 10000 3.6 290 21:21 17.04.2022
4137 Clear 19 1036 15 10000 5.14 250 20:32 17.04.2022
4138 Clear 18 1037 11 10000 4.12 260 19:23 17.04.2022
4139 Clouds 15 1039 19 10000 2.57 270 17:43 17.04.2022
4140 Clouds 9 1038 31 10000 2.06 250 15:39 17.04.2022
4141 Clouds 6 1037 26 10000 1.03 0 14:54 17.04.2022
4142 Clouds -1 1036 50 10000 1.03 0 13:45 17.04.2022
4143 Clouds 2 1036 37 10000 2.06 20 12:56 17.04.2022
4144 Clouds 3 1036 44 10000 2.57 20 11:53 17.04.2022
4145 Clouds 3 1036 55 10000 2.06 20 10:40 17.04.2022
4146 Clouds 3 1036 55 10000 2.06 20 10:19 17.04.2022
4147 Clouds 1 1036 64 10000 1.03 0 09:23 17.04.2022
4148 Clouds 5 1037 41 10000 2.06 30 08:41 17.04.2022
4149 Clouds 6 1037 38 10000 2.57 10 06:53 17.04.2022
4150 Clouds 10 1037 42 10000 1.03 0 03:20 17.04.2022
4151 Clouds 17 1034 12 10000 3.6 320 00:53 17.04.2022
4152 Clouds 19 1034 13 10000 5.14 280 23:48 16.04.2022
4153 Clear 20 1035 11 10000 6.69 280 21:55 16.04.2022
4154 Clear 20 1035 11 10000 6.69 280 21:23 16.04.2022
4155 Clear 19 1037 15 10000 5.14 260 19:33 16.04.2022
4156 Clear 18 1038 12 10000 4.12 290 18:45 16.04.2022
4157 Clear 16 1039 19 10000 3.6 290 17:38 16.04.2022
4158 Clear 14 1039 32 10000 4.63 270 16:31 16.04.2022
4159 Clouds 10 1038 39 10000 2.57 260 15:23 16.04.2022
4160 Clear 8 1037 45 10000 1.03 0 14:43 16.04.2022
4161 Clouds 1 1037 86 10000 1.03 0 13:55 16.04.2022
4162 Clouds 1 1037 86 10000 1.03 0 13:24 16.04.2022
4163 Clouds 4 1036 55 10000 2.06 10 11:58 16.04.2022
4164 Clouds 2 1036 74 10000 2.06 10 10:35 16.04.2022
4165 Clouds 5 1036 56 10000 2.06 10 09:39 16.04.2022
4166 Clear 4 1037 60 10000 2.06 360 08:54 16.04.2022
4167 Clear 3 1037 75 10000 2.06 20 07:31 16.04.2022
4168 Clear 3 1037 93 10000 2.06 50 06:18 16.04.2022
4169 Clear 13 1035 25 10000 3.6 310 01:53 16.04.2022
4170 Clouds 18 1035 21 10000 5.14 300 23:53 15.04.2022
4171 Clouds 19 1035 22 10000 5.14 270 22:51 15.04.2022
4172 Clouds 19 1035 22 10000 5.14 270 22:31 15.04.2022
4173 Clouds 18 1035 21 10000 6.17 260 21:34 15.04.2022
4174 Clouds 18 1036 21 10000 5.66 280 20:38 15.04.2022
4175 Clouds 17 1037 33 10000 5.14 260 19:46 15.04.2022
4176 Clear 15 1013 27 10000 4.49 265 19:23 15.04.2022
4177 Clouds 15 1038 41 10000 5.66 270 18:42 15.04.2022
4178 Clouds 15 1038 41 10000 5.66 270 18:22 15.04.2022
4179 Clouds 14 1039 50 10000 3.6 280 17:27 15.04.2022
4180 Clouds 10 1039 81 6000 2.06 240 16:25 15.04.2022
4181 Fog 7 1038 93 4000 1.03 0 15:46 15.04.2022
4182 Fog 6 1038 100 500 2.57 260 14:18 15.04.2022
4183 Fog 5 1037 100 500 1.54 270 12:52 15.04.2022
4184 Fog 5 1037 100 500 1.54 270 12:26 15.04.2022
4185 Fog 5 1037 100 1000 1.03 0 11:51 15.04.2022
4186 Fog 8 1037 93 3000 2.06 130 10:46 15.04.2022
4187 Fog 8 1037 93 3000 2.06 130 10:20 15.04.2022
4188 Fog 7 1037 100 3000 4.63 90 09:22 15.04.2022
4189 Fog 7 1037 100 3000 3.6 80 08:40 15.04.2022
4190 Fog 7 1038 100 4000 3.09 80 06:51 15.04.2022
4191 Fog 9 1038 93 4000 3.6 110 04:49 15.04.2022
4192 Clouds 15 1034 30 10000 3.6 300 00:47 15.04.2022
4193 Clouds 17 1034 26 10000 6.17 300 23:26 14.04.2022
4194 Clouds 18 1035 29 10000 5.14 300 22:46 14.04.2022
4195 Clouds 18 1035 29 10000 5.14 300 22:27 14.04.2022
4196 Clouds 19 1035 25 10000 4.63 290 21:50 14.04.2022
4197 Clouds 17 1037 33 10000 3.6 290 19:41 14.04.2022
4198 Clouds 17 1037 33 10000 3.6 290 19:20 14.04.2022
4199 Clouds 14 1039 40 10000 4.12 250 17:45 14.04.2022
4200 Clouds 12 1039 46 10000 3.09 250 16:51 14.04.2022
4201 Clouds 10 1039 53 10000 1.03 0 15:51 14.04.2022
4202 Clouds 2 1038 100 10000 2.06 60 13:53 14.04.2022
4203 Clouds 2 1038 100 10000 2.06 60 13:21 14.04.2022
4204 Fog 0 1037 100 4000 2.57 70 12:32 14.04.2022
4205 Clouds 0 1037 93 10000 2.57 100 11:43 14.04.2022
4206 Clouds 0 1037 93 10000 2.57 100 11:18 14.04.2022
4207 Clouds 0 1036 93 10000 2.06 70 10:31 14.04.2022
4208 Clouds 1 1037 86 10000 1.03 0 09:30 14.04.2022
4209 Clouds 3 1037 80 10000 1.03 0 08:23 14.04.2022
4210 Clouds 3 1037 80 10000 2.57 80 05:52 14.04.2022
4211 Clouds 15 1035 12 10000 5.14 300 00:29 14.04.2022
4212 Clouds 18 1035 8 10000 6.17 290 22:37 13.04.2022
4213 Clouds 19 1035 7 10000 5.14 290 21:42 13.04.2022
4214 Clouds 18 1036 10 10000 4.63 280 20:39 13.04.2022
4215 Clouds 17 1037 10 10000 4.63 270 19:48 13.04.2022
4216 Clouds 16 1037 13 10000 2.57 270 18:37 13.04.2022
4217 Clear 15 1038 15 10000 3.09 250 17:25 13.04.2022
4218 Clear 14 1038 7 10000 2.06 270 16:52 13.04.2022
4219 Clear 11 1038 20 10000 1.03 0 15:45 13.04.2022
4220 Clear 11 1038 20 10000 1.03 0 15:23 13.04.2022
4221 Clear 7 1037 28 10000 1.03 0 14:34 13.04.2022
4222 Clear 4 1036 35 10000 3.09 10 13:37 13.04.2022
4223 Clouds 4 1036 41 10000 3.6 10 12:45 13.04.2022
4224 Clouds 3 1035 44 10000 3.09 10 11:32 13.04.2022
4225 Clouds -1 1035 68 10000 2.06 20 10:27 13.04.2022
4226 Clear 4 1036 44 10000 2.06 20 08:45 13.04.2022
4227 Clear 2 1037 55 10000 1.03 0 07:44 13.04.2022
4228 Clear 2 1037 64 10000 2.06 50 06:47 13.04.2022
4229 Clear 2 1037 64 10000 2.06 50 06:23 13.04.2022
4230 Clouds 16 1033 15 10000 7.2 300 00:52 13.04.2022
4231 Clouds 16 1033 15 10000 7.2 300 00:19 13.04.2022
4232 Clouds 18 1034 17 10000 7.2 300 22:33 12.04.2022
4233 Clouds 18 1034 16 10000 7.72 280 21:47 12.04.2022
4234 Clouds 18 1035 14 10000 7.2 280 20:44 12.04.2022
4235 Clouds 18 1035 14 10000 7.2 280 20:18 12.04.2022
4236 Clouds 17 1037 14 10000 4.63 270 19:39 12.04.2022
4237 Clouds 17 1037 10 10000 2.57 250 18:52 12.04.2022
4238 Clouds 16 1038 17 10000 3.09 260 17:37 12.04.2022
4239 Clouds 13 1038 32 10000 2.57 250 16:34 12.04.2022
4240 Clouds 11 1037 31 10000 1.03 0 15:33 12.04.2022
4241 Clear 7 1037 42 10000 2.06 10 14:33 12.04.2022
4242 Clouds 4 1036 51 8000 2.57 360 13:40 12.04.2022
4243 Clouds 4 1036 51 8000 2.57 360 13:20 12.04.2022
4244 Clouds 4 1035 51 10000 2.57 10 11:47 12.04.2022
4245 Clouds 4 1035 51 10000 2.57 10 11:24 12.04.2022
4246 Clouds 5 1035 48 10000 3.09 10 09:25 12.04.2022
4247 Clouds 5 1035 56 10000 2.06 10 08:26 12.04.2022
4248 Clouds 4 1036 100 10000 1.03 0 06:33 12.04.2022
4249 Clouds 5 1036 93 10000 1.03 0 05:36 12.04.2022
4250 Clouds 13 1033 30 10000 2.06 310 01:47 12.04.2022
4251 Clouds 18 1033 17 10000 5.14 270 23:19 11.04.2022
4252 Clouds 18 1034 23 10000 5.66 250 21:49 11.04.2022
4253 Clouds 18 1034 23 10000 5.66 250 21:18 11.04.2022
4254 Clouds 17 1035 36 10000 4.12 270 20:30 11.04.2022
4255 Clouds 17 1035 41 10000 3.6 240 19:56 11.04.2022
4256 Clouds 17 1035 41 10000 3.6 240 19:21 11.04.2022
4257 Clouds 15 1037 47 10000 3.6 250 18:48 11.04.2022
4258 Clouds 14 1038 54 10000 2.57 270 17:57 11.04.2022
4259 Clouds 13 1038 54 10000 2.57 250 16:57 11.04.2022
4260 Clouds 11 1037 49 10000 1.03 0 15:58 11.04.2022
4261 Clouds 8 1037 75 10000 0 0 14:35 11.04.2022
4262 Clouds 6 1035 75 10000 1.03 0 12:53 11.04.2022
4263 Clouds 6 1035 75 10000 1.03 0 12:35 11.04.2022
4264 Clouds 6 1035 93 10000 1.03 0 11:37 11.04.2022
4265 Clouds 4 1035 100 10000 1.03 0 10:31 11.04.2022
4266 Clouds 4 1035 100 10000 1.03 0 09:20 11.04.2022
4267 Clouds 8 1036 87 10000 2.57 20 06:44 11.04.2022
4268 Clouds 8 1034 87 10000 3.09 70 01:55 11.04.2022
4269 Clouds 11 1034 81 8000 2.57 280 22:38 10.04.2022
4270 Clouds 13 1034 58 8000 3.6 50 21:55 10.04.2022
4271 Clouds 13 1034 58 8000 3.6 50 21:32 10.04.2022
4272 Clouds 14 1036 62 10000 4.63 40 20:31 10.04.2022
4273 Clouds 14 1036 62 10000 3.09 100 19:44 10.04.2022
4274 Clouds 14 1036 62 10000 3.09 100 19:20 10.04.2022
4275 Clouds 14 1038 66 10000 2.57 250 18:42 10.04.2022
4276 Clouds 15 1038 62 10000 3.09 250 17:52 10.04.2022
4277 Clouds 15 1038 62 10000 3.09 250 17:33 10.04.2022
4278 Clouds 12 1038 76 10000 3.09 270 16:21 10.04.2022
4279 Clouds 10 1038 81 10000 2.06 270 15:19 10.04.2022
4280 Clouds 4 1037 93 10000 1.03 0 13:58 10.04.2022
4281 Clouds 4 1036 93 10000 1.03 0 12:33 10.04.2022
4282 Clouds 4 1036 93 10000 2.06 40 11:46 10.04.2022
4283 Clouds 4 1036 93 10000 2.06 40 11:28 10.04.2022
4284 Clouds 6 1036 87 10000 2.06 350 10:43 10.04.2022
4285 Clouds 6 1037 93 10000 2.06 360 09:50 10.04.2022
4286 Rain 7 1038 93 10000 2.06 340 08:56 10.04.2022
4287 Rain 7 1038 93 10000 2.06 340 08:21 10.04.2022
4288 Rain 7 1039 100 10000 2.06 300 06:59 10.04.2022
4289 Clouds 7 1039 100 10000 1.03 0 04:42 10.04.2022
4290 Clouds 7 1038 100 10000 1.54 250 02:20 10.04.2022
4291 Clouds 7 1038 93 7000 1.03 0 23:54 09.04.2022
4292 Clouds 7 1038 93 7000 1.03 0 23:29 09.04.2022
4293 Rain 9 1038 87 8000 3.6 360 22:39 09.04.2022
4294 Rain 9 1038 93 10000 2.57 330 21:31 09.04.2022
4295 Clouds 8 1038 100 10000 1.54 310 20:35 09.04.2022
4296 Rain 8 1040 93 4000 3.09 230 19:59 09.04.2022
4297 Rain 8 1040 93 4000 3.09 230 19:41 09.04.2022
4298 Rain 9 1040 81 8000 2.57 300 18:26 09.04.2022
4299 Rain 11 1040 81 10000 1.03 0 17:52 09.04.2022
4300 Clouds 12 1040 71 5000 2.57 320 16:59 09.04.2022
4301 Clouds 12 1040 71 5000 2.57 320 16:40 09.04.2022
4302 Clouds 9 1040 93 10000 1.03 0 15:51 09.04.2022
4303 Clouds 9 1040 93 10000 1.03 0 15:26 09.04.2022
4304 Fog 8 1039 100 4000 2.06 80 14:26 09.04.2022
4305 Fog 7 1038 100 4000 1.03 0 13:33 09.04.2022
4306 Fog 7 1038 100 4000 2.06 60 12:56 09.04.2022
4307 Fog 7 1037 100 4000 2.57 90 11:50 09.04.2022
4308 Fog 8 1037 100 4000 2.57 90 10:52 09.04.2022
4309 Fog 8 1037 100 4000 2.57 90 10:18 09.04.2022
4310 Fog 8 1038 100 4000 2.57 100 09:22 09.04.2022
4311 Fog 7 1038 100 3000 2.06 40 08:26 09.04.2022
4312 Fog 8 1039 100 4000 2.06 80 04:38 09.04.2022
4313 Clouds 12 1036 71 10000 1.03 0 00:35 09.04.2022
4314 Clouds 11 1036 71 10000 2.06 310 23:23 08.04.2022
4315 Rain 11 1037 76 10000 4.12 30 21:49 08.04.2022
4316 Clouds 12 1037 76 10000 4.63 70 20:43 08.04.2022
4317 Clouds 12 1039 71 8000 1.03 0 19:47 08.04.2022
4318 Clouds 10 1040 93 6000 3.6 360 18:46 08.04.2022
4319 Clouds 10 1040 93 6000 3.6 360 18:22 08.04.2022
4320 Clouds 13 1040 66 10000 1.54 270 17:29 08.04.2022
4321 Clouds 10 1040 87 8000 2.57 270 16:58 08.04.2022
4322 Clouds 10 1040 87 8000 2.57 270 16:27 08.04.2022
4323 Clouds 9 1040 93 6000 1.03 0 15:36 08.04.2022
4324 Fog 8 1039 93 4000 1.03 0 14:52 08.04.2022
4325 Fog 8 1039 93 4000 1.03 0 14:19 08.04.2022
4326 Fog 6 1038 100 4000 1.54 10 13:31 08.04.2022
4327 Fog 7 1038 100 4000 1.03 0 12:49 08.04.2022
4328 Fog 7 1037 100 4000 2.57 130 11:26 08.04.2022
4329 Mist 6 1037 100 2500 2.57 60 09:57 08.04.2022
4330 Fog 6 1037 100 4000 2.57 80 08:59 08.04.2022
4331 Fog 8 1038 100 3000 2.57 70 07:44 08.04.2022
4332 Fog 9 1038 100 3000 3.6 120 06:45 08.04.2022
4333 Clouds 6 1036 100 10000 3.6 80 02:53 08.04.2022
4334 Clouds 9 1036 87 8000 2.06 330 00:30 08.04.2022
4335 Clouds 7 1036 100 6000 4.12 340 23:43 07.04.2022
4336 Clouds 9 1036 93 2000 3.6 130 22:44 07.04.2022
4337 Thunderstorm 11 1036 81 5000 3.6 160 22:23 07.04.2022
4338 Clouds 16 1035 47 10000 4.63 70 21:58 07.04.2022
4339 Clouds 16 1035 47 10000 4.63 70 21:30 07.04.2022
4340 Clouds 15 1037 54 10000 2.57 70 20:42 07.04.2022
4341 Clouds 15 1038 67 10000 3.6 60 19:51 07.04.2022
4342 Clouds 14 1039 66 10000 2.57 180 17:29 07.04.2022
4343 Clouds 14 1039 62 10000 1.03 0 16:59 07.04.2022
4344 Clouds 14 1039 62 10000 1.03 0 16:33 07.04.2022
4345 Clouds 12 1039 66 10000 1.03 0 15:47 07.04.2022
4346 Clouds 6 1038 100 10000 2.06 90 13:54 07.04.2022
4347 Clouds 6 1038 100 10000 2.06 90 13:23 07.04.2022
4348 Fog 6 1037 100 3000 2.57 60 11:52 07.04.2022
4349 Fog 7 1037 100 3000 2.06 90 10:46 07.04.2022
4350 Clouds 6 1019 85 10000 1.42 21 08:43 07.04.2022
4351 Fog 5 1039 100 4000 1.54 60 06:59 07.04.2022
4352 Fog 6 1039 93 4000 1.03 0 05:21 07.04.2022
4353 Clouds 7 1037 93 10000 2.57 60 02:34 07.04.2022
4354 Clouds 13 1036 58 10000 2.57 50 00:43 07.04.2022
4355 Clouds 14 1037 62 10000 5.14 50 23:28 06.04.2022
4356 Clouds 11 1037 81 8000 3.6 30 22:44 06.04.2022
4357 Clouds 11 1037 81 8000 3.6 30 22:19 06.04.2022
4358 Clouds 14 1038 62 10000 2.57 130 20:47 06.04.2022
4359 Clouds 13 1039 66 10000 2.57 130 19:59 06.04.2022
4360 Clouds 13 1039 66 10000 2.57 130 19:20 06.04.2022
4361 Clouds 14 1040 58 10000 3.09 180 18:48 06.04.2022
4362 Clouds 13 1041 62 10000 2.57 130 17:36 06.04.2022
4363 Clouds 11 1041 71 10000 2.06 160 16:39 06.04.2022
4364 Clouds 11 1041 71 10000 2.06 160 16:19 06.04.2022
4365 Clouds 9 1040 87 6000 2.06 140 15:40 06.04.2022
4366 Fog 6 1038 100 4000 1.54 80 13:34 06.04.2022
4367 Fog 6 1038 100 4000 1.54 80 13:34 06.04.2022
4368 Fog 6 1038 100 4000 1.03 0 12:29 06.04.2022
4369 Fog 6 1038 100 4000 3.09 90 10:57 06.04.2022
4370 Fog 6 1038 100 4000 3.09 90 10:33 06.04.2022
4371 Fog 7 1038 100 4000 4.12 100 09:46 06.04.2022
4372 Fog 7 1038 100 1500 5.14 100 08:51 06.04.2022
4373 Fog 8 1038 93 2000 4.63 100 07:58 06.04.2022
4374 Fog 7 1039 93 4000 2.57 90 05:23 06.04.2022
4375 Clouds 13 1037 62 10000 2.57 90 00:20 06.04.2022
4376 Clouds 12 1037 76 10000 2.06 50 23:47 05.04.2022
4377 Clouds 14 1037 58 10000 2.57 130 21:48 05.04.2022
4378 Clouds 15 1038 50 10000 2.57 110 20:58 05.04.2022
4379 Clouds 15 1038 50 10000 2.57 110 20:23 05.04.2022
4380 Clouds 13 1040 71 10000 2.57 300 18:28 05.04.2022
4381 Clouds 12 1041 76 10000 4.12 280 17:20 05.04.2022
4382 Clouds 12 1040 62 10000 1.03 0 16:42 05.04.2022
4383 Clouds 9 1040 81 10000 4.12 60 15:50 05.04.2022
4384 Clouds 9 1040 81 10000 4.12 60 15:30 05.04.2022
4385 Clouds 7 1039 93 4000 4.12 50 13:45 05.04.2022
4386 Fog 8 1038 93 4000 3.09 100 11:55 05.04.2022
4387 Fog 8 1038 93 4000 3.09 100 11:33 05.04.2022
4388 Fog 7 1038 100 4000 4.12 110 10:58 05.04.2022
4389 Fog 7 1038 100 4000 1.54 80 09:31 05.04.2022
4390 Fog 7 1038 100 3000 1.03 0 08:22 05.04.2022
4391 Fog 8 1036 93 4000 2.57 90 02:58 05.04.2022
4392 Clouds 13 1035 76 10000 2.57 120 23:22 04.04.2022
4393 Clouds 11 1036 81 10000 1.54 60 22:32 04.04.2022
4394 Clouds 8 1037 100 6000 4.12 20 21:43 04.04.2022
4395 Clouds 8 1037 100 6000 4.12 20 21:18 04.04.2022
4396 Clouds 8 1037 93 8000 1.03 0 20:46 04.04.2022
4397 Clouds 12 1038 76 8000 4.63 110 19:27 04.04.2022
4398 Clouds 13 1038 76 10000 2.06 130 18:39 04.04.2022
4399 Clouds 13 1039 62 10000 2.06 230 17:19 04.04.2022
4400 Clouds 11 1039 76 10000 2.06 210 16:27 04.04.2022
4401 Clouds 10 1038 71 10000 1.03 0 15:33 04.04.2022
4402 Clouds 7 1038 93 10000 0 0 14:46 04.04.2022
4403 Clouds 5 1037 93 10000 1.03 0 13:58 04.04.2022
4404 Clouds 7 1036 93 10000 0 0 12:41 04.04.2022
4405 Clouds 7 1036 87 10000 0 0 11:29 04.04.2022
4406 Clouds 8 1037 87 10000 0 0 09:53 04.04.2022
4407 Clouds 7 1039 93 10000 4.63 200 05:34 04.04.2022
4408 Clouds 9 1036 93 10000 2.06 70 02:51 04.04.2022
4409 Clouds 17 1034 44 10000 3.6 270 22:54 03.04.2022
4410 Clouds 16 1035 51 10000 2.06 280 21:59 03.04.2022
4411 Clouds 16 1035 51 10000 2.06 280 21:25 03.04.2022
4412 Clouds 14 1036 54 10000 2.57 260 20:21 03.04.2022
4413 Clouds 13 1038 62 10000 2.06 310 18:37 03.04.2022
4414 Clouds 12 1038 66 10000 1.03 0 17:50 03.04.2022
4415 Clouds 12 1038 66 10000 1.03 0 17:32 03.04.2022
4416 Clouds 9 1038 87 10000 1.54 60 16:49 03.04.2022
4417 Fog 6 1038 93 4000 3.09 60 15:42 03.04.2022
4418 Clouds 3 1038 100 2000 2.06 360 14:20 03.04.2022
4419 Snow 3 1037 100 1500 4.12 310 12:58 03.04.2022
4420 Rain 7 1036 100 4000 1.03 0 11:39 03.04.2022
4421 Clouds 7 1036 100 10000 2.06 60 09:52 03.04.2022
4422 Clouds 7 1036 100 10000 2.06 50 08:57 03.04.2022
4423 Clouds 7 1038 100 6000 2.06 350 05:45 03.04.2022
4424 Clouds 7 1038 100 6000 2.06 350 05:45 03.04.2022
4425 Thunderstorm 9 1036 93 6000 4.63 100 02:55 03.04.2022
4426 Clouds 13 1034 71 10000 4.63 100 23:27 02.04.2022
4427 Clouds 13 1034 66 10000 6.17 90 22:43 02.04.2022
4428 Clouds 14 1034 62 10000 5.66 90 21:55 02.04.2022
4429 Clouds 14 1034 62 10000 5.66 90 21:19 02.04.2022
4430 Clouds 13 1035 76 10000 4.63 70 20:36 02.04.2022
4431 Clouds 13 1038 71 10000 3.09 90 18:47 02.04.2022
4432 Clouds 13 1038 71 10000 3.09 90 18:19 02.04.2022
4433 Clouds 12 1038 71 10000 1.03 0 16:50 02.04.2022
4434 Clouds 10 1038 81 6000 2.06 110 15:42 02.04.2022
4435 Clouds 10 1038 81 6000 2.06 110 15:18 02.04.2022
4436 Fog 9 1038 87 4000 3.09 80 14:26 02.04.2022
4437 Fog 6 1037 93 4000 2.06 80 13:31 02.04.2022
4438 Fog 6 1036 100 4000 2.57 70 12:21 02.04.2022
4439 Fog 6 1036 93 4000 2.57 80 10:22 02.04.2022
4440 Fog 7 1037 100 4000 2.06 90 07:48 02.04.2022
4441 Fog 8 1037 100 3000 3.6 70 04:34 02.04.2022
4442 Clouds 11 1035 61 10000 4.12 70 01:21 02.04.2022
4443 Clouds 13 1034 58 10000 5.66 50 23:54 01.04.2022
4444 Clouds 14 1034 58 10000 4.63 60 22:46 01.04.2022
4445 Clouds 14 1035 62 10000 4.12 70 21:22 01.04.2022
4446 Clouds 17 1036 51 10000 4.12 90 20:46 01.04.2022
4447 Clouds 15 1037 58 10000 3.09 110 19:45 01.04.2022
4448 Clouds 15 1037 58 10000 3.09 110 19:25 01.04.2022
4449 Clouds 15 1038 58 10000 4.12 100 18:37 01.04.2022
4450 Clouds 14 1038 62 6000 3.09 110 17:38 01.04.2022
4451 Clouds 10 1038 81 6000 3.6 100 15:46 01.04.2022
4452 Fog 8 1037 93 4000 3.09 100 14:51 01.04.2022
4453 Fog 5 1037 93 4000 3.09 80 13:39 01.04.2022
4454 Fog 4 1036 100 4000 2.06 90 12:33 01.04.2022
4455 Fog 4 1035 100 4000 2.06 90 11:47 01.04.2022
4456 Fog 4 1036 100 4000 2.57 80 10:49 01.04.2022
4457 Fog 4 1036 100 4000 1.03 0 09:35 01.04.2022
4458 Fog 7 1037 100 4000 1.54 310 07:24 01.04.2022
4459 Fog 8 1036 100 3000 4.12 80 04:57 01.04.2022
4460 Fog 8 1036 100 3000 4.12 80 04:39 01.04.2022
4461 Clouds 10 1035 87 10000 2.57 80 02:37 01.04.2022
4462 Clouds 11 1034 81 10000 4.63 130 01:33 01.04.2022
4463 Rain 15 1034 41 10000 4.12 120 22:27 31.03.2022
4464 Clouds 16 1034 41 10000 4.12 130 21:38 31.03.2022
4465 Clouds 16 1035 44 10000 3.09 140 20:50 31.03.2022
4466 Clouds 16 1035 44 10000 3.09 140 20:28 31.03.2022
4467 Clouds 15 1036 54 10000 3.09 140 19:18 31.03.2022
4468 Clouds 16 1037 54 10000 2.06 90 18:31 31.03.2022
4469 Clouds 16 1037 54 10000 2.06 90 18:31 31.03.2022
4470 Rain 11 1037 81 6000 3.6 100 16:46 31.03.2022
4471 Clouds 10 1037 87 6000 2.57 90 15:54 31.03.2022
4472 Clouds 10 1037 87 6000 2.57 90 15:24 31.03.2022
4473 Fog 8 1036 93 4000 3.09 80 14:44 31.03.2022
4474 Fog 5 1036 100 4000 2.57 70 13:28 31.03.2022
4475 Fog 3 1034 100 4000 2.06 60 11:30 31.03.2022
4476 Fog 4 1035 100 4000 1.03 0 10:22 31.03.2022
4477 Fog 6 1035 93 4000 1.03 0 09:19 31.03.2022
4478 Fog 7 1036 93 4000 1.03 0 07:31 31.03.2022
4479 Clouds 12 1033 53 10000 4.63 110 01:27 31.03.2022
4480 Clouds 17 1033 36 10000 6.69 90 23:23 30.03.2022
4481 Clouds 15 1034 35 10000 5.14 120 21:50 30.03.2022
4482 Clouds 15 1034 35 10000 5.14 120 21:27 30.03.2022
4483 Clouds 16 1035 35 10000 4.63 130 20:22 30.03.2022
4484 Clouds 17 1035 25 10000 3.6 160 19:43 30.03.2022
4485 Clouds 17 1036 36 10000 2.57 150 18:40 30.03.2022
4486 Clouds 15 1037 47 10000 1.03 0 17:49 30.03.2022
4487 Clouds 13 1037 62 10000 2.06 260 16:58 30.03.2022
4488 Clouds 13 1037 62 10000 2.06 260 16:38 30.03.2022
4489 Clouds 11 1037 71 10000 2.06 250 15:38 30.03.2022
4490 Clouds 4 1036 93 6000 2.06 70 13:57 30.03.2022
4491 Clouds 4 1036 93 6000 2.06 70 13:19 30.03.2022
4492 Fog 8 1035 93 4000 2.57 90 11:40 30.03.2022
4493 Fog 8 1035 100 4000 1.03 0 10:37 30.03.2022
4494 Fog 8 1035 93 4000 3.09 120 09:27 30.03.2022
4495 Fog 8 1036 100 4000 1.03 0 07:41 30.03.2022
4496 Clear 6 1036 93 10000 2.57 90 05:41 30.03.2022
4497 Clear 6 1036 87 10000 3.6 70 04:19 30.03.2022
4498 Clouds 17 1035 20 10000 3.6 140 00:42 30.03.2022
4499 Clouds 18 1035 21 10000 5.66 140 22:34 29.03.2022
4500 Clouds 18 1036 25 10000 4.63 110 21:45 29.03.2022
4501 Clouds 17 1037 25 10000 4.12 20 20:54 29.03.2022
4502 Clouds 17 1037 25 10000 4.12 20 20:20 29.03.2022
4503 Clouds 15 1039 44 10000 1.03 0 18:56 29.03.2022
4504 Clouds 15 1039 44 10000 1.03 0 18:31 29.03.2022
4505 Clouds 13 1040 58 10000 2.06 130 17:36 29.03.2022
4506 Clouds 13 1040 54 10000 1.03 0 16:57 29.03.2022
4507 Clouds 10 1040 76 10000 1.03 0 15:57 29.03.2022
4508 Clouds 9 1039 87 10000 1.03 0 14:53 29.03.2022
4509 Clouds 4 1038 100 10000 1.03 0 13:58 29.03.2022
4510 Fog 6 1038 100 4000 2.06 20 12:51 29.03.2022
4511 Fog 8 1038 93 4000 1.03 0 11:43 29.03.2022
4512 Fog 8 1038 93 4000 1.03 0 11:43 29.03.2022
4513 Fog 8 1038 100 4000 1.03 0 10:51 29.03.2022
4514 Fog 6 1038 100 4000 1.03 0 09:42 29.03.2022
4515 Fog 6 1039 100 4000 2.57 60 07:35 29.03.2022
4516 Clouds 6 1039 93 10000 2.57 90 04:41 29.03.2022
4517 Clouds 9 1038 87 7000 3.09 320 00:35 29.03.2022
4518 Clouds 12 1038 66 10000 2.57 310 23:23 28.03.2022
4519 Clouds 15 1037 54 10000 3.09 120 22:52 28.03.2022
4520 Clouds 15 1037 54 10000 3.09 120 22:26 28.03.2022
4521 Clouds 14 1039 58 10000 5.14 70 20:56 28.03.2022
4522 Clouds 14 1039 58 10000 5.14 70 20:21 28.03.2022
4523 Clouds 14 1039 66 10000 5.14 90 19:41 28.03.2022
4524 Clouds 16 1041 62 10000 4.63 110 18:56 28.03.2022
4525 Clouds 16 1041 62 10000 4.63 110 18:36 28.03.2022
4526 Clouds 13 1041 71 10000 3.6 170 17:38 28.03.2022
4527 Haze 11 1041 81 5000 2.06 150 16:19 28.03.2022
4528 Clouds 8 1040 93 6000 1.03 0 14:27 28.03.2022
4529 Clouds 7 1039 100 6000 1.03 0 13:47 28.03.2022
4530 Clouds 7 1038 93 10000 1.03 0 11:58 28.03.2022
4531 Clouds 7 1038 100 10000 1.54 70 10:50 28.03.2022
4532 Fog 7 1038 100 4000 2.57 110 09:41 28.03.2022
4533 Fog 8 1039 100 4000 2.57 110 08:49 28.03.2022
4534 Fog 8 1039 100 4000 2.57 110 08:21 28.03.2022
4535 Fog 9 1039 87 4000 3.6 110 07:27 28.03.2022
4536 Clouds 10 1038 87 10000 3.6 130 02:48 28.03.2022
4537 Clouds 12 1036 76 8000 2.57 100 22:59 27.03.2022
4538 Clouds 12 1036 76 8000 2.57 100 22:22 27.03.2022
4539 Clouds 14 1036 58 10000 4.63 70 21:40 27.03.2022
4540 Clouds 16 1037 54 10000 4.63 100 20:42 27.03.2022
4541 Clouds 15 1038 67 10000 5.14 110 19:44 27.03.2022
4542 Clouds 14 1039 71 10000 4.63 110 18:47 27.03.2022
4543 Clouds 14 1039 71 10000 4.63 110 18:25 27.03.2022
4544 Clouds 11 1039 81 6000 4.63 120 17:37 27.03.2022
4545 Fog 10 1039 87 4000 3.6 90 15:55 27.03.2022
4546 Fog 7 1038 100 4000 2.06 130 14:22 27.03.2022
4547 Fog 7 1037 93 4000 1.54 140 13:33 27.03.2022
4548 Fog 7 1036 100 4000 1.03 0 11:41 27.03.2022
4549 Fog 7 1036 100 4000 2.06 120 09:49 27.03.2022
4550 Fog 8 1037 100 4000 5.14 110 07:47 27.03.2022
4551 Fog 9 1037 93 500 4.63 100 04:49 27.03.2022
4552 Clouds 10 1034 93 10000 4.12 110 00:27 27.03.2022
4553 Clouds 15 1033 62 10000 4.63 70 22:52 26.03.2022
4554 Clouds 15 1033 62 10000 4.63 70 22:25 26.03.2022
4555 Clouds 15 1034 50 10000 3.6 60 21:31 26.03.2022
4556 Clouds 15 1035 50 10000 3.09 60 19:38 26.03.2022
4557 Clouds 16 1036 47 10000 2.57 90 18:44 26.03.2022
4558 Clouds 13 1037 66 10000 2.06 80 17:44 26.03.2022
4559 Clouds 13 1038 66 10000 2.57 110 16:46 26.03.2022
4560 Clouds 12 1038 76 10000 3.09 90 15:43 26.03.2022
4561 Fog 9 1037 100 4000 2.06 100 13:57 26.03.2022
4562 Fog 9 1037 100 4000 2.06 100 13:36 26.03.2022
4563 Fog 8 1036 100 4000 2.57 80 12:18 26.03.2022
4564 Fog 9 1035 93 3000 2.57 130 10:49 26.03.2022
4565 Fog 9 1035 93 4000 2.57 110 09:19 26.03.2022
4566 Clouds 9 1036 100 7000 1.03 0 06:56 26.03.2022
4567 Fog 8 1037 100 3000 2.06 50 05:31 26.03.2022
4568 Fog 9 1035 93 4000 4.63 110 02:24 26.03.2022
4569 Clouds 16 1033 54 10000 3.6 40 22:47 25.03.2022
4570 Clouds 10 1035 100 8000 4.12 70 20:58 25.03.2022
4571 Clouds 10 1035 100 8000 4.12 70 20:26 25.03.2022
4572 Clouds 11 1036 87 10000 1.03 0 19:19 25.03.2022
4573 Clouds 11 1036 93 3000 4.63 20 18:35 25.03.2022
4574 Clouds 14 1037 66 10000 3.6 110 17:30 25.03.2022
4575 Clouds 13 1037 76 10000 2.57 120 16:27 25.03.2022
4576 Clouds 12 1038 76 6000 1.03 0 15:34 25.03.2022
4577 Fog 9 1037 93 4000 1.03 0 13:29 25.03.2022
4578 Fog 8 1036 93 4000 1.03 0 11:21 25.03.2022
4579 Fog 5 1035 100 4000 1.03 0 09:31 25.03.2022
4580 Fog 6 1035 100 4000 2.06 60 08:49 25.03.2022
4581 Fog 6 1036 100 4000 2.06 40 07:35 25.03.2022
4582 Fog 6 1036 100 4000 1.03 0 06:29 25.03.2022
4583 Clouds 10 1035 76 10000 2.57 20 02:37 25.03.2022
4584 Clouds 13 1034 66 10000 2.57 320 22:56 24.03.2022
4585 Clouds 13 1034 71 10000 2.57 350 21:56 24.03.2022
4586 Rain 14 1034 58 10000 5.66 30 20:51 24.03.2022
4587 Clouds 16 1034 58 10000 4.63 50 19:49 24.03.2022
4588 Clouds 17 1036 58 10000 1.03 0 18:34 24.03.2022
4589 Clouds 15 1037 58 10000 2.57 210 17:33 24.03.2022
4590 Clouds 14 1037 58 10000 2.06 140 16:24 24.03.2022
4591 Clouds 12 1038 71 10000 1.03 0 14:51 24.03.2022
4592 Clouds 12 1038 71 10000 1.03 0 14:21 24.03.2022
4593 Clouds 8 1037 93 10000 2.57 90 13:31 24.03.2022
4594 Fog 7 1036 100 2500 2.57 80 12:23 24.03.2022
4595 Clouds 6 1035 93 10000 1.03 0 10:32 24.03.2022
4596 Clouds 6 1035 100 10000 1.03 0 09:23 24.03.2022
4597 Clouds 8 1036 93 10000 3.09 70 07:42 24.03.2022
4598 Clouds 10 1037 87 10000 5.14 60 04:43 24.03.2022
4599 Clouds 17 1033 63 10000 4.63 100 23:38 23.03.2022
4600 Clouds 20 1033 34 10000 4.63 260 22:18 23.03.2022
4601 Clouds 20 1033 39 10000 5.14 260 21:20 23.03.2022
4602 Clouds 19 1035 39 10000 4.12 220 19:50 23.03.2022
4603 Clouds 19 1035 39 10000 4.12 220 19:25 23.03.2022
4604 Clouds 16 1038 54 10000 3.6 290 17:47 23.03.2022
4605 Clouds 15 1038 62 10000 4.12 250 16:55 23.03.2022
4606 Clouds 10 1038 93 6000 2.06 110 14:57 23.03.2022
4607 Clouds 10 1038 93 6000 2.06 110 14:38 23.03.2022
4608 Fog 9 1038 100 4000 2.57 120 13:22 23.03.2022
4609 Fog 6 1036 100 4000 2.06 40 10:20 23.03.2022
4610 Fog 9 1036 93 2000 3.6 70 07:44 23.03.2022
4611 Fog 9 1037 100 4000 3.09 70 05:27 23.03.2022
4612 Clouds 9 1035 100 10000 2.57 70 01:18 23.03.2022
4613 Clouds 11 1034 93 10000 3.09 90 00:23 23.03.2022
4614 Clouds 13 1034 71 10000 3.6 60 21:31 22.03.2022
4615 Thunderstorm 14 1035 62 10000 2.06 240 20:51 22.03.2022
4616 Clouds 14 1035 62 10000 3.09 140 19:52 22.03.2022
4617 Clouds 14 1035 62 10000 3.09 140 19:25 22.03.2022
4618 Clouds 14 1036 71 10000 2.06 150 18:45 22.03.2022
4619 Clouds 13 1037 76 10000 2.06 150 17:38 22.03.2022
4620 Clouds 14 1038 62 10000 2.57 110 16:28 22.03.2022
4621 Clouds 13 1038 66 10000 2.06 270 15:23 22.03.2022
4622 Clouds 11 1038 81 10000 2.06 300 14:57 22.03.2022
4623 Clouds 11 1038 81 10000 2.06 300 14:38 22.03.2022
4624 Clouds 8 1037 100 10000 0 0 13:36 22.03.2022
4625 Fog 7 1036 100 3000 2.06 40 11:52 22.03.2022
4626 Fog 6 1035 100 3000 1.03 0 10:44 22.03.2022
4627 Clouds 6 1036 100 10000 2.57 70 08:38 22.03.2022
4628 Clouds 8 1038 100 10000 1.54 60 06:53 22.03.2022
4629 Clouds 8 1038 100 6000 6.17 240 03:52 22.03.2022
4630 Clouds 12 1035 76 10000 2.06 80 00:29 22.03.2022
4631 Rain 13 1034 66 10000 2.57 70 22:42 21.03.2022
4632 Clouds 11 1035 81 8000 4.63 360 21:18 21.03.2022
4633 Clouds 12 1035 71 8000 6.17 360 20:40 21.03.2022
4634 Clouds 17 1036 51 10000 1.03 0 19:58 21.03.2022
4635 Clouds 17 1036 51 10000 1.03 0 19:34 21.03.2022
4636 Clouds 17 1037 47 10000 2.57 300 18:31 21.03.2022
4637 Clouds 14 1038 58 10000 2.57 300 17:19 21.03.2022
4638 Clouds 14 1039 58 10000 1.03 0 16:51 21.03.2022
4639 Clouds 12 1039 76 10000 1.03 0 15:59 21.03.2022
4640 Clouds 12 1039 76 10000 1.03 0 15:20 21.03.2022
4641 Clouds 10 1039 87 6000 3.09 270 14:25 21.03.2022
4642 Clouds 8 1038 93 6000 2.57 300 12:42 21.03.2022
4643 Fog 8 1037 100 4000 2.06 260 11:53 21.03.2022
4644 Fog 6 1037 100 4000 1.03 0 10:40 21.03.2022
4645 Fog 8 1037 100 3000 2.06 80 08:56 21.03.2022
4646 Fog 8 1038 100 3000 2.57 90 06:57 21.03.2022
4647 Fog 9 1037 100 4000 3.09 100 02:55 21.03.2022
4648 Clouds 9 1036 93 10000 2.57 300 00:35 21.03.2022
4649 Clouds 13 1035 76 6000 1.03 0 22:54 20.03.2022
4650 Clouds 14 1036 66 6000 3.6 280 21:56 20.03.2022
4651 Clouds 14 1036 66 6000 3.6 280 21:29 20.03.2022
4652 Clouds 13 1037 66 10000 2.57 250 20:43 20.03.2022
4653 Clouds 15 1037 62 10000 5.14 110 19:59 20.03.2022
4654 Clouds 15 1037 62 10000 5.14 110 19:34 20.03.2022
4655 Clouds 15 1038 54 10000 3.6 80 18:34 20.03.2022
4656 Clouds 15 1039 58 10000 4.63 110 17:33 20.03.2022
4657 Clouds 13 1039 71 10000 4.12 110 16:57 20.03.2022
4658 Clouds 13 1040 71 10000 3.6 80 15:35 20.03.2022
4659 Clouds 10 1040 87 6000 3.09 90 14:35 20.03.2022
4660 Fog 7 1038 100 4000 2.57 80 12:35 20.03.2022
4661 Fog 7 1037 100 4000 3.09 100 11:23 20.03.2022
4662 Fog 8 1037 93 4000 4.63 80 09:30 20.03.2022
4663 Fog 8 1038 100 4000 3.09 120 07:47 20.03.2022
4664 Fog 8 1039 100 4000 4.63 120 05:48 20.03.2022
4665 Rain 11 1037 71 10000 6.17 50 01:56 20.03.2022
4666 Clouds 11 1036 76 10000 2.57 90 00:45 20.03.2022
4667 Clouds 13 1036 62 10000 2.57 80 23:19 19.03.2022
4668 Clouds 16 1036 51 10000 2.06 70 21:28 19.03.2022
4669 Clouds 14 1036 62 10000 2.06 140 20:49 19.03.2022
4670 Clouds 14 1039 62 10000 4.12 130 18:58 19.03.2022
4671 Clouds 14 1039 62 10000 4.12 130 18:23 19.03.2022
4672 Clouds 16 1040 54 10000 4.63 80 17:35 19.03.2022
4673 Clouds 12 1040 71 10000 2.57 110 15:44 19.03.2022
4674 Clouds 10 1040 81 6000 4.12 120 14:44 19.03.2022
4675 Fog 8 1039 93 4000 3.6 100 13:19 19.03.2022
4676 Fog 8 1039 93 4000 3.6 100 13:19 19.03.2022
4677 Fog 4 1038 100 4000 2.06 120 12:40 19.03.2022
4678 Fog 5 1038 100 4000 2.06 70 11:54 19.03.2022
4679 Fog 6 1038 100 4000 2.06 130 10:47 19.03.2022
4680 Clouds 8 1038 87 10000 5.14 80 06:51 19.03.2022
4681 Clouds 9 1039 87 10000 1.03 0 03:24 19.03.2022
4682 Clouds 9 1038 81 10000 4.63 200 02:29 19.03.2022
4683 Clouds 14 1035 71 10000 4.12 110 23:44 18.03.2022
4684 Clouds 16 1035 51 10000 2.06 50 22:27 18.03.2022
4685 Clouds 12 1035 76 10000 1.03 0 21:37 18.03.2022
4686 Clouds 14 1037 62 10000 2.57 130 19:51 18.03.2022
4687 Clouds 14 1037 62 10000 2.57 130 19:21 18.03.2022
4688 Clouds 14 1039 58 10000 4.12 150 17:43 18.03.2022
4689 Clouds 14 1039 62 10000 2.57 150 16:47 18.03.2022
4690 Clouds 10 1039 81 10000 2.06 80 14:51 18.03.2022
4691 Clouds 10 1039 81 10000 2.06 80 14:21 18.03.2022
4692 Fog 5 1038 100 4000 2.57 90 12:26 18.03.2022
4693 Fog 5 1036 93 4000 2.06 90 10:47 18.03.2022
4694 Fog 7 1036 93 4000 2.06 80 09:28 18.03.2022
4695 Fog 7 1036 100 3000 4.12 90 07:59 18.03.2022
4696 Fog 7 1036 100 2500 4.12 90 06:34 18.03.2022
4697 Clouds 7 1035 93 10000 3.09 100 02:51 18.03.2022
4698 Clouds 10 1034 76 10000 3.09 80 00:22 18.03.2022
4699 Clouds 14 1034 58 10000 4.12 90 23:21 17.03.2022
4700 Clouds 14 1034 62 10000 4.12 100 22:23 17.03.2022
4701 Clouds 13 1034 62 10000 4.12 60 21:48 17.03.2022
4702 Clouds 13 1034 62 10000 4.12 60 21:20 17.03.2022
4703 Clouds 16 1035 47 10000 4.12 220 20:41 17.03.2022
4704 Clouds 15 1035 54 10000 3.6 250 19:45 17.03.2022
4705 Clouds 14 1036 62 10000 4.12 170 18:57 17.03.2022
4706 Clouds 14 1037 58 10000 2.57 80 17:56 17.03.2022
4707 Clouds 12 1038 66 10000 3.09 220 16:43 17.03.2022
4708 Clouds 12 1037 76 10000 2.57 150 15:44 17.03.2022
4709 Clouds 12 1037 76 10000 2.57 150 15:22 17.03.2022
4710 Fog 7 1037 100 4000 1.54 50 13:49 17.03.2022
4711 Fog 5 1036 100 4000 1.03 0 12:49 17.03.2022
4712 Fog 5 1035 93 4000 2.57 120 11:53 17.03.2022
4713 Fog 5 1035 93 4000 2.57 120 11:22 17.03.2022
4714 Fog 6 1035 100 4000 1.54 60 09:47 17.03.2022
4715 Fog 5 1035 100 4000 2.06 60 08:31 17.03.2022
4716 Fog 7 1037 93 4000 2.06 100 06:25 17.03.2022
4717 Fog 5 1037 100 4000 2.57 60 05:39 17.03.2022
4718 Fog 5 1037 100 4000 2.57 60 05:39 17.03.2022
4719 Clouds 8 1034 93 10000 4.63 80 00:42 17.03.2022
4720 Clouds 9 1034 93 6000 4.12 90 22:59 16.03.2022
4721 Clouds 9 1034 93 6000 4.12 90 22:39 16.03.2022
4722 Clouds 9 1034 93 6000 4.12 90 22:19 16.03.2022
4723 Clouds 9 1035 93 5000 2.57 110 21:18 16.03.2022
4724 Clouds 9 1035 93 5000 2.57 110 21:18 16.03.2022
4725 Clouds 10 1036 81 10000 3.09 100 19:25 16.03.2022
4726 Clouds 12 1036 66 10000 4.63 110 18:43 16.03.2022
4727 Clouds 12 1036 66 10000 4.63 110 18:18 16.03.2022
4728 Clouds 10 1037 76 10000 4.63 110 17:36 16.03.2022
4729 Clouds 10 1038 71 10000 3.09 130 16:36 16.03.2022
4730 Clouds 10 1038 71 10000 2.57 90 15:34 16.03.2022
4731 Clouds 6 1037 100 6000 1.03 0 13:41 16.03.2022
4732 Fog 5 1037 100 4000 1.03 0 12:57 16.03.2022
4733 Rain 4 1037 100 4000 1.54 70 11:26 16.03.2022
4734 Fog 4 1037 100 4000 2.57 110 10:43 16.03.2022
4735 Fog 4 1036 100 4000 2.06 80 09:57 16.03.2022
4736 Fog 4 1037 100 4000 2.57 120 08:33 16.03.2022
4737 Fog 6 1037 100 4000 3.09 210 02:46 16.03.2022
4738 Clouds 9 1034 87 6000 1.03 0 22:58 15.03.2022
4739 Rain 9 1034 87 6000 1.03 0 22:36 15.03.2022
4740 Clouds 7 1035 100 5000 1.03 0 21:19 15.03.2022
4741 Clouds 9 1036 89 6000 5.14 120 19:46 15.03.2022
4742 Clouds 9 1038 87 6000 3.6 110 17:47 15.03.2022
4743 Clouds 9 1039 87 6000 3.09 140 16:41 15.03.2022
4744 Clouds 8 1039 87 6000 2.57 80 15:38 15.03.2022
4745 Clouds 7 1038 87 6000 1.54 140 14:54 15.03.2022
4746 Fog 5 1038 93 4000 1.03 0 13:56 15.03.2022
4747 Rain 5 1038 93 4000 1.03 0 13:23 15.03.2022
4748 Rain 4 1036 100 4000 1.03 0 11:33 15.03.2022
4749 Rain 4 1036 93 6000 1.03 0 10:52 15.03.2022
4750 Clouds 3 1036 100 5000 1.03 0 09:24 15.03.2022
4751 Rain 6 1018 93 2286 1.12 352 08:24 15.03.2022
4752 Rain 5 1037 100 4000 4.12 340 07:36 15.03.2022
4753 Fog 7 1037 100 4000 2.57 130 05:56 15.03.2022
4754 Clouds 9 1034 100 6000 3.09 90 00:31 15.03.2022
4755 Clouds 10 1034 93 7000 3.6 80 23:29 14.03.2022
4756 Clouds 13 1034 71 10000 3.6 90 22:49 14.03.2022
4757 Clouds 12 1034 76 10000 4.12 90 21:51 14.03.2022
4758 Clouds 11 1035 87 10000 4.12 130 20:55 14.03.2022
4759 Clouds 11 1035 87 10000 4.12 130 20:24 14.03.2022
4760 Clouds 10 1036 93 8000 3.09 260 19:22 14.03.2022
4761 Clouds 10 1038 87 6000 4.12 250 17:55 14.03.2022
4762 Rain 10 1038 87 6000 4.12 250 17:33 14.03.2022
4763 Clouds 10 1038 81 6000 1.03 0 16:27 14.03.2022
4764 Clouds 7 1038 93 4000 1.03 0 14:42 14.03.2022
4765 Clouds 7 1036 100 2000 1.03 0 12:55 14.03.2022
4766 Fog 7 1035 100 4000 0 0 10:57 14.03.2022
4767 Clouds 7 1035 100 8000 1.54 230 09:56 14.03.2022
4768 Clouds 7 1035 100 8000 1.54 230 09:23 14.03.2022
4769 Clouds 7 1036 100 6000 3.6 260 08:57 14.03.2022
4770 Rain 7 1036 93 6000 2.57 240 08:20 14.03.2022
4771 Fog 8 1037 100 4000 3.09 110 05:46 14.03.2022
4772 Clouds 9 1035 87 10000 1.54 350 02:57 14.03.2022
4773 Clouds 8 1034 87 10000 2.57 80 01:33 14.03.2022
4774 Clouds 12 1033 71 10000 4.12 50 23:25 13.03.2022
4775 Clouds 11 1034 81 8000 3.6 20 21:40 13.03.2022
4776 Clouds 11 1034 81 8000 3.6 20 21:19 13.03.2022
4777 Clouds 12 1034 81 8000 4.63 70 20:43 13.03.2022
4778 Clouds 14 1035 62 10000 4.63 80 20:20 13.03.2022
4779 Clouds 15 1036 58 10000 4.12 10 19:40 13.03.2022
4780 Clouds 15 1036 58 10000 4.12 10 19:19 13.03.2022
4781 Clouds 15 1037 58 10000 4.12 80 18:39 13.03.2022
4782 Clouds 11 1038 76 10000 3.09 70 17:47 13.03.2022
4783 Clouds 11 1038 76 10000 3.09 70 17:21 13.03.2022
4784 Clouds 11 1038 81 8000 3.6 90 16:33 13.03.2022
4785 Clouds 12 1038 81 6000 2.57 110 15:49 13.03.2022
4786 Fog 10 1038 87 4000 2.57 80 14:58 13.03.2022
4787 Fog 8 1037 100 3000 2.57 110 13:49 13.03.2022
4788 Fog 8 1037 100 3000 2.57 110 13:19 13.03.2022
4789 Fog 8 1036 93 2000 3.6 110 12:19 13.03.2022
4790 Fog 8 1036 93 4000 2.57 110 11:36 13.03.2022
4791 Fog 8 1035 100 4000 3.09 110 10:48 13.03.2022
4792 Fog 8 1035 100 4000 3.09 110 10:48 13.03.2022
4793 Fog 8 1035 100 4000 3.09 110 10:24 13.03.2022
4794 Fog 8 1035 100 4000 3.09 110 10:24 13.03.2022
4795 Fog 8 1035 100 1200 3.6 110 09:41 13.03.2022
4796 Fog 8 1036 100 3000 3.6 100 08:46 13.03.2022
4797 Fog 9 1036 100 4000 3.6 100 07:47 13.03.2022
4798 Fog 9 1037 100 4000 3.6 100 05:42 13.03.2022
4799 Clouds 10 1035 76 10000 1.03 0 02:43 13.03.2022
4800 Clouds 14 1032 66 10000 5.14 90 23:59 12.03.2022
4801 Clouds 12 1033 62 10000 4.63 270 22:31 12.03.2022
4802 Clouds 15 1033 54 8000 5.14 120 20:48 12.03.2022
4803 Clouds 16 1034 54 10000 5.14 120 19:48 12.03.2022
4804 Clouds 16 1034 54 10000 5.14 120 19:27 12.03.2022
4805 Clouds 15 1035 58 10000 2.06 190 18:23 12.03.2022
4806 Clouds 14 1036 62 10000 1.03 0 17:34 12.03.2022
4807 Clouds 13 1037 71 10000 3.09 250 16:24 12.03.2022
4808 Rain 12 1037 71 6000 1.03 0 15:23 12.03.2022
4809 Rain 11 1037 76 6000 2.06 230 14:40 12.03.2022
4810 Fog 8 1035 100 4000 1.03 0 12:56 12.03.2022
4811 Fog 8 1035 100 4000 2.06 100 11:56 12.03.2022
4812 Fog 8 1035 100 4000 2.06 100 11:35 12.03.2022
4813 Fog 8 1034 100 4000 2.57 130 10:52 12.03.2022
4814 Fog 9 1034 93 4000 1.03 0 09:45 12.03.2022
4815 Fog 9 1035 93 4000 2.57 90 08:55 12.03.2022
4816 Fog 9 1035 100 4000 1.54 90 07:19 12.03.2022
4817 Clouds 10 1035 76 10000 4.12 120 02:36 12.03.2022
4818 Clouds 12 1033 71 8000 1.54 320 23:56 11.03.2022
4819 Clouds 14 1033 62 10000 1.54 140 22:56 11.03.2022
4820 Clouds 14 1032 58 10000 2.57 60 21:35 11.03.2022
4821 Clouds 13 1033 62 10000 4.63 40 20:54 11.03.2022
4822 Clouds 13 1033 62 10000 4.63 40 20:28 11.03.2022
4823 Clouds 14 1034 62 10000 4.12 70 19:42 11.03.2022
4824 Clouds 14 1034 62 10000 4.12 70 19:20 11.03.2022
4825 Clouds 15 1036 76 10000 2.57 120 17:29 11.03.2022
4826 Clouds 14 1037 66 10000 1.54 100 16:27 11.03.2022
4827 Clouds 12 1037 76 10000 2.57 230 15:53 11.03.2022
4828 Clouds 10 1037 87 6000 1.03 0 14:19 11.03.2022
4829 Fog 8 1036 93 4000 2.06 70 12:43 11.03.2022
4830 Fog 8 1036 93 4000 2.06 70 12:20 11.03.2022
4831 Fog 7 1035 100 4000 2.57 70 11:40 11.03.2022
4832 Clouds 8 1034 87 10000 1.03 0 09:37 11.03.2022
4833 Clouds 7 1034 100 10000 3.09 80 08:29 11.03.2022
4834 Rain 8 1035 93 10000 4.12 50 07:48 11.03.2022
4835 Fog 8 1036 93 4000 3.09 50 06:55 11.03.2022
4836 Thunderstorm 9 1036 100 8000 2.57 230 04:44 11.03.2022
4837 Clouds 11 1034 76 10000 1.03 0 01:51 11.03.2022
4838 Clouds 13 1032 66 10000 5.14 330 22:33 10.03.2022
4839 Clouds 13 1033 66 10000 4.12 260 21:58 10.03.2022
4840 Clouds 13 1033 66 10000 4.12 260 21:26 10.03.2022
4841 Clouds 17 1033 38 8000 5.14 130 20:37 10.03.2022
4842 Clouds 18 1034 41 10000 3.6 90 19:22 10.03.2022
4843 Clouds 16 1035 51 10000 1.03 0 18:18 10.03.2022
4844 Clouds 12 1037 71 10000 2.06 240 16:53 10.03.2022
4845 Clouds 12 1037 71 6000 1.03 0 15:34 10.03.2022
4846 Clouds 10 1036 87 6000 2.06 120 13:51 10.03.2022
4847 Clouds 8 1035 93 10000 2.06 20 12:43 10.03.2022
4848 Fog 9 1035 93 4000 3.09 120 11:29 10.03.2022
4849 Clouds 9 1034 93 10000 2.06 80 09:43 10.03.2022
4850 Clouds 9 1035 93 10000 3.09 110 08:23 10.03.2022
4851 Clouds 10 1036 87 10000 3.6 110 05:32 10.03.2022
4852 Clouds 12 1035 71 10000 3.6 100 02:39 10.03.2022
4853 Clouds 16 1032 47 10000 4.63 110 23:37 09.03.2022
4854 Clouds 18 1032 41 10000 4.63 130 22:28 09.03.2022
4855 Clouds 19 1033 34 10000 5.66 100 21:47 09.03.2022
4856 Clouds 18 1034 41 10000 5.14 110 20:44 09.03.2022
4857 Clouds 17 1035 47 10000 4.63 130 18:50 09.03.2022
4858 Clouds 16 1036 51 10000 4.63 110 17:28 09.03.2022
4859 Clouds 14 1037 58 10000 4.12 110 16:39 09.03.2022
4860 Clouds 12 1037 71 10000 3.6 130 15:32 09.03.2022
4861 Clouds 10 1037 81 6000 3.6 140 14:19 09.03.2022
4862 Fog 8 1035 100 4000 3.6 120 12:59 09.03.2022
4863 Fog 8 1035 100 4000 3.6 120 12:20 09.03.2022
4864 Fog 8 1035 100 4000 3.6 140 11:45 09.03.2022
4865 Fog 9 1034 93 4000 2.57 100 10:49 09.03.2022
4866 Fog 8 1035 93 4000 1.03 0 09:22 09.03.2022
4867 Fog 8 1035 93 4000 1.03 0 08:42 09.03.2022
4868 Fog 10 1037 93 4000 2.57 140 04:47 09.03.2022
4869 Clouds 12 1034 66 10000 2.06 50 00:52 09.03.2022
4870 Clouds 14 1033 54 10000 2.57 80 23:18 08.03.2022
4871 Clouds 14 1033 54 10000 5.66 60 22:44 08.03.2022
4872 Clouds 17 1033 41 10000 4.63 130 21:24 08.03.2022
4873 Clouds 16 1034 51 10000 6.17 130 20:49 08.03.2022
4874 Clouds 17 1035 47 10000 5.14 110 19:53 08.03.2022
4875 Clouds 16 1036 47 10000 4.63 130 18:44 08.03.2022
4876 Clouds 15 1037 58 10000 4.12 110 17:40 08.03.2022
4877 Clouds 13 1037 62 10000 3.09 80 16:29 08.03.2022
4878 Clouds 11 1037 71 10000 2.57 50 14:20 08.03.2022
4879 Clouds 7 1036 93 8000 4.12 50 12:44 08.03.2022
4880 Fog 9 1035 93 4000 4.12 90 11:45 08.03.2022
4881 Rain 9 1034 76 10000 4.12 20 10:50 08.03.2022
4882 Rain 9 1034 87 10000 5.14 30 09:57 08.03.2022
4883 Fog 8 1035 100 4000 2.57 80 07:32 08.03.2022
4884 Clouds 9 1036 93 10000 3.09 130 05:43 08.03.2022
4885 Clouds 14 1032 62 10000 4.63 220 23:51 07.03.2022
4886 Clouds 18 1032 33 10000 3.09 110 21:57 07.03.2022
4887 Clouds 18 1032 33 10000 3.09 110 21:32 07.03.2022
4888 Clouds 18 1033 39 10000 4.63 100 20:46 07.03.2022
4889 Clouds 18 1033 39 10000 4.63 100 20:20 07.03.2022
4890 Clouds 19 1034 45 10000 4.12 110 19:31 07.03.2022
4891 Clouds 18 1035 48 10000 4.63 140 18:42 07.03.2022
4892 Clouds 17 1036 47 10000 1.54 150 17:48 07.03.2022
4893 Clouds 15 1037 67 10000 2.06 280 16:55 07.03.2022
4894 Clouds 13 1037 71 10000 2.06 250 15:35 07.03.2022
4895 Clouds 9 1036 81 10000 2.06 300 13:24 07.03.2022
4896 Clouds 7 1035 93 10000 1.54 50 12:23 07.03.2022
4897 Clouds 7 1034 93 10000 2.06 80 10:38 07.03.2022
4898 Rain 8 1034 93 10000 2.06 10 08:48 07.03.2022
4899 Clouds 11 1035 81 10000 4.12 90 03:41 07.03.2022
4900 Clouds 15 1032 47 10000 4.12 110 00:22 07.03.2022
4901 Clouds 18 1032 36 10000 3.09 90 23:31 06.03.2022
4902 Clouds 19 1032 34 10000 5.14 120 22:37 06.03.2022
4903 Clouds 19 1032 36 10000 5.14 120 21:45 06.03.2022
4904 Clouds 18 1033 39 10000 4.63 130 20:30 06.03.2022
4905 Clouds 18 1034 41 10000 4.63 130 19:50 06.03.2022
4906 Clouds 18 1036 41 10000 4.63 130 18:51 06.03.2022
4907 Clouds 17 1037 47 10000 4.63 130 17:54 06.03.2022
4908 Clouds 17 1037 47 10000 4.63 130 17:20 06.03.2022
4909 Clouds 16 1037 54 10000 2.57 100 16:40 06.03.2022
4910 Clouds 13 1037 71 10000 2.57 160 15:37 06.03.2022
4911 Clouds 12 1037 76 10000 1.03 0 14:49 06.03.2022
4912 Clouds 12 1037 76 10000 1.03 0 14:28 06.03.2022
4913 Clouds 6 1035 100 4000 2.06 100 12:43 06.03.2022
4914 Fog 7 1035 100 3000 2.57 100 11:56 06.03.2022
4915 Fog 7 1034 100 3000 2.57 100 10:43 06.03.2022
4916 Fog 8 1034 100 3000 2.57 90 09:25 06.03.2022
4917 Fog 8 1035 93 3000 2.57 100 08:28 06.03.2022
4918 Fog 6 1035 100 4000 3.09 70 07:33 06.03.2022
4919 Clouds 8 1036 93 10000 1.03 0 03:18 06.03.2022
4920 Clouds 14 1034 40 10000 3.09 110 00:41 06.03.2022
4921 Clouds 14 1034 40 10000 3.09 110 00:22 06.03.2022
4922 Clouds 16 1033 35 10000 4.12 140 23:19 05.03.2022
4923 Clouds 17 1033 36 10000 4.12 130 22:35 05.03.2022
4924 Clouds 18 1034 36 10000 4.12 120 21:31 05.03.2022
4925 Clouds 17 1035 44 10000 4.12 70 20:38 05.03.2022
4926 Clouds 17 1036 47 10000 4.63 100 19:22 05.03.2022
4927 Clouds 16 1037 58 10000 4.63 120 18:39 05.03.2022
4928 Clouds 16 1038 54 10000 4.63 110 17:34 05.03.2022
4929 Clouds 15 1038 54 10000 3.09 70 16:19 05.03.2022
4930 Clouds 12 1038 76 10000 3.6 130 15:20 05.03.2022
4931 Clouds 11 1038 81 6000 2.06 120 14:36 05.03.2022
4932 Clouds 9 1037 93 6000 1.03 0 13:42 05.03.2022
4933 Fog 8 1036 93 4000 1.03 0 12:40 05.03.2022
4934 Fog 8 1035 100 4000 1.54 100 11:20 05.03.2022
4935 Fog 9 1035 93 4000 3.09 130 10:52 05.03.2022
4936 Fog 8 1034 100 4000 2.57 100 09:31 05.03.2022
4937 Fog 7 1035 93 4000 2.06 90 08:24 05.03.2022
4938 Fog 10 1037 87 4000 3.09 120 06:33 05.03.2022
4939 Clouds 10 1037 87 10000 3.6 100 05:22 05.03.2022
4940 Clouds 15 1034 47 10000 3.6 140 00:30 05.03.2022
4941 Clouds 18 1034 36 10000 4.12 140 22:45 04.03.2022
4942 Clouds 18 1034 36 10000 4.12 140 22:24 04.03.2022
4943 Clouds 18 1034 39 10000 4.63 100 21:43 04.03.2022
4944 Clouds 18 1035 48 10000 4.63 90 20:39 04.03.2022
4945 Clouds 16 1036 54 10000 5.14 120 19:37 04.03.2022
4946 Clouds 16 1038 51 10000 4.63 110 18:54 04.03.2022
4947 Clouds 16 1038 51 10000 4.63 110 18:33 04.03.2022
4948 Clouds 16 1038 54 10000 3.6 130 17:29 04.03.2022
4949 Clouds 11 1038 76 10000 2.06 180 15:48 04.03.2022
4950 Clouds 11 1038 76 10000 1.03 0 14:45 04.03.2022
4951 Clouds 9 1037 87 10000 1.03 0 13:34 04.03.2022
4952 Clouds 7 1037 100 10000 2.06 240 11:59 04.03.2022
4953 Clouds 7 1037 100 10000 2.06 240 11:28 04.03.2022
4954 Clouds 7 1036 93 10000 2.06 300 10:23 04.03.2022
4955 Clouds 8 1036 93 10000 2.57 350 09:27 04.03.2022
4956 Clouds 8 1037 100 10000 2.06 280 07:47 04.03.2022
4957 Thunderstorm 8 1038 100 6000 2.57 230 05:44 04.03.2022
4958 Clouds 11 1035 76 10000 1.54 320 00:43 04.03.2022
4959 Clouds 11 1035 81 8000 4.63 220 23:28 03.03.2022
4960 Clouds 17 1034 44 10000 3.09 20 21:58 03.03.2022
4961 Clouds 17 1034 44 10000 3.09 20 21:35 03.03.2022
4962 Clouds 15 1035 50 10000 3.6 360 20:27 03.03.2022
4963 Clouds 16 1038 54 10000 2.06 220 18:58 03.03.2022
4964 Clouds 16 1038 54 10000 2.06 220 18:25 03.03.2022
4965 Clouds 15 1039 50 10000 2.57 250 17:31 03.03.2022
4966 Clouds 15 1039 54 10000 2.06 140 16:38 03.03.2022
4967 Clouds 11 1040 71 10000 2.06 100 15:43 03.03.2022
4968 Clouds 11 1040 76 6000 4.12 130 14:44 03.03.2022
4969 Clouds 11 1040 76 6000 4.12 130 14:25 03.03.2022
4970 Fog 7 1038 100 4000 2.57 70 12:32 03.03.2022
4971 Fog 7 1037 100 4000 2.57 90 10:58 03.03.2022
4972 Fog 7 1037 100 4000 1.54 120 09:58 03.03.2022
4973 Fog 8 1037 93 4000 2.57 110 08:42 03.03.2022
4974 Fog 8 1038 100 3000 2.57 80 06:54 03.03.2022
4975 Fog 9 1038 93 4000 4.12 90 05:20 03.03.2022
4976 Clouds 15 1034 54 10000 3.6 350 23:48 02.03.2022
4977 Clouds 16 1034 47 10000 4.12 60 22:54 02.03.2022
4978 Clouds 16 1034 47 10000 4.12 60 22:33 02.03.2022
4979 Clouds 19 1036 39 10000 4.63 120 20:59 02.03.2022
4980 Clouds 19 1036 39 10000 4.63 120 20:25 02.03.2022
4981 Clouds 18 1037 41 10000 4.63 80 19:37 02.03.2022
4982 Clouds 18 1037 41 10000 4.63 80 19:18 02.03.2022
4983 Clouds 17 1038 41 10000 5.66 70 18:31 02.03.2022
4984 Clouds 16 1039 54 10000 4.12 100 17:41 02.03.2022
4985 Clouds 15 1039 58 10000 4.12 120 16:52 02.03.2022
4986 Clouds 13 1039 58 10000 1.03 0 15:46 02.03.2022
4987 Clouds 11 1039 71 10000 1.03 0 14:29 02.03.2022
4988 Clouds 5 1038 100 6000 2.06 120 12:56 02.03.2022
4989 Clouds 5 1038 100 6000 2.06 120 12:34 02.03.2022
4990 Fog 7 1037 93 4000 1.03 0 11:27 02.03.2022
4991 Fog 7 1037 100 4000 1.03 0 10:39 02.03.2022
4992 Fog 6 1037 100 4000 1.03 0 09:36 02.03.2022
4993 Fog 6 1037 100 4000 1.03 0 08:34 02.03.2022
4994 Fog 7 1037 100 4000 0.51 0 07:23 02.03.2022
4995 Clouds 8 1038 100 10000 3.6 80 04:51 02.03.2022
4996 Clouds 13 1035 62 10000 4.63 110 00:40 02.03.2022
4997 Clouds 15 1035 50 10000 5.14 130 23:27 01.03.2022
4998 Clouds 16 1035 47 10000 5.14 60 22:38 01.03.2022
4999 Clouds 16 1036 47 10000 5.14 80 21:44 01.03.2022
5000 Clouds 16 1037 54 10000 5.66 80 20:40 01.03.2022
5001 Clouds 16 1037 54 10000 5.66 80 20:19 01.03.2022
5002 Clouds 10 1040 87 8000 5.14 30 18:53 01.03.2022
5003 Clouds 10 1040 87 8000 5.14 30 18:22 01.03.2022
5004 Clouds 15 1040 54 10000 4.63 100 17:42 01.03.2022
5005 Clouds 13 1040 58 10000 4.12 80 16:36 01.03.2022
5006 Clouds 14 1040 58 10000 3.09 80 15:47 01.03.2022
5007 Clouds 14 1040 58 10000 3.09 80 15:47 01.03.2022
5008 Clouds 12 1040 66 10000 2.06 80 14:53 01.03.2022
5009 Clouds 12 1040 66 10000 2.06 80 14:31 01.03.2022
5010 Clouds 9 1039 87 6000 3.09 110 13:26 01.03.2022
5011 Fog 8 1038 93 4000 2.57 140 12:36 01.03.2022
5012 Clouds 7 1037 93 10000 2.57 140 11:35 01.03.2022
5013 Fog 8 1037 93 4000 2.57 70 09:52 01.03.2022
5014 Fog 10 1036 87 4000 4.12 30 08:25 01.03.2022
5015 Fog 10 1038 93 4000 1.54 100 06:47 01.03.2022
5016 Clouds 10 1037 93 10000 4.63 90 03:26 01.03.2022
5017 Clouds 14 1034 54 10000 5.66 60 00:48 01.03.2022
5018 Clouds 17 1034 41 10000 6.17 80 23:39 28.02.2022
5019 Clouds 18 1034 39 10000 6.17 50 22:38 28.02.2022
5020 Clouds 18 1035 41 10000 6.69 50 21:47 28.02.2022
5021 Clouds 14 1036 58 10000 6.69 20 20:46 28.02.2022
5022 Clouds 17 1036 47 10000 4.63 100 19:51 28.02.2022
5023 Clouds 17 1038 55 10000 5.66 120 18:50 28.02.2022
5024 Clouds 17 1038 55 10000 4.63 120 17:43 28.02.2022
5025 Clouds 17 1038 55 10000 4.63 120 17:21 28.02.2022
5026 Clouds 15 1039 67 10000 4.63 120 16:21 28.02.2022
5027 Clouds 12 1038 81 10000 2.57 90 14:32 28.02.2022
5028 Fog 10 1038 93 4000 3.6 100 13:53 28.02.2022
5029 Fog 10 1038 93 4000 3.6 100 13:19 28.02.2022
5030 Fog 8 1036 100 4000 3.6 80 11:59 28.02.2022
5031 Fog 8 1036 100 4000 3.6 80 11:19 28.02.2022
5032 Fog 6 1036 100 3000 2.57 80 10:22 28.02.2022
5033 Clouds 5 1035 100 10000 1.54 60 09:44 28.02.2022
5034 Clouds 5 1036 100 10000 1.03 0 08:53 28.02.2022
5035 Clouds 7 1037 100 10000 1.03 0 07:58 28.02.2022
5036 Clouds 7 1038 100 10000 1.54 50 05:54 28.02.2022
5037 Clouds 8 1038 93 10000 1.03 0 04:30 28.02.2022
5038 Clouds 13 1036 71 10000 3.6 140 00:52 28.02.2022
5039 Clouds 13 1035 66 8000 4.63 40 22:44 27.02.2022
5040 Clouds 13 1035 66 8000 4.63 40 22:26 27.02.2022
5041 Clouds 18 1035 33 8000 2.57 50 21:37 27.02.2022
5042 Clouds 17 1036 44 10000 3.09 120 20:43 27.02.2022
5043 Clouds 17 1036 44 10000 3.09 120 20:18 27.02.2022
5044 Clouds 18 1037 48 10000 4.12 90 19:43 27.02.2022
5045 Clouds 18 1037 48 10000 4.12 90 19:21 27.02.2022
5046 Clouds 18 1039 41 10000 3.6 120 18:24 27.02.2022
5047 Clouds 16 1040 54 10000 1.03 0 17:45 27.02.2022
5048 Clouds 15 1041 62 10000 1.54 140 16:23 27.02.2022
5049 Clouds 11 1041 76 6000 1.03 0 14:29 27.02.2022
5050 Fog 7 1039 100 4000 2.57 90 12:36 27.02.2022
5051 Fog 7 1039 100 3000 3.09 90 11:46 27.02.2022
5052 Fog 6 1039 100 4000 2.57 70 10:36 27.02.2022
5053 Fog 7 1038 93 4000 2.06 60 09:58 27.02.2022
5054 Fog 7 1038 93 4000 2.06 60 09:23 27.02.2022
5055 Fog 7 1039 100 4000 2.57 60 08:44 27.02.2022
5056 Fog 7 1040 93 10000 2.06 90 05:45 27.02.2022
5057 Clouds 8 1039 81 10000 2.57 70 03:26 27.02.2022
5058 Clouds 16 1037 54 10000 3.6 90 23:51 26.02.2022
5059 Clouds 14 1037 62 10000 4.12 80 22:42 26.02.2022
5060 Clouds 15 1038 58 10000 3.6 110 21:27 26.02.2022
5061 Clouds 16 1039 54 10000 4.12 50 20:41 26.02.2022
5062 Clouds 16 1040 54 10000 5.66 60 19:55 26.02.2022
5063 Clouds 16 1040 54 10000 5.66 60 19:33 26.02.2022
5064 Clouds 15 1041 58 10000 5.14 80 18:33 26.02.2022
5065 Clouds 12 1042 71 10000 5.14 80 17:34 26.02.2022
5066 Rain 10 1043 81 10000 3.09 40 16:38 26.02.2022
5067 Clouds 9 1043 87 5000 3.09 350 15:28 26.02.2022
5068 Clouds 8 1042 93 5000 2.06 360 14:59 26.02.2022
5069 Clouds 8 1042 93 5000 2.06 360 14:41 26.02.2022
5070 Clouds 9 1041 93 6000 2.06 80 13:46 26.02.2022
5071 Fog 8 1039 100 4000 2.06 110 12:53 26.02.2022
5072 Fog 8 1039 100 4000 2.57 110 11:45 26.02.2022
5073 Fog 8 1039 100 4000 2.57 110 11:24 26.02.2022
5074 Fog 8 1038 93 4000 3.09 100 09:28 26.02.2022
5075 Fog 8 1038 93 4000 4.12 100 08:21 26.02.2022
5076 Clouds 10 1040 71 10000 4.63 50 04:22 26.02.2022
5077 Clouds 16 1037 51 10000 4.63 60 23:50 25.02.2022
5078 Clouds 16 1036 54 10000 4.12 80 22:31 25.02.2022
5079 Clouds 16 1037 54 10000 4.12 70 21:30 25.02.2022
5080 Clouds 16 1038 54 10000 5.14 70 20:34 25.02.2022
5081 Clouds 17 1039 51 10000 3.6 60 19:56 25.02.2022
5082 Clouds 14 1040 66 10000 5.14 100 17:54 25.02.2022
5083 Rain 14 1040 66 10000 5.14 80 16:47 25.02.2022
5084 Clouds 13 1040 76 10000 3.6 80 15:49 25.02.2022
5085 Clouds 13 1040 76 10000 3.6 80 15:23 25.02.2022
5086 Clouds 13 1040 76 10000 3.6 80 15:23 25.02.2022
5087 Clouds 11 1040 81 10000 5.14 90 14:50 25.02.2022
5088 Clouds 11 1040 81 10000 5.14 90 14:18 25.02.2022
5089 Fog 9 1039 93 4000 4.63 80 13:23 25.02.2022
5090 Fog 7 1037 100 4000 1.54 60 11:52 25.02.2022
5091 Fog 7 1037 100 4000 1.54 60 11:18 25.02.2022
5092 Fog 8 1037 100 4000 1.03 0 10:23 25.02.2022
5093 Fog 8 1037 100 4000 2.57 90 09:42 25.02.2022
5094 Fog 8 1037 100 4000 2.57 90 09:42 25.02.2022
5095 Fog 8 1037 93 4000 4.12 80 07:48 25.02.2022
5096 Fog 8 1037 100 4000 2.57 110 06:51 25.02.2022
5097 Fog 7 1038 100 4000 2.57 80 05:38 25.02.2022
5098 Clouds 13 1035 58 10000 5.14 50 00:46 25.02.2022
5099 Clouds 17 1033 51 10000 6.17 100 22:30 24.02.2022
5100 Clouds 17 1034 51 10000 4.63 90 21:43 24.02.2022
5101 Clouds 17 1034 51 10000 4.63 90 21:43 24.02.2022
5102 Clouds 17 1034 51 10000 4.63 90 21:21 24.02.2022
5103 Clouds 15 1035 62 10000 4.63 60 20:44 24.02.2022
5104 Clouds 15 1036 67 10000 4.63 40 19:31 24.02.2022
5105 Clouds 15 1036 71 10000 4.63 120 18:20 24.02.2022
5106 Clouds 15 1037 71 10000 4.63 110 17:52 24.02.2022
5107 Clouds 15 1037 71 10000 4.63 110 17:18 24.02.2022
5108 Clouds 15 1037 62 10000 4.12 100 16:25 24.02.2022
5109 Clouds 13 1037 71 10000 1.03 0 15:41 24.02.2022
5110 Clouds 13 1037 66 10000 1.03 0 14:44 24.02.2022
5111 Clouds 9 1037 87 10000 1.03 0 13:51 24.02.2022
5112 Clouds 9 1037 87 10000 1.03 0 13:30 24.02.2022
5113 Fog 8 1036 100 4000 2.57 170 10:50 24.02.2022
5114 Fog 8 1036 100 4000 2.57 170 10:31 24.02.2022
5115 Fog 9 1036 100 3000 2.06 110 08:43 24.02.2022
5116 Fog 10 1037 87 4000 1.03 0 06:28 24.02.2022
5117 Fog 10 1037 87 4000 2.06 210 05:37 24.02.2022
5118 Clouds 12 1035 71 10000 2.57 70 00:30 24.02.2022
5119 Clouds 12 1034 76 8000 5.66 40 21:56 23.02.2022
5120 Clouds 14 1035 62 10000 4.63 320 20:43 23.02.2022
5121 Clouds 14 1035 62 10000 4.63 320 20:20 23.02.2022
5122 Clouds 15 1036 58 10000 5.66 80 19:23 23.02.2022
5123 Clouds 14 1038 71 10000 3.6 140 17:56 23.02.2022
5124 Clouds 13 1039 71 10000 2.06 110 16:18 23.02.2022
5125 Fog 7 1038 100 3000 2.06 130 13:36 23.02.2022
5126 Fog 6 1037 100 3000 1.03 0 12:29 23.02.2022
5127 Fog 6 1036 100 3000 2.57 100 10:55 23.02.2022
5128 Fog 6 1036 100 3000 4.12 100 09:38 23.02.2022
5129 Fog 6 1036 100 2000 3.6 100 08:36 23.02.2022
5130 Fog 7 1036 100 3000 4.12 90 07:25 23.02.2022
5131 Clouds 8 1037 93 10000 2.06 60 02:23 23.02.2022
5132 Clouds 9 1036 93 10000 3.09 20 23:50 22.02.2022
5133 Clouds 9 1036 93 10000 3.09 20 23:31 22.02.2022
5134 Clouds 8 1012 100 7000 3.09 320 22:28 22.02.2022
5135 Clouds 7 1036 93 4000 3.09 320 21:40 22.02.2022
5136 Clouds 7 1036 93 4000 3.09 320 21:19 22.02.2022
5137 Clouds 15 1035 62 8000 5.66 120 20:31 22.02.2022
5138 Clouds 15 1035 62 8000 5.66 120 19:54 22.02.2022
5139 Clouds 16 1036 58 10000 5.14 100 19:33 22.02.2022
5140 Clouds 15 1037 62 10000 4.12 110 18:35 22.02.2022
5141 Clouds 14 1038 62 10000 4.63 120 17:27 22.02.2022
5142 Clouds 11 1038 76 10000 5.14 130 16:55 22.02.2022
5143 Clouds 11 1038 76 10000 5.14 130 16:19 22.02.2022
5144 Clouds 12 1038 76 10000 3.09 90 15:18 22.02.2022
5145 Clouds 9 1037 87 6000 1.03 0 13:37 22.02.2022
5146 Fog 7 1036 100 4000 1.03 0 10:54 22.02.2022
5147 Fog 6 1036 93 4000 0 0 09:22 22.02.2022
5148 Fog 8 1037 93 4000 1.03 0 07:28 22.02.2022
5149 Fog 7 1037 100 4000 1.03 0 06:53 22.02.2022
5150 Clouds 9 1037 81 10000 4.12 170 02:48 22.02.2022
5151 Clouds 10 1035 76 10000 7.2 50 23:18 21.02.2022
5152 Clouds 14 1034 62 10000 5.14 360 21:56 21.02.2022
5153 Clouds 11 1035 71 10000 1.03 0 20:38 21.02.2022
5154 Clouds 11 1035 71 10000 1.03 0 20:38 21.02.2022
5155 Clouds 15 1037 58 10000 3.09 100 18:47 21.02.2022
5156 Clouds 15 1037 58 10000 3.09 110 17:41 21.02.2022
5157 Clouds 15 1037 58 10000 3.09 110 17:41 21.02.2022
5158 Clouds 11 1038 71 10000 1.03 0 15:36 21.02.2022
5159 Clouds 11 1037 76 10000 3.09 280 14:22 21.02.2022
5160 Clouds 9 1036 81 10000 4.12 300 13:30 21.02.2022
5161 Clouds 8 1036 93 10000 2.57 300 12:24 21.02.2022
5162 Clouds 7 1035 100 10000 1.54 270 11:31 21.02.2022
5163 Clouds 8 1035 100 10000 1.03 0 10:23 21.02.2022
5164 Clouds 10 1036 81 10000 1.03 0 05:35 21.02.2022
5165 Clouds 12 1033 62 10000 4.12 70 00:20 21.02.2022
5166 Clouds 12 1033 71 10000 3.6 320 22:30 20.02.2022
5167 Clouds 11 1034 71 8000 6.69 250 21:43 20.02.2022
5168 Clouds 11 1034 71 8000 6.69 250 21:19 20.02.2022
5169 Clouds 15 1033 44 8000 5.66 310 20:42 20.02.2022
5170 Clouds 19 1034 48 10000 3.6 150 19:42 20.02.2022
5171 Clouds 18 1035 44 10000 4.63 110 18:54 20.02.2022
5172 Clouds 18 1035 44 10000 4.63 110 18:34 20.02.2022
5173 Clouds 16 1036 51 10000 4.63 130 17:53 20.02.2022
5174 Clouds 16 1036 62 10000 2.57 100 16:18 20.02.2022
5175 Clouds 12 1036 62 10000 1.03 0 14:52 20.02.2022
5176 Clouds 10 1035 76 10000 1.03 0 13:53 20.02.2022
5177 Clouds 6 1035 93 10000 1.54 20 12:34 20.02.2022
5178 Clouds 6 1034 93 10000 1.03 0 10:47 20.02.2022
5179 Clouds 6 1034 93 10000 1.03 0 10:20 20.02.2022
5180 Clouds 9 1034 76 10000 2.06 10 08:56 20.02.2022
5181 Clouds 12 1033 62 10000 3.6 210 00:55 20.02.2022
5182 Clouds 12 1033 62 10000 3.6 210 00:30 20.02.2022
5183 Clouds 16 1031 44 10000 5.14 120 23:18 19.02.2022
5184 Clouds 17 1031 38 10000 4.12 150 22:23 19.02.2022
5185 Clouds 18 1031 21 10000 4.63 140 21:34 19.02.2022
5186 Clouds 19 1034 29 10000 5.66 130 19:54 19.02.2022
5187 Clouds 19 1034 29 10000 5.66 130 19:33 19.02.2022
5188 Clouds 16 1035 51 10000 5.14 110 18:35 19.02.2022
5189 Clouds 16 1036 51 10000 4.12 160 17:37 19.02.2022
5190 Clouds 14 1036 54 10000 3.09 110 16:28 19.02.2022
5191 Clouds 13 1037 66 10000 1.03 0 15:18 19.02.2022
5192 Clouds 11 1037 76 10000 1.03 0 14:49 19.02.2022
5193 Clouds 8 1036 75 10000 1.03 0 13:45 19.02.2022
5194 Clouds 4 1035 100 10000 2.06 10 11:38 19.02.2022
5195 Clouds 4 1035 100 10000 1.54 50 09:55 19.02.2022
5196 Clouds 6 1036 93 10000 1.54 20 06:54 19.02.2022
5197 Clouds 7 1037 100 10000 1.03 0 03:38 19.02.2022
5198 Clouds 11 1034 71 10000 1.03 0 23:29 18.02.2022
5199 Clouds 10 1034 87 8000 4.12 110 21:49 18.02.2022
5200 Clouds 12 1034 71 6000 6.69 130 20:51 18.02.2022
5201 Clouds 13 1036 66 10000 2.57 280 19:53 18.02.2022
5202 Clouds 13 1037 66 10000 3.6 280 18:50 18.02.2022
5203 Clouds 13 1037 66 10000 3.6 280 18:22 18.02.2022
5204 Clouds 11 1038 76 10000 4.63 280 17:50 18.02.2022
5205 Mist 7 1039 93 4000 2.57 140 14:50 18.02.2022
5206 Mist 7 1039 93 4000 2.57 140 14:50 18.02.2022
5207 Fog 7 1038 100 5000 2.06 90 13:55 18.02.2022
5208 Rain 7 1037 100 2000 1.54 90 12:53 18.02.2022
5209 Rain 7 1036 100 3000 2.57 50 11:58 18.02.2022
5210 Rain 7 1036 100 3000 2.57 50 11:58 18.02.2022
5211 Rain 7 1036 100 3000 2.57 50 11:21 18.02.2022
5212 Rain 6 1036 100 4000 3.6 30 09:33 18.02.2022
5213 Fog 10 1037 93 4000 2.06 60 06:54 18.02.2022
5214 Clouds 10 1038 87 10000 2.57 70 05:39 18.02.2022
5215 Clouds 19 1034 36 10000 4.12 50 22:57 17.02.2022
5216 Clouds 18 1035 39 10000 5.14 60 21:44 17.02.2022
5217 Clouds 18 1037 44 10000 3.6 80 20:59 17.02.2022
5218 Clouds 18 1037 44 10000 3.6 80 20:34 17.02.2022
5219 Clouds 16 1038 51 10000 4.63 60 19:48 17.02.2022
5220 Clouds 16 1039 51 10000 3.6 90 18:38 17.02.2022
5221 Clouds 16 1040 54 10000 3.6 100 17:48 17.02.2022
5222 Clouds 13 1040 66 10000 4.63 150 16:20 17.02.2022
5223 Clouds 12 1040 76 10000 3.09 120 15:26 17.02.2022
5224 Clouds 11 1040 81 6000 4.12 100 14:20 17.02.2022
5225 Fog 6 1039 100 4000 2.57 100 12:24 17.02.2022
5226 Fog 6 1038 100 4000 1.54 100 11:21 17.02.2022
5227 Fog 7 1038 100 4000 3.09 70 08:43 17.02.2022
5228 Rain 13 1037 54 10000 6.17 40 00:29 17.02.2022
5229 Clouds 16 1036 44 10000 6.69 50 22:41 16.02.2022
5230 Clouds 16 1038 47 10000 4.63 80 20:46 16.02.2022
5231 Clouds 16 1039 54 10000 5.66 120 19:42 16.02.2022
5232 Clouds 15 1040 58 10000 6.17 100 18:36 16.02.2022
5233 Clouds 16 1040 51 10000 5.14 100 17:34 16.02.2022
5234 Clouds 12 1040 76 6000 3.6 110 15:26 16.02.2022
5235 Clouds 11 1040 81 6000 3.09 80 14:46 16.02.2022
5236 Fog 8 1038 93 4000 4.12 110 12:32 16.02.2022
5237 Fog 8 1038 93 4000 3.6 80 11:51 16.02.2022
5238 Fog 8 1037 100 4000 3.6 100 10:52 16.02.2022
5239 Fog 8 1037 100 4000 3.6 100 10:29 16.02.2022
5240 Fog 8 1038 100 4000 2.06 110 06:56 16.02.2022
5241 Clouds 9 1038 93 10000 4.12 80 03:41 16.02.2022
5242 Clouds 15 1035 62 10000 3.6 100 22:35 15.02.2022
5243 Clouds 12 1036 76 10000 3.6 50 21:52 15.02.2022
5244 Clouds 12 1036 76 10000 3.6 50 21:31 15.02.2022
5245 Clouds 17 1036 51 10000 5.14 120 20:58 15.02.2022
5246 Clouds 17 1036 51 10000 5.14 120 20:38 15.02.2022
5247 Clouds 16 1037 58 10000 4.63 130 19:48 15.02.2022
5248 Clouds 14 1038 62 10000 3.6 120 18:28 15.02.2022
5249 Clouds 14 1039 62 10000 3.6 110 17:57 15.02.2022
5250 Clouds 14 1039 62 10000 3.6 110 17:38 15.02.2022
5251 Clouds 13 1039 66 10000 3.6 100 15:44 15.02.2022
5252 Clouds 11 1039 71 10000 1.03 0 14:35 15.02.2022
5253 Clouds 8 1038 81 6000 2.57 360 13:26 15.02.2022
5254 Fog 8 1036 93 4000 4.63 80 11:43 15.02.2022
5255 Fog 8 1036 93 4000 4.12 80 10:32 15.02.2022
5256 Fog 10 1036 93 4000 3.09 110 08:56 15.02.2022
5257 Rain 9 1037 100 4000 1.54 100 06:47 15.02.2022
5258 Clouds 14 1033 62 10000 4.12 130 00:26 15.02.2022
5259 Clouds 17 1034 51 10000 5.14 90 21:58 14.02.2022
5260 Clouds 18 1034 44 10000 5.14 100 20:54 14.02.2022
5261 Clouds 18 1035 48 10000 4.12 130 19:49 14.02.2022
5262 Clouds 18 1035 48 10000 4.12 130 19:29 14.02.2022
5263 Clouds 17 1037 51 10000 4.12 120 18:24 14.02.2022
5264 Clouds 15 1038 54 10000 2.57 150 17:30 14.02.2022
5265 Clouds 14 1038 58 10000 1.03 0 16:37 14.02.2022
5266 Clouds 12 1038 66 10000 1.03 0 15:22 14.02.2022
5267 Clouds 8 1037 93 6000 2.57 50 13:35 14.02.2022
5268 Fog 4 1036 100 4000 2.06 70 12:58 14.02.2022
5269 Fog 4 1036 100 4000 2.06 70 12:32 14.02.2022
5270 Fog 7 1035 93 4000 2.06 130 11:38 14.02.2022
5271 Fog 7 1035 93 4000 1.03 0 10:18 14.02.2022
5272 Fog 7 1036 100 4000 2.57 70 07:49 14.02.2022
5273 Fog 7 1036 100 4000 2.57 70 07:24 14.02.2022
5274 Rain 13 1033 71 10000 3.6 120 22:48 13.02.2022
5275 Rain 13 1033 71 10000 3.6 120 22:30 13.02.2022
5276 Rain 12 1034 76 10000 4.12 140 21:57 13.02.2022
5277 Clouds 12 1034 76 10000 4.12 140 21:20 13.02.2022
5278 Thunderstorm 13 1035 71 10000 4.63 230 20:27 13.02.2022
5279 Clouds 14 1037 66 10000 4.63 110 18:58 13.02.2022
5280 Clouds 14 1037 66 10000 4.63 110 18:40 13.02.2022
5281 Clouds 12 1038 76 10000 3.09 150 16:53 13.02.2022
5282 Clouds 11 1038 76 10000 2.57 140 15:51 13.02.2022
5283 Clouds 11 1037 76 6000 2.06 140 14:50 13.02.2022
5284 Clouds 8 1037 87 6000 2.06 50 13:26 13.02.2022
5285 Clouds 7 1036 100 10000 1.03 0 12:40 13.02.2022
5286 Fog 6 1035 100 4000 1.03 0 10:40 13.02.2022
5287 Fog 6 1035 100 4000 1.54 130 09:50 13.02.2022
5288 Fog 6 1035 100 4000 1.54 70 08:55 13.02.2022
5289 Clouds 9 1035 93 10000 4.63 100 01:26 13.02.2022
5290 Clouds 10 1034 81 10000 4.63 100 00:21 13.02.2022
5291 Clouds 14 1034 62 10000 3.09 100 22:34 12.02.2022
5292 Clouds 13 1034 71 10000 4.12 120 22:00 12.02.2022
5293 Clouds 12 1036 76 10000 4.12 120 20:55 12.02.2022
5294 Clouds 11 1037 81 10000 3.6 80 19:56 12.02.2022
5295 Clouds 10 1038 81 10000 3.6 120 18:54 12.02.2022
5296 Clouds 10 1038 81 10000 3.6 120 18:36 12.02.2022
5297 Rain 9 1039 87 8000 4.63 120 17:39 12.02.2022
5298 Rain 10 1038 81 10000 4.63 110 16:45 12.02.2022
5299 Rain 9 1038 81 10000 2.57 60 15:53 12.02.2022
5300 Rain 9 1038 81 10000 2.57 60 15:20 12.02.2022
5301 Rain 8 1037 93 10000 3.6 70 14:25 12.02.2022
5302 Mist 7 1034 100 2500 2.57 100 11:31 12.02.2022
5303 Fog 7 1034 100 4000 2.57 110 10:30 12.02.2022
5304 Fog 7 1034 100 4000 2.57 80 09:37 12.02.2022
5305 Fog 7 1035 100 4000 3.6 90 08:46 12.02.2022
5306 Fog 4 1035 100 4000 2.57 70 06:52 12.02.2022
5307 Clouds 6 1035 100 10000 4.63 70 04:44 12.02.2022
5308 Clouds 6 1033 93 10000 2.57 100 02:19 12.02.2022
5309 Clouds 10 1033 71 10000 3.09 100 23:20 11.02.2022
5310 Clouds 8 1033 87 10000 5.14 60 22:21 11.02.2022
5311 Clouds 8 1034 81 8000 4.63 150 21:18 11.02.2022
5312 Clouds 8 1035 81 6000 3.6 60 20:26 11.02.2022
5313 Clouds 7 1035 81 6000 5.14 130 19:28 11.02.2022
5314 Clouds 13 1034 76 6000 5.66 40 18:29 11.02.2022
5315 Clouds 15 1034 54 10000 2.06 220 17:26 11.02.2022
5316 Clouds 14 1035 58 10000 3.6 240 16:37 11.02.2022
5317 Clouds 13 1035 71 10000 3.09 270 15:18 11.02.2022
5318 Clouds 12 1035 76 10000 1.03 0 14:37 11.02.2022
5319 Clouds 12 1035 76 10000 1.03 0 14:19 11.02.2022
5320 Fog 9 1035 100 4000 2.57 100 13:40 11.02.2022
5321 Fog 4 1033 100 4000 2.06 80 12:37 11.02.2022
5322 Fog 6 1032 100 2500 2.57 80 10:31 11.02.2022
5323 Fog 5 1032 100 3000 2.57 100 09:31 11.02.2022
5324 Fog 6 1033 100 2500 2.57 80 08:31 11.02.2022
5325 Clouds 7 1014 89 10000 0.6 178 07:40 11.02.2022
5326 Fog 9 1033 100 4000 4.12 80 02:40 11.02.2022
5327 Fog 9 1033 100 4000 4.12 80 02:20 11.02.2022
5328 Clouds 12 1031 81 10000 3.6 80 23:40 10.02.2022
5329 Clouds 12 1032 76 10000 4.63 90 21:55 10.02.2022
5330 Clouds 12 1032 76 10000 4.63 90 21:26 10.02.2022
5331 Clouds 13 1032 82 10000 4.63 70 20:48 10.02.2022
5332 Clouds 12 1033 76 8000 5.14 60 19:37 10.02.2022
5333 Clouds 15 1033 71 10000 6.17 90 19:18 10.02.2022
5334 Clouds 14 1035 71 6000 2.57 120 17:39 10.02.2022
5335 Clouds 14 1035 71 6000 2.57 120 17:19 10.02.2022
5336 Fog 12 1035 81 4000 2.06 120 16:20 10.02.2022
5337 Fog 11 1036 87 3000 2.57 130 15:33 10.02.2022
5338 Fog 10 1035 87 3000 3.09 280 14:49 10.02.2022
5339 Fog 10 1035 87 3000 3.09 280 14:29 10.02.2022
5340 Fog 8 1035 93 4000 1.03 0 13:33 10.02.2022
5341 Fog 7 1034 100 500 2.57 60 12:51 10.02.2022
5342 Fog 7 1033 100 3000 1.03 0 11:38 10.02.2022
5343 Fog 7 1033 100 3000 1.03 0 11:20 10.02.2022
5344 Fog 7 1033 100 3000 2.57 120 10:18 10.02.2022
5345 Fog 7 1033 100 1200 2.06 80 09:25 10.02.2022
5346 Fog 7 1033 100 500 4.63 90 07:37 10.02.2022
5347 Clouds 8 1034 93 10000 4.63 50 05:51 10.02.2022
5348 Clouds 8 1033 100 10000 2.57 70 01:52 10.02.2022
5349 Clouds 11 1032 81 10000 4.63 110 00:50 10.02.2022
5350 Clouds 11 1032 81 10000 4.63 110 00:29 10.02.2022
5351 Clouds 14 1032 66 10000 3.6 60 23:24 09.02.2022
5352 Clouds 11 1032 81 10000 2.06 30 22:36 09.02.2022
5353 Thunderstorm 11 1032 71 10000 3.09 280 21:52 09.02.2022
5354 Thunderstorm 11 1032 71 10000 3.09 280 21:30 09.02.2022
5355 Clouds 16 1033 54 10000 4.12 100 20:48 09.02.2022
5356 Clouds 16 1033 54 10000 4.12 100 20:29 09.02.2022
5357 Clouds 17 1034 51 10000 2.06 180 19:54 09.02.2022
5358 Clouds 17 1034 51 10000 2.06 180 19:31 09.02.2022
5359 Clouds 15 1036 50 10000 2.06 90 17:37 09.02.2022
5360 Clouds 13 1037 66 10000 2.06 150 16:48 09.02.2022
5361 Clouds 13 1037 66 10000 3.6 90 15:51 09.02.2022
5362 Clouds 13 1036 62 10000 2.06 110 14:35 09.02.2022
5363 Fog 7 1036 100 4000 2.06 90 12:28 09.02.2022
5364 Fog 6 1035 100 4000 2.57 70 10:54 09.02.2022
5365 Fog 6 1035 100 4000 2.57 70 10:26 09.02.2022
5366 Fog 7 1035 100 4000 4.12 80 09:40 09.02.2022
5367 Fog 7 1035 100 4000 4.12 80 09:19 09.02.2022
5368 Fog 8 1035 100 2000 3.09 90 07:53 09.02.2022
5369 Fog 8 1037 100 4000 2.06 90 05:30 09.02.2022
5370 Fog 8 1037 100 4000 2.06 90 05:30 09.02.2022
5371 Clouds 10 1037 76 10000 3.09 230 03:50 09.02.2022
5372 Clouds 10 1037 76 10000 3.09 230 03:50 09.02.2022
5373 Clouds 13 1034 62 10000 2.06 150 00:39 09.02.2022
5374 Clouds 14 1033 62 10000 5.14 130 23:31 08.02.2022
5375 Clouds 16 1033 41 10000 3.09 70 22:46 08.02.2022
5376 Clouds 16 1033 41 10000 3.09 70 22:21 08.02.2022
5377 Clouds 16 1033 41 10000 3.09 70 22:21 08.02.2022
5378 Clouds 16 1033 41 10000 3.09 70 22:21 08.02.2022
5379 Clouds 17 1034 41 10000 4.12 100 21:38 08.02.2022
5380 Clouds 17 1034 41 10000 4.12 100 21:20 08.02.2022
5381 Clouds 17 1035 47 10000 4.12 150 20:42 08.02.2022
5382 Clouds 17 1036 55 10000 4.12 100 19:46 08.02.2022
5383 Clouds 16 1037 58 10000 3.09 100 18:35 08.02.2022
5384 Clouds 15 1038 58 10000 3.09 140 17:38 08.02.2022
5385 Clouds 13 1038 62 10000 2.57 150 16:22 08.02.2022
5386 Clouds 11 1039 76 6000 3.09 60 15:29 08.02.2022
5387 Rain 9 1038 87 6000 4.12 90 14:26 08.02.2022
5388 Fog 6 1036 100 4000 4.12 80 12:41 08.02.2022
5389 Fog 6 1036 100 4000 3.09 70 11:28 08.02.2022
5390 Fog 6 1035 100 4000 2.57 100 10:18 08.02.2022
5391 Fog 6 1035 100 3000 3.09 80 09:41 08.02.2022
5392 Fog 6 1036 100 1200 3.09 60 07:37 08.02.2022
5393 Clouds 9 1038 93 10000 1.03 0 04:40 08.02.2022
5394 Clouds 9 1038 93 10000 1.03 0 04:22 08.02.2022
5395 Clouds 10 1038 87 10000 1.03 0 03:36 08.02.2022
5396 Clouds 10 1038 87 10000 1.03 0 03:18 08.02.2022
5397 Clouds 9 1037 93 10000 2.57 70 02:59 08.02.2022
5398 Clouds 9 1037 93 10000 2.57 70 02:37 08.02.2022
5399 Clouds 9 1037 93 10000 2.57 70 02:18 08.02.2022
5400 Clouds 10 1036 81 10000 3.6 120 01:45 08.02.2022
5401 Clouds 10 1036 81 10000 3.6 120 01:25 08.02.2022
5402 Clouds 11 1035 81 10000 5.66 110 00:55 08.02.2022
5403 Clouds 11 1035 81 10000 5.66 110 00:36 08.02.2022
5404 Clouds 13 1035 66 10000 4.12 100 23:45 07.02.2022
5405 Clouds 13 1035 66 10000 4.12 100 23:18 07.02.2022
5406 Clouds 14 1035 58 10000 6.17 90 22:59 07.02.2022
5407 Clouds 14 1035 58 10000 6.17 90 22:19 07.02.2022
5408 Rain 16 1035 54 10000 4.12 120 21:51 07.02.2022
5409 Rain 16 1035 54 10000 4.12 120 21:28 07.02.2022
5410 Clouds 17 1036 58 10000 4.12 100 20:47 07.02.2022
5411 Clouds 17 1036 58 10000 4.12 100 20:29 07.02.2022
5412 Clouds 16 1037 51 10000 4.12 100 19:47 07.02.2022
5413 Clouds 15 1039 62 10000 3.09 130 18:40 07.02.2022
5414 Clouds 14 1039 71 10000 3.6 130 17:33 07.02.2022
5415 Clouds 12 1039 76 6000 4.12 130 16:52 07.02.2022
5416 Clouds 12 1039 71 6000 2.06 80 15:48 07.02.2022
5417 Clouds 11 1039 71 6000 3.09 80 14:19 07.02.2022
5418 Fog 8 1038 93 4000 2.06 110 13:27 07.02.2022
5419 Fog 7 1038 100 4000 2.06 70 12:35 07.02.2022
5420 Fog 7 1037 100 4000 1.54 50 11:40 07.02.2022
5421 Fog 7 1037 100 4000 1.54 50 11:22 07.02.2022
5422 Fog 7 1037 100 4000 1.54 90 10:41 07.02.2022
5423 Fog 7 1037 100 4000 1.54 90 10:22 07.02.2022
5424 Fog 7 1037 100 4000 1.54 100 09:51 07.02.2022
5425 Fog 7 1037 100 4000 1.54 100 09:18 07.02.2022
5426 Fog 6 1037 100 4000 2.06 70 07:44 07.02.2022
5427 Fog 7 1038 100 4000 2.06 100 06:34 07.02.2022
5428 Fog 8 1039 100 3000 1.54 80 04:31 07.02.2022
5429 Clouds 7 1037 100 5000 2.57 250 01:37 07.02.2022
5430 Clouds 8 1035 87 6000 3.09 340 23:51 06.02.2022
5431 Clouds 8 1035 87 6000 3.09 340 23:19 06.02.2022
5432 Clouds 10 1035 81 10000 3.09 310 22:39 06.02.2022
5433 Clouds 12 1035 71 10000 4.63 120 21:37 06.02.2022
5434 Clouds 12 1035 71 10000 4.63 120 21:18 06.02.2022
5435 Clouds 13 1035 71 10000 4.12 90 20:48 06.02.2022
5436 Clouds 13 1035 71 10000 4.12 90 20:21 06.02.2022
5437 Clouds 13 1037 66 10000 2.57 100 18:54 06.02.2022
5438 Rain 13 1037 66 10000 2.57 100 18:27 06.02.2022
5439 Rain 12 1037 71 10000 2.57 100 17:29 06.02.2022
5440 Rain 12 1038 76 6000 2.57 130 16:50 06.02.2022
5441 Rain 10 1038 87 6000 3.6 120 15:51 06.02.2022
5442 Rain 10 1038 87 6000 3.6 120 15:28 06.02.2022
5443 Fog 9 1037 93 4000 2.57 120 14:59 06.02.2022
5444 Fog 8 1036 100 4000 2.57 140 13:57 06.02.2022
5445 Fog 8 1036 100 4000 2.57 140 13:20 06.02.2022
5446 Fog 8 1035 100 4000 2.06 70 11:45 06.02.2022
5447 Fog 8 1035 100 4000 3.09 110 10:33 06.02.2022
5448 Fog 8 1035 100 4000 2.57 110 09:29 06.02.2022
5449 Fog 8 1035 100 4000 3.09 140 08:41 06.02.2022
5450 Fog 9 1036 93 4000 4.12 80 06:27 06.02.2022
5451 Clouds 8 1036 93 10000 3.09 90 04:51 06.02.2022
5452 Clouds 10 1035 81 10000 4.63 100 02:25 06.02.2022
5453 Clouds 13 1033 71 10000 3.6 90 00:30 06.02.2022
5454 Clouds 14 1033 62 10000 4.12 60 23:25 05.02.2022
5455 Rain 17 1033 38 10000 2.57 260 21:38 05.02.2022
5456 Clouds 17 1034 41 10000 2.06 240 20:25 05.02.2022
5457 Clouds 17 1035 36 10000 3.6 180 19:50 05.02.2022
5458 Clouds 17 1035 36 10000 3.6 180 19:27 05.02.2022
5459 Clouds 17 1036 38 10000 2.57 250 18:23 05.02.2022
5460 Clouds 16 1037 38 10000 2.06 180 17:31 05.02.2022
5461 Clouds 13 1037 40 10000 2.06 270 15:42 05.02.2022
5462 Clouds 13 1037 40 10000 2.06 270 15:24 05.02.2022
5463 Clouds 5 1036 70 10000 2.06 10 12:54 05.02.2022
5464 Clouds 5 1036 70 10000 2.06 10 12:34 05.02.2022
5465 Clouds 6 1035 56 10000 1.54 340 10:53 05.02.2022
5466 Clouds 6 1035 56 10000 1.54 340 10:25 05.02.2022
5467 Clouds 5 1035 65 10000 1.03 0 09:46 05.02.2022
5468 Clouds 6 1035 65 10000 1.03 0 08:20 05.02.2022
5469 Clouds 6 1036 93 10000 1.03 0 06:58 05.02.2022
5470 Clouds 10 1037 76 10000 2.06 110 04:55 05.02.2022
5471 Clouds 9 1036 87 10000 4.63 190 01:19 05.02.2022
5472 Clouds 9 1035 87 8000 5.66 230 00:53 05.02.2022
5473 Clouds 11 1034 76 10000 4.63 80 23:58 04.02.2022
5474 Clouds 12 1033 71 10000 5.66 80 23:30 04.02.2022
5475 Clouds 14 1035 58 10000 4.12 300 21:59 04.02.2022
5476 Rain 14 1035 58 10000 4.12 300 21:36 04.02.2022
5477 Clouds 14 1035 58 10000 4.12 300 21:18 04.02.2022
5478 Rain 15 1035 54 10000 5.14 280 20:20 04.02.2022
5479 Clouds 14 1038 66 10000 4.12 270 17:43 04.02.2022
5480 Clouds 10 1038 81 10000 3.6 260 15:42 04.02.2022
5481 Clouds 8 1038 93 10000 2.57 290 14:55 04.02.2022
5482 Clouds 7 1037 93 8000 2.57 300 13:33 04.02.2022
5483 Clouds 6 1036 93 8000 1.03 0 12:43 04.02.2022
5484 Clouds 5 1036 100 6000 1.54 360 11:42 04.02.2022
5485 Rain 5 1036 100 6000 3.09 330 10:36 04.02.2022
5486 Rain 6 1036 100 4000 1.03 0 08:36 04.02.2022
5487 Fog 9 1036 100 4000 2.06 140 06:47 04.02.2022
5488 Fog 10 1035 87 4000 3.6 110 02:44 04.02.2022
5489 Fog 10 1035 93 4000 3.09 90 01:48 04.02.2022
5490 Clouds 11 1034 87 10000 4.12 130 23:29 03.02.2022
5491 Clouds 12 1034 81 10000 3.09 130 22:33 03.02.2022
5492 Clouds 14 1034 62 10000 1.54 140 21:49 03.02.2022
5493 Clouds 13 1034 71 10000 3.09 10 20:38 03.02.2022
5494 Clouds 13 1034 71 10000 3.09 10 20:38 03.02.2022
5495 Clouds 13 1034 71 10000 3.09 10 20:18 03.02.2022
5496 Clouds 13 1035 66 8000 3.6 320 19:30 03.02.2022
5497 Clouds 12 1036 71 10000 4.12 330 18:34 03.02.2022
5498 Clouds 13 1036 66 10000 1.54 50 17:32 03.02.2022
5499 Clouds 13 1037 66 10000 1.03 0 16:24 03.02.2022
5500 Clouds 11 1037 81 6000 1.03 0 14:28 03.02.2022
5501 Clouds 7 1035 93 10000 1.03 0 12:40 03.02.2022
5502 Clouds 7 1034 100 10000 1.03 0 10:45 03.02.2022
5503 Fog 7 1035 100 4000 2.06 60 08:35 03.02.2022
5504 Fog 9 1035 100 4000 3.6 110 03:57 03.02.2022
5505 Clouds 12 1033 76 10000 3.09 110 00:30 03.02.2022
5506 Clouds 14 1033 66 10000 4.12 110 22:55 02.02.2022
5507 Clouds 14 1033 54 10000 2.57 30 21:53 02.02.2022
5508 Clouds 14 1033 54 10000 2.57 30 21:30 02.02.2022
5509 Clouds 13 1034 62 10000 4.12 350 20:33 02.02.2022
5510 Clouds 11 1035 76 10000 3.09 360 19:51 02.02.2022
5511 Clouds 11 1035 76 10000 3.09 360 19:20 02.02.2022
5512 Clouds 11 1036 71 8000 5.14 40 18:27 02.02.2022
5513 Clouds 12 1036 66 10000 2.06 120 17:37 02.02.2022
5514 Clouds 12 1036 66 10000 2.06 120 17:18 02.02.2022
5515 Clouds 14 1037 66 6000 1.03 0 16:20 02.02.2022
5516 Fog 7 1035 100 4000 1.03 0 12:50 02.02.2022
5517 Fog 7 1035 100 4000 1.03 0 11:51 02.02.2022
5518 Fog 7 1035 100 4000 1.03 0 11:31 02.02.2022
5519 Fog 7 1034 100 4000 2.06 210 09:22 02.02.2022
5520 Fog 8 1036 100 3000 2.57 110 05:29 02.02.2022
5521 Clouds 11 1032 81 10000 1.54 100 22:44 01.02.2022
5522 Rain 10 1033 87 10000 1.03 0 21:30 01.02.2022
5523 Clouds 9 1034 93 10000 2.57 170 19:56 01.02.2022
5524 Clouds 13 1035 71 10000 3.6 80 17:38 01.02.2022
5525 Clouds 12 1036 76 10000 2.57 100 16:31 01.02.2022
5526 Fog 8 1035 93 4000 1.54 150 13:27 01.02.2022
5527 Fog 7 1034 93 4000 1.03 0 12:28 01.02.2022
5528 Fog 7 1033 93 4000 1.03 0 10:42 01.02.2022
5529 Fog 10 1034 93 4000 4.12 100 02:24 01.02.2022
5530 Clouds 13 1031 71 10000 5.14 90 23:39 31.01.2022
5531 Clouds 14 1031 58 10000 3.6 80 22:42 31.01.2022
5532 Clouds 15 1031 62 10000 4.12 50 21:36 31.01.2022
5533 Clouds 11 1033 76 10000 3.6 30 20:35 31.01.2022
5534 Clouds 9 1034 93 6000 4.12 20 19:59 31.01.2022
5535 Clouds 8 1034 93 6000 4.63 20 18:47 31.01.2022
5536 Clouds 12 1035 71 6000 4.63 50 17:57 31.01.2022
5537 Clouds 14 1035 62 10000 3.6 210 17:24 31.01.2022
5538 Clouds 14 1035 66 10000 3.6 260 16:25 31.01.2022
5539 Clouds 11 1035 81 6000 2.57 250 14:53 31.01.2022
5540 Clouds 8 1035 93 6000 1.03 0 13:35 31.01.2022
5541 Clouds 7 1034 100 10000 1.03 0 12:38 31.01.2022
5542 Fog 7 1033 100 4000 2.57 260 11:26 31.01.2022
5543 Clouds 7 1033 100 10000 3.09 260 10:48 31.01.2022
5544 Clouds 8 1033 93 10000 3.09 310 09:37 31.01.2022
5545 Fog 8 1033 87 4000 2.57 320 08:56 31.01.2022
5546 Fog 8 1033 87 4000 2.57 320 08:20 31.01.2022
5547 Fog 8 1034 93 4000 6.17 270 07:40 31.01.2022
5548 Fog 10 1035 100 4000 2.57 110 05:25 31.01.2022
5549 Clouds 12 1032 71 10000 2.57 130 00:24 31.01.2022
5550 Clouds 13 1032 71 10000 3.09 40 22:33 30.01.2022
5551 Clouds 10 1032 93 6000 4.12 20 21:46 30.01.2022
5552 Clouds 10 1032 93 6000 4.12 20 21:26 30.01.2022
5553 Clouds 12 1033 87 4000 2.06 10 20:53 30.01.2022
5554 Clouds 12 1033 87 4000 2.06 10 20:31 30.01.2022
5555 Clouds 13 1034 71 10000 2.06 230 19:56 30.01.2022
5556 Clouds 11 1035 93 10000 2.06 140 18:52 30.01.2022
5557 Clouds 11 1035 93 10000 2.06 140 18:22 30.01.2022
5558 Clouds 13 1035 76 10000 3.09 120 17:31 30.01.2022
5559 Clouds 12 1036 76 6000 1.03 0 16:43 30.01.2022
5560 Clouds 12 1036 76 6000 1.03 0 16:23 30.01.2022
5561 Clouds 11 1036 81 6000 2.06 160 15:55 30.01.2022
5562 Clouds 11 1036 81 6000 2.06 160 15:33 30.01.2022
5563 Fog 10 1035 87 4000 1.54 80 14:47 30.01.2022
5564 Fog 7 1035 100 2000 2.06 70 13:47 30.01.2022
5565 Fog 7 1035 100 2000 2.57 70 12:46 30.01.2022
5566 Fog 7 1033 100 2000 3.09 80 10:47 30.01.2022
5567 Fog 7 1033 100 2000 3.09 80 10:25 30.01.2022
5568 Rain 7 1034 100 8000 2.06 110 09:22 30.01.2022
5569 Rain 7 1035 100 6000 2.57 20 07:58 30.01.2022
5570 Clouds 10 1034 93 8000 3.6 210 02:44 30.01.2022
5571 Clouds 10 1034 93 8000 3.09 210 01:54 30.01.2022
5572 Clouds 13 1031 76 10000 2.57 60 23:49 29.01.2022
5573 Clouds 12 1031 87 8000 3.09 280 22:50 29.01.2022
5574 Clouds 15 1031 58 10000 3.09 340 21:29 29.01.2022
5575 Clouds 17 1032 55 10000 3.09 100 20:53 29.01.2022
5576 Clouds 17 1033 55 10000 5.14 100 19:51 29.01.2022
5577 Clouds 17 1033 55 10000 5.14 100 19:30 29.01.2022
5578 Clouds 14 1034 62 10000 4.12 130 18:44 29.01.2022
5579 Clouds 14 1035 62 10000 1.03 0 17:54 29.01.2022
5580 Clouds 13 1035 62 10000 1.03 0 16:44 29.01.2022
5581 Clouds 13 1035 66 6000 1.03 0 15:25 29.01.2022
5582 Clouds 9 1035 93 6000 2.06 200 13:48 29.01.2022
5583 Clouds 9 1035 93 6000 2.06 200 13:26 29.01.2022
5584 Clouds 8 1035 93 6000 1.03 0 12:52 29.01.2022
5585 Fog 7 1034 100 4000 1.03 0 11:39 29.01.2022
5586 Fog 7 1034 100 4000 1.03 0 10:31 29.01.2022
5587 Clouds 8 1035 100 6000 2.06 190 07:57 29.01.2022
5588 Clouds 11 1034 87 10000 2.06 260 01:37 29.01.2022
5589 Clouds 11 1033 87 10000 3.09 280 00:31 29.01.2022
5590 Clouds 12 1032 81 10000 3.6 100 23:22 28.01.2022
5591 Clouds 12 1032 81 10000 5.14 110 22:42 28.01.2022
5592 Clouds 12 1032 81 10000 5.14 110 22:18 28.01.2022
5593 Clouds 13 1033 82 10000 4.63 100 20:40 28.01.2022
5594 Clouds 13 1033 82 10000 4.63 100 20:40 28.01.2022
5595 Clouds 12 1034 87 10000 5.14 90 19:51 28.01.2022
5596 Clouds 15 1035 62 10000 4.12 110 18:49 28.01.2022
5597 Clouds 14 1015 66 10000 3.09 90 17:46 28.01.2022
5598 Clouds 11 1037 81 6000 1.03 0 15:45 28.01.2022
5599 Fog 10 1037 87 4000 2.06 110 14:18 28.01.2022
5600 Rain 8 1035 100 4000 2.57 100 12:35 28.01.2022
5601 Fog 8 1035 100 4000 3.09 100 11:38 28.01.2022
5602 Fog 8 1035 100 4000 2.57 120 10:21 28.01.2022
5603 Fog 8 1035 100 4000 2.06 110 09:44 28.01.2022
5604 Fog 9 1036 100 4000 2.06 130 07:39 28.01.2022
5605 Fog 10 1037 93 4000 1.54 150 05:23 28.01.2022
5606 Clouds 10 1037 81 10000 2.57 180 03:47 28.01.2022
5607 Clouds 10 1036 87 10000 2.57 120 02:23 28.01.2022
5608 Clouds 10 1035 87 10000 3.09 110 01:34 28.01.2022
5609 Clouds 12 1034 71 10000 3.6 320 23:33 27.01.2022
5610 Clouds 10 1036 81 8000 5.66 310 21:50 27.01.2022
5611 Clouds 10 1036 81 8000 5.66 310 21:30 27.01.2022
5612 Clouds 10 1036 81 8000 5.66 310 21:30 27.01.2022
5613 Clouds 14 1036 71 10000 4.12 120 20:44 27.01.2022
5614 Clouds 12 1036 81 10000 4.63 120 19:21 27.01.2022
5615 Rain 11 1038 87 6000 4.63 120 17:56 27.01.2022
5616 Clouds 8 1038 93 8000 2.57 150 15:30 27.01.2022
5617 Fog 9 1037 93 4000 2.06 220 13:37 27.01.2022
5618 Rain 8 1036 100 10000 2.06 110 12:45 27.01.2022
5619 Clouds 7 1035 100 8000 2.57 260 10:24 27.01.2022
5620 Fog 8 1035 93 4000 1.03 0 08:57 27.01.2022
5621 Fog 8 1035 93 4000 1.03 0 08:34 27.01.2022
5622 Clouds 10 1037 81 10000 1.03 0 05:59 27.01.2022
5623 Thunderstorm 13 1036 62 10000 3.09 200 02:43 27.01.2022
5624 Clouds 16 1033 54 10000 2.57 110 23:32 26.01.2022
5625 Clouds 13 1034 66 10000 3.6 330 21:57 26.01.2022
5626 Clouds 13 1034 66 10000 3.6 330 21:33 26.01.2022
5627 Clouds 17 1035 51 10000 2.57 160 20:36 26.01.2022
5628 Clouds 17 1036 58 10000 6.69 130 19:55 26.01.2022
5629 Clouds 17 1036 58 10000 6.69 130 19:20 26.01.2022
5630 Clouds 16 1037 51 10000 3.6 140 18:40 26.01.2022
5631 Clouds 15 1037 54 10000 3.09 140 17:49 26.01.2022
5632 Clouds 15 1037 54 10000 3.09 140 17:21 26.01.2022
5633 Clouds 14 1038 62 10000 3.09 130 16:27 26.01.2022
5634 Clouds 12 1038 71 6000 1.03 0 15:45 26.01.2022
5635 Fog 8 1037 100 4000 1.03 0 12:54 26.01.2022
5636 Fog 8 1036 93 4000 1.54 80 11:40 26.01.2022
5637 Fog 8 1036 100 4000 1.54 80 10:19 26.01.2022
5638 Fog 9 1036 93 4000 2.06 140 09:42 26.01.2022
5639 Fog 8 1036 100 4000 3.09 130 07:32 26.01.2022
5640 Clouds 13 1034 66 10000 2.57 250 00:48 26.01.2022
5641 Clouds 13 1034 66 10000 2.57 250 00:48 26.01.2022
5642 Clouds 14 1033 62 10000 3.09 260 23:48 25.01.2022
5643 Clouds 15 1033 54 10000 2.06 120 22:50 25.01.2022
5644 Clouds 15 1033 54 10000 2.06 120 22:50 25.01.2022
5645 Clouds 15 1033 54 10000 2.06 120 22:50 25.01.2022
5646 Clouds 15 1033 54 10000 2.06 120 22:21 25.01.2022
5647 Clouds 15 1034 58 10000 4.12 300 21:37 25.01.2022
5648 Clouds 14 1035 66 8000 3.6 110 20:46 25.01.2022
5649 Clouds 13 1035 76 8000 3.6 120 19:59 25.01.2022
5650 Clouds 12 1036 87 8000 4.12 120 19:40 25.01.2022
5651 Clouds 14 1037 66 10000 4.12 110 18:20 25.01.2022
5652 Clouds 15 1037 67 10000 4.63 120 17:40 25.01.2022
5653 Clouds 14 1038 66 10000 4.63 110 16:35 25.01.2022
5654 Clouds 12 1038 76 6000 3.6 90 15:43 25.01.2022
5655 Clouds 12 1038 76 6000 3.6 90 15:25 25.01.2022
5656 Clouds 10 1038 81 6000 2.57 110 14:57 25.01.2022
5657 Fog 7 1037 93 4000 2.57 130 12:32 25.01.2022
5658 Clouds 7 1017 84 10000 2 71 10:00 25.01.2022
5659 Fog 7 1036 100 3000 3.09 80 08:32 25.01.2022
5660 Fog 7 1036 93 3000 2.57 80 07:28 25.01.2022
5661 Fog 7 1037 100 4000 3.09 70 05:55 25.01.2022
5662 Fog 9 1035 100 4000 3.09 110 01:34 25.01.2022
5663 Clouds 9 1034 93 10000 1.03 0 23:36 24.01.2022
5664 Clouds 9 1034 93 10000 1.03 0 23:18 24.01.2022
5665 Clouds 10 1034 87 10000 2.57 260 22:58 24.01.2022
5666 Clouds 10 1034 87 10000 2.57 260 22:40 24.01.2022
5667 Clouds 10 1035 93 8000 2.57 250 21:43 24.01.2022
5668 Clouds 10 1035 93 8000 2.57 250 21:25 24.01.2022
5669 Clouds 10 1035 93 10000 1.03 0 20:28 24.01.2022
5670 Clouds 9 1036 93 7000 1.03 0 19:38 24.01.2022
5671 Thunderstorm 11 1037 87 7000 3.09 60 18:50 24.01.2022
5672 Clouds 11 1037 87 7000 3.6 50 17:43 24.01.2022
5673 Clouds 12 1037 76 10000 5.66 90 17:22 24.01.2022
5674 Clouds 11 1038 81 6000 6.17 100 16:32 24.01.2022
5675 Clouds 10 1038 81 6000 4.12 90 15:51 24.01.2022
5676 Fog 10 1037 93 4000 3.09 120 14:19 24.01.2022
5677 Fog 8 1037 100 500 2.06 110 12:35 24.01.2022
5678 Fog 8 1035 100 4000 2.06 70 11:42 24.01.2022
5679 Fog 8 1035 100 4000 1.54 60 10:19 24.01.2022
5680 Fog 8 1035 100 4000 1.03 0 09:45 24.01.2022
5681 Fog 8 1035 100 4000 1.54 180 08:18 24.01.2022
5682 Fog 9 1036 100 4000 1.03 0 02:26 24.01.2022
5683 Fog 9 1035 100 4000 2.57 110 01:26 24.01.2022
5684 Fog 9 1035 100 4000 2.57 110 01:26 24.01.2022
5685 Clouds 10 1033 87 10000 3.09 110 00:31 24.01.2022
5686 Clouds 11 1033 76 10000 2.06 80 23:40 23.01.2022
5687 Clouds 11 1033 76 10000 1.03 0 22:20 23.01.2022
5688 Clouds 10 1035 81 10000 4.12 30 21:40 23.01.2022
5689 Clouds 10 1035 81 10000 4.12 30 21:20 23.01.2022
5690 Clouds 12 1035 76 8000 4.63 70 20:22 23.01.2022
5691 Clouds 9 1036 100 10000 3.6 320 18:56 23.01.2022
5692 Clouds 9 1036 100 10000 3.6 320 18:24 23.01.2022
5693 Clouds 12 1037 76 8000 1.03 0 16:56 23.01.2022
5694 Clouds 13 1037 71 10000 2.57 170 15:56 23.01.2022
5695 Clouds 10 1037 81 6000 2.06 150 14:50 23.01.2022
5696 Clouds 10 1037 81 6000 2.06 150 14:18 23.01.2022
5697 Fog 8 1036 100 4000 1.03 0 12:45 23.01.2022
5698 Fog 8 1036 100 4000 1.03 0 12:19 23.01.2022
5699 Fog 8 1035 100 4000 1.03 0 11:26 23.01.2022
5700 Fog 8 1034 93 4000 2.57 100 10:57 23.01.2022
5701 Fog 8 1034 93 4000 2.57 100 10:25 23.01.2022
5702 Clouds 8 1035 87 10000 1.03 0 09:31 23.01.2022
5703 Clouds 8 1035 87 10000 2.06 140 08:33 23.01.2022
5704 Clouds 7 1037 93 8000 5.14 240 03:34 23.01.2022
5705 Clouds 11 1034 81 10000 1.03 0 01:37 23.01.2022
5706 Clouds 13 1033 66 10000 1.03 0 00:47 23.01.2022
5707 Clouds 14 1032 62 10000 2.57 90 23:59 22.01.2022
5708 Rain 13 1032 71 10000 1.03 0 22:49 22.01.2022
5709 Rain 13 1032 71 10000 1.03 0 22:19 22.01.2022
5710 Thunderstorm 14 1034 62 10000 2.57 50 20:33 22.01.2022
5711 Thunderstorm 14 1034 66 10000 1.03 0 19:46 22.01.2022
5712 Clouds 16 1036 51 10000 2.57 210 18:37 22.01.2022
5713 Clouds 14 1037 66 10000 2.06 110 17:46 22.01.2022
5714 Clouds 14 1037 66 10000 2.06 110 17:19 22.01.2022
5715 Clouds 13 1037 58 10000 1.03 0 16:54 22.01.2022
5716 Clouds 13 1037 71 10000 1.03 0 15:45 22.01.2022
5717 Fog 9 1037 93 4000 2.06 250 14:52 22.01.2022
5718 Fog 8 1036 93 4000 2.57 270 13:30 22.01.2022
5719 Fog 8 1036 93 4000 1.03 0 12:37 22.01.2022
5720 Fog 8 1036 93 4000 1.03 0 12:19 22.01.2022
5721 Fog 8 1035 93 4000 1.03 0 10:54 22.01.2022
5722 Fog 8 1035 93 4000 1.03 0 10:23 22.01.2022
5723 Clouds 9 1035 87 8000 2.06 100 08:56 22.01.2022
5724 Clouds 9 1035 87 8000 2.06 100 08:38 22.01.2022
5725 Clouds 8 1036 100 8000 1.03 0 06:46 22.01.2022
5726 Clouds 11 1035 76 10000 2.06 120 02:39 22.01.2022
5727 Clouds 10 1033 87 8000 3.6 50 23:50 21.01.2022
5728 Clouds 14 1032 62 8000 4.12 290 22:59 21.01.2022
5729 Clouds 16 1033 47 10000 4.12 90 21:18 21.01.2022
5730 Clouds 18 1035 41 10000 6.17 110 19:30 21.01.2022
5731 Clouds 15 1037 54 10000 5.66 110 17:50 21.01.2022
5732 Clouds 12 1038 71 6000 4.63 110 15:54 21.01.2022
5733 Fog 9 1038 87 4000 3.6 120 14:41 21.01.2022
5734 Fog 8 1037 100 4000 2.57 110 12:43 21.01.2022
5735 Fog 8 1036 93 4000 3.09 90 11:29 21.01.2022
5736 Fog 9 1036 93 4000 2.57 130 10:33 21.01.2022
5737 Fog 9 1036 93 4000 2.06 110 08:58 21.01.2022
5738 Fog 9 1036 93 4000 2.06 100 07:48 21.01.2022
5739 Clouds 12 1035 66 10000 4.12 90 01:48 21.01.2022
5740 Clouds 17 1034 41 10000 4.63 100 22:47 20.01.2022
5741 Clouds 18 1035 39 10000 3.6 160 21:48 20.01.2022
5742 Clouds 18 1035 39 10000 3.6 160 21:25 20.01.2022
5743 Clouds 17 1037 47 10000 5.14 110 19:47 20.01.2022
5744 Clouds 17 1037 47 10000 5.14 110 19:18 20.01.2022
5745 Clouds 15 1039 58 10000 4.12 110 17:37 20.01.2022
5746 Clouds 13 1040 66 10000 3.6 90 15:59 20.01.2022
5747 Clouds 13 1040 66 10000 3.6 90 15:29 20.01.2022
5748 Clouds 11 1040 71 10000 3.09 110 14:18 20.01.2022
5749 Fog 7 1039 93 4000 2.57 130 12:48 20.01.2022
5750 Fog 7 1039 93 4000 2.57 130 12:27 20.01.2022
5751 Fog 7 1038 100 4000 2.57 130 10:59 20.01.2022
5752 Rain 7 1038 93 4000 3.6 120 09:44 20.01.2022
5753 Rain 7 1038 100 4000 3.6 80 08:37 20.01.2022
5754 Fog 8 1039 100 4000 2.06 130 06:19 20.01.2022
5755 Clouds 13 1036 62 10000 3.6 310 23:56 19.01.2022
5756 Clouds 14 1036 54 8000 5.14 30 22:37 19.01.2022
5757 Clouds 16 1036 51 10000 4.63 110 21:26 19.01.2022
5758 Clouds 18 1037 48 10000 4.63 100 20:55 19.01.2022
5759 Clouds 18 1037 48 10000 4.63 100 20:24 19.01.2022
5760 Clouds 15 1038 62 10000 4.63 140 18:49 19.01.2022
5761 Clouds 15 1038 62 10000 4.63 140 18:49 19.01.2022
5762 Clouds 15 1039 58 10000 4.63 140 17:50 19.01.2022
5763 Clouds 12 1040 71 10000 4.63 120 16:59 19.01.2022
5764 Clouds 11 1040 76 6000 2.57 120 14:55 19.01.2022
5765 Fog 8 1039 93 4000 1.03 0 13:20 19.01.2022
5766 Fog 4 1038 100 4000 1.54 60 11:54 19.01.2022
5767 Fog 6 1037 100 4000 1.54 70 10:52 19.01.2022
5768 Fog 6 1037 100 4000 2.06 90 09:35 19.01.2022
5769 Fog 8 1038 93 4000 1.54 120 07:34 19.01.2022
5770 Fog 8 1039 93 4000 1.03 0 05:19 19.01.2022
5771 Clouds 9 1037 81 10000 4.12 270 23:53 18.01.2022
5772 Clouds 9 1037 81 10000 4.12 270 23:18 18.01.2022
5773 Clouds 10 1037 81 8000 3.09 310 21:43 18.01.2022
5774 Clouds 9 1037 93 6000 6.17 70 19:57 18.01.2022
5775 Rain 9 1037 93 6000 6.17 70 19:38 18.01.2022
5776 Clouds 9 1037 93 6000 6.17 70 19:18 18.01.2022
5777 Clouds 14 1037 66 10000 4.63 110 17:59 18.01.2022
5778 Clouds 14 1037 66 10000 4.63 110 17:27 18.01.2022
5779 Clouds 12 1038 71 6000 3.09 110 15:50 18.01.2022
5780 Clouds 12 1038 71 6000 3.09 110 15:23 18.01.2022
5781 Clouds 9 1037 87 6000 3.09 90 13:26 18.01.2022
5782 Clouds 7 1036 100 8000 2.57 10 10:48 18.01.2022
5783 Clouds 8 1035 93 10000 3.09 300 09:29 18.01.2022
5784 Clouds 8 1036 87 10000 1.03 0 07:56 18.01.2022
5785 Clouds 9 1038 87 10000 1.03 0 05:31 18.01.2022
5786 Rain 12 1033 57 10000 2.06 40 23:55 17.01.2022
5787 Clouds 10 1035 76 10000 5.14 300 22:29 17.01.2022
5788 Thunderstorm 12 1035 71 10000 2.57 360 21:35 17.01.2022
5789 Thunderstorm 13 1035 62 10000 4.12 40 20:27 17.01.2022
5790 Clouds 14 1036 54 10000 2.06 270 18:31 17.01.2022
5791 Clouds 9 1037 81 10000 3.09 260 17:51 17.01.2022
5792 Clouds 9 1038 76 10000 4.12 310 16:45 17.01.2022
5793 Clouds 14 1038 58 10000 2.57 280 15:23 17.01.2022
5794 Clouds 12 1038 66 10000 5.14 300 14:56 17.01.2022
5795 Clouds 10 1037 76 10000 4.12 310 13:27 17.01.2022
5796 Clouds 7 1036 93 10000 1.03 0 12:56 17.01.2022
5797 Fog 7 1036 100 4000 0 0 11:49 17.01.2022
5798 Fog 8 1035 93 4000 1.03 0 10:25 17.01.2022
5799 Fog 8 1035 93 4000 1.03 0 10:25 17.01.2022
5800 Fog 8 1036 87 4000 1.03 0 09:34 17.01.2022
5801 Fog 7 1036 100 4000 2.06 60 07:24 17.01.2022
5802 Fog 7 1037 100 4000 3.6 110 06:56 17.01.2022
5803 Clouds 11 1035 71 10000 1.03 0 00:55 17.01.2022
5804 Rain 11 1035 76 10000 1.03 0 22:29 16.01.2022
5805 Rain 12 1037 62 10000 3.6 20 20:36 16.01.2022
5806 Thunderstorm 11 1038 76 8000 5.66 20 18:52 16.01.2022
5807 Clouds 16 1038 58 10000 4.12 130 17:59 16.01.2022
5808 Clouds 16 1038 58 10000 4.12 130 17:21 16.01.2022
5809 Clouds 15 1038 50 10000 3.6 240 16:33 16.01.2022
5810 Clouds 12 1039 66 10000 3.6 300 14:31 16.01.2022
5811 Clouds 9 1038 87 10000 1.03 0 13:46 16.01.2022
5812 Clouds 7 1038 100 10000 1.03 0 12:46 16.01.2022
5813 Fog 6 1037 100 4000 2.06 100 11:41 16.01.2022
5814 Fog 7 1037 100 4000 1.03 0 10:53 16.01.2022
5815 Fog 8 1037 100 4000 2.57 60 09:59 16.01.2022
5816 Fog 8 1037 100 4000 2.57 60 09:40 16.01.2022
5817 Fog 8 1037 100 4000 2.57 60 09:22 16.01.2022
5818 Clouds 9 1038 100 6000 2.06 140 07:30 16.01.2022
5819 Clouds 12 1036 62 10000 2.57 110 00:38 16.01.2022
5820 Clouds 14 1035 58 10000 3.6 100 23:34 15.01.2022
5821 Clouds 10 1037 81 8000 5.14 360 21:23 15.01.2022
5822 Clouds 12 1037 66 8000 5.66 40 20:56 15.01.2022
5823 Clouds 14 1037 54 10000 3.6 60 20:36 15.01.2022
5824 Clouds 15 1038 44 10000 3.09 90 19:28 15.01.2022
5825 Clouds 15 1039 47 10000 3.09 270 18:28 15.01.2022
5826 Clouds 14 1039 58 10000 2.06 110 16:49 15.01.2022
5827 Clouds 12 1040 62 6000 2.57 70 15:38 15.01.2022
5828 Fog 8 1039 87 4000 1.03 0 13:29 15.01.2022
5829 Fog 6 1038 100 4000 2.06 260 11:33 15.01.2022
5830 Fog 6 1037 100 4000 2.57 250 09:46 15.01.2022
5831 Fog 6 1039 100 4000 1.03 0 05:18 15.01.2022
5832 Clouds 12 1035 53 10000 3.6 60 23:32 14.01.2022
5833 Clouds 12 1035 66 10000 5.14 50 21:19 14.01.2022
5834 Clouds 16 1035 33 10000 5.14 80 20:37 14.01.2022
5835 Clouds 16 1036 35 10000 5.14 110 19:55 14.01.2022
5836 Clouds 13 1037 43 10000 3.09 90 18:42 14.01.2022
5837 Clouds 14 1038 50 10000 6.17 100 17:39 14.01.2022
5838 Clouds 14 1038 50 10000 3.6 110 16:43 14.01.2022
5839 Clouds 12 1039 57 10000 1.03 0 15:32 14.01.2022
5840 Clouds 10 1039 76 6000 2.06 170 14:26 14.01.2022
5841 Clouds 8 1037 81 6000 1.03 0 12:58 14.01.2022
5842 Clouds 7 1037 87 10000 1.03 0 11:52 14.01.2022
5843 Clouds 6 1036 93 10000 1.03 0 10:39 14.01.2022
5844 Clouds 8 1036 75 10000 1.03 0 08:53 14.01.2022
5845 Clouds 7 1036 81 10000 1.03 0 07:30 14.01.2022
5846 Clouds 9 1037 76 10000 4.12 320 02:27 14.01.2022
5847 Clouds 13 1035 46 10000 3.6 150 00:21 14.01.2022
5848 Clouds 14 1035 43 10000 5.66 140 21:47 13.01.2022
5849 Clouds 14 1035 43 10000 5.66 140 21:29 13.01.2022
5850 Clouds 18 1037 33 10000 6.17 130 19:47 13.01.2022
5851 Clouds 18 1037 33 10000 6.17 130 19:29 13.01.2022
5852 Clouds 16 1038 38 10000 6.17 130 18:37 13.01.2022
5853 Clouds 13 1040 62 10000 4.63 150 16:52 13.01.2022
5854 Clouds 13 1040 58 10000 4.63 120 15:39 13.01.2022
5855 Clouds 13 1040 58 10000 4.63 120 15:20 13.01.2022
5856 Clouds 10 1039 81 6000 5.66 100 13:29 13.01.2022
5857 Fog 8 1037 93 4000 3.09 120 10:49 13.01.2022
5858 Fog 8 1037 93 4000 3.6 120 09:23 13.01.2022
5859 Fog 8 1038 93 3000 4.63 90 08:29 13.01.2022
5860 Clear 6 1020 83 10000 1.67 30 07:58 13.01.2022
5861 Clouds 6 1020 82 10000 2.03 44 07:18 13.01.2022
5862 Clouds 9 1039 93 10000 1.54 80 05:20 13.01.2022
5863 Clouds 10 1039 81 10000 2.57 130 03:34 13.01.2022
5864 Clouds 11 1037 71 10000 2.06 130 01:38 13.01.2022
5865 Clouds 15 1035 47 10000 4.12 90 23:53 12.01.2022
5866 Clouds 15 1035 47 10000 4.12 90 23:33 12.01.2022
5867 Clouds 15 1036 47 10000 5.66 70 21:58 12.01.2022
5868 Clouds 15 1036 47 10000 5.66 70 21:39 12.01.2022
5869 Clouds 17 1036 41 10000 4.12 110 21:18 12.01.2022
5870 Clouds 17 1037 36 10000 4.12 110 20:41 12.01.2022
5871 Clouds 15 1038 62 10000 6.69 100 18:48 12.01.2022
5872 Clouds 15 1039 67 10000 6.69 130 17:53 12.01.2022
5873 Clouds 13 1039 71 6000 3.6 100 16:42 12.01.2022
5874 Clouds 11 1039 81 6000 3.6 90 14:49 12.01.2022
5875 Fog 9 1039 93 4000 4.12 110 13:40 12.01.2022
5876 Fog 7 1038 100 4000 4.12 100 12:56 12.01.2022
5877 Rain 8 1037 93 10000 2.57 50 08:55 12.01.2022
5878 Fog 8 1037 87 4000 3.6 20 07:57 12.01.2022
5879 Fog 8 1037 87 4000 3.6 20 07:33 12.01.2022
5880 Clouds 9 1038 87 10000 2.06 290 02:20 12.01.2022
5881 Clouds 10 1035 87 10000 4.12 320 23:26 11.01.2022
5882 Clouds 10 1035 81 6000 5.66 340 22:25 11.01.2022
5883 Clouds 16 1034 44 10000 2.57 70 21:28 11.01.2022
5884 Clouds 16 1035 47 10000 4.63 120 20:36 11.01.2022
5885 Clouds 16 1036 47 10000 3.6 70 19:23 11.01.2022
5886 Clouds 15 1038 54 10000 3.09 90 17:46 11.01.2022
5887 Clouds 14 1039 58 10000 3.09 110 16:39 11.01.2022
5888 Clouds 14 1039 58 10000 3.09 110 16:18 11.01.2022
5889 Clouds 11 1039 71 10000 3.09 100 14:48 11.01.2022
5890 Clouds 11 1039 71 10000 3.09 100 14:30 11.01.2022
5891 Clouds 10 1038 76 6000 3.09 120 13:46 11.01.2022
5892 Clouds 10 1038 76 6000 3.09 120 13:25 11.01.2022
5893 Fog 8 1038 93 4000 3.09 120 12:24 11.01.2022
5894 Fog 7 1036 100 4000 3.09 120 10:26 11.01.2022
5895 Fog 8 1037 93 4000 2.06 110 07:38 11.01.2022
5896 Clouds 9 1038 87 10000 3.09 130 03:47 11.01.2022
5897 Rain 11 1036 71 10000 2.06 240 00:25 11.01.2022
5898 Clouds 11 1035 71 10000 4.12 320 23:38 10.01.2022
5899 Rain 12 1034 62 10000 6.69 300 22:20 10.01.2022
5900 Rain 16 1034 41 10000 4.12 30 21:56 10.01.2022
5901 Clouds 16 1034 41 10000 4.12 30 21:33 10.01.2022
5902 Clouds 14 1035 50 10000 6.69 60 20:58 10.01.2022
5903 Clouds 14 1035 50 10000 6.69 60 20:29 10.01.2022
5904 Clouds 15 1036 47 10000 5.66 170 19:48 10.01.2022
5905 Clouds 15 1036 47 10000 5.66 170 19:23 10.01.2022
5906 Clouds 13 1038 58 8000 4.12 50 18:55 10.01.2022
5907 Clouds 13 1038 58 8000 4.12 50 18:37 10.01.2022
5908 Clouds 14 1039 54 10000 4.12 150 16:48 10.01.2022
5909 Clouds 14 1039 54 10000 4.12 150 16:18 10.01.2022
5910 Clouds 12 1039 66 6000 2.06 150 14:41 10.01.2022
5911 Fog 8 1038 93 4000 1.03 0 12:50 10.01.2022
5912 Fog 8 1037 93 4000 3.09 130 11:55 10.01.2022
5913 Rain 7 1036 100 4000 2.06 90 10:46 10.01.2022
5914 Fog 9 1037 93 4000 2.57 130 08:59 10.01.2022
5915 Fog 8 1037 100 4000 3.09 90 05:51 10.01.2022
5916 Clouds 11 1035 81 10000 2.57 90 01:35 10.01.2022
5917 Clouds 12 1034 71 10000 3.09 120 00:44 10.01.2022
5918 Clouds 12 1034 71 10000 3.09 120 00:19 10.01.2022
5919 Clouds 12 1034 66 10000 3.6 300 22:43 09.01.2022
5920 Clouds 14 1035 62 8000 3.6 90 21:47 09.01.2022
5921 Clouds 14 1035 62 8000 3.6 90 21:25 09.01.2022
5922 Clouds 14 1035 62 8000 6.69 110 20:58 09.01.2022
5923 Clouds 14 1035 62 8000 6.69 110 20:39 09.01.2022
5924 Clouds 14 1035 62 8000 6.69 110 20:21 09.01.2022
5925 Clouds 15 1035 58 8000 6.17 110 19:38 09.01.2022
5926 Clouds 16 1036 51 10000 6.17 120 19:18 09.01.2022
5927 Clouds 17 1037 47 10000 4.63 120 18:37 09.01.2022
5928 Clouds 14 1038 58 10000 3.6 120 17:48 09.01.2022
5929 Clouds 14 1038 58 10000 3.6 120 17:29 09.01.2022
5930 Clouds 14 1038 58 6000 2.06 150 16:40 09.01.2022
5931 Clouds 10 1039 76 6000 2.57 180 15:40 09.01.2022
5932 Fog 10 1039 81 4000 2.06 210 14:50 09.01.2022
5933 Fog 10 1039 81 4000 2.06 210 14:23 09.01.2022
5934 Clouds 10 1038 71 6000 3.09 230 13:48 09.01.2022
5935 Fog 8 1037 87 4000 2.57 230 11:56 09.01.2022
5936 Fog 8 1037 87 4000 2.57 230 11:26 09.01.2022
5937 Fog 7 1037 100 4000 2.57 260 09:55 09.01.2022
5938 Fog 8 1037 93 4000 2.57 210 08:59 09.01.2022
5939 Clouds 9 1038 93 10000 2.06 260 06:56 09.01.2022
5940 Clouds 12 1036 57 10000 1.03 0 01:29 09.01.2022
5941 Clouds 13 1035 62 10000 3.6 250 00:37 09.01.2022
5942 Clouds 13 1034 58 10000 4.63 310 23:31 08.01.2022
5943 Clouds 16 1034 41 10000 4.12 90 22:48 08.01.2022
5944 Clouds 18 1034 39 10000 4.63 100 21:28 08.01.2022
5945 Clouds 19 1035 36 10000 6.17 100 20:43 08.01.2022
5946 Clouds 19 1035 36 10000 6.17 100 20:22 08.01.2022
5947 Clouds 18 1036 41 10000 4.12 120 19:22 08.01.2022
5948 Clouds 15 1038 50 10000 2.57 130 17:31 08.01.2022
5949 Rain 13 1039 62 10000 3.6 110 16:42 08.01.2022
5950 Clouds 11 1039 71 10000 5.14 100 15:28 08.01.2022
5951 Fog 8 1039 93 500 3.6 170 13:57 08.01.2022
5952 Fog 7 1037 100 4000 1.03 0 11:30 08.01.2022
5953 Clouds 9 1036 93 10000 0 0 10:33 08.01.2022
5954 Fog 9 1036 93 4000 1.03 0 09:57 08.01.2022
5955 Fog 9 1036 93 4000 1.03 0 09:30 08.01.2022
5956 Clouds 6 1038 100 10000 2.57 90 05:51 08.01.2022
5957 Clouds 10 1035 66 10000 2.57 60 01:24 08.01.2022
5958 Clouds 15 1033 44 10000 4.63 40 23:30 07.01.2022
5959 Clouds 18 1034 41 10000 3.09 100 21:47 07.01.2022
5960 Clouds 14 1035 62 10000 3.09 280 20:26 07.01.2022
5961 Clouds 15 1036 50 10000 4.12 300 19:27 07.01.2022
5962 Clouds 18 1037 41 10000 4.12 80 18:46 07.01.2022
5963 Clouds 18 1037 41 10000 4.12 80 18:18 07.01.2022
5964 Clouds 15 1038 50 10000 4.12 100 17:23 07.01.2022
5965 Clouds 10 1038 81 6000 3.6 140 14:55 07.01.2022
5966 Fog 8 1038 93 4000 3.09 130 13:52 07.01.2022
5967 Fog 8 1037 93 4000 3.6 120 12:50 07.01.2022
5968 Fog 7 1036 93 4000 4.12 110 10:21 07.01.2022
5969 Clouds 10 1036 81 10000 1.03 0 02:59 07.01.2022
5970 Clouds 10 1036 81 10000 1.03 0 02:59 07.01.2022
5971 Clouds 10 1036 81 10000 1.03 0 02:22 07.01.2022
5972 Clouds 10 1035 87 10000 1.03 0 01:48 07.01.2022
5973 Clouds 10 1035 87 10000 1.03 0 01:25 07.01.2022
5974 Clouds 12 1034 76 10000 2.57 290 00:29 07.01.2022
5975 Clouds 12 1034 81 10000 4.12 300 22:33 06.01.2022
5976 Clouds 15 1035 58 10000 3.09 280 20:43 06.01.2022
5977 Clouds 13 1036 58 10000 3.09 250 19:58 06.01.2022
5978 Clouds 13 1036 58 10000 3.09 250 19:36 06.01.2022
5979 Clouds 15 1010 54 10000 5.14 130 17:51 06.01.2022
5980 Clouds 15 1010 54 10000 5.14 130 17:21 06.01.2022
5981 Clouds 16 1037 51 10000 4.12 110 16:31 06.01.2022
5982 Clouds 15 1037 47 10000 2.57 60 15:43 06.01.2022
5983 Clouds 15 1037 47 10000 2.57 60 15:20 06.01.2022
5984 Clouds 14 1037 58 6000 4.12 90 14:19 06.01.2022
5985 Clouds 11 1037 71 6000 4.12 80 13:30 06.01.2022
5986 Fog 9 1036 87 4000 4.12 70 12:20 06.01.2022
5987 Fog 8 1035 87 4000 4.63 50 11:29 06.01.2022
5988 Fog 8 1034 93 4000 4.12 80 09:50 06.01.2022
5989 Clouds 10 1036 61 10000 5.66 60 05:55 06.01.2022
5990 Rain 14 1033 50 10000 2.57 290 23:56 05.01.2022
5991 Rain 14 1033 50 10000 2.57 290 23:21 05.01.2022
5992 Rain 17 1032 41 10000 5.66 100 22:42 05.01.2022
5993 Rain 17 1032 41 10000 5.66 100 22:18 05.01.2022
5994 Clouds 17 1032 44 10000 6.17 110 21:23 05.01.2022
5995 Rain 17 1033 41 10000 4.63 110 20:30 05.01.2022
5996 Clouds 17 1033 41 10000 4.63 110 20:30 05.01.2022
5997 Clouds 18 1034 31 10000 4.12 50 19:28 05.01.2022
5998 Clouds 16 1036 35 10000 6.17 60 17:56 05.01.2022
5999 Clouds 16 1036 44 10000 6.17 60 16:56 05.01.2022
6000 Clouds 15 1036 54 10000 5.14 70 15:46 05.01.2022
6001 Clouds 13 1036 62 10000 4.63 80 14:50 05.01.2022
6002 Clouds 10 1035 87 10000 3.09 100 13:33 05.01.2022
6003 Fog 7 1034 100 3000 3.09 60 11:46 05.01.2022
6004 Clouds 9 1033 81 10000 2.57 330 08:20 05.01.2022
6005 Clouds 10 1034 66 10000 2.57 290 06:36 05.01.2022
6006 Clouds 14 1032 50 10000 4.63 80 00:59 05.01.2022
6007 Clouds 16 1032 38 10000 4.63 90 23:38 04.01.2022
6008 Clouds 16 1032 38 10000 4.63 90 23:18 04.01.2022
6009 Clouds 17 1033 44 10000 5.14 60 21:31 04.01.2022
6010 Clouds 17 1034 44 10000 5.66 170 19:55 04.01.2022
6011 Clouds 19 1034 29 10000 5.14 110 18:19 04.01.2022
6012 Clouds 17 1036 44 10000 4.12 140 16:53 04.01.2022
6013 Clouds 17 1036 44 10000 4.12 140 16:30 04.01.2022
6014 Clouds 14 1036 54 10000 2.57 100 14:54 04.01.2022
6015 Clouds 14 1036 54 10000 2.57 100 14:36 04.01.2022
6016 Clouds 12 1036 66 10000 2.57 70 13:48 04.01.2022
6017 Clouds 6 1034 100 10000 1.03 0 10:59 04.01.2022
6018 Clouds 7 1034 75 10000 2.06 40 09:58 04.01.2022
6019 Clouds 10 1034 66 10000 2.06 340 08:35 04.01.2022
6020 Clouds 10 1036 76 10000 5.14 110 03:39 04.01.2022
6021 Clouds 12 1034 57 10000 2.57 50 00:42 04.01.2022
6022 Clouds 12 1035 71 10000 6.17 80 23:41 03.01.2022
6023 Clouds 12 1035 71 10000 6.17 100 22:21 03.01.2022
6024 Clouds 15 1034 47 8000 7.72 100 21:35 03.01.2022
6025 Clouds 18 1035 31 10000 7.2 210 20:28 03.01.2022
6026 Clouds 20 1037 22 10000 4.12 150 18:54 03.01.2022
6027 Clouds 20 1037 22 10000 4.12 150 18:28 03.01.2022
6028 Clouds 17 1039 41 10000 3.09 130 16:59 03.01.2022
6029 Clouds 16 1039 47 10000 2.57 230 15:40 03.01.2022
6030 Clouds 15 1039 50 10000 2.57 280 14:31 03.01.2022
6031 Clouds 11 1038 87 6000 1.03 0 12:48 03.01.2022
6032 Fog 9 1038 100 4000 3.6 100 11:39 03.01.2022
6033 Fog 9 1037 100 4000 2.06 80 10:37 03.01.2022
6034 Fog 9 1037 93 4000 1.03 0 08:48 03.01.2022
6035 Fog 11 1037 93 4000 1.03 0 07:36 03.01.2022
6036 Clouds 17 1034 38 10000 1.03 0 00:29 03.01.2022
6037 Clouds 19 1033 25 10000 3.6 80 23:22 02.01.2022
6038 Clouds 20 1033 24 10000 3.6 120 22:55 02.01.2022
6039 Clouds 20 1034 22 10000 2.57 140 21:52 02.01.2022
6040 Clouds 22 1035 21 10000 3.09 180 20:41 02.01.2022
6041 Clouds 22 1035 21 10000 3.09 180 20:22 02.01.2022
6042 Clouds 19 1036 25 10000 4.12 160 19:31 02.01.2022
6043 Clouds 19 1037 29 10000 3.09 140 18:47 02.01.2022
6044 Clouds 20 1038 25 10000 3.09 140 17:54 02.01.2022
6045 Clouds 20 1038 25 10000 3.09 140 17:36 02.01.2022
6046 Clouds 20 1038 25 10000 3.09 140 17:18 02.01.2022
6047 Clouds 19 1039 31 10000 2.57 190 16:26 02.01.2022
6048 Clear 15 1039 41 10000 2.06 220 14:32 02.01.2022
6049 Clouds 10 1037 61 10000 1.03 0 12:54 02.01.2022
6050 Clouds 10 1037 61 10000 1.03 0 12:22 02.01.2022
6051 Clouds 5 1037 87 10000 1.03 0 11:32 02.01.2022
6052 Clouds 5 1037 100 10000 1.54 30 10:46 02.01.2022
6053 Clouds 7 1037 93 10000 1.03 0 09:45 02.01.2022
6054 Clouds 10 1039 81 10000 6.69 120 05:21 02.01.2022
6055 Clouds 14 1037 40 10000 8.75 130 01:41 02.01.2022
6056 Clouds 16 1035 30 10000 6.17 360 23:39 01.01.2022
6057 Clouds 17 1035 33 8000 5.14 310 22:57 01.01.2022
6058 Clouds 17 1035 33 8000 5.14 310 22:22 01.01.2022
6059 Clouds 19 1035 34 10000 4.12 200 21:43 01.01.2022
6060 Clouds 22 1035 18 10000 4.12 210 20:53 01.01.2022
6061 Clouds 19 1036 34 10000 3.6 140 19:57 01.01.2022
6062 Clouds 19 1037 36 10000 3.6 200 18:58 01.01.2022
6063 Clouds 17 1038 41 10000 3.6 210 17:58 01.01.2022
6064 Clouds 16 1039 54 10000 2.57 320 16:37 01.01.2022
6065 Clouds 16 1039 54 10000 2.57 320 16:19 01.01.2022
6066 Clouds 14 1040 54 10000 3.6 200 15:22 01.01.2022
6067 Clouds 12 1039 66 10000 3.09 250 13:46 01.01.2022
6068 Clouds 12 1039 66 10000 3.09 250 13:46 01.01.2022
6069 Clouds 9 1038 76 10000 1.03 0 12:49 01.01.2022
6070 Clouds 7 1037 81 10000 1.03 0 11:51 01.01.2022
6071 Clouds 7 1037 81 10000 1.03 0 11:22 01.01.2022
6072 Clouds 8 1038 81 10000 2.57 350 10:26 01.01.2022
6073 Clouds 8 1038 87 10000 2.06 250 09:41 01.01.2022
6074 Clouds 7 1038 93 10000 2.57 240 08:25 01.01.2022
6075 Clouds 9 1038 76 10000 1.03 0 07:43 01.01.2022
6076 Clouds 9 1039 70 10000 2.06 220 06:46 01.01.2022
6077 Rain 9 1040 81 10000 3.6 220 05:26 01.01.2022
6078 Clouds 11 1040 66 8000 3.09 10 04:37 01.01.2022
6079 Clouds 12 1036 57 10000 5.66 50 01:28 01.01.2022
6080 Clouds 19 1034 29 10000 3.6 130 23:35 31.12.2021
6081 Clouds 20 1006 27 10000 3.6 70 21:52 31.12.2021
6082 Clouds 20 1036 27 10000 4.63 120 20:33 31.12.2021
6083 Clouds 20 1037 32 10000 5.14 110 19:30 31.12.2021
6084 Clouds 17 1012 44 10000 5.17 74 18:32 31.12.2021
6085 Clouds 17 1039 38 10000 2.57 130 17:38 31.12.2021
6086 Clouds 17 1039 38 10000 2.57 130 17:18 31.12.2021
6087 Clouds 16 1039 44 10000 3.09 120 16:24 31.12.2021
6088 Clouds 15 1040 47 10000 3.6 160 15:56 31.12.2021
6089 Clouds 15 1040 47 10000 3.6 160 15:28 31.12.2021
6090 Clouds 14 1039 47 10000 3.09 150 14:47 31.12.2021
6091 Clouds 14 1039 47 10000 3.09 150 14:28 31.12.2021
6092 Clouds 13 1038 62 10000 2.57 120 13:36 31.12.2021
6093 Clouds 8 1038 93 10000 1.54 40 12:44 31.12.2021
6094 Clouds 6 1036 93 10000 2.06 10 11:43 31.12.2021
6095 Clouds 6 1036 93 10000 2.06 10 11:20 31.12.2021
6096 Clouds 7 1036 87 10000 2.06 330 10:32 31.12.2021
6097 Clouds 7 1036 93 10000 1.03 0 09:35 31.12.2021
6098 Clouds 7 1036 93 10000 1.03 0 08:56 31.12.2021
6099 Clouds 7 1036 93 10000 1.03 0 08:25 31.12.2021
6100 Clouds 6 1037 93 10000 2.06 60 07:30 31.12.2021
6101 Rain 14 1036 54 10000 5.14 110 23:23 30.12.2021
6102 Clouds 18 1035 41 8000 4.63 110 22:33 30.12.2021
6103 Clouds 20 1035 27 10000 4.63 130 21:54 30.12.2021
6104 Clouds 20 1035 27 10000 4.63 130 21:36 30.12.2021
6105 Clouds 20 1036 29 10000 4.63 130 20:45 30.12.2021
6106 Clouds 20 1036 29 10000 4.63 130 20:24 30.12.2021
6107 Clouds 19 1037 34 10000 3.09 130 19:44 30.12.2021
6108 Clouds 18 1038 39 10000 3.6 140 18:29 30.12.2021
6109 Clouds 17 1039 47 10000 3.09 100 17:45 30.12.2021
6110 Clouds 14 1039 62 10000 2.57 120 15:58 30.12.2021
6111 Clouds 14 1039 62 10000 2.57 120 15:39 30.12.2021
6112 Clouds 13 1039 76 10000 1.03 0 14:37 30.12.2021
6113 Clouds 10 1039 87 10000 1.03 0 13:33 30.12.2021
6114 Fog 6 1039 100 4000 1.03 0 12:29 30.12.2021
6115 Clouds 5 1037 100 10000 1.03 0 10:58 30.12.2021
6116 Clouds 6 1038 100 10000 1.03 0 09:55 30.12.2021
6117 Clouds 8 1037 100 10000 2.06 340 08:49 30.12.2021
6118 Fog 7 1039 100 4000 1.03 0 06:51 30.12.2021
6119 Clouds 8 1038 100 10000 1.03 0 03:41 30.12.2021
6120 Clouds 8 1039 100 10000 2.57 80 02:42 30.12.2021
6121 Clouds 10 1037 87 10000 4.12 290 23:42 29.12.2021
6122 Clouds 10 1037 87 10000 4.12 290 23:22 29.12.2021
6123 Rain 9 1038 93 6000 4.12 120 22:19 29.12.2021
6124 Clouds 12 1037 71 8000 3.09 10 21:27 29.12.2021
6125 Clouds 9 1037 87 8000 4.12 50 20:34 29.12.2021
6126 Clouds 11 1038 81 8000 4.63 50 19:48 29.12.2021
6127 Clouds 14 1039 58 10000 4.63 240 18:47 29.12.2021
6128 Clouds 15 1039 67 10000 4.63 120 17:54 29.12.2021
6129 Clouds 15 1039 67 10000 4.63 120 17:27 29.12.2021
6130 Clouds 15 1040 62 10000 4.12 120 16:24 29.12.2021
6131 Clouds 12 1040 66 10000 2.57 100 15:45 29.12.2021
6132 Fog 9 1039 87 4000 3.09 100 13:55 29.12.2021
6133 Fog 8 1039 100 4000 3.09 120 12:36 29.12.2021
6134 Fog 8 1038 100 2500 3.09 100 11:27 29.12.2021
6135 Fog 8 1038 100 4000 3.09 120 09:56 29.12.2021
6136 Fog 9 1039 93 4000 1.03 0 07:51 29.12.2021
6137 Clouds 9 1039 87 10000 2.06 280 06:38 29.12.2021
6138 Clouds 9 1040 93 10000 1.03 0 05:58 29.12.2021
6139 Clouds 9 1040 93 10000 1.03 0 05:36 29.12.2021
6140 Clouds 11 1038 81 10000 2.57 110 02:22 29.12.2021
6141 Clouds 13 1037 66 10000 1.03 0 00:19 29.12.2021
6142 Clouds 14 1036 54 10000 2.57 70 23:31 28.12.2021
6143 Clouds 16 1036 51 10000 4.63 90 22:29 28.12.2021
6144 Clouds 14 1036 58 10000 2.06 290 21:57 28.12.2021
6145 Clouds 14 1036 58 10000 2.06 290 21:36 28.12.2021
6146 Clouds 15 1037 50 10000 7.2 70 20:35 28.12.2021
6147 Clouds 16 1038 62 10000 5.66 80 18:59 28.12.2021
6148 Clouds 16 1038 62 10000 5.66 80 18:29 28.12.2021
6149 Clouds 15 1038 67 10000 6.69 100 17:48 28.12.2021
6150 Clouds 14 1039 66 6000 6.17 90 16:29 28.12.2021
6151 Clouds 13 1039 82 6000 5.14 100 15:45 28.12.2021
6152 Clouds 13 1039 82 6000 5.14 100 15:19 28.12.2021
6153 Fog 10 1039 93 4000 4.63 110 14:45 28.12.2021
6154 Fog 10 1039 93 4000 4.63 110 14:20 28.12.2021
6155 Fog 9 1038 100 3000 3.6 120 13:38 28.12.2021
6156 Fog 9 1038 100 3000 3.6 120 13:38 28.12.2021
6157 Fog 8 1038 100 3000 3.6 100 12:57 28.12.2021
6158 Rain 8 1038 100 3000 3.6 100 12:38 28.12.2021
6159 Fog 9 1036 100 500 3.09 130 10:52 28.12.2021
6160 Fog 9 1037 100 6000 4.12 100 07:39 28.12.2021
6161 Fog 9 1037 100 2500 2.06 130 06:40 28.12.2021
6162 Clouds 13 1035 66 10000 3.09 80 23:42 27.12.2021
6163 Clouds 15 1034 58 10000 2.57 70 22:31 27.12.2021
6164 Clouds 15 1035 58 10000 3.09 300 21:33 27.12.2021
6165 Clouds 11 1036 87 10000 5.14 240 20:45 27.12.2021
6166 Clouds 15 1037 67 10000 4.63 140 19:56 27.12.2021
6167 Clouds 15 1037 67 10000 4.63 140 19:38 27.12.2021
6168 Clouds 15 1038 54 10000 5.14 100 17:55 27.12.2021
6169 Clouds 15 1038 54 10000 5.14 100 17:29 27.12.2021
6170 Clouds 13 1039 58 10000 4.63 100 16:32 27.12.2021
6171 Clouds 12 1039 62 10000 3.6 110 15:50 27.12.2021
6172 Clouds 12 1039 62 10000 3.09 130 14:29 27.12.2021
6173 Clouds 10 1039 71 10000 2.06 90 13:32 27.12.2021
6174 Clouds 7 1038 93 10000 2.06 80 11:34 27.12.2021
6175 Fog 7 1038 93 4000 2.06 100 10:27 27.12.2021
6176 Fog 7 1038 93 4000 1.03 0 09:38 27.12.2021
6177 Fog 7 1038 93 4000 4.12 170 07:35 27.12.2021
6178 Rain 8 1039 87 4000 3.09 170 06:30 27.12.2021
6179 Clouds 9 1037 87 10000 4.12 280 01:59 27.12.2021
6180 Clouds 12 1036 66 10000 2.06 10 23:50 26.12.2021
6181 Clouds 12 1036 66 10000 2.06 10 23:32 26.12.2021
6182 Clouds 8 1036 93 8000 4.12 340 21:48 26.12.2021
6183 Clouds 9 1037 93 6000 1.03 0 20:25 26.12.2021
6184 Clouds 9 1037 93 6000 5.14 200 19:27 26.12.2021
6185 Clouds 14 1037 62 10000 4.12 90 18:23 26.12.2021
6186 Clouds 13 1039 66 10000 2.06 90 15:55 26.12.2021
6187 Clouds 10 1039 81 10000 2.57 90 13:52 26.12.2021
6188 Clouds 10 1039 81 10000 2.57 90 13:32 26.12.2021
6189 Clouds 9 1037 87 6000 2.57 80 12:37 26.12.2021
6190 Clouds 8 1037 87 10000 2.57 100 11:57 26.12.2021
6191 Clouds 8 1037 87 10000 2.06 60 09:44 26.12.2021
6192 Clouds 8 1037 81 10000 2.57 300 08:59 26.12.2021
6193 Clouds 8 1037 81 10000 2.57 300 08:38 26.12.2021
6194 Clouds 8 1039 93 10000 1.03 0 06:47 26.12.2021
6195 Fog 10 1035 93 4000 4.12 80 00:45 26.12.2021
6196 Clouds 11 1034 87 10000 4.63 110 23:49 25.12.2021
6197 Clouds 11 1034 87 10000 4.63 110 23:25 25.12.2021
6198 Clouds 13 1035 76 10000 4.12 80 22:21 25.12.2021
6199 Rain 13 1035 71 10000 3.09 100 20:36 25.12.2021
6200 Rain 13 1037 76 10000 2.57 80 19:20 25.12.2021
6201 Rain 14 1038 62 10000 2.57 270 18:51 25.12.2021
6202 Clouds 11 1039 87 6000 4.12 280 16:52 25.12.2021
6203 Clouds 11 1039 81 6000 4.63 270 15:54 25.12.2021
6204 Clouds 11 1039 76 6000 2.06 260 14:25 25.12.2021
6205 Clouds 9 1037 87 10000 1.03 0 12:42 25.12.2021
6206 Clouds 8 1036 93 10000 1.03 0 11:21 25.12.2021
6207 Rain 8 1036 93 10000 1.54 270 09:49 25.12.2021
6208 Clouds 8 1037 93 10000 2.06 280 07:51 25.12.2021
6209 Fog 10 1035 100 4000 4.12 100 01:45 25.12.2021
6210 Clouds 11 1034 87 10000 3.6 110 00:27 25.12.2021
6211 Clouds 13 1034 71 10000 3.6 100 22:28 24.12.2021
6212 Clouds 12 1035 87 10000 2.06 310 19:36 24.12.2021
6213 Clouds 10 1036 93 7000 4.12 310 19:18 24.12.2021
6214 Clouds 12 1037 87 8000 4.12 100 16:50 24.12.2021
6215 Clouds 15 1037 71 10000 3.09 100 15:53 24.12.2021
6216 Clouds 15 1037 71 10000 3.09 100 15:34 24.12.2021
6217 Clouds 13 1037 71 6000 2.06 110 14:36 24.12.2021
6218 Clouds 13 1037 71 6000 2.06 110 14:36 24.12.2021
6219 Clouds 13 1037 71 6000 2.06 110 14:18 24.12.2021
6220 Clouds 11 1037 81 6000 1.03 0 13:33 24.12.2021
6221 Fog 10 1036 93 4000 1.03 0 12:47 24.12.2021
6222 Fog 9 1035 100 4000 2.06 90 11:47 24.12.2021
6223 Fog 9 1035 100 4000 2.06 90 11:24 24.12.2021
6224 Fog 9 1035 100 4000 2.06 110 10:45 24.12.2021
6225 Fog 9 1035 100 4000 2.06 110 09:32 24.12.2021
6226 Fog 10 1036 93 4000 1.54 120 08:23 24.12.2021
6227 Fog 9 1036 100 4000 1.54 60 07:46 24.12.2021
6228 Fog 11 1036 87 4000 2.06 110 01:30 24.12.2021
6229 Clouds 13 1035 76 10000 2.57 100 23:55 23.12.2021
6230 Clouds 14 1035 71 10000 4.12 60 22:54 23.12.2021
6231 Clouds 14 1035 71 10000 4.12 60 22:27 23.12.2021
6232 Clouds 13 1035 76 8000 3.09 10 21:59 23.12.2021
6233 Clouds 12 1036 81 8000 2.57 330 20:54 23.12.2021
6234 Clouds 13 1036 76 6000 1.03 0 19:39 23.12.2021
6235 Clouds 14 1037 71 8000 4.63 80 18:34 23.12.2021
6236 Clouds 13 1037 76 8000 3.09 60 17:55 23.12.2021
6237 Clouds 13 1038 66 6000 2.57 120 16:43 23.12.2021
6238 Rain 13 1038 66 6000 2.57 120 16:23 23.12.2021
6239 Rain 12 1038 76 6000 2.57 210 15:31 23.12.2021
6240 Fog 10 1037 93 4000 1.03 0 14:42 23.12.2021
6241 Fog 10 1037 93 4000 1.03 0 14:42 23.12.2021
6242 Fog 10 1037 93 4000 1.03 0 14:19 23.12.2021
6243 Fog 9 1036 93 4000 2.57 220 12:48 23.12.2021
6244 Fog 9 1035 93 4000 1.03 0 10:41 23.12.2021
6245 Fog 9 1034 87 4000 1.03 0 09:34 23.12.2021
6246 Fog 9 1035 100 4000 1.03 0 08:58 23.12.2021
6247 Fog 10 1035 93 4000 2.57 90 06:23 23.12.2021
6248 Clouds 10 1036 100 6000 1.03 0 03:28 23.12.2021
6249 Clouds 13 1032 76 10000 2.06 270 22:55 22.12.2021
6250 Clouds 13 1032 76 10000 2.06 270 22:23 22.12.2021
6251 Clouds 12 1033 81 10000 2.57 290 21:53 22.12.2021
6252 Clouds 12 1033 81 10000 2.57 290 21:27 22.12.2021
6253 Clouds 11 1033 93 6000 4.12 280 20:41 22.12.2021
6254 Rain 10 1034 91 6000 5.66 300 19:59 22.12.2021
6255 Clouds 11 1034 87 6000 3.6 130 18:57 22.12.2021
6256 Rain 12 1035 87 6000 3.6 120 17:39 22.12.2021
6257 Fog 10 1035 93 4000 3.6 140 16:32 22.12.2021
6258 Fog 10 1035 93 4000 3.6 120 15:24 22.12.2021
6259 Fog 9 1034 100 4000 2.57 80 12:59 22.12.2021
6260 Rain 8 1034 100 2000 2.06 200 11:58 22.12.2021
6261 Fog 8 1032 100 4000 2.06 210 09:53 22.12.2021
6262 Fog 8 1033 100 4000 2.06 230 08:58 22.12.2021
6263 Fog 9 1033 93 4000 2.57 280 07:21 22.12.2021
6264 Fog 9 1034 93 4000 3.6 280 05:39 22.12.2021
6265 Fog 9 1034 93 4000 3.6 280 05:20 22.12.2021
6266 Clouds 9 1035 100 6000 3.09 270 04:42 22.12.2021
6267 Rain 9 1035 100 6000 3.09 200 03:54 22.12.2021
6268 Fog 9 1035 100 6000 3.09 200 03:31 22.12.2021
6269 Clouds 13 1031 76 10000 3.6 80 23:49 21.12.2021
6270 Clouds 14 1031 76 10000 4.63 90 22:41 21.12.2021
6271 Clouds 14 1032 71 10000 5.14 100 21:58 21.12.2021
6272 Clouds 14 1032 71 10000 5.14 100 21:33 21.12.2021
6273 Clouds 13 1033 76 10000 4.63 90 20:42 21.12.2021
6274 Clouds 13 1033 76 10000 4.63 90 20:18 21.12.2021
6275 Clouds 12 1034 76 10000 3.6 110 19:34 21.12.2021
6276 Rain 12 1035 71 10000 4.12 100 18:28 21.12.2021
6277 Clouds 11 1036 81 6000 3.09 80 17:58 21.12.2021
6278 Clouds 11 1036 81 6000 3.09 80 17:39 21.12.2021
6279 Clouds 9 1036 93 6000 2.57 120 15:39 21.12.2021
6280 Clouds 8 1036 93 6000 1.03 0 14:21 21.12.2021
6281 Mist 7 1035 100 4000 2.06 80 13:42 21.12.2021
6282 Mist 7 1035 100 3000 2.06 60 12:26 21.12.2021
6283 Rain 7 1033 100 4000 1.54 210 10:38 21.12.2021
6284 Rain 7 1033 100 4000 1.54 200 09:50 21.12.2021
6285 Fog 7 1034 100 4000 1.03 0 08:55 21.12.2021
6286 Rain 7 1035 100 4000 2.06 220 07:44 21.12.2021
6287 Rain 7 1035 100 4000 2.06 220 07:22 21.12.2021
6288 Clouds 9 1036 100 10000 1.03 0 03:26 21.12.2021
6289 Clouds 9 1035 100 6000 2.57 330 01:25 21.12.2021
6290 Clouds 11 1033 93 8000 3.09 260 23:54 20.12.2021
6291 Clouds 11 1033 87 8000 1.03 0 22:35 20.12.2021
6292 Clouds 11 1033 87 6000 4.12 100 21:52 20.12.2021
6293 Clouds 11 1033 87 6000 4.12 100 21:24 20.12.2021
6294 Clouds 12 1033 93 6000 4.63 140 20:54 20.12.2021
6295 Clouds 12 1033 93 6000 4.63 140 20:19 20.12.2021
6296 Clouds 12 1035 87 10000 3.09 60 19:36 20.12.2021
6297 Clouds 12 1035 87 10000 3.09 60 19:18 20.12.2021
6298 Clouds 13 1036 76 10000 4.63 130 18:30 20.12.2021
6299 Clouds 14 1036 66 6000 4.12 110 17:49 20.12.2021
6300 Clouds 14 1036 66 6000 4.12 110 17:49 20.12.2021
6301 Rain 11 1037 81 6000 4.63 130 16:46 20.12.2021
6302 Mist 10 1037 93 4000 5.14 90 15:57 20.12.2021
6303 Rain 10 1037 93 4000 5.14 90 15:31 20.12.2021
6304 Fog 9 1036 93 4000 1.03 0 13:31 20.12.2021
6305 Fog 8 1035 100 4000 2.06 110 11:47 20.12.2021
6306 Rain 8 1034 100 10000 1.54 120 10:35 20.12.2021
6307 Clouds 8 1034 100 10000 2.57 80 09:38 20.12.2021
6308 Clouds 8 1035 100 10000 1.54 50 08:49 20.12.2021
6309 Clouds 8 1035 100 10000 1.54 50 08:31 20.12.2021
6310 Fog 8 1035 100 4000 3.6 140 07:32 20.12.2021
6311 Fog 9 1036 93 4000 1.54 130 06:32 20.12.2021
6312 Fog 9 1036 93 4000 1.54 130 06:32 20.12.2021
6313 Rain 9 1034 93 10000 3.09 70 00:19 20.12.2021
6314 Rain 13 1034 62 10000 6.69 110 22:56 19.12.2021
6315 Rain 14 1034 54 10000 5.14 120 21:58 19.12.2021
6316 Rain 14 1034 54 10000 5.14 120 21:32 19.12.2021
6317 Rain 14 1035 58 10000 5.14 140 20:35 19.12.2021
6318 Rain 15 1036 50 10000 5.66 120 19:53 19.12.2021
6319 Rain 15 1036 50 10000 5.66 120 19:32 19.12.2021
6320 Clouds 16 1037 47 10000 5.66 120 18:35 19.12.2021
6321 Clouds 14 1038 62 10000 4.12 120 17:53 19.12.2021
6322 Clouds 14 1038 62 10000 4.12 120 17:27 19.12.2021
6323 Rain 12 1038 71 10000 2.57 130 16:27 19.12.2021
6324 Rain 12 1038 71 10000 2.57 130 16:27 19.12.2021
6325 Clouds 11 1038 71 10000 1.54 160 15:50 19.12.2021
6326 Clouds 11 1038 71 10000 1.54 160 15:23 19.12.2021
6327 Clouds 9 1038 81 10000 1.54 280 14:44 19.12.2021
6328 Clouds 7 1038 87 10000 2.06 300 13:26 19.12.2021
6329 Clouds 6 1037 93 10000 2.06 320 12:47 19.12.2021
6330 Clouds 6 1037 93 10000 2.06 320 12:28 19.12.2021
6331 Clouds 5 1036 100 10000 1.54 320 11:26 19.12.2021
6332 Clouds 5 1037 100 10000 3.09 250 10:28 19.12.2021
6333 Clouds 6 1037 100 10000 3.09 210 09:48 19.12.2021
6334 Fog 6 1037 100 4000 3.09 210 08:43 19.12.2021
6335 Clouds 9 1038 93 10000 4.63 210 04:45 19.12.2021
6336 Clouds 10 1037 87 8000 5.14 110 01:34 19.12.2021
6337 Clouds 11 1036 87 8000 5.66 130 00:53 19.12.2021
6338 Clouds 12 1035 81 10000 2.06 260 22:42 18.12.2021
6339 Clouds 10 1035 81 10000 1.03 0 21:58 18.12.2021
6340 Clouds 10 1035 81 10000 1.03 0 21:36 18.12.2021
6341 Clouds 10 1036 81 8000 3.09 110 20:44 18.12.2021
6342 Clouds 10 1036 81 8000 3.09 110 20:19 18.12.2021
6343 Clouds 16 1037 58 10000 2.57 280 19:25 18.12.2021
6344 Clouds 15 1038 58 10000 2.57 130 18:22 18.12.2021
6345 Clouds 13 1039 66 10000 3.09 130 17:48 18.12.2021
6346 Clouds 12 1039 66 10000 3.09 330 16:26 18.12.2021
6347 Clouds 13 1039 62 10000 2.06 240 15:27 18.12.2021
6348 Clouds 10 1039 76 10000 1.03 0 14:48 18.12.2021
6349 Clouds 9 1039 81 6000 2.06 210 13:21 18.12.2021
6350 Fog 7 1037 93 4000 2.06 210 11:22 18.12.2021
6351 Rain 7 1037 93 4000 2.57 190 09:40 18.12.2021
6352 Fog 7 1037 100 4000 2.06 180 08:47 18.12.2021
6353 Fog 7 1037 100 4000 2.06 180 08:23 18.12.2021
6354 Fog 9 1038 93 4000 2.06 70 03:42 18.12.2021
6355 Rain 9 1036 87 8000 1.03 0 00:29 18.12.2021
6356 Clouds 10 1035 87 8000 4.12 210 23:44 17.12.2021
6357 Clouds 13 1035 66 10000 4.63 140 21:57 17.12.2021
6358 Clouds 13 1035 66 10000 4.63 140 21:18 17.12.2021
6359 Clouds 14 1036 62 10000 4.63 90 20:38 17.12.2021
6360 Clouds 13 1037 71 10000 6.17 60 19:19 17.12.2021
6361 Rain 13 1038 62 10000 4.63 90 18:38 17.12.2021
6362 Clouds 13 1038 62 10000 4.12 150 17:31 17.12.2021
6363 Clouds 12 1039 66 10000 2.57 110 16:46 17.12.2021
6364 Clouds 12 1039 66 10000 2.57 110 16:22 17.12.2021
6365 Rain 11 1039 71 10000 3.09 170 15:21 17.12.2021
6366 Rain 11 1039 71 10000 3.09 170 15:21 17.12.2021
6367 Clouds 9 1039 81 10000 3.6 180 14:39 17.12.2021
6368 Fog 7 1038 93 4000 2.06 270 12:46 17.12.2021
6369 Fog 6 1037 100 4000 2.06 270 11:34 17.12.2021
6370 Fog 6 1037 100 4000 2.06 290 10:37 17.12.2021
6371 Fog 6 1037 100 4000 2.57 250 08:58 17.12.2021
6372 Fog 6 1037 100 4000 2.57 250 08:29 17.12.2021
6373 Clouds 6 1039 100 10000 3.09 250 05:58 17.12.2021
6374 Clouds 8 1038 93 8000 5.14 230 02:53 17.12.2021
6375 Clouds 10 1035 93 6000 4.63 80 23:23 16.12.2021
6376 Clouds 10 1034 87 10000 4.63 100 22:24 16.12.2021
6377 Clouds 10 1034 87 10000 4.63 100 22:24 16.12.2021
6378 Clouds 10 1034 87 10000 4.63 100 22:24 16.12.2021
6379 Clouds 10 1035 93 8000 4.12 110 21:50 16.12.2021
6380 Clouds 10 1035 93 8000 4.12 110 21:25 16.12.2021
6381 Clouds 11 1035 93 8000 4.63 110 20:28 16.12.2021
6382 Clouds 10 1037 87 6000 4.63 90 19:36 16.12.2021
6383 Clouds 9 1037 100 6000 3.09 60 18:38 16.12.2021
6384 Clouds 10 1038 81 8000 2.06 130 17:49 16.12.2021
6385 Rain 10 1038 81 8000 2.06 130 17:19 16.12.2021
6386 Clouds 8 1038 100 6000 2.57 160 16:20 16.12.2021
6387 Rain 9 1037 87 6000 1.03 0 14:50 16.12.2021
6388 Rain 7 1035 93 4000 1.03 0 12:48 16.12.2021
6389 Fog 6 1035 100 4000 1.03 0 11:19 16.12.2021
6390 Fog 6 1034 100 4000 1.54 80 10:46 16.12.2021
6391 Fog 6 1034 100 4000 1.54 90 09:52 16.12.2021
6392 Clouds 8 1035 93 10000 2.06 60 07:19 16.12.2021
6393 Fog 7 1036 100 4000 2.06 70 06:19 16.12.2021
6394 Clouds 13 1033 54 10000 2.57 130 00:44 16.12.2021
6395 Clouds 15 1032 50 10000 3.6 190 23:21 15.12.2021
6396 Clouds 16 1032 47 10000 2.06 120 22:26 15.12.2021
6397 Clouds 16 1033 51 10000 1.03 0 21:46 15.12.2021
6398 Clouds 16 1033 51 10000 1.03 0 21:26 15.12.2021
6399 Clouds 13 1035 62 10000 3.09 130 19:55 15.12.2021
6400 Rain 13 1035 62 10000 3.09 130 19:19 15.12.2021
6401 Rain 15 1035 58 10000 4.63 140 18:26 15.12.2021
6402 Clouds 14 1036 62 10000 4.63 130 17:47 15.12.2021
6403 Clouds 14 1036 62 10000 4.63 130 17:21 15.12.2021
6404 Clouds 13 1037 58 10000 2.06 150 15:59 15.12.2021
6405 Clouds 13 1037 58 10000 2.06 150 15:41 15.12.2021
6406 Clouds 13 1037 58 10000 2.06 150 15:23 15.12.2021
6407 Clouds 9 1037 87 6000 3.6 70 13:48 15.12.2021
6408 Fog 7 1035 93 4000 2.57 120 11:52 15.12.2021
6409 Clouds 7 1035 93 10000 2.06 70 10:22 15.12.2021
6410 Clouds 8 1035 81 10000 2.06 180 08:27 15.12.2021
6411 Clouds 8 1037 87 10000 2.57 110 05:54 15.12.2021
6412 Clouds 9 1033 76 10000 3.09 200 00:39 15.12.2021
6413 Clouds 9 1032 81 10000 3.6 70 23:31 14.12.2021
6414 Rain 8 1032 93 10000 6.17 70 22:45 14.12.2021
6415 Rain 8 1034 93 4000 7.72 90 21:43 14.12.2021
6416 Rain 9 1034 87 10000 6.17 80 20:23 14.12.2021
6417 Rain 9 1035 87 8000 4.63 70 19:37 14.12.2021
6418 Clouds 12 1035 71 8000 6.17 70 18:39 14.12.2021
6419 Clouds 14 1035 58 8000 3.6 150 17:56 14.12.2021
6420 Clouds 14 1035 47 8000 1.03 0 16:47 14.12.2021
6421 Clouds 14 1036 50 10000 3.6 230 16:28 14.12.2021
6422 Clouds 12 1037 62 10000 2.57 230 14:32 14.12.2021
6423 Clouds 10 1035 76 10000 1.03 0 12:58 14.12.2021
6424 Clouds 6 1035 93 10000 2.06 330 11:44 14.12.2021
6425 Clouds 6 1035 93 10000 2.06 330 11:20 14.12.2021
6426 Clouds 7 1033 93 10000 2.06 220 09:55 14.12.2021
6427 Clouds 9 1034 76 10000 2.57 220 08:58 14.12.2021
6428 Clouds 9 1034 76 10000 2.57 220 08:21 14.12.2021
6429 Clouds 10 1014 66 10000 2.92 336 07:23 14.12.2021
6430 Clouds 17 1031 25 10000 5.14 290 23:52 13.12.2021
6431 Clouds 18 1031 29 10000 3.09 230 22:26 13.12.2021
6432 Clouds 21 1031 24 10000 6.17 290 21:39 13.12.2021
6433 Clouds 21 1032 24 10000 4.12 260 20:54 13.12.2021
6434 Clouds 21 1032 24 10000 4.12 260 20:22 13.12.2021
6435 Clouds 20 1033 27 10000 4.63 250 19:49 13.12.2021
6436 Clouds 17 1034 31 10000 3.09 260 17:39 13.12.2021
6437 Clouds 17 1034 31 10000 3.09 260 17:18 13.12.2021
6438 Clouds 15 1035 33 10000 2.06 170 15:47 13.12.2021
6439 Clouds 13 1035 37 10000 2.06 250 14:43 13.12.2021
6440 Clouds 11 1035 40 10000 1.03 0 13:37 13.12.2021
6441 Clouds 8 1034 52 10000 0 0 12:40 13.12.2021
6442 Clouds 4 1034 80 10000 0 0 11:53 13.12.2021
6443 Clouds 4 1034 80 10000 0 0 11:34 13.12.2021
6444 Clouds 6 1033 70 10000 2.06 360 10:37 13.12.2021
6445 Clouds 6 1033 60 10000 1.03 0 08:44 13.12.2021
6446 Clouds 7 1033 45 10000 1.03 0 06:55 13.12.2021
6447 Clouds 7 1034 60 10000 1.03 0 05:19 13.12.2021
6448 Clouds 15 1030 30 10000 3.09 300 00:27 13.12.2021
6449 Clouds 17 1030 26 10000 6.17 280 21:59 12.12.2021
6450 Clouds 17 1030 26 10000 6.17 280 21:24 12.12.2021
6451 Clouds 17 1032 25 10000 4.63 300 19:36 12.12.2021
6452 Clouds 17 1033 31 10000 5.66 280 18:23 12.12.2021
6453 Clouds 13 1034 37 10000 2.06 270 16:40 12.12.2021
6454 Clouds 12 1034 37 10000 2.57 230 15:58 12.12.2021
6455 Clouds 12 1034 37 10000 2.57 230 15:28 12.12.2021
6456 Clouds 9 1034 57 10000 1.03 0 14:51 12.12.2021
6457 Clouds 9 1034 57 10000 1.03 0 14:18 12.12.2021
6458 Clouds 6 1033 60 10000 2.06 290 12:48 12.12.2021
6459 Clouds 4 1032 69 10000 1.03 0 11:59 12.12.2021
6460 Clouds 4 1032 69 10000 1.03 0 11:32 12.12.2021
6461 Clouds 4 1032 69 10000 1.03 0 10:44 12.12.2021
6462 Clouds 4 1032 69 10000 1.03 0 10:20 12.12.2021
6463 Clouds 5 1032 70 10000 1.03 0 08:46 12.12.2021
6464 Clouds 7 1032 60 10000 1.03 0 07:25 12.12.2021
6465 Clouds 7 1034 65 10000 1.03 0 05:29 12.12.2021
6466 Clouds 8 1034 56 10000 3.6 210 04:19 12.12.2021
6467 Clouds 12 1031 66 6000 4.63 250 00:54 12.12.2021
6468 Clouds 18 1029 44 10000 4.12 260 22:56 11.12.2021
6469 Clouds 18 1029 44 10000 4.12 260 22:20 11.12.2021
6470 Clouds 14 1030 54 10000 3.09 130 21:26 11.12.2021
6471 Clouds 17 1031 51 10000 4.63 300 20:18 11.12.2021
6472 Clouds 17 1031 55 10000 5.66 230 19:21 11.12.2021
6473 Clouds 15 1032 62 10000 4.12 240 18:42 11.12.2021
6474 Clouds 15 1033 58 10000 2.57 350 17:48 11.12.2021
6475 Clouds 12 1035 66 10000 1.03 0 15:58 11.12.2021
6476 Clouds 12 1035 66 10000 1.03 0 15:39 11.12.2021
6477 Clouds 10 1035 76 6000 2.57 310 14:35 11.12.2021
6478 Fog 8 1034 100 4000 1.03 0 12:29 11.12.2021
6479 Clouds 8 1033 100 10000 1.03 0 10:49 11.12.2021
6480 Clouds 8 1032 100 8000 1.03 220 09:40 11.12.2021
6481 Clouds 8 1035 100 8000 0 0 03:57 11.12.2021
6482 Rain 11 1033 76 8000 1.03 0 00:47 11.12.2021
6483 Clouds 12 1032 76 10000 4.12 120 23:42 10.12.2021
6484 Clouds 14 1031 71 10000 3.09 70 22:33 10.12.2021
6485 Clouds 10 1032 76 8000 2.57 110 21:40 10.12.2021
6486 Clouds 10 1034 87 8000 2.06 30 20:22 10.12.2021
6487 Clouds 14 1034 62 8000 6.17 60 19:18 10.12.2021
6488 Clouds 13 1035 66 10000 1.54 240 17:31 10.12.2021
6489 Clouds 14 1036 66 10000 3.09 90 16:34 10.12.2021
6490 Clouds 14 1037 62 10000 3.6 100 15:43 10.12.2021
6491 Clouds 14 1037 62 10000 3.6 100 15:24 10.12.2021
6492 Fog 10 1037 81 6000 3.09 70 13:53 10.12.2021
6493 Fog 10 1037 81 6000 3.09 70 13:31 10.12.2021
6494 Fog 8 1036 93 4000 1.03 0 12:51 10.12.2021
6495 Fog 7 1035 93 3000 1.03 0 11:36 10.12.2021
6496 Fog 8 1035 93 4000 1.03 0 10:55 10.12.2021
6497 Fog 8 1035 93 4000 1.03 0 09:33 10.12.2021
6498 Fog 7 1035 100 4000 2.06 80 07:24 10.12.2021
6499 Fog 10 1037 87 4000 2.57 210 02:53 10.12.2021
6500 Clouds 10 1036 87 10000 2.57 310 01:32 10.12.2021
6501 Clouds 12 1034 76 8000 5.66 100 23:39 09.12.2021
6502 Clouds 14 1033 71 10000 5.14 100 22:41 09.12.2021
6503 Rain 14 1033 71 10000 5.14 100 22:20 09.12.2021
6504 Rain 12 1034 81 10000 4.12 100 21:20 09.12.2021
6505 Rain 12 1035 76 10000 2.06 100 20:34 09.12.2021
6506 Clouds 12 1036 76 8000 1.03 0 19:22 09.12.2021
6507 Rain 11 1036 87 10000 2.06 140 18:53 09.12.2021
6508 Rain 10 1037 87 10000 4.12 270 17:57 09.12.2021
6509 Rain 10 1037 87 10000 4.12 270 17:28 09.12.2021
6510 Clouds 12 1038 76 10000 2.57 80 16:57 09.12.2021
6511 Clouds 12 1038 76 10000 2.57 80 16:20 09.12.2021
6512 Clouds 12 1038 76 6000 2.06 110 14:52 09.12.2021
6513 Fog 10 1038 87 4000 2.57 70 13:50 09.12.2021
6514 Fog 8 1037 93 4000 2.57 110 12:47 09.12.2021
6515 Rain 8 1037 93 4000 2.57 90 11:25 09.12.2021
6516 Fog 8 1036 100 3000 3.6 130 09:45 09.12.2021
6517 Fog 9 1037 93 4000 4.63 100 06:51 09.12.2021
6518 Fog 10 1037 100 3000 3.6 90 03:46 09.12.2021
6519 Clouds 13 1034 82 10000 3.6 80 23:46 08.12.2021
6520 Clouds 13 1034 82 10000 3.6 80 23:26 08.12.2021
6521 Clouds 13 1034 58 10000 1.03 0 22:50 08.12.2021
6522 Clouds 12 1034 71 10000 2.57 40 21:46 08.12.2021
6523 Clouds 12 1034 71 10000 2.57 40 21:28 08.12.2021
6524 Rain 11 1036 81 10000 3.6 350 20:19 08.12.2021
6525 Thunderstorm 11 1037 81 8000 6.17 40 19:37 08.12.2021
6526 Thunderstorm 15 1036 58 8000 4.12 70 18:53 08.12.2021
6527 Clouds 16 1038 62 10000 2.57 130 17:52 08.12.2021
6528 Clouds 13 1039 76 10000 2.57 100 15:58 08.12.2021
6529 Clouds 13 1039 76 10000 2.57 100 15:29 08.12.2021
6530 Fog 9 1039 100 4000 2.57 100 14:50 08.12.2021
6531 Fog 8 1038 100 3000 2.06 200 12:32 08.12.2021
6532 Fog 8 1037 100 4000 2.06 220 10:32 08.12.2021
6533 Fog 8 1037 93 4000 1.03 0 09:30 08.12.2021
6534 Clouds 8 1038 93 8000 2.06 260 07:29 08.12.2021
6535 Clouds 8 1040 93 10000 1.03 0 04:57 08.12.2021
6536 Clouds 14 1034 54 10000 4.12 60 23:34 07.12.2021
6537 Clouds 18 1034 48 10000 5.14 90 21:55 07.12.2021
6538 Clouds 18 1034 48 10000 5.14 90 21:23 07.12.2021
6539 Clouds 17 1036 47 10000 4.63 80 20:24 07.12.2021
6540 Clouds 12 1038 71 8000 4.63 10 18:47 07.12.2021
6541 Clouds 14 1039 58 10000 2.57 140 17:53 07.12.2021
6542 Clouds 14 1039 58 10000 2.57 140 17:20 07.12.2021
6543 Clouds 14 1040 62 10000 3.6 120 16:31 07.12.2021
6544 Clouds 13 1040 66 10000 1.54 110 15:34 07.12.2021
6545 Clouds 11 1040 71 10000 2.57 130 14:23 07.12.2021
6546 Fog 8 1039 87 4000 2.06 80 12:55 07.12.2021
6547 Fog 7 1039 93 4000 1.54 210 11:29 07.12.2021
6548 Fog 7 1038 100 4000 1.03 0 10:36 07.12.2021
6549 Fog 7 1038 100 4000 1.03 0 08:39 07.12.2021
6550 Fog 7 1039 100 3000 4.63 100 06:20 07.12.2021
6551 Fog 7 1040 93 4000 2.06 70 05:37 07.12.2021
6552 Clouds 11 1036 66 10000 5.66 50 23:47 06.12.2021
6553 Clouds 13 1036 62 10000 6.69 50 22:57 06.12.2021
6554 Clouds 13 1036 62 10000 6.69 50 22:35 06.12.2021
6555 Clouds 15 1036 54 10000 6.69 50 21:51 06.12.2021
6556 Clouds 15 1037 54 10000 7.2 60 20:33 06.12.2021
6557 Clouds 14 1038 62 10000 3.6 90 19:56 06.12.2021
6558 Clouds 14 1038 62 10000 3.6 90 19:21 06.12.2021
6559 Clouds 13 1038 71 10000 4.63 120 18:28 06.12.2021
6560 Clouds 12 1039 76 10000 4.63 110 17:40 06.12.2021
6561 Clouds 12 1039 76 10000 4.63 110 17:40 06.12.2021
6562 Clouds 13 1040 71 10000 3.09 80 16:32 06.12.2021
6563 Clouds 12 1040 76 6000 2.57 110 15:38 06.12.2021
6564 Clouds 9 1039 81 6000 3.6 100 13:46 06.12.2021
6565 Fog 9 1038 87 4000 4.12 80 12:39 06.12.2021
6566 Fog 7 1038 93 4000 2.06 100 11:36 06.12.2021
6567 Fog 8 1037 87 4000 1.54 40 08:46 06.12.2021
6568 Fog 9 1038 93 4000 2.57 110 06:40 06.12.2021
6569 Clouds 14 1036 71 10000 4.12 110 22:54 05.12.2021
6570 Clouds 14 1036 71 10000 3.6 150 21:43 05.12.2021
6571 Clouds 14 1036 71 10000 3.6 150 21:19 05.12.2021
6572 Clouds 13 1037 76 10000 4.12 120 20:19 05.12.2021
6573 Clouds 13 1038 71 10000 2.06 40 19:33 05.12.2021
6574 Clouds 10 1039 81 6000 1.03 0 18:43 05.12.2021
6575 Rain 10 1039 81 6000 1.03 0 18:19 05.12.2021
6576 Rain 9 1040 93 6000 1.03 0 17:48 05.12.2021
6577 Rain 9 1040 93 6000 0 0 16:45 05.12.2021
6578 Rain 9 1040 93 6000 0 0 16:26 05.12.2021
6579 Rain 8 1040 93 4000 1.03 0 14:49 05.12.2021
6580 Fog 8 1040 93 4000 1.03 0 14:31 05.12.2021
6581 Rain 7 1040 93 4000 1.03 0 13:50 05.12.2021
6582 Rain 7 1040 93 4000 1.03 0 13:22 05.12.2021
6583 Rain 7 1039 93 4000 1.03 0 12:31 05.12.2021
6584 Clouds 7 1038 93 6000 2.06 240 11:57 05.12.2021
6585 Rain 7 1038 93 6000 2.57 220 10:52 05.12.2021
6586 Rain 7 1038 93 10000 3.6 230 09:59 05.12.2021
6587 Rain 8 1038 100 10000 2.57 290 07:55 05.12.2021
6588 Clouds 10 1038 93 10000 1.03 0 02:28 05.12.2021
6589 Clouds 13 1035 71 10000 2.57 80 23:31 04.12.2021
6590 Clouds 14 1034 66 10000 4.12 130 21:54 04.12.2021
6591 Clouds 15 1036 67 10000 3.09 260 20:50 04.12.2021
6592 Clouds 14 1037 71 10000 2.57 260 19:54 04.12.2021
6593 Clouds 14 1037 71 10000 2.57 260 19:31 04.12.2021
6594 Clouds 10 1038 87 4000 8.23 300 17:58 04.12.2021
6595 Clouds 10 1038 87 4000 8.23 300 17:37 04.12.2021
6596 Clouds 13 1039 71 6000 2.57 120 16:48 04.12.2021
6597 Clouds 13 1039 71 6000 2.57 120 16:30 04.12.2021
6598 Clouds 13 1039 71 6000 2.57 120 16:30 04.12.2021
6599 Fog 9 1038 93 4000 3.6 120 14:39 04.12.2021
6600 Fog 8 1036 93 3000 3.6 110 11:47 04.12.2021
6601 Rain 8 1036 93 10000 4.12 90 11:29 04.12.2021
6602 Rain 8 1035 87 10000 2.06 320 10:42 04.12.2021
6603 Rain 8 1035 93 10000 2.06 270 08:45 04.12.2021
6604 Clouds 7 1036 93 10000 3.09 90 06:24 04.12.2021
6605 Rain 7 1038 100 4000 4.12 80 04:41 04.12.2021
6606 Clouds 13 1033 76 10000 3.6 110 23:49 03.12.2021
6607 Clouds 13 1033 76 10000 3.6 110 23:49 03.12.2021
6608 Clouds 13 1033 71 10000 4.63 80 22:57 03.12.2021
6609 Clouds 13 1033 71 10000 4.63 80 22:38 03.12.2021
6610 Clouds 14 1033 58 10000 3.6 300 21:25 03.12.2021
6611 Clouds 14 1034 58 10000 1.03 0 20:44 03.12.2021
6612 Clouds 10 1035 87 10000 2.57 30 19:36 03.12.2021
6613 Clouds 9 1036 87 8000 4.63 350 18:26 03.12.2021
6614 Rain 11 1037 71 6000 5.14 40 17:44 03.12.2021
6615 Clouds 11 1037 81 6000 2.57 270 14:20 03.12.2021
6616 Fog 8 1036 100 4000 2.57 260 12:52 03.12.2021
6617 Fog 8 1035 100 4000 2.06 260 11:24 03.12.2021
6618 Clouds 8 1034 93 10000 1.54 230 09:57 03.12.2021
6619 Rain 8 1034 93 10000 1.03 0 08:24 03.12.2021
6620 Clouds 8 1035 93 10000 1.03 0 07:37 03.12.2021
6621 Clouds 11 1035 76 10000 2.06 90 01:56 03.12.2021
6622 Rain 12 1034 71 10000 4.63 110 00:47 03.12.2021
6623 Clouds 14 1033 62 10000 3.6 110 23:44 02.12.2021
6624 Clouds 13 1033 62 10000 4.63 90 21:42 02.12.2021
6625 Clouds 14 1034 54 10000 4.12 40 20:57 02.12.2021
6626 Rain 14 1034 54 10000 4.12 40 20:37 02.12.2021
6627 Rain 15 1035 54 10000 5.14 100 19:25 02.12.2021
6628 Clouds 17 1037 41 10000 1.54 90 17:43 02.12.2021
6629 Fog 10 1038 93 4000 2.06 70 15:42 02.12.2021
6630 Fog 10 1037 93 4000 3.09 100 14:59 02.12.2021
6631 Fog 9 1036 100 4000 3.09 90 13:58 02.12.2021
6632 Fog 9 1036 93 4000 3.09 70 12:52 02.12.2021
6633 Fog 9 1036 93 4000 3.09 70 12:18 02.12.2021
6634 Fog 8 1034 100 4000 2.57 90 09:34 02.12.2021
6635 Fog 8 1034 100 4000 2.06 80 08:49 02.12.2021
6636 Fog 9 1036 100 4000 1.03 0 04:54 02.12.2021
6637 Clouds 13 1033 71 10000 2.06 120 00:52 02.12.2021
6638 Clouds 15 1032 54 10000 1.03 0 23:19 01.12.2021
6639 Clouds 16 1032 54 10000 3.09 310 22:23 01.12.2021
6640 Clouds 16 1033 51 10000 3.6 70 20:36 01.12.2021
6641 Clouds 18 1034 41 10000 4.63 90 19:53 01.12.2021
6642 Clouds 18 1034 41 10000 4.63 90 19:28 01.12.2021
6643 Clouds 16 1035 54 10000 2.06 140 17:45 01.12.2021
6644 Clouds 17 1036 55 10000 2.06 230 16:42 01.12.2021
6645 Clouds 14 1036 66 10000 1.03 0 14:52 01.12.2021
6646 Clouds 12 1035 81 6000 2.57 120 13:44 01.12.2021
6647 Clouds 10 1035 81 6000 2.06 100 12:30 01.12.2021
6648 Fog 7 1033 100 4000 2.57 70 10:42 01.12.2021
6649 Mist 8 1033 100 4000 2.57 80 09:19 01.12.2021
6650 Fog 8 1033 100 4000 2.57 90 08:26 01.12.2021
6651 Fog 8 1034 100 4000 3.09 90 07:33 01.12.2021
6652 Fog 10 1035 93 4000 1.54 90 05:51 01.12.2021
6653 Fog 10 1034 100 4000 3.09 90 03:41 01.12.2021
6654 Clouds 13 1032 71 10000 2.57 90 00:52 01.12.2021
6655 Clouds 14 1032 58 10000 1.03 0 23:45 30.11.2021
6656 Clouds 14 1032 58 10000 4.12 270 22:48 30.11.2021
6657 Clouds 16 1032 54 10000 2.57 110 20:59 30.11.2021
6658 Clouds 16 1032 54 10000 2.57 110 20:34 30.11.2021
6659 Clouds 16 1033 54 10000 4.12 100 19:53 30.11.2021
6660 Clouds 16 1033 54 10000 4.12 100 19:30 30.11.2021
6661 Clouds 17 1034 55 10000 4.12 110 18:33 30.11.2021
6662 Clouds 15 1036 67 10000 3.09 120 16:34 30.11.2021
6663 Fog 9 1036 93 4000 2.57 80 14:35 30.11.2021
6664 Fog 9 1035 93 4000 3.09 100 13:52 30.11.2021
6665 Fog 9 1035 93 4000 3.09 100 13:24 30.11.2021
6666 Fog 9 1035 93 4000 3.09 100 13:24 30.11.2021
6667 Fog 8 1035 100 4000 3.09 80 12:44 30.11.2021
6668 Fog 8 1034 100 4000 2.57 90 11:27 30.11.2021
6669 Fog 8 1033 100 2000 2.06 90 10:47 30.11.2021
6670 Fog 8 1033 100 2000 2.06 90 10:29 30.11.2021
6671 Fog 8 1033 100 3000 4.12 90 08:51 30.11.2021
6672 Fog 8 10